Wetterdaten: Freitag, 13.01.2017
Datum Zeit Temp. A. Temp. A. max Feuchte A. Luftdruck Regen Wind Richtung Richtung Sonnenschein ET UV Solar Taupunkt Windböen
13.01.2017 00:00 1,4 °C 1,4 °C 95 % 999,3 hPa 0,2 mm 1,4 km/h (1 Bft) SW 214 ° 0 min 0,000 mm 0,0 UV-I 0 W/m² 0,7 °C 3,2 km/h (1 Bft)
13.01.2017 00:01 1,4 °C 1,4 °C 95 % 999,2 hPa 0,0 mm 0,4 km/h (0 Bft) SW 214 ° 0 min 0,000 mm 0,0 UV-I 0 W/m² 0,7 °C 1,6 km/h (1 Bft)
13.01.2017 00:02 1,3 °C 1,4 °C 95 % 999,2 hPa 0,0 mm 0,2 km/h (0 Bft) SW 214 ° 0 min 0,000 mm 0,0 UV-I 0 W/m² 0,6 °C 1,6 km/h (1 Bft)
13.01.2017 00:03 1,4 °C 1,4 °C 95 % 999,2 hPa 0,0 mm 0,5 km/h (0 Bft) SW 214 ° 0 min 0,000 mm 0,0 UV-I 0 W/m² 0,7 °C 1,6 km/h (1 Bft)
13.01.2017 00:04 1,3 °C 1,4 °C 95 % 999,2 hPa 0,0 mm 1,3 km/h (1 Bft) SW 214 ° 0 min 0,000 mm 0,0 UV-I 0 W/m² 0,6 °C 3,2 km/h (1 Bft)
13.01.2017 00:05 1,3 °C 1,4 °C 95 % 999,1 hPa 0,0 mm 2,6 km/h (1 Bft) S-SW 213 ° 0 min 0,000 mm 0,0 UV-I 0 W/m² 0,6 °C 3,2 km/h (1 Bft)
13.01.2017 00:06 1,4 °C 1,4 °C 95 % 999,0 hPa 0,0 mm 2,3 km/h (1 Bft) S-SW 213 ° 0 min 0,000 mm 0,0 UV-I 0 W/m² 0,7 °C 3,2 km/h (1 Bft)
13.01.2017 00:07 1,3 °C 1,4 °C 95 % 998,9 hPa 0,0 mm 1,9 km/h (1 Bft) S-SW 213 ° 0 min 0,000 mm 0,0 UV-I 0 W/m² 0,6 °C 3,2 km/h (1 Bft)
13.01.2017 00:08 1,3 °C 1,3 °C 95 % 998,9 hPa 0,0 mm 0,9 km/h (0 Bft) S-SW 213 ° 0 min 0,000 mm 0,0 UV-I 0 W/m² 0,6 °C 3,2 km/h (1 Bft)
13.01.2017 00:09 1,3 °C 1,3 °C 95 % 998,9 hPa 0,0 mm 0,9 km/h (0 Bft) S-SW 213 ° 0 min 0,000 mm 0,0 UV-I 0 W/m² 0,6 °C 1,6 km/h (1 Bft)
13.01.2017 00:10 1,3 °C 1,3 °C 95 % 998,9 hPa 0,0 mm 0,7 km/h (0 Bft) S-SW 213 ° 0 min 0,000 mm 0,0 UV-I 0 W/m² 0,6 °C 1,6 km/h (1 Bft)
13.01.2017 00:11 1,3 °C 1,3 °C 95 % 998,9 hPa 0,0 mm 0,0 km/h (0 Bft) S-SW 213 ° 0 min 0,000 mm 0,0 UV-I 0 W/m² 0,6 °C 0,0 km/h (0 Bft)
13.01.2017 00:12 1,3 °C 1,3 °C 95 % 998,9 hPa 0,0 mm 0,0 km/h (0 Bft) S-SW 213 ° 0 min 0,000 mm 0,0 UV-I 0 W/m² 0,6 °C 0,0 km/h (0 Bft)
13.01.2017 00:13 1,4 °C 1,4 °C 95 % 998,9 hPa 0,0 mm 0,0 km/h (0 Bft) S-SW 213 ° 0 min 0,000 mm 0,0 UV-I 0 W/m² 0,7 °C 0,0 km/h (0 Bft)
13.01.2017 00:14 1,3 °C 1,4 °C 95 % 998,8 hPa 0,0 mm 0,0 km/h (0 Bft) S-SW 213 ° 0 min 0,000 mm 0,0 UV-I 0 W/m² 0,6 °C 0,0 km/h (0 Bft)
13.01.2017 00:15 1,3 °C 1,3 °C 95 % 998,8 hPa 0,0 mm 0,0 km/h (0 Bft) S-SW 213 ° 0 min 0,000 mm 0,0 UV-I 0 W/m² 0,6 °C 0,0 km/h (0 Bft)
13.01.2017 00:16 1,3 °C 1,3 °C 95 % 998,9 hPa 0,0 mm 0,0 km/h (0 Bft) S-SW 213 ° 0 min 0,000 mm 0,0 UV-I 0 W/m² 0,6 °C 0,0 km/h (0 Bft)
13.01.2017 00:17 1,3 °C 1,3 °C 95 % 998,9 hPa 0,0 mm 0,0 km/h (0 Bft) S-SW 213 ° 0 min 0,000 mm 0,0 UV-I 0 W/m² 0,6 °C 0,0 km/h (0 Bft)
13.01.2017 00:18 1,3 °C 1,3 °C 95 % 998,8 hPa 0,0 mm 1,1 km/h (1 Bft) S-SW 213 ° 0 min 0,000 mm 0,0 UV-I 0 W/m² 0,6 °C 3,2 km/h (1 Bft)
13.01.2017 00:19 1,3 °C 1,3 °C 95 % 998,8 hPa 0,0 mm 3,2 km/h (1 Bft) S 188 ° 0 min 0,000 mm 0,0 UV-I 0 W/m² 0,6 °C 4,8 km/h (1 Bft)
13.01.2017 00:20 1,3 °C 1,3 °C 95 % 998,7 hPa 0,0 mm 3,4 km/h (1 Bft) S 188 ° 0 min 0,000 mm 0,0 UV-I 0 W/m² 0,6 °C 4,8 km/h (1 Bft)
13.01.2017 00:21 1,3 °C 1,3 °C 95 % 998,7 hPa 0,0 mm 3,1 km/h (1 Bft) S 188 ° 0 min 0,000 mm 0,0 UV-I 0 W/m² 0,6 °C 4,8 km/h (1 Bft)
13.01.2017 00:22 1,3 °C 1,3 °C 95 % 998,6 hPa 0,0 mm 3,2 km/h (1 Bft) SO 138 ° 0 min 0,000 mm 0,0 UV-I 0 W/m² 0,6 °C 3,2 km/h (1 Bft)
13.01.2017 00:23 1,3 °C 1,3 °C 95 % 998,5 hPa 0,0 mm 3,8 km/h (1 Bft) O-SO 120 ° 0 min 0,000 mm 0,0 UV-I 0 W/m² 0,6 °C 4,8 km/h (1 Bft)
13.01.2017 00:24 1,3 °C 1,3 °C 95 % 998,4 hPa 0,0 mm 2,0 km/h (1 Bft) O-SO 120 ° 0 min 0,000 mm 0,0 UV-I 0 W/m² 0,6 °C 3,2 km/h (1 Bft)
13.01.2017 00:25 1,3 °C 1,3 °C 95 % 998,4 hPa 0,0 mm 1,0 km/h (0 Bft) O-SO 120 ° 0 min 0,000 mm 0,0 UV-I 0 W/m² 0,6 °C 1,6 km/h (1 Bft)
13.01.2017 00:26 1,3 °C 1,3 °C 95 % 998,3 hPa 0,0 mm 0,7 km/h (0 Bft) O-SO 120 ° 0 min 0,000 mm 0,0 UV-I 0 W/m² 0,6 °C 1,6 km/h (1 Bft)
13.01.2017 00:27 1,3 °C 1,3 °C 95 % 998,3 hPa 0,0 mm 0,9 km/h (0 Bft) O-SO 120 ° 0 min 0,000 mm 0,0 UV-I 0 W/m² 0,6 °C 1,6 km/h (1 Bft)
13.01.2017 00:28 1,3 °C 1,3 °C 95 % 998,3 hPa 0,0 mm 2,7 km/h (1 Bft) W 266 ° 0 min 0,000 mm 0,0 UV-I 0 W/m² 0,6 °C 4,8 km/h (1 Bft)
13.01.2017 00:29 1,3 °C 1,3 °C 95 % 998,5 hPa 0,0 mm 2,2 km/h (1 Bft) W 263 ° 0 min 0,000 mm 0,0 UV-I 0 W/m² 0,6 °C 3,2 km/h (1 Bft)
13.01.2017 00:30 1,3 °C 1,3 °C 95 % 998,5 hPa 0,0 mm 2,2 km/h (1 Bft) W 263 ° 0 min 0,000 mm 0,0 UV-I 0 W/m² 0,6 °C 3,2 km/h (1 Bft)
13.01.2017 00:31 1,3 °C 1,3 °C 95 % 998,4 hPa 0,0 mm 0,5 km/h (0 Bft) W 263 ° 0 min 0,000 mm 0,0 UV-I 0 W/m² 0,6 °C 1,6 km/h (1 Bft)
13.01.2017 00:32 1,3 °C 1,3 °C 95 % 998,3 hPa 0,0 mm 0,0 km/h (0 Bft) W 263 ° 0 min 0,000 mm 0,0 UV-I 0 W/m² 0,6 °C 0,0 km/h (0 Bft)
13.01.2017 00:33 1,3 °C 1,3 °C 95 % 998,3 hPa 0,0 mm 1,1 km/h (1 Bft) S-SW 196 ° 0 min 0,000 mm 0,0 UV-I 0 W/m² 0,6 °C 3,2 km/h (1 Bft)
13.01.2017 00:34 1,3 °C 1,3 °C 95 % 998,2 hPa 0,0 mm 2,5 km/h (1 Bft) S-SW 196 ° 0 min 0,000 mm 0,0 UV-I 0 W/m² 0,6 °C 3,2 km/h (1 Bft)
13.01.2017 00:35 1,3 °C 1,3 °C 95 % 998,1 hPa 0,0 mm 2,1 km/h (1 Bft) S-SW 196 ° 0 min 0,000 mm 0,0 UV-I 0 W/m² 0,6 °C 3,2 km/h (1 Bft)
13.01.2017 00:36 1,3 °C 1,3 °C 95 % 998,1 hPa 0,0 mm 2,5 km/h (1 Bft) S-SW 196 ° 0 min 0,000 mm 0,0 UV-I 0 W/m² 0,6 °C 3,2 km/h (1 Bft)
13.01.2017 00:37 1,3 °C 1,3 °C 95 % 998,1 hPa 0,0 mm 1,5 km/h (1 Bft) S-SW 196 ° 0 min 0,000 mm 0,0 UV-I 0 W/m² 0,6 °C 3,2 km/h (1 Bft)
13.01.2017 00:38 1,3 °C 1,3 °C 95 % 998,1 hPa 0,0 mm 0,7 km/h (0 Bft) S-SW 196 ° 0 min 0,000 mm 0,0 UV-I 0 W/m² 0,6 °C 3,2 km/h (1 Bft)
13.01.2017 00:39 1,3 °C 1,3 °C 95 % 998,0 hPa 0,2 mm 4,1 km/h (1 Bft) S-SO 152 ° 0 min 0,000 mm 0,0 UV-I 0 W/m² 0,6 °C 4,8 km/h (1 Bft)
13.01.2017 00:40 1,3 °C 1,3 °C 95 % 997,9 hPa 0,0 mm 3,4 km/h (1 Bft) S-SO 152 ° 0 min 0,000 mm 0,0 UV-I 0 W/m² 0,6 °C 4,8 km/h (1 Bft)
13.01.2017 00:41 1,3 °C 1,3 °C 95 % 997,9 hPa 0,0 mm 2,7 km/h (1 Bft) S-SO 152 ° 0 min 0,000 mm 0,0 UV-I 0 W/m² 0,6 °C 3,2 km/h (1 Bft)
13.01.2017 00:42 1,3 °C 1,3 °C 95 % 997,8 hPa 0,0 mm 2,7 km/h (1 Bft) S-SO 152 ° 0 min 0,000 mm 0,0 UV-I 0 W/m² 0,6 °C 3,2 km/h (1 Bft)
13.01.2017 00:43 1,3 °C 1,3 °C 95 % 997,8 hPa 0,0 mm 0,6 km/h (0 Bft) S-SO 152 ° 0 min 0,000 mm 0,0 UV-I 0 W/m² 0,6 °C 1,6 km/h (1 Bft)
13.01.2017 00:44 1,3 °C 1,4 °C 95 % 997,8 hPa 0,0 mm 0,1 km/h (0 Bft) S-SO 152 ° 0 min 0,000 mm 0,0 UV-I 0 W/m² 0,6 °C 1,6 km/h (1 Bft)
13.01.2017 00:45 1,3 °C 1,3 °C 95 % 997,8 hPa 0,0 mm 0,1 km/h (0 Bft) S-SO 152 ° 0 min 0,000 mm 0,0 UV-I 0 W/m² 0,6 °C 1,6 km/h (1 Bft)
13.01.2017 00:46 1,3 °C 1,4 °C 95 % 997,8 hPa 0,0 mm 1,0 km/h (0 Bft) S-SO 152 ° 0 min 0,000 mm 0,0 UV-I 0 W/m² 0,6 °C 1,6 km/h (1 Bft)
13.01.2017 00:47 1,3 °C 1,3 °C 95 % 997,8 hPa 0,0 mm 0,3 km/h (0 Bft) S-SO 152 ° 0 min 0,000 mm 0,0 UV-I 0 W/m² 0,6 °C 1,6 km/h (1 Bft)
13.01.2017 00:48 1,3 °C 1,4 °C 95 % 997,8 hPa 0,0 mm 0,7 km/h (0 Bft) S-SO 152 ° 0 min 0,000 mm 0,0 UV-I 0 W/m² 0,6 °C 1,6 km/h (1 Bft)
13.01.2017 00:49 1,3 °C 1,3 °C 95 % 997,7 hPa 0,0 mm 3,0 km/h (1 Bft) S-SO 152 ° 0 min 0,000 mm 0,0 UV-I 0 W/m² 0,6 °C 4,8 km/h (1 Bft)
13.01.2017 00:50 1,3 °C 1,4 °C 95 % 997,7 hPa 0,0 mm 1,1 km/h (1 Bft) S-SO 152 ° 0 min 0,000 mm 0,0 UV-I 0 W/m² 0,6 °C 3,2 km/h (1 Bft)
13.01.2017 00:51 1,4 °C 1,4 °C 95 % 997,6 hPa 0,0 mm 0,6 km/h (0 Bft) S-SO 152 ° 0 min 0,000 mm 0,0 UV-I 0 W/m² 0,7 °C 1,6 km/h (1 Bft)
13.01.2017 00:52 1,3 °C 1,4 °C 96 % 997,6 hPa 0,0 mm 0,9 km/h (0 Bft) S-SO 152 ° 0 min 0,000 mm 0,0 UV-I 0 W/m² 0,7 °C 1,6 km/h (1 Bft)
13.01.2017 00:53 1,4 °C 1,4 °C 96 % 997,6 hPa 0,0 mm 0,5 km/h (0 Bft) S-SO 152 ° 0 min 0,000 mm 0,0 UV-I 0 W/m² 0,8 °C 1,6 km/h (1 Bft)
13.01.2017 00:54 1,4 °C 1,4 °C 96 % 997,5 hPa 0,0 mm 0,3 km/h (0 Bft) S-SO 152 ° 0 min 0,000 mm 0,0 UV-I 0 W/m² 0,8 °C 1,6 km/h (1 Bft)
13.01.2017 00:55 1,4 °C 1,4 °C 95 % 997,5 hPa 0,0 mm 0,5 km/h (0 Bft) S-SO 152 ° 0 min 0,000 mm 0,0 UV-I 0 W/m² 0,7 °C 1,6 km/h (1 Bft)
13.01.2017 00:56 1,4 °C 1,4 °C 95 % 997,5 hPa 0,0 mm 0,3 km/h (0 Bft) S-SO 152 ° 0 min 0,000 mm 0,0 UV-I 0 W/m² 0,7 °C 1,6 km/h (1 Bft)
13.01.2017 00:57 1,4 °C 1,4 °C 95 % 997,4 hPa 0,0 mm 1,0 km/h (0 Bft) S-SO 152 ° 0 min 0,000 mm 0,0 UV-I 0 W/m² 0,7 °C 1,6 km/h (1 Bft)
13.01.2017 00:58 1,4 °C 1,4 °C 95 % 997,1 hPa 0,0 mm 3,3 km/h (1 Bft) O-SO 112 ° 0 min 0,000 mm 0,0 UV-I 0 W/m² 0,7 °C 6,4 km/h (2 Bft)
13.01.2017 00:59 1,4 °C 1,4 °C 95 % 997,1 hPa 0,0 mm 4,3 km/h (1 Bft) O-SO 112 ° 0 min 0,000 mm 0,0 UV-I 0 W/m² 0,7 °C 4,8 km/h (1 Bft)
13.01.2017 01:00 1,4 °C 1,4 °C 95 % 997,2 hPa 0,0 mm 3,0 km/h (1 Bft) O-SO 112 ° 0 min 0,000 mm 0,0 UV-I 0 W/m² 0,7 °C 4,8 km/h (1 Bft)
13.01.2017 01:01 1,4 °C 1,4 °C 95 % 997,0 hPa 0,0 mm 0,9 km/h (0 Bft) O-SO 112 ° 0 min 0,000 mm 0,0 UV-I 0 W/m² 0,7 °C 3,2 km/h (1 Bft)
13.01.2017 01:02 1,4 °C 1,4 °C 95 % 997,0 hPa 0,0 mm 2,7 km/h (1 Bft) O-SO 112 ° 0 min 0,000 mm 0,0 UV-I 0 W/m² 0,7 °C 4,8 km/h (1 Bft)
13.01.2017 01:03 1,4 °C 1,4 °C 96 % 997,0 hPa 0,0 mm 1,9 km/h (1 Bft) O-SO 112 ° 0 min 0,000 mm 0,0 UV-I 0 W/m² 0,8 °C 3,2 km/h (1 Bft)
13.01.2017 01:04 1,4 °C 1,4 °C 96 % 997,1 hPa 0,0 mm 0,2 km/h (0 Bft) O-SO 112 ° 0 min 0,000 mm 0,0 UV-I 0 W/m² 0,8 °C 1,6 km/h (1 Bft)
13.01.2017 01:05 1,5 °C 1,5 °C 96 % 997,1 hPa 0,0 mm 0,5 km/h (0 Bft) O-SO 112 ° 0 min 0,000 mm 0,0 UV-I 0 W/m² 0,9 °C 1,6 km/h (1 Bft)
13.01.2017 01:06 1,6 °C 1,6 °C 96 % 997,1 hPa 0,0 mm 3,2 km/h (1 Bft) W 262 ° 0 min 0,000 mm 0,0 UV-I 0 W/m² 1,0 °C 6,4 km/h (2 Bft)
13.01.2017 01:07 1,5 °C 1,6 °C 96 % 997,1 hPa 0,0 mm 3,6 km/h (1 Bft) W-SW 255 ° 0 min 0,000 mm 0,0 UV-I 0 W/m² 0,9 °C 4,8 km/h (1 Bft)
13.01.2017 01:08 1,6 °C 1,6 °C 96 % 996,9 hPa 0,0 mm 1,2 km/h (1 Bft) W-SW 255 ° 0 min 0,000 mm 0,0 UV-I 0 W/m² 1,0 °C 4,8 km/h (1 Bft)
13.01.2017 01:09 1,6 °C 1,6 °C 96 % 996,9 hPa 0,0 mm 0,0 km/h (0 Bft) W-SW 255 ° 0 min 0,000 mm 0,0 UV-I 0 W/m² 1,0 °C 0,0 km/h (0 Bft)
13.01.2017 01:10 1,6 °C 1,6 °C 96 % 996,9 hPa 0,0 mm 1,8 km/h (1 Bft) W-SW 255 ° 0 min 0,000 mm 0,0 UV-I 0 W/m² 1,0 °C 3,2 km/h (1 Bft)
13.01.2017 01:11 1,6 °C 1,6 °C 96 % 996,9 hPa 0,0 mm 1,9 km/h (1 Bft) W-SW 255 ° 0 min 0,000 mm 0,0 UV-I 0 W/m² 1,0 °C 3,2 km/h (1 Bft)
13.01.2017 01:12 1,6 °C 1,6 °C 96 % 997,0 hPa 0,0 mm 0,7 km/h (0 Bft) W-SW 255 ° 0 min 0,000 mm 0,0 UV-I 0 W/m² 1,0 °C 3,2 km/h (1 Bft)
13.01.2017 01:13 1,6 °C 1,6 °C 96 % 996,9 hPa 0,0 mm 0,0 km/h (0 Bft) W-SW 255 ° 0 min 0,000 mm 0,0 UV-I 0 W/m² 1,0 °C 0,0 km/h (0 Bft)
13.01.2017 01:14 1,6 °C 1,6 °C 96 % 996,9 hPa 0,0 mm 1,5 km/h (1 Bft) W-SW 255 ° 0 min 0,000 mm 0,0 UV-I 0 W/m² 1,0 °C 3,2 km/h (1 Bft)
13.01.2017 01:15 1,6 °C 1,6 °C 96 % 996,8 hPa 0,0 mm 2,0 km/h (1 Bft) W-SW 255 ° 0 min 0,000 mm 0,0 UV-I 0 W/m² 1,0 °C 3,2 km/h (1 Bft)
13.01.2017 01:16 1,6 °C 1,6 °C 96 % 996,9 hPa 0,0 mm 1,2 km/h (1 Bft) W-SW 255 ° 0 min 0,000 mm 0,0 UV-I 0 W/m² 1,0 °C 3,2 km/h (1 Bft)
13.01.2017 01:17 1,6 °C 1,6 °C 96 % 996,8 hPa 0,0 mm 0,7 km/h (0 Bft) W-SW 255 ° 0 min 0,000 mm 0,0 UV-I 0 W/m² 1,0 °C 1,6 km/h (1 Bft)
13.01.2017 01:18 1,6 °C 1,6 °C 96 % 996,8 hPa 0,0 mm 1,7 km/h (1 Bft) W-SW 255 ° 0 min 0,000 mm 0,0 UV-I 0 W/m² 1,0 °C 3,2 km/h (1 Bft)
13.01.2017 01:19 1,6 °C 1,7 °C 96 % 996,8 hPa 0,0 mm 3,1 km/h (1 Bft) S-SO 151 ° 0 min 0,000 mm 0,0 UV-I 0 W/m² 1,0 °C 4,8 km/h (1 Bft)
13.01.2017 01:20 1,7 °C 1,7 °C 96 % 996,6 hPa 0,0 mm 3,5 km/h (1 Bft) O-SO 121 ° 0 min 0,000 mm 0,0 UV-I 0 W/m² 1,1 °C 4,8 km/h (1 Bft)
13.01.2017 01:21 1,7 °C 1,7 °C 96 % 996,6 hPa 0,0 mm 3,9 km/h (1 Bft) O-SO 117 ° 0 min 0,000 mm 0,0 UV-I 0 W/m² 1,1 °C 4,8 km/h (1 Bft)
13.01.2017 01:22 1,7 °C 1,7 °C 96 % 996,5 hPa 0,0 mm 2,9 km/h (1 Bft) O-SO 117 ° 0 min 0,000 mm 0,0 UV-I 0 W/m² 1,1 °C 3,2 km/h (1 Bft)
13.01.2017 01:23 1,8 °C 1,8 °C 96 % 996,5 hPa 0,0 mm 3,4 km/h (1 Bft) O-SO 117 ° 0 min 0,000 mm 0,0 UV-I 0 W/m² 1,2 °C 4,8 km/h (1 Bft)
13.01.2017 01:24 1,8 °C 1,8 °C 96 % 996,5 hPa 0,0 mm 2,8 km/h (1 Bft) O-SO 117 ° 0 min 0,000 mm 0,0 UV-I 0 W/m² 1,2 °C 3,2 km/h (1 Bft)
13.01.2017 01:25 1,8 °C 1,8 °C 96 % 996,4 hPa 0,0 mm 2,7 km/h (1 Bft) O-SO 117 ° 0 min 0,000 mm 0,0 UV-I 0 W/m² 1,2 °C 4,8 km/h (1 Bft)
13.01.2017 01:26 1,8 °C 1,8 °C 96 % 996,4 hPa 0,0 mm 2,2 km/h (1 Bft) O-SO 117 ° 0 min 0,000 mm 0,0 UV-I 0 W/m² 1,2 °C 3,2 km/h (1 Bft)
13.01.2017 01:27 1,9 °C 1,9 °C 96 % 996,3 hPa 0,0 mm 1,4 km/h (1 Bft) S-SO 157 ° 0 min 0,000 mm 0,0 UV-I 0 W/m² 1,3 °C 4,8 km/h (1 Bft)
13.01.2017 01:28 2,0 °C 2,0 °C 96 % 996,2 hPa 0,0 mm 1,6 km/h (1 Bft) S-SO 157 ° 0 min 0,000 mm 0,0 UV-I 0 W/m² 1,4 °C 4,8 km/h (1 Bft)
13.01.2017 01:29 2,1 °C 2,1 °C 96 % 996,3 hPa 0,0 mm 0,9 km/h (0 Bft) S-SO 157 ° 0 min 0,000 mm 0,0 UV-I 0 W/m² 1,5 °C 3,2 km/h (1 Bft)
13.01.2017 01:30 2,1 °C 2,1 °C 96 % 996,2 hPa 0,0 mm 4,5 km/h (1 Bft) W-NW 292 ° 0 min 0,000 mm 0,0 UV-I 0 W/m² 1,5 °C 6,4 km/h (2 Bft)
13.01.2017 01:31 2,1 °C 2,1 °C 96 % 996,2 hPa 0,0 mm 2,4 km/h (1 Bft) W-NW 292 ° 0 min 0,000 mm 0,0 UV-I 0 W/m² 1,5 °C 3,2 km/h (1 Bft)
13.01.2017 01:32 2,1 °C 2,1 °C 96 % 996,2 hPa 0,0 mm 2,0 km/h (1 Bft) W-NW 292 ° 0 min 0,000 mm 0,0 UV-I 0 W/m² 1,5 °C 3,2 km/h (1 Bft)
13.01.2017 01:33 2,1 °C 2,1 °C 96 % 996,2 hPa 0,0 mm 1,1 km/h (1 Bft) W-NW 292 ° 0 min 0,000 mm 0,0 UV-I 0 W/m² 1,5 °C 1,6 km/h (1 Bft)
13.01.2017 01:34 2,1 °C 2,1 °C 96 % 996,0 hPa 0,0 mm 0,5 km/h (0 Bft) W-NW 292 ° 0 min 0,000 mm 0,0 UV-I 0 W/m² 1,5 °C 1,6 km/h (1 Bft)
13.01.2017 01:35 2,1 °C 2,1 °C 96 % 996,1 hPa 0,0 mm 0,0 km/h (0 Bft) W-NW 292 ° 0 min 0,000 mm 0,0 UV-I 0 W/m² 1,5 °C 0,0 km/h (0 Bft)
13.01.2017 01:36 2,0 °C 2,1 °C 96 % 996,1 hPa 0,0 mm 0,3 km/h (0 Bft) W-NW 292 ° 0 min 0,000 mm 0,0 UV-I 0 W/m² 1,4 °C 1,6 km/h (1 Bft)
13.01.2017 01:37 2,0 °C 2,0 °C 96 % 996,0 hPa 0,0 mm 0,0 km/h (0 Bft) W-NW 292 ° 0 min 0,000 mm 0,0 UV-I 0 W/m² 1,4 °C 0,0 km/h (0 Bft)
13.01.2017 01:38 1,9 °C 2,0 °C 96 % 996,0 hPa 0,0 mm 0,2 km/h (0 Bft) W-NW 292 ° 0 min 0,000 mm 0,0 UV-I 0 W/m² 1,3 °C 1,6 km/h (1 Bft)
13.01.2017 01:39 1,9 °C 2,0 °C 96 % 996,0 hPa 0,0 mm 2,1 km/h (1 Bft) W-NW 292 ° 0 min 0,000 mm 0,0 UV-I 0 W/m² 1,3 °C 3,2 km/h (1 Bft)
13.01.2017 01:40 1,9 °C 1,9 °C 96 % 996,0 hPa 0,0 mm 4,4 km/h (1 Bft) W 275 ° 0 min 0,000 mm 0,0 UV-I 0 W/m² 1,3 °C 6,4 km/h (2 Bft)
13.01.2017 01:41 1,8 °C 1,9 °C 96 % 996,1 hPa 0,0 mm 2,6 km/h (1 Bft) W 271 ° 0 min 0,000 mm 0,0 UV-I 0 W/m² 1,2 °C 4,8 km/h (1 Bft)
13.01.2017 01:42 1,8 °C 1,8 °C 96 % 995,8 hPa 0,0 mm 2,5 km/h (1 Bft) W 271 ° 0 min 0,000 mm 0,0 UV-I 0 W/m² 1,2 °C 3,2 km/h (1 Bft)
13.01.2017 01:43 1,8 °C 1,8 °C 96 % 995,9 hPa 0,0 mm 0,5 km/h (0 Bft) W 271 ° 0 min 0,000 mm 0,0 UV-I 0 W/m² 1,2 °C 1,6 km/h (1 Bft)
13.01.2017 01:44 1,8 °C 1,8 °C 96 % 995,7 hPa 0,0 mm 0,5 km/h (0 Bft) W 271 ° 0 min 0,000 mm 0,0 UV-I 0 W/m² 1,2 °C 1,6 km/h (1 Bft)
13.01.2017 01:45 1,8 °C 1,8 °C 96 % 995,7 hPa 0,0 mm 0,5 km/h (0 Bft) W 271 ° 0 min 0,000 mm 0,0 UV-I 0 W/m² 1,2 °C 1,6 km/h (1 Bft)
13.01.2017 01:46 1,7 °C 1,8 °C 95 % 995,6 hPa 0,0 mm 1,5 km/h (1 Bft) S 171 ° 0 min 0,000 mm 0,0 UV-I 0 W/m² 1,0 °C 3,2 km/h (1 Bft)
13.01.2017 01:47 1,7 °C 1,7 °C 95 % 995,6 hPa 0,0 mm 4,4 km/h (1 Bft) S-SO 157 ° 0 min 0,000 mm 0,0 UV-I 0 W/m² 1,0 °C 6,4 km/h (2 Bft)
13.01.2017 01:48 1,7 °C 1,7 °C 95 % 995,5 hPa 0,0 mm 3,4 km/h (1 Bft) S-SO 157 ° 0 min 0,000 mm 0,0 UV-I 0 W/m² 1,0 °C 8,0 km/h (2 Bft)
13.01.2017 01:49 1,7 °C 1,7 °C 95 % 995,6 hPa 0,0 mm 0,1 km/h (0 Bft) S-SO 157 ° 0 min 0,000 mm 0,0 UV-I 0 W/m² 1,0 °C 1,6 km/h (1 Bft)
13.01.2017 01:50 1,6 °C 1,7 °C 95 % 995,6 hPa 0,0 mm 2,6 km/h (1 Bft) W-SW 252 ° 0 min 0,000 mm 0,0 UV-I 0 W/m² 0,9 °C 4,8 km/h (1 Bft)
13.01.2017 01:51 1,6 °C 1,7 °C 95 % 995,6 hPa 0,0 mm 2,8 km/h (1 Bft) W-SW 252 ° 0 min 0,000 mm 0,0 UV-I 0 W/m² 0,9 °C 4,8 km/h (1 Bft)
13.01.2017 01:52 1,6 °C 1,6 °C 96 % 995,6 hPa 0,0 mm 3,8 km/h (1 Bft) W-SW 252 ° 0 min 0,000 mm 0,0 UV-I 0 W/m² 1,0 °C 4,8 km/h (1 Bft)
13.01.2017 01:53 1,6 °C 1,6 °C 96 % 995,6 hPa 0,0 mm 0,6 km/h (0 Bft) W-SW 252 ° 0 min 0,000 mm 0,0 UV-I 0 W/m² 1,0 °C 1,6 km/h (1 Bft)
13.01.2017 01:54 1,6 °C 1,6 °C 96 % 995,6 hPa 0,0 mm 1,3 km/h (1 Bft) W-SW 252 ° 0 min 0,000 mm 0,0 UV-I 0 W/m² 1,0 °C 3,2 km/h (1 Bft)
13.01.2017 01:55 1,5 °C 1,6 °C 96 % 995,6 hPa 0,0 mm 1,5 km/h (1 Bft) W 267 ° 0 min 0,000 mm 0,0 UV-I 0 W/m² 0,9 °C 3,2 km/h (1 Bft)
13.01.2017 01:56 1,5 °C 1,5 °C 96 % 995,6 hPa 0,0 mm 2,4 km/h (1 Bft) W-NW 298 ° 0 min 0,000 mm 0,0 UV-I 0 W/m² 0,9 °C 4,8 km/h (1 Bft)
13.01.2017 01:57 1,4 °C 1,5 °C 95 % 995,6 hPa 0,0 mm 1,9 km/h (1 Bft) W-NW 298 ° 0 min 0,000 mm 0,0 UV-I 0 W/m² 0,7 °C 3,2 km/h (1 Bft)
13.01.2017 01:58 1,4 °C 1,4 °C 95 % 995,6 hPa 0,0 mm 2,4 km/h (1 Bft) W-NW 298 ° 0 min 0,000 mm 0,0 UV-I 0 W/m² 0,7 °C 3,2 km/h (1 Bft)
13.01.2017 01:59 1,4 °C 1,4 °C 95 % 995,6 hPa 0,0 mm 0,7 km/h (0 Bft) W-NW 298 ° 0 min 0,000 mm 0,0 UV-I 0 W/m² 0,7 °C 1,6 km/h (1 Bft)
13.01.2017 02:00 1,4 °C 1,4 °C 95 % 995,5 hPa 0,0 mm 0,9 km/h (0 Bft) W-NW 298 ° 0 min 0,000 mm 0,0 UV-I 0 W/m² 0,7 °C 1,6 km/h (1 Bft)
13.01.2017 02:01 1,4 °C 1,4 °C 95 % 995,5 hPa 0,0 mm 1,0 km/h (0 Bft) W-NW 298 ° 0 min 0,000 mm 0,0 UV-I 0 W/m² 0,7 °C 1,6 km/h (1 Bft)
13.01.2017 02:02 1,4 °C 1,4 °C 95 % 995,4 hPa 0,0 mm 1,5 km/h (1 Bft) W-NW 298 ° 0 min 0,000 mm 0,0 UV-I 0 W/m² 0,7 °C 3,2 km/h (1 Bft)
13.01.2017 02:03 1,3 °C 1,4 °C 95 % 995,4 hPa 0,0 mm 3,9 km/h (1 Bft) W-NW 298 ° 0 min 0,000 mm 0,0 UV-I 0 W/m² 0,6 °C 4,8 km/h (1 Bft)
13.01.2017 02:04 1,3 °C 1,4 °C 95 % 995,2 hPa 0,0 mm 3,2 km/h (1 Bft) W-NW 298 ° 0 min 0,000 mm 0,0 UV-I 0 W/m² 0,6 °C 4,8 km/h (1 Bft)
13.01.2017 02:05 1,3 °C 1,3 °C 95 % 995,3 hPa 0,0 mm 2,7 km/h (1 Bft) S-SW 199 ° 0 min 0,000 mm 0,0 UV-I 0 W/m² 0,6 °C 4,8 km/h (1 Bft)
13.01.2017 02:06 1,3 °C 1,3 °C 95 % 995,3 hPa 0,0 mm 0,5 km/h (0 Bft) S-SW 199 ° 0 min 0,000 mm 0,0 UV-I 0 W/m² 0,6 °C 1,6 km/h (1 Bft)
13.01.2017 02:07 1,3 °C 1,3 °C 95 % 995,2 hPa 0,0 mm 0,9 km/h (0 Bft) S-SW 199 ° 0 min 0,000 mm 0,0 UV-I 0 W/m² 0,6 °C 3,2 km/h (1 Bft)
13.01.2017 02:08 1,3 °C 1,3 °C 95 % 995,2 hPa 0,0 mm 0,9 km/h (0 Bft) S-SW 199 ° 0 min 0,000 mm 0,0 UV-I 0 W/m² 0,6 °C 1,6 km/h (1 Bft)
13.01.2017 02:09 1,3 °C 1,3 °C 95 % 995,2 hPa 0,0 mm 2,5 km/h (1 Bft) W-NW 282 ° 0 min 0,000 mm 0,0 UV-I 0 W/m² 0,6 °C 3,2 km/h (1 Bft)
13.01.2017 02:10 1,3 °C 1,3 °C 96 % 995,2 hPa 0,0 mm 3,4 km/h (1 Bft) W-NW 284 ° 0 min 0,000 mm 0,0 UV-I 0 W/m² 0,7 °C 4,8 km/h (1 Bft)
13.01.2017 02:11 1,3 °C 1,3 °C 95 % 995,2 hPa 0,0 mm 0,4 km/h (0 Bft) W-NW 284 ° 0 min 0,000 mm 0,0 UV-I 0 W/m² 0,6 °C 1,6 km/h (1 Bft)
13.01.2017 02:12 1,3 °C 1,3 °C 95 % 995,2 hPa 0,0 mm 0,3 km/h (0 Bft) W-NW 284 ° 0 min 0,000 mm 0,0 UV-I 0 W/m² 0,6 °C 1,6 km/h (1 Bft)
13.01.2017 02:13 1,3 °C 1,3 °C 96 % 995,0 hPa 0,0 mm 2,3 km/h (1 Bft) W-NW 284 ° 0 min 0,000 mm 0,0 UV-I 0 W/m² 0,7 °C 3,2 km/h (1 Bft)
13.01.2017 02:14 1,3 °C 1,3 °C 95 % 995,0 hPa 0,0 mm 2,0 km/h (1 Bft) W-NW 284 ° 0 min 0,000 mm 0,0 UV-I 0 W/m² 0,6 °C 3,2 km/h (1 Bft)
13.01.2017 02:15 1,3 °C 1,3 °C 95 % 995,0 hPa 0,0 mm 0,2 km/h (0 Bft) W-NW 284 ° 0 min 0,000 mm 0,0 UV-I 0 W/m² 0,6 °C 1,6 km/h (1 Bft)
13.01.2017 02:16 1,3 °C 1,3 °C 95 % 995,1 hPa 0,0 mm 2,6 km/h (1 Bft) W-NW 288 ° 0 min 0,000 mm 0,0 UV-I 0 W/m² 0,6 °C 4,8 km/h (1 Bft)
13.01.2017 02:17 1,2 °C 1,3 °C 95 % 995,3 hPa 0,0 mm 3,6 km/h (1 Bft) W 268 ° 0 min 0,000 mm 0,0 UV-I 0 W/m² 0,5 °C 4,8 km/h (1 Bft)
13.01.2017 02:18 1,2 °C 1,3 °C 95 % 995,2 hPa 0,0 mm 2,3 km/h (1 Bft) S-SW 202 ° 0 min 0,000 mm 0,0 UV-I 0 W/m² 0,5 °C 4,8 km/h (1 Bft)
13.01.2017 02:19 1,2 °C 1,2 °C 95 % 995,1 hPa 0,0 mm 4,6 km/h (1 Bft) SO 143 ° 0 min 0,000 mm 0,0 UV-I 0 W/m² 0,5 °C 6,4 km/h (2 Bft)
13.01.2017 02:20 1,2 °C 1,2 °C 95 % 995,1 hPa 0,0 mm 3,4 km/h (1 Bft) SO 143 ° 0 min 0,000 mm 0,0 UV-I 0 W/m² 0,5 °C 4,8 km/h (1 Bft)
13.01.2017 02:21 1,2 °C 1,2 °C 95 % 995,1 hPa 0,0 mm 3,1 km/h (1 Bft) SO 143 ° 0 min 0,000 mm 0,0 UV-I 0 W/m² 0,5 °C 4,8 km/h (1 Bft)
13.01.2017 02:22 1,2 °C 1,2 °C 95 % 995,1 hPa 0,0 mm 2,7 km/h (1 Bft) SO 143 ° 0 min 0,000 mm 0,0 UV-I 0 W/m² 0,5 °C 4,8 km/h (1 Bft)
13.01.2017 02:23 1,2 °C 1,2 °C 95 % 995,2 hPa 0,0 mm 2,3 km/h (1 Bft) SW 223 ° 0 min 0,000 mm 0,0 UV-I 0 W/m² 0,5 °C 3,2 km/h (1 Bft)
13.01.2017 02:24 1,2 °C 1,2 °C 95 % 995,2 hPa 0,0 mm 1,7 km/h (1 Bft) SW 223 ° 0 min 0,000 mm 0,0 UV-I 0 W/m² 0,5 °C 3,2 km/h (1 Bft)
13.01.2017 02:25 1,2 °C 1,2 °C 96 % 995,2 hPa 0,0 mm 3,9 km/h (1 Bft) S-SW 203 ° 0 min 0,000 mm 0,0 UV-I 0 W/m² 0,6 °C 8,0 km/h (2 Bft)
13.01.2017 02:26 1,3 °C 1,3 °C 96 % 995,1 hPa 0,0 mm 6,7 km/h (2 Bft) S-SW 210 ° 0 min 0,000 mm 0,0 UV-I 0 W/m² 0,7 °C 8,0 km/h (2 Bft)
13.01.2017 02:27 1,5 °C 1,5 °C 96 % 995,3 hPa 0,0 mm 1,0 km/h (0 Bft) S-SW 198 ° 0 min 0,000 mm 0,0 UV-I 0 W/m² 0,9 °C 1,6 km/h (1 Bft)
13.01.2017 02:28 1,7 °C 1,7 °C 96 % 995,4 hPa 0,0 mm 4,5 km/h (1 Bft) S 191 ° 0 min 0,000 mm 0,0 UV-I 0 W/m² 1,1 °C 6,4 km/h (2 Bft)
13.01.2017 02:29 1,8 °C 1,8 °C 96 % 995,4 hPa 0,0 mm 4,3 km/h (1 Bft) S 191 ° 0 min 0,000 mm 0,0 UV-I 0 W/m² 1,2 °C 6,4 km/h (2 Bft)
13.01.2017 02:30 1,9 °C 1,9 °C 96 % 995,5 hPa 0,0 mm 1,6 km/h (1 Bft) S 191 ° 0 min 0,000 mm 0,0 UV-I 0 W/m² 1,3 °C 3,2 km/h (1 Bft)
13.01.2017 02:31 2,0 °C 2,0 °C 96 % 995,6 hPa 0,0 mm 2,7 km/h (1 Bft) S 191 ° 0 min 0,000 mm 0,0 UV-I 0 W/m² 1,4 °C 4,8 km/h (1 Bft)
13.01.2017 02:32 2,1 °C 2,1 °C 96 % 995,6 hPa 0,0 mm 2,5 km/h (1 Bft) S 191 ° 0 min 0,000 mm 0,0 UV-I 0 W/m² 1,5 °C 3,2 km/h (1 Bft)
13.01.2017 02:33 2,2 °C 2,2 °C 96 % 995,6 hPa 0,0 mm 1,2 km/h (1 Bft) S 191 ° 0 min 0,000 mm 0,0 UV-I 0 W/m² 1,6 °C 1,6 km/h (1 Bft)
13.01.2017 02:34 2,3 °C 2,3 °C 96 % 995,7 hPa 0,0 mm 1,9 km/h (1 Bft) W-SW 254 ° 0 min 0,000 mm 0,0 UV-I 0 W/m² 1,7 °C 3,2 km/h (1 Bft)
13.01.2017 02:35 2,3 °C 2,3 °C 96 % 995,9 hPa 0,0 mm 4,6 km/h (1 Bft) W 277 ° 0 min 0,000 mm 0,0 UV-I 0 W/m² 1,7 °C 6,4 km/h (2 Bft)
13.01.2017 02:36 2,4 °C 2,4 °C 96 % 996,7 hPa 0,0 mm 6,7 km/h (2 Bft) W-NW 290 ° 0 min 0,000 mm 0,0 UV-I 0 W/m² 1,8 °C 11,3 km/h (2 Bft)
13.01.2017 02:37 2,4 °C 2,4 °C 97 % 996,7 hPa 0,0 mm 12,3 km/h (3 Bft) W 279 ° 0 min 0,000 mm 0,0 UV-I 0 W/m² 2,0 °C 16,1 km/h (3 Bft)
13.01.2017 02:38 2,4 °C 2,4 °C 96 % 997,2 hPa 0,0 mm 18,7 km/h (3 Bft) W 260 ° 0 min 0,000 mm 0,0 UV-I 0 W/m² 1,8 °C 32,2 km/h (5 Bft)
13.01.2017 02:39 2,4 °C 2,4 °C 96 % 997,8 hPa 0,0 mm 28,5 km/h (4 Bft) W-NW 298 ° 0 min 0,000 mm 0,0 UV-I 0 W/m² 1,8 °C 49,9 km/h (6 Bft)
13.01.2017 02:40 2,4 °C 2,4 °C 96 % 997,7 hPa 0,2 mm 33,1 km/h (5 Bft) W-NW 285 ° 0 min 0,000 mm 0,0 UV-I 0 W/m² 1,8 °C 46,7 km/h (6 Bft)
13.01.2017 02:41 2,3 °C 2,4 °C 96 % 997,7 hPa 0,0 mm 32,2 km/h (5 Bft) NW 316 ° 0 min 0,000 mm 0,0 UV-I 0 W/m² 1,7 °C 48,3 km/h (6 Bft)
13.01.2017 02:42 2,3 °C 2,3 °C 96 % 997,7 hPa 0,2 mm 25,1 km/h (4 Bft) W-NW 299 ° 0 min 0,000 mm 0,0 UV-I 0 W/m² 1,7 °C 41,8 km/h (6 Bft)
13.01.2017 02:43 2,2 °C 2,3 °C 96 % 997,8 hPa 0,0 mm 23,7 km/h (4 Bft) N-NW 346 ° 0 min 0,000 mm 0,0 UV-I 0 W/m² 1,6 °C 33,8 km/h (5 Bft)
13.01.2017 02:44 2,2 °C 2,2 °C 95 % 997,8 hPa 0,0 mm 21,3 km/h (4 Bft) W 265 ° 0 min 0,000 mm 0,0 UV-I 0 W/m² 1,5 °C 32,2 km/h (5 Bft)
13.01.2017 02:45 2,1 °C 2,2 °C 94 % 997,9 hPa 0,0 mm 20,1 km/h (4 Bft) W 266 ° 0 min 0,000 mm 0,0 UV-I 0 W/m² 1,2 °C 27,4 km/h (4 Bft)
13.01.2017 02:46 2,0 °C 2,1 °C 94 % 997,8 hPa 0,0 mm 25,5 km/h (4 Bft) W-SW 257 ° 0 min 0,000 mm 0,0 UV-I 0 W/m² 1,1 °C 33,8 km/h (5 Bft)
13.01.2017 02:47 1,9 °C 2,0 °C 94 % 997,8 hPa 0,0 mm 23,3 km/h (4 Bft) W 267 ° 0 min 0,000 mm 0,0 UV-I 0 W/m² 1,0 °C 30,6 km/h (5 Bft)
13.01.2017 02:48 1,9 °C 1,9 °C 94 % 997,9 hPa 0,0 mm 23,4 km/h (4 Bft) W 259 ° 0 min 0,000 mm 0,0 UV-I 0 W/m² 1,0 °C 32,2 km/h (5 Bft)
13.01.2017 02:49 1,8 °C 1,9 °C 94 % 997,8 hPa 0,2 mm 23,1 km/h (4 Bft) W 263 ° 0 min 0,000 mm 0,0 UV-I 0 W/m² 0,9 °C 35,4 km/h (5 Bft)
13.01.2017 02:50 1,8 °C 1,8 °C 94 % 997,9 hPa 0,0 mm 23,7 km/h (4 Bft) SW 223 ° 0 min 0,000 mm 0,0 UV-I 0 W/m² 0,9 °C 38,6 km/h (5 Bft)
13.01.2017 02:51 1,8 °C 1,8 °C 94 % 997,9 hPa 0,2 mm 21,8 km/h (4 Bft) W 267 ° 0 min 0,000 mm 0,0 UV-I 0 W/m² 0,9 °C 30,6 km/h (5 Bft)
13.01.2017 02:52 1,8 °C 1,8 °C 94 % 997,7 hPa 0,0 mm 25,1 km/h (4 Bft) W 263 ° 0 min 0,000 mm 0,0 UV-I 0 W/m² 0,9 °C 41,8 km/h (6 Bft)
13.01.2017 02:53 1,7 °C 1,8 °C 94 % 997,9 hPa 0,0 mm 28,7 km/h (4 Bft) W 268 ° 0 min 0,000 mm 0,0 UV-I 0 W/m² 0,8 °C 59,5 km/h (7 Bft)
13.01.2017 02:54 1,7 °C 1,7 °C 94 % 997,9 hPa 0,2 mm 21,8 km/h (4 Bft) W-NW 285 ° 0 min 0,000 mm 0,0 UV-I 0 W/m² 0,8 °C 29,0 km/h (5 Bft)
13.01.2017 02:55 1,7 °C 1,7 °C 94 % 997,8 hPa 0,0 mm 19,2 km/h (3 Bft) W-SW 254 ° 0 min 0,000 mm 0,0 UV-I 0 W/m² 0,8 °C 32,2 km/h (5 Bft)
13.01.2017 02:56 1,7 °C 1,7 °C 94 % 997,9 hPa 0,0 mm 21,5 km/h (4 Bft) W 277 ° 0 min 0,000 mm 0,0 UV-I 0 W/m² 0,8 °C 35,4 km/h (5 Bft)
13.01.2017 02:57 1,7 °C 1,7 °C 94 % 997,9 hPa 0,0 mm 24,1 km/h (4 Bft) W 275 ° 0 min 0,000 mm 0,0 UV-I 0 W/m² 0,8 °C 35,4 km/h (5 Bft)
13.01.2017 02:58 1,7 °C 1,7 °C 94 % 998,0 hPa 0,2 mm 22,5 km/h (4 Bft) SW 232 ° 0 min 0,000 mm 0,0 UV-I 0 W/m² 0,8 °C 29,0 km/h (5 Bft)
13.01.2017 02:59 1,7 °C 1,7 °C 94 % 998,0 hPa 0,0 mm 34,6 km/h (5 Bft) W 269 ° 0 min 0,000 mm 0,0 UV-I 0 W/m² 0,8 °C 56,3 km/h (7 Bft)
13.01.2017 03:00 1,7 °C 1,7 °C 94 % 997,9 hPa 0,0 mm 23,5 km/h (4 Bft) W 262 ° 0 min 0,000 mm 0,0 UV-I 0 W/m² 0,8 °C 41,8 km/h (6 Bft)
13.01.2017 03:01 1,7 °C 1,7 °C 94 % 998,1 hPa 0,0 mm 23,8 km/h (4 Bft) W 261 ° 0 min 0,000 mm 0,0 UV-I 0 W/m² 0,8 °C 37,0 km/h (5 Bft)
13.01.2017 03:02 1,7 °C 1,7 °C 94 % 997,9 hPa 0,2 mm 21,1 km/h (4 Bft) SW 234 ° 0 min 0,000 mm 0,0 UV-I 0 W/m² 0,8 °C 29,0 km/h (5 Bft)
13.01.2017 03:03 1,7 °C 1,7 °C 94 % 998,0 hPa 0,0 mm 23,7 km/h (4 Bft) NW 311 ° 0 min 0,000 mm 0,0 UV-I 0 W/m² 0,8 °C 46,7 km/h (6 Bft)
13.01.2017 03:04 1,7 °C 1,8 °C 93 % 998,1 hPa 0,0 mm 27,3 km/h (4 Bft) W 264 ° 0 min 0,000 mm 0,0 UV-I 0 W/m² 0,7 °C 48,3 km/h (6 Bft)
13.01.2017 03:05 1,7 °C 1,8 °C 93 % 998,1 hPa 0,0 mm 20,0 km/h (4 Bft) W-SW 248 ° 0 min 0,000 mm 0,0 UV-I 0 W/m² 0,7 °C 27,4 km/h (4 Bft)
13.01.2017 03:06 1,8 °C 1,8 °C 93 % 998,0 hPa 0,0 mm 31,9 km/h (5 Bft) W 277 ° 0 min 0,000 mm 0,0 UV-I 0 W/m² 0,8 °C 51,5 km/h (7 Bft)
13.01.2017 03:07 1,8 °C 1,8 °C 93 % 997,9 hPa 0,2 mm 27,8 km/h (4 Bft) W-SW 254 ° 0 min 0,000 mm 0,0 UV-I 0 W/m² 0,8 °C 45,1 km/h (6 Bft)
13.01.2017 03:08 1,8 °C 1,8 °C 93 % 998,1 hPa 0,0 mm 28,0 km/h (4 Bft) W-SW 244 ° 0 min 0,000 mm 0,0 UV-I 0 W/m² 0,8 °C 48,3 km/h (6 Bft)
13.01.2017 03:09 1,8 °C 1,8 °C 93 % 998,1 hPa 0,0 mm 25,1 km/h (4 Bft) W 265 ° 0 min 0,000 mm 0,0 UV-I 0 W/m² 0,8 °C 35,4 km/h (5 Bft)
13.01.2017 03:10 1,8 °C 1,8 °C 93 % 998,1 hPa 0,0 mm 22,2 km/h (4 Bft) W-NW 291 ° 0 min 0,000 mm 0,0 UV-I 0 W/m² 0,8 °C 33,8 km/h (5 Bft)
13.01.2017 03:11 1,8 °C 1,8 °C 93 % 998,1 hPa 0,0 mm 22,0 km/h (4 Bft) W-SW 253 ° 0 min 0,000 mm 0,0 UV-I 0 W/m² 0,8 °C 41,8 km/h (6 Bft)
13.01.2017 03:12 1,8 °C 1,8 °C 93 % 998,1 hPa 0,2 mm 24,7 km/h (4 Bft) W 268 ° 0 min 0,000 mm 0,0 UV-I 0 W/m² 0,8 °C 32,2 km/h (5 Bft)
13.01.2017 03:13 1,8 °C 1,9 °C 93 % 998,1 hPa 0,0 mm 26,5 km/h (4 Bft) W 262 ° 0 min 0,000 mm 0,0 UV-I 0 W/m² 0,8 °C 38,6 km/h (5 Bft)
13.01.2017 03:14 1,9 °C 1,9 °C 93 % 998,1 hPa 0,0 mm 20,3 km/h (4 Bft) W-SW 253 ° 0 min 0,000 mm 0,0 UV-I 0 W/m² 0,9 °C 27,4 km/h (4 Bft)
13.01.2017 03:15 1,9 °C 1,9 °C 93 % 998,1 hPa 0,0 mm 21,6 km/h (4 Bft) W 271 ° 0 min 0,000 mm 0,0 UV-I 0 W/m² 0,9 °C 27,4 km/h (4 Bft)
13.01.2017 03:16 1,9 °C 1,9 °C 93 % 998,1 hPa 0,0 mm 22,5 km/h (4 Bft) W 263 ° 0 min 0,000 mm 0,0 UV-I 0 W/m² 0,9 °C 32,2 km/h (5 Bft)
13.01.2017 03:17 1,9 °C 1,9 °C 93 % 998,1 hPa 0,0 mm 20,2 km/h (4 Bft) W-SW 257 ° 0 min 0,000 mm 0,0 UV-I 0 W/m² 0,9 °C 30,6 km/h (5 Bft)
13.01.2017 03:18 1,9 °C 1,9 °C 93 % 998,2 hPa 0,0 mm 16,8 km/h (3 Bft) W-SW 252 ° 0 min 0,000 mm 0,0 UV-I 0 W/m² 0,9 °C 29,0 km/h (5 Bft)
13.01.2017 03:19 1,9 °C 1,9 °C 93 % 998,1 hPa 0,0 mm 24,3 km/h (4 Bft) W 277 ° 0 min 0,000 mm 0,0 UV-I 0 W/m² 0,9 °C 37,0 km/h (5 Bft)
13.01.2017 03:20 1,9 °C 1,9 °C 93 % 997,9 hPa 0,2 mm 25,6 km/h (4 Bft) W 277 ° 0 min 0,000 mm 0,0 UV-I 0 W/m² 0,9 °C 40,2 km/h (6 Bft)
13.01.2017 03:21 2,0 °C 2,0 °C 93 % 998,0 hPa 0,0 mm 28,4 km/h (4 Bft) W-SW 246 ° 0 min 0,000 mm 0,0 UV-I 0 W/m² 1,0 °C 41,8 km/h (6 Bft)
13.01.2017 03:22 2,0 °C 2,0 °C 93 % 998,1 hPa 0,0 mm 19,5 km/h (3 Bft) W 262 ° 0 min 0,000 mm 0,0 UV-I 0 W/m² 1,0 °C 32,2 km/h (5 Bft)
13.01.2017 03:23 2,0 °C 2,0 °C 93 % 997,8 hPa 0,0 mm 24,8 km/h (4 Bft) W 259 ° 0 min 0,000 mm 0,0 UV-I 0 W/m² 1,0 °C 33,8 km/h (5 Bft)
13.01.2017 03:24 2,0 °C 2,0 °C 92 % 997,9 hPa 0,0 mm 25,1 km/h (4 Bft) W-SW 243 ° 0 min 0,000 mm 0,0 UV-I 0 W/m² 0,8 °C 43,5 km/h (6 Bft)
13.01.2017 03:25 2,0 °C 2,0 °C 92 % 997,9 hPa 0,0 mm 22,7 km/h (4 Bft) W 270 ° 0 min 0,000 mm 0,0 UV-I 0 W/m² 0,8 °C 35,4 km/h (5 Bft)
13.01.2017 03:26 2,1 °C 2,1 °C 92 % 997,8 hPa 0,0 mm 23,6 km/h (4 Bft) W 271 ° 0 min 0,000 mm 0,0 UV-I 0 W/m² 0,9 °C 30,6 km/h (5 Bft)
13.01.2017 03:27 2,0 °C 2,1 °C 91 % 998,0 hPa 0,0 mm 28,1 km/h (4 Bft) W-SW 247 ° 0 min 0,000 mm 0,0 UV-I 0 W/m² 0,7 °C 49,9 km/h (6 Bft)
13.01.2017 03:28 2,0 °C 2,0 °C 91 % 997,9 hPa 0,0 mm 34,1 km/h (5 Bft) W 265 ° 0 min 0,000 mm 0,0 UV-I 0 W/m² 0,7 °C 48,3 km/h (6 Bft)
13.01.2017 03:29 2,0 °C 2,1 °C 91 % 997,9 hPa 0,0 mm 30,2 km/h (5 Bft) W-NW 285 ° 0 min 0,000 mm 0,0 UV-I 0 W/m² 0,7 °C 53,1 km/h (7 Bft)
13.01.2017 03:30 2,0 °C 2,0 °C 90 % 998,2 hPa 0,2 mm 35,5 km/h (5 Bft) W 273 ° 0 min 0,000 mm 0,0 UV-I 0 W/m² 0,5 °C 59,5 km/h (7 Bft)
13.01.2017 03:31 1,9 °C 2,0 °C 90 % 998,2 hPa 0,0 mm 32,1 km/h (5 Bft) W-SW 255 ° 0 min 0,000 mm 0,0 UV-I 0 W/m² 0,4 °C 45,1 km/h (6 Bft)
13.01.2017 03:32 1,9 °C 1,9 °C 90 % 998,2 hPa 0,0 mm 40,4 km/h (6 Bft) W-NW 288 ° 0 min 0,000 mm 0,0 UV-I 0 W/m² 0,4 °C 57,9 km/h (7 Bft)
13.01.2017 03:33 1,9 °C 1,9 °C 90 % 998,2 hPa 0,0 mm 27,4 km/h (4 Bft) W-SW 257 ° 0 min 0,000 mm 0,0 UV-I 0 W/m² 0,4 °C 64,4 km/h (8 Bft)
13.01.2017 03:34 1,8 °C 1,9 °C 90 % 998,1 hPa 0,0 mm 36,4 km/h (5 Bft) SW 227 ° 0 min 0,000 mm 0,0 UV-I 0 W/m² 0,3 °C 61,2 km/h (7 Bft)
13.01.2017 03:35 1,8 °C 1,8 °C 90 % 998,2 hPa 0,0 mm 33,5 km/h (5 Bft) W 281 ° 0 min 0,000 mm 0,0 UV-I 0 W/m² 0,3 °C 56,3 km/h (7 Bft)
13.01.2017 03:36 1,7 °C 1,8 °C 90 % 997,9 hPa 0,0 mm 33,4 km/h (5 Bft) W-NW 286 ° 0 min 0,000 mm 0,0 UV-I 0 W/m² 0,2 °C 61,2 km/h (7 Bft)
13.01.2017 03:37 1,7 °C 1,7 °C 90 % 998,2 hPa 0,0 mm 36,2 km/h (5 Bft) W-SW 244 ° 0 min 0,000 mm 0,0 UV-I 0 W/m² 0,2 °C 67,6 km/h (8 Bft)
13.01.2017 03:38 1,7 °C 1,7 °C 90 % 998,1 hPa 0,0 mm 45,2 km/h (6 Bft) W-NW 290 ° 0 min 0,000 mm 0,0 UV-I 0 W/m² 0,2 °C 59,5 km/h (7 Bft)
13.01.2017 03:39 1,7 °C 1,7 °C 89 % 998,1 hPa 0,0 mm 38,3 km/h (5 Bft) W-NW 284 ° 0 min 0,000 mm 0,0 UV-I 0 W/m² 0,1 °C 54,7 km/h (7 Bft)
13.01.2017 03:40 1,7 °C 1,7 °C 89 % 997,9 hPa 0,0 mm 33,2 km/h (5 Bft) W-SW 257 ° 0 min 0,000 mm 0,0 UV-I 0 W/m² 0,1 °C 49,9 km/h (6 Bft)
13.01.2017 03:41 1,7 °C 1,7 °C 89 % 997,9 hPa 0,0 mm 32,9 km/h (5 Bft) W-SW 256 ° 0 min 0,000 mm 0,0 UV-I 0 W/m² 0,1 °C 51,5 km/h (7 Bft)
13.01.2017 03:42 1,7 °C 1,7 °C 89 % 998,0 hPa 0,0 mm 35,2 km/h (5 Bft) W 261 ° 0 min 0,000 mm 0,0 UV-I 0 W/m² 0,1 °C 49,9 km/h (6 Bft)
13.01.2017 03:43 1,7 °C 1,7 °C 89 % 998,0 hPa 0,0 mm 31,1 km/h (5 Bft) W-SW 248 ° 0 min 0,000 mm 0,0 UV-I 0 W/m² 0,1 °C 59,5 km/h (7 Bft)
13.01.2017 03:44 1,7 °C 1,7 °C 88 % 997,8 hPa 0,0 mm 33,7 km/h (5 Bft) W 265 ° 0 min 0,000 mm 0,0 UV-I 0 W/m² -0,1 °C 49,9 km/h (6 Bft)
13.01.2017 03:45 1,7 °C 1,7 °C 88 % 997,9 hPa 0,2 mm 35,3 km/h (5 Bft) W-SW 257 ° 0 min 0,000 mm 0,0 UV-I 0 W/m² -0,1 °C 57,9 km/h (7 Bft)
13.01.2017 03:46 1,8 °C 1,8 °C 88 % 997,8 hPa 0,0 mm 35,1 km/h (5 Bft) W-SW 246 ° 0 min 0,000 mm 0,0 UV-I 0 W/m² 0,0 °C 46,7 km/h (6 Bft)
13.01.2017 03:47 1,8 °C 1,8 °C 88 % 997,8 hPa 0,0 mm 28,8 km/h (4 Bft) W-SW 250 ° 0 min 0,000 mm 0,0 UV-I 0 W/m² 0,0 °C 35,4 km/h (5 Bft)
13.01.2017 03:48 1,8 °C 1,8 °C 88 % 997,7 hPa 0,0 mm 34,8 km/h (5 Bft) W-SW 250 ° 0 min 0,000 mm 0,0 UV-I 0 W/m² 0,0 °C 54,7 km/h (7 Bft)
13.01.2017 03:49 1,8 °C 1,8 °C 86 % 997,6 hPa 0,0 mm 42,2 km/h (6 Bft) W 276 ° 0 min 0,000 mm 0,0 UV-I 0 W/m² -0,3 °C 56,3 km/h (7 Bft)
13.01.2017 03:50 1,9 °C 1,9 °C 85 % 997,6 hPa 0,0 mm 44,3 km/h (6 Bft) W 269 ° 0 min 0,000 mm 0,0 UV-I 0 W/m² -0,3 °C 61,2 km/h (7 Bft)
13.01.2017 03:51 1,9 °C 1,9 °C 84 % 997,4 hPa 0,0 mm 31,5 km/h (5 Bft) W 261 ° 0 min 0,000 mm 0,0 UV-I 0 W/m² -0,5 °C 48,3 km/h (6 Bft)
13.01.2017 03:52 1,9 °C 1,9 °C 85 % 997,5 hPa 0,0 mm 32,9 km/h (5 Bft) S-SW 194 ° 0 min 0,000 mm 0,0 UV-I 0 W/m² -0,3 °C 49,9 km/h (6 Bft)
13.01.2017 03:53 1,9 °C 1,9 °C 85 % 997,5 hPa 0,0 mm 37,8 km/h (5 Bft) W 265 ° 0 min 0,000 mm 0,0 UV-I 0 W/m² -0,3 °C 61,2 km/h (7 Bft)
13.01.2017 03:54 1,9 °C 1,9 °C 85 % 997,5 hPa 0,0 mm 36,0 km/h (5 Bft) W 277 ° 0 min 0,000 mm 0,0 UV-I 0 W/m² -0,3 °C 57,9 km/h (7 Bft)
13.01.2017 03:55 1,9 °C 1,9 °C 85 % 997,7 hPa 0,0 mm 48,7 km/h (6 Bft) W-SW 257 ° 0 min 0,000 mm 0,0 UV-I 0 W/m² -0,3 °C 70,8 km/h (8 Bft)
13.01.2017 03:56 1,9 °C 1,9 °C 84 % 997,5 hPa 0,0 mm 47,4 km/h (6 Bft) W 265 ° 0 min 0,000 mm 0,0 UV-I 0 W/m² -0,5 °C 69,2 km/h (8 Bft)
13.01.2017 03:57 1,9 °C 1,9 °C 85 % 997,9 hPa 0,0 mm 33,5 km/h (5 Bft) W-NW 291 ° 0 min 0,000 mm 0,0 UV-I 0 W/m² -0,3 °C 43,5 km/h (6 Bft)
13.01.2017 03:58 1,9 °C 1,9 °C 85 % 997,8 hPa 0,0 mm 30,2 km/h (5 Bft) W-SW 249 ° 0 min 0,000 mm 0,0 UV-I 0 W/m² -0,3 °C 41,8 km/h (6 Bft)
13.01.2017 03:59 1,9 °C 1,9 °C 86 % 997,8 hPa 0,0 mm 40,3 km/h (6 Bft) W 275 ° 0 min 0,000 mm 0,0 UV-I 0 W/m² -0,2 °C 61,2 km/h (7 Bft)
13.01.2017 04:00 1,9 °C 1,9 °C 86 % 997,8 hPa 0,0 mm 33,1 km/h (5 Bft) W 278 ° 0 min 0,000 mm 0,0 UV-I 0 W/m² -0,2 °C 51,5 km/h (7 Bft)
13.01.2017 04:01 1,8 °C 1,9 °C 87 % 997,8 hPa 0,0 mm 24,8 km/h (4 Bft) W 281 ° 0 min 0,025 mm 0,0 UV-I 0 W/m² -0,1 °C 40,2 km/h (6 Bft)
13.01.2017 04:02 1,8 °C 1,8 °C 88 % 997,8 hPa 0,0 mm 29,8 km/h (5 Bft) W-SW 246 ° 0 min 0,000 mm 0,0 UV-I 0 W/m² 0,0 °C 48,3 km/h (6 Bft)
13.01.2017 04:03 1,7 °C 1,8 °C 88 % 997,9 hPa 0,0 mm 32,1 km/h (5 Bft) W 267 ° 0 min 0,000 mm 0,0 UV-I 0 W/m² -0,1 °C 48,3 km/h (6 Bft)
13.01.2017 04:04 1,7 °C 1,7 °C 89 % 997,7 hPa 0,0 mm 21,7 km/h (4 Bft) W 267 ° 0 min 0,000 mm 0,0 UV-I 0 W/m² 0,1 °C 29,0 km/h (5 Bft)
13.01.2017 04:05 1,7 °C 1,7 °C 89 % 997,7 hPa 0,0 mm 22,9 km/h (4 Bft) NW 308 ° 0 min 0,000 mm 0,0 UV-I 0 W/m² 0,1 °C 30,6 km/h (5 Bft)
13.01.2017 04:06 1,6 °C 1,7 °C 89 % 997,8 hPa 0,0 mm 37,1 km/h (5 Bft) W-SW 250 ° 0 min 0,000 mm 0,0 UV-I 0 W/m² -0,0 °C 56,3 km/h (7 Bft)
13.01.2017 04:07 1,6 °C 1,6 °C 89 % 997,6 hPa 0,0 mm 27,6 km/h (4 Bft) W-SW 247 ° 0 min 0,000 mm 0,0 UV-I 0 W/m² -0,0 °C 46,7 km/h (6 Bft)
13.01.2017 04:08 1,6 °C 1,6 °C 89 % 997,6 hPa 0,0 mm 21,4 km/h (4 Bft) W-NW 286 ° 0 min 0,000 mm 0,0 UV-I 0 W/m² -0,0 °C 35,4 km/h (5 Bft)
13.01.2017 04:09 1,6 °C 1,6 °C 89 % 997,6 hPa 0,0 mm 20,7 km/h (4 Bft) W-SW 254 ° 0 min 0,000 mm 0,0 UV-I 0 W/m² -0,0 °C 30,6 km/h (5 Bft)
13.01.2017 04:10 1,6 °C 1,6 °C 89 % 997,7 hPa 0,0 mm 21,9 km/h (4 Bft) W-SW 249 ° 0 min 0,000 mm 0,0 UV-I 0 W/m² -0,0 °C 38,6 km/h (5 Bft)
13.01.2017 04:11 1,6 °C 1,6 °C 90 % 997,5 hPa 0,0 mm 24,6 km/h (4 Bft) W-NW 282 ° 0 min 0,000 mm 0,0 UV-I 0 W/m² 0,1 °C 40,2 km/h (6 Bft)
13.01.2017 04:12 1,6 °C 1,6 °C 90 % 997,5 hPa 0,0 mm 22,5 km/h (4 Bft) W-SW 250 ° 0 min 0,000 mm 0,0 UV-I 0 W/m² 0,1 °C 41,8 km/h (6 Bft)
13.01.2017 04:13 1,5 °C 1,6 °C 89 % 997,5 hPa 0,0 mm 22,3 km/h (4 Bft) W-SW 252 ° 0 min 0,000 mm 0,0 UV-I 0 W/m² -0,1 °C 29,0 km/h (5 Bft)
13.01.2017 04:14 1,6 °C 1,6 °C 89 % 997,4 hPa 0,0 mm 28,3 km/h (4 Bft) W 269 ° 0 min 0,000 mm 0,0 UV-I 0 W/m² -0,0 °C 41,8 km/h (6 Bft)
13.01.2017 04:15 1,6 °C 1,6 °C 89 % 997,5 hPa 0,0 mm 26,5 km/h (4 Bft) W-SW 240 ° 0 min 0,000 mm 0,0 UV-I 0 W/m² -0,0 °C 38,6 km/h (5 Bft)
13.01.2017 04:16 1,6 °C 1,6 °C 89 % 997,5 hPa 0,0 mm 24,3 km/h (4 Bft) W-SW 251 ° 0 min 0,000 mm 0,0 UV-I 0 W/m² -0,0 °C 37,0 km/h (5 Bft)
13.01.2017 04:17 1,6 °C 1,6 °C 89 % 997,3 hPa 0,0 mm 19,1 km/h (3 Bft) W 269 ° 0 min 0,000 mm 0,0 UV-I 0 W/m² -0,0 °C 25,7 km/h (4 Bft)
13.01.2017 04:18 1,6 °C 1,6 °C 89 % 997,4 hPa 0,0 mm 18,2 km/h (3 Bft) S-SO 159 ° 0 min 0,000 mm 0,0 UV-I 0 W/m² -0,0 °C 45,1 km/h (6 Bft)
13.01.2017 04:19 1,6 °C 1,6 °C 88 % 997,4 hPa 0,0 mm 37,2 km/h (5 Bft) W 259 ° 0 min 0,000 mm 0,0 UV-I 0 W/m² -0,2 °C 53,1 km/h (7 Bft)
13.01.2017 04:20 1,6 °C 1,6 °C 87 % 997,5 hPa 0,0 mm 30,2 km/h (5 Bft) W-SW 248 ° 0 min 0,000 mm 0,0 UV-I 0 W/m² -0,3 °C 45,1 km/h (6 Bft)
13.01.2017 04:21 1,7 °C 1,7 °C 87 % 997,1 hPa 0,0 mm 32,6 km/h (5 Bft) W-SW 254 ° 0 min 0,000 mm 0,0 UV-I 0 W/m² -0,2 °C 56,3 km/h (7 Bft)
13.01.2017 04:22 1,7 °C 1,7 °C 86 % 997,0 hPa 0,0 mm 35,1 km/h (5 Bft) W 261 ° 0 min 0,000 mm 0,0 UV-I 0 W/m² -0,4 °C 51,5 km/h (7 Bft)
13.01.2017 04:23 1,8 °C 1,8 °C 85 % 997,0 hPa 0,2 mm 31,3 km/h (5 Bft) W 259 ° 0 min 0,000 mm 0,0 UV-I 0 W/m² -0,4 °C 43,5 km/h (6 Bft)
13.01.2017 04:24 1,9 °C 1,9 °C 84 % 996,9 hPa 0,0 mm 29,1 km/h (5 Bft) W 261 ° 0 min 0,000 mm 0,0 UV-I 0 W/m² -0,5 °C 45,1 km/h (6 Bft)
13.01.2017 04:25 1,9 °C 1,9 °C 83 % 996,9 hPa 0,0 mm 24,7 km/h (4 Bft) W-SW 245 ° 0 min 0,000 mm 0,0 UV-I 0 W/m² -0,7 °C 45,1 km/h (6 Bft)
13.01.2017 04:26 2,1 °C 2,1 °C 83 % 997,0 hPa 0,0 mm 32,5 km/h (5 Bft) SW 225 ° 0 min 0,000 mm 0,0 UV-I 0 W/m² -0,5 °C 43,5 km/h (6 Bft)
13.01.2017 04:27 2,1 °C 2,1 °C 83 % 997,0 hPa 0,0 mm 26,8 km/h (4 Bft) NW 317 ° 0 min 0,000 mm 0,0 UV-I 0 W/m² -0,5 °C 38,6 km/h (5 Bft)
13.01.2017 04:28 2,2 °C 2,2 °C 83 % 996,9 hPa 0,0 mm 30,0 km/h (5 Bft) W 277 ° 0 min 0,000 mm 0,0 UV-I 0 W/m² -0,4 °C 45,1 km/h (6 Bft)
13.01.2017 04:29 2,2 °C 2,2 °C 83 % 996,9 hPa 0,0 mm 25,8 km/h (4 Bft) W-NW 288 ° 0 min 0,000 mm 0,0 UV-I 0 W/m² -0,4 °C 43,5 km/h (6 Bft)
13.01.2017 04:30 2,2 °C 2,2 °C 82 % 997,1 hPa 0,0 mm 31,8 km/h (5 Bft) W-SW 256 ° 0 min 0,000 mm 0,0 UV-I 0 W/m² -0,5 °C 49,9 km/h (6 Bft)
13.01.2017 04:31 2,2 °C 2,2 °C 82 % 997,1 hPa 0,0 mm 28,4 km/h (4 Bft) S-SW 198 ° 0 min 0,000 mm 0,0 UV-I 0 W/m² -0,5 °C 40,2 km/h (6 Bft)
13.01.2017 04:32 2,3 °C 2,3 °C 82 % 996,9 hPa 0,0 mm 24,5 km/h (4 Bft) W 275 ° 0 min 0,000 mm 0,0 UV-I 0 W/m² -0,4 °C 41,8 km/h (6 Bft)
13.01.2017 04:33 2,3 °C 2,3 °C 82 % 997,0 hPa 0,0 mm 25,1 km/h (4 Bft) W-NW 294 ° 0 min 0,000 mm 0,0 UV-I 0 W/m² -0,4 °C 37,0 km/h (5 Bft)
13.01.2017 04:34 2,3 °C 2,3 °C 82 % 997,1 hPa 0,0 mm 33,3 km/h (5 Bft) W 271 ° 0 min 0,000 mm 0,0 UV-I 0 W/m² -0,4 °C 48,3 km/h (6 Bft)
13.01.2017 04:35 2,3 °C 2,3 °C 81 % 997,1 hPa 0,0 mm 31,7 km/h (5 Bft) W-NW 282 ° 0 min 0,000 mm 0,0 UV-I 0 W/m² -0,6 °C 46,7 km/h (6 Bft)
13.01.2017 04:36 2,3 °C 2,3 °C 81 % 996,9 hPa 0,0 mm 37,2 km/h (5 Bft) W-SW 251 ° 0 min 0,000 mm 0,0 UV-I 0 W/m² -0,6 °C 53,1 km/h (7 Bft)
13.01.2017 04:37 2,3 °C 2,3 °C 80 % 996,9 hPa 0,0 mm 28,5 km/h (4 Bft) W 263 ° 0 min 0,000 mm 0,0 UV-I 0 W/m² -0,8 °C 46,7 km/h (6 Bft)
13.01.2017 04:38 2,3 °C 2,3 °C 80 % 996,8 hPa 0,0 mm 35,6 km/h (5 Bft) W-SW 253 ° 0 min 0,000 mm 0,0 UV-I 0 W/m² -0,8 °C 49,9 km/h (6 Bft)
13.01.2017 04:39 2,4 °C 2,4 °C 80 % 996,9 hPa 0,0 mm 27,7 km/h (4 Bft) W 259 ° 0 min 0,000 mm 0,0 UV-I 0 W/m² -0,7 °C 59,5 km/h (7 Bft)
13.01.2017 04:40 2,4 °C 2,4 °C 80 % 996,9 hPa 0,0 mm 30,8 km/h (5 Bft) W 271 ° 0 min 0,000 mm 0,0 UV-I 0 W/m² -0,7 °C 45,1 km/h (6 Bft)
13.01.2017 04:41 2,4 °C 2,4 °C 80 % 997,0 hPa 0,0 mm 29,0 km/h (5 Bft) W 279 ° 0 min 0,000 mm 0,0 UV-I 0 W/m² -0,7 °C 46,7 km/h (6 Bft)
13.01.2017 04:42 2,4 °C 2,4 °C 80 % 997,0 hPa 0,0 mm 29,1 km/h (5 Bft) W 264 ° 0 min 0,000 mm 0,0 UV-I 0 W/m² -0,7 °C 43,5 km/h (6 Bft)
13.01.2017 04:43 2,4 °C 2,4 °C 79 % 997,1 hPa 0,0 mm 35,8 km/h (5 Bft) W-SW 251 ° 0 min 0,000 mm 0,0 UV-I 0 W/m² -0,9 °C 53,1 km/h (7 Bft)
13.01.2017 04:44 2,5 °C 2,5 °C 78 % 997,1 hPa 0,0 mm 34,7 km/h (5 Bft) W-SW 240 ° 0 min 0,000 mm 0,0 UV-I 0 W/m² -0,9 °C 46,7 km/h (6 Bft)
13.01.2017 04:45 2,6 °C 2,6 °C 77 % 997,1 hPa 0,0 mm 40,4 km/h (6 Bft) W-SW 248 ° 0 min 0,000 mm 0,0 UV-I 0 W/m² -1,0 °C 67,6 km/h (8 Bft)
13.01.2017 04:46 2,6 °C 2,6 °C 77 % 997,0 hPa 0,0 mm 37,0 km/h (5 Bft) W 267 ° 0 min 0,000 mm 0,0 UV-I 0 W/m² -1,0 °C 62,8 km/h (8 Bft)
13.01.2017 04:47 2,6 °C 2,6 °C 76 % 997,0 hPa 0,0 mm 32,4 km/h (5 Bft) W-NW 302 ° 0 min 0,000 mm 0,0 UV-I 0 W/m² -1,2 °C 49,9 km/h (6 Bft)
13.01.2017 04:48 2,7 °C 2,7 °C 77 % 997,0 hPa 0,0 mm 29,4 km/h (5 Bft) W 277 ° 0 min 0,000 mm 0,0 UV-I 0 W/m² -0,9 °C 37,0 km/h (5 Bft)
13.01.2017 04:49 2,7 °C 2,7 °C 77 % 996,9 hPa 0,0 mm 27,8 km/h (4 Bft) W-NW 285 ° 0 min 0,000 mm 0,0 UV-I 0 W/m² -0,9 °C 46,7 km/h (6 Bft)
13.01.2017 04:50 2,7 °C 2,7 °C 76 % 997,1 hPa 0,0 mm 31,2 km/h (5 Bft) W-SW 254 ° 0 min 0,000 mm 0,0 UV-I 0 W/m² -1,1 °C 46,7 km/h (6 Bft)
13.01.2017 04:51 2,7 °C 2,7 °C 76 % 997,1 hPa 0,0 mm 35,7 km/h (5 Bft) W-SW 257 ° 0 min 0,000 mm 0,0 UV-I 0 W/m² -1,1 °C 56,3 km/h (7 Bft)
13.01.2017 04:52 2,7 °C 2,7 °C 76 % 997,0 hPa 0,0 mm 29,3 km/h (5 Bft) W 269 ° 0 min 0,000 mm 0,0 UV-I 0 W/m² -1,1 °C 46,7 km/h (6 Bft)
13.01.2017 04:53 2,7 °C 2,7 °C 76 % 997,0 hPa 0,0 mm 35,6 km/h (5 Bft) W-SW 256 ° 0 min 0,000 mm 0,0 UV-I 0 W/m² -1,1 °C 56,3 km/h (7 Bft)
13.01.2017 04:54 2,7 °C 2,7 °C 77 % 997,1 hPa 0,0 mm 30,8 km/h (5 Bft) W-SW 242 ° 0 min 0,000 mm 0,0 UV-I 0 W/m² -0,9 °C 43,5 km/h (6 Bft)
13.01.2017 04:55 2,7 °C 2,7 °C 76 % 997,1 hPa 0,0 mm 29,9 km/h (5 Bft) W 273 ° 0 min 0,000 mm 0,0 UV-I 0 W/m² -1,1 °C 43,5 km/h (6 Bft)
13.01.2017 04:56 2,7 °C 2,7 °C 77 % 997,0 hPa 0,0 mm 33,5 km/h (5 Bft) W 265 ° 0 min 0,000 mm 0,0 UV-I 0 W/m² -0,9 °C 62,8 km/h (8 Bft)
13.01.2017 04:57 2,7 °C 2,7 °C 76 % 997,2 hPa 0,0 mm 33,3 km/h (5 Bft) W 262 ° 0 min 0,000 mm 0,0 UV-I 0 W/m² -1,1 °C 48,3 km/h (6 Bft)
13.01.2017 04:58 2,6 °C 2,7 °C 77 % 997,1 hPa 0,0 mm 31,5 km/h (5 Bft) NW 315 ° 0 min 0,000 mm 0,0 UV-I 0 W/m² -1,0 °C 48,3 km/h (6 Bft)
13.01.2017 04:59 2,6 °C 2,6 °C 78 % 997,2 hPa 0,0 mm 23,9 km/h (4 Bft) W-SW 242 ° 0 min 0,000 mm 0,0 UV-I 0 W/m² -0,8 °C 40,2 km/h (6 Bft)
13.01.2017 05:00 2,6 °C 2,6 °C 78 % 997,4 hPa 0,0 mm 36,8 km/h (5 Bft) W-SW 253 ° 0 min 0,026 mm 0,0 UV-I 0 W/m² -0,8 °C 54,7 km/h (7 Bft)
13.01.2017 05:01 2,6 °C 2,6 °C 78 % 997,7 hPa 0,0 mm 36,4 km/h (5 Bft) W-SW 244 ° 0 min 0,000 mm 0,0 UV-I 0 W/m² -0,8 °C 49,9 km/h (6 Bft)
13.01.2017 05:02 2,5 °C 2,6 °C 79 % 997,5 hPa 0,0 mm 36,5 km/h (5 Bft) W 268 ° 0 min 0,000 mm 0,0 UV-I 0 W/m² -0,8 °C 56,3 km/h (7 Bft)
13.01.2017 05:03 2,4 °C 2,5 °C 79 % 997,3 hPa 0,0 mm 29,7 km/h (5 Bft) W-SW 258 ° 0 min 0,000 mm 0,0 UV-I 0 W/m² -0,9 °C 40,2 km/h (6 Bft)
13.01.2017 05:04 2,4 °C 2,4 °C 80 % 997,4 hPa 0,0 mm 27,4 km/h (4 Bft) W 266 ° 0 min 0,000 mm 0,0 UV-I 0 W/m² -0,7 °C 40,2 km/h (6 Bft)
13.01.2017 05:05 2,3 °C 2,4 °C 80 % 997,3 hPa 0,0 mm 19,5 km/h (3 Bft) W 266 ° 0 min 0,000 mm 0,0 UV-I 0 W/m² -0,8 °C 30,6 km/h (5 Bft)
13.01.2017 05:06 2,3 °C 2,3 °C 81 % 997,6 hPa 0,0 mm 20,5 km/h (4 Bft) W-SW 254 ° 0 min 0,000 mm 0,0 UV-I 0 W/m² -0,6 °C 35,4 km/h (5 Bft)
13.01.2017 05:07 2,2 °C 2,3 °C 82 % 997,6 hPa 0,0 mm 29,1 km/h (5 Bft) W 259 ° 0 min 0,000 mm 0,0 UV-I 0 W/m² -0,5 °C 43,5 km/h (6 Bft)
13.01.2017 05:08 2,2 °C 2,2 °C 82 % 997,5 hPa 0,0 mm 21,8 km/h (4 Bft) W-NW 296 ° 0 min 0,000 mm 0,0 UV-I 0 W/m² -0,5 °C 30,6 km/h (5 Bft)
13.01.2017 05:09 2,2 °C 2,2 °C 83 % 997,6 hPa 0,0 mm 28,3 km/h (4 Bft) W 267 ° 0 min 0,000 mm 0,0 UV-I 0 W/m² -0,4 °C 53,1 km/h (7 Bft)
13.01.2017 05:10 2,1 °C 2,2 °C 84 % 997,6 hPa 0,0 mm 26,6 km/h (4 Bft) W-SW 248 ° 0 min 0,000 mm 0,0 UV-I 0 W/m² -0,3 °C 45,1 km/h (6 Bft)
13.01.2017 05:11 2,0 °C 2,1 °C 85 % 997,6 hPa 0,0 mm 23,9 km/h (4 Bft) W 259 ° 0 min 0,000 mm 0,0 UV-I 0 W/m² -0,3 °C 32,2 km/h (5 Bft)
13.01.2017 05:12 1,9 °C 2,0 °C 85 % 997,6 hPa 0,0 mm 26,2 km/h (4 Bft) W 271 ° 0 min 0,000 mm 0,0 UV-I 0 W/m² -0,3 °C 38,6 km/h (5 Bft)
13.01.2017 05:13 1,8 °C 1,9 °C 86 % 997,6 hPa 0,0 mm 21,1 km/h (4 Bft) W 269 ° 0 min 0,000 mm 0,0 UV-I 0 W/m² -0,3 °C 37,0 km/h (5 Bft)
13.01.2017 05:14 1,7 °C 1,8 °C 86 % 997,8 hPa 0,0 mm 22,0 km/h (4 Bft) W-NW 283 ° 0 min 0,000 mm 0,0 UV-I 0 W/m² -0,4 °C 27,4 km/h (4 Bft)
13.01.2017 05:15 1,7 °C 1,7 °C 87 % 997,7 hPa 0,0 mm 18,4 km/h (3 Bft) SW 236 ° 0 min 0,000 mm 0,0 UV-I 0 W/m² -0,2 °C 24,1 km/h (4 Bft)
13.01.2017 05:16 1,6 °C 1,7 °C 87 % 997,5 hPa 0,0 mm 14,6 km/h (3 Bft) W-SW 248 ° 0 min 0,000 mm 0,0 UV-I 0 W/m² -0,3 °C 27,4 km/h (4 Bft)
13.01.2017 05:17 1,5 °C 1,6 °C 88 % 997,6 hPa 0,0 mm 12,7 km/h (3 Bft) W-SW 249 ° 0 min 0,000 mm 0,0 UV-I 0 W/m² -0,3 °C 20,9 km/h (4 Bft)
13.01.2017 05:18 1,4 °C 1,5 °C 89 % 997,6 hPa 0,0 mm 18,0 km/h (3 Bft) W 272 ° 0 min 0,000 mm 0,0 UV-I 0 W/m² -0,2 °C 27,4 km/h (4 Bft)
13.01.2017 05:19 1,3 °C 1,4 °C 89 % 997,4 hPa 0,0 mm 19,4 km/h (3 Bft) W-SW 243 ° 0 min 0,000 mm 0,0 UV-I 0 W/m² -0,3 °C 27,4 km/h (4 Bft)
13.01.2017 05:20 1,3 °C 1,3 °C 89 % 997,7 hPa 0,0 mm 26,7 km/h (4 Bft) W 268 ° 0 min 0,000 mm 0,0 UV-I 0 W/m² -0,3 °C 37,0 km/h (5 Bft)
13.01.2017 05:21 1,3 °C 1,3 °C 89 % 997,5 hPa 0,0 mm 21,6 km/h (4 Bft) W-SW 244 ° 0 min 0,000 mm 0,0 UV-I 0 W/m² -0,3 °C 37,0 km/h (5 Bft)
13.01.2017 05:22 1,2 °C 1,3 °C 89 % 997,5 hPa 0,0 mm 20,7 km/h (4 Bft) W-NW 303 ° 0 min 0,000 mm 0,0 UV-I 0 W/m² -0,4 °C 37,0 km/h (5 Bft)
13.01.2017 05:23 1,2 °C 1,2 °C 90 % 997,5 hPa 0,0 mm 18,0 km/h (3 Bft) SW 236 ° 0 min 0,000 mm 0,0 UV-I 0 W/m² -0,3 °C 33,8 km/h (5 Bft)
13.01.2017 05:24 1,2 °C 1,2 °C 90 % 997,5 hPa 0,0 mm 27,4 km/h (4 Bft) W-SW 241 ° 0 min 0,000 mm 0,0 UV-I 0 W/m² -0,3 °C 38,6 km/h (5 Bft)
13.01.2017 05:25 1,1 °C 1,2 °C 90 % 997,6 hPa 0,0 mm 24,4 km/h (4 Bft) W-NW 286 ° 0 min 0,000 mm 0,0 UV-I 0 W/m² -0,4 °C 45,1 km/h (6 Bft)
13.01.2017 05:26 1,1 °C 1,1 °C 90 % 997,5 hPa 0,0 mm 20,6 km/h (4 Bft) W-SW 254 ° 0 min 0,000 mm 0,0 UV-I 0 W/m² -0,4 °C 32,2 km/h (5 Bft)
13.01.2017 05:27 1,1 °C 1,1 °C 90 % 997,4 hPa 0,0 mm 23,6 km/h (4 Bft) W-SW 257 ° 0 min 0,000 mm 0,0 UV-I 0 W/m² -0,4 °C 33,8 km/h (5 Bft)
13.01.2017 05:28 1,1 °C 1,1 °C 90 % 997,5 hPa 0,0 mm 23,9 km/h (4 Bft) W-SW 240 ° 0 min 0,000 mm 0,0 UV-I 0 W/m² -0,4 °C 35,4 km/h (5 Bft)
13.01.2017 05:29 1,1 °C 1,1 °C 90 % 997,5 hPa 0,0 mm 18,8 km/h (3 Bft) W 265 ° 0 min 0,000 mm 0,0 UV-I 0 W/m² -0,4 °C 25,7 km/h (4 Bft)
13.01.2017 05:30 1,1 °C 1,1 °C 90 % 997,5 hPa 0,0 mm 24,2 km/h (4 Bft) W-SW 252 ° 0 min 0,000 mm 0,0 UV-I 0 W/m² -0,4 °C 30,6 km/h (5 Bft)
13.01.2017 05:31 1,1 °C 1,1 °C 90 % 997,6 hPa 0,0 mm 29,9 km/h (5 Bft) W 280 ° 0 min 0,000 mm 0,0 UV-I 0 W/m² -0,4 °C 40,2 km/h (6 Bft)
13.01.2017 05:32 1,1 °C 1,1 °C 90 % 997,5 hPa 0,0 mm 34,1 km/h (5 Bft) W-SW 250 ° 0 min 0,000 mm 0,0 UV-I 0 W/m² -0,4 °C 46,7 km/h (6 Bft)
13.01.2017 05:33 1,0 °C 1,1 °C 90 % 997,3 hPa 0,0 mm 29,3 km/h (5 Bft) W 273 ° 0 min 0,000 mm 0,0 UV-I 0 W/m² -0,5 °C 51,5 km/h (7 Bft)
13.01.2017 05:34 1,1 °C 1,1 °C 90 % 997,6 hPa 0,0 mm 25,3 km/h (4 Bft) W-NW 290 ° 0 min 0,000 mm 0,0 UV-I 0 W/m² -0,4 °C 35,4 km/h (5 Bft)
13.01.2017 05:35 1,1 °C 1,1 °C 90 % 997,6 hPa 0,0 mm 14,6 km/h (3 Bft) W 259 ° 0 min 0,000 mm 0,0 UV-I 0 W/m² -0,4 °C 24,1 km/h (4 Bft)
13.01.2017 05:36 1,0 °C 1,1 °C 90 % 997,6 hPa 0,0 mm 24,6 km/h (4 Bft) W 273 ° 0 min 0,000 mm 0,0 UV-I 0 W/m² -0,5 °C 38,6 km/h (5 Bft)
13.01.2017 05:37 1,1 °C 1,1 °C 90 % 997,5 hPa 0,0 mm 25,2 km/h (4 Bft) W-NW 286 ° 0 min 0,000 mm 0,0 UV-I 0 W/m² -0,4 °C 38,6 km/h (5 Bft)
13.01.2017 05:38 1,0 °C 1,1 °C 90 % 997,6 hPa 0,0 mm 17,1 km/h (3 Bft) W-NW 282 ° 0 min 0,000 mm 0,0 UV-I 0 W/m² -0,5 °C 24,1 km/h (4 Bft)
13.01.2017 05:39 1,1 °C 1,1 °C 90 % 997,6 hPa 0,0 mm 23,8 km/h (4 Bft) W 269 ° 0 min 0,000 mm 0,0 UV-I 0 W/m² -0,4 °C 32,2 km/h (5 Bft)
13.01.2017 05:40 1,0 °C 1,1 °C 90 % 997,6 hPa 0,0 mm 34,8 km/h (5 Bft) SW 227 ° 0 min 0,000 mm 0,0 UV-I 0 W/m² -0,5 °C 46,7 km/h (6 Bft)
13.01.2017 05:41 1,1 °C 1,1 °C 89 % 997,4 hPa 0,0 mm 39,1 km/h (6 Bft) W-SW 252 ° 0 min 0,000 mm 0,0 UV-I 0 W/m² -0,5 °C 56,3 km/h (7 Bft)
13.01.2017 05:42 1,1 °C 1,1 °C 89 % 997,5 hPa 0,0 mm 20,7 km/h (4 Bft) W 279 ° 0 min 0,000 mm 0,0 UV-I 0 W/m² -0,5 °C 37,0 km/h (5 Bft)
13.01.2017 05:43 1,1 °C 1,1 °C 89 % 997,6 hPa 0,0 mm 22,9 km/h (4 Bft) W 267 ° 0 min 0,000 mm 0,0 UV-I 0 W/m² -0,5 °C 32,2 km/h (5 Bft)
13.01.2017 05:44 1,1 °C 1,1 °C 89 % 997,4 hPa 0,0 mm 27,7 km/h (4 Bft) W 273 ° 0 min 0,000 mm 0,0 UV-I 0 W/m² -0,5 °C 40,2 km/h (6 Bft)
13.01.2017 05:45 1,1 °C 1,1 °C 89 % 997,6 hPa 0,0 mm 31,5 km/h (5 Bft) W 269 ° 0 min 0,000 mm 0,0 UV-I 0 W/m² -0,5 °C 41,8 km/h (6 Bft)
13.01.2017 05:46 1,1 °C 1,1 °C 89 % 997,6 hPa 0,0 mm 26,7 km/h (4 Bft) W-SW 255 ° 0 min 0,000 mm 0,0 UV-I 0 W/m² -0,5 °C 41,8 km/h (6 Bft)
13.01.2017 05:47 1,1 °C 1,1 °C 89 % 997,8 hPa 0,0 mm 29,1 km/h (5 Bft) W 260 ° 0 min 0,000 mm 0,0 UV-I 0 W/m² -0,5 °C 51,5 km/h (7 Bft)
13.01.2017 05:48 1,1 °C 1,1 °C 88 % 997,8 hPa 0,0 mm 21,6 km/h (4 Bft) W-SW 258 ° 0 min 0,000 mm 0,0 UV-I 0 W/m² -0,7 °C 33,8 km/h (5 Bft)
13.01.2017 05:49 1,1 °C 1,1 °C 88 % 997,7 hPa 0,0 mm 23,4 km/h (4 Bft) W-SW 254 ° 0 min 0,000 mm 0,0 UV-I 0 W/m² -0,7 °C 38,6 km/h (5 Bft)
13.01.2017 05:50 1,1 °C 1,1 °C 88 % 997,9 hPa 0,0 mm 26,4 km/h (4 Bft) SW 234 ° 0 min 0,000 mm 0,0 UV-I 0 W/m² -0,7 °C 43,5 km/h (6 Bft)
13.01.2017 05:51 1,1 °C 1,1 °C 88 % 997,6 hPa 0,0 mm 27,0 km/h (4 Bft) NW 306 ° 0 min 0,000 mm 0,0 UV-I 0 W/m² -0,7 °C 41,8 km/h (6 Bft)
13.01.2017 05:52 1,1 °C 1,1 °C 88 % 998,0 hPa 0,0 mm 18,5 km/h (3 Bft) W-SW 256 ° 0 min 0,000 mm 0,0 UV-I 0 W/m² -0,7 °C 25,7 km/h (4 Bft)
13.01.2017 05:53 1,1 °C 1,1 °C 88 % 998,1 hPa 0,0 mm 24,1 km/h (4 Bft) W 265 ° 0 min 0,000 mm 0,0 UV-I 0 W/m² -0,7 °C 48,3 km/h (6 Bft)
13.01.2017 05:54 1,1 °C 1,1 °C 89 % 997,8 hPa 0,0 mm 28,4 km/h (4 Bft) W 271 ° 0 min 0,000 mm 0,0 UV-I 0 W/m² -0,5 °C 40,2 km/h (6 Bft)
13.01.2017 05:55 1,0 °C 1,1 °C 89 % 998,1 hPa 0,0 mm 26,8 km/h (4 Bft) W-NW 289 ° 0 min 0,000 mm 0,0 UV-I 0 W/m² -0,6 °C 46,7 km/h (6 Bft)
13.01.2017 05:56 1,0 °C 1,0 °C 89 % 998,0 hPa 0,0 mm 18,1 km/h (3 Bft) W-SW 252 ° 0 min 0,000 mm 0,0 UV-I 0 W/m² -0,6 °C 35,4 km/h (5 Bft)
13.01.2017 05:57 0,9 °C 1,0 °C 89 % 997,9 hPa 0,0 mm 22,0 km/h (4 Bft) W-SW 248 ° 0 min 0,000 mm 0,0 UV-I 0 W/m² -0,7 °C 30,6 km/h (5 Bft)
13.01.2017 05:58 0,9 °C 0,9 °C 90 % 998,0 hPa 0,0 mm 25,3 km/h (4 Bft) W 273 ° 0 min 0,000 mm 0,0 UV-I 0 W/m² -0,6 °C 35,4 km/h (5 Bft)
13.01.2017 05:59 0,8 °C 0,9 °C 90 % 998,2 hPa 0,0 mm 25,1 km/h (4 Bft) W-SW 251 ° 0 min 0,000 mm 0,0 UV-I 0 W/m² -0,6 °C 38,6 km/h (5 Bft)
13.01.2017 06:00 0,8 °C 0,8 °C 90 % 998,2 hPa 0,0 mm 31,7 km/h (5 Bft) W 259 ° 0 min 0,025 mm 0,0 UV-I 0 W/m² -0,6 °C 46,7 km/h (6 Bft)
13.01.2017 06:01 0,8 °C 0,8 °C 90 % 998,3 hPa 0,0 mm 35,4 km/h (5 Bft) W 277 ° 0 min 0,000 mm 0,0 UV-I 0 W/m² -0,6 °C 45,1 km/h (6 Bft)
13.01.2017 06:02 0,7 °C 0,8 °C 90 % 998,2 hPa 0,0 mm 34,3 km/h (5 Bft) W 270 ° 0 min 0,000 mm 0,0 UV-I 0 W/m² -0,7 °C 54,7 km/h (7 Bft)
13.01.2017 06:03 0,7 °C 0,7 °C 90 % 998,4 hPa 0,0 mm 36,7 km/h (5 Bft) W-SW 251 ° 0 min 0,000 mm 0,0 UV-I 0 W/m² -0,7 °C 53,1 km/h (7 Bft)
13.01.2017 06:04 0,6 °C 0,7 °C 89 % 998,4 hPa 0,0 mm 30,0 km/h (5 Bft) W-NW 294 ° 0 min 0,000 mm 0,0 UV-I 0 W/m² -1,0 °C 51,5 km/h (7 Bft)
13.01.2017 06:05 0,6 °C 0,6 °C 89 % 998,2 hPa 0,0 mm 36,7 km/h (5 Bft) W-SW 240 ° 0 min 0,000 mm 0,0 UV-I 0 W/m² -1,0 °C 57,9 km/h (7 Bft)
13.01.2017 06:06 0,6 °C 0,6 °C 89 % 998,2 hPa 0,0 mm 32,2 km/h (5 Bft) W 263 ° 0 min 0,000 mm 0,0 UV-I 0 W/m² -1,0 °C 49,9 km/h (6 Bft)
13.01.2017 06:07 0,6 °C 0,6 °C 89 % 998,1 hPa 0,0 mm 30,0 km/h (5 Bft) W-SW 258 ° 0 min 0,000 mm 0,0 UV-I 0 W/m² -1,0 °C 62,8 km/h (8 Bft)
13.01.2017 06:08 0,6 °C 0,6 °C 89 % 998,3 hPa 0,0 mm 34,4 km/h (5 Bft) NW 306 ° 0 min 0,000 mm 0,0 UV-I 0 W/m² -1,0 °C 56,3 km/h (7 Bft)
13.01.2017 06:09 0,5 °C 0,6 °C 89 % 998,2 hPa 0,0 mm 18,2 km/h (3 Bft) S-SW 194 ° 0 min 0,000 mm 0,0 UV-I 0 W/m² -1,1 °C 22,5 km/h (4 Bft)
13.01.2017 06:10 0,6 °C 0,6 °C 90 % 998,2 hPa 0,0 mm 20,9 km/h (4 Bft) W-SW 249 ° 0 min 0,000 mm 0,0 UV-I 0 W/m² -0,8 °C 29,0 km/h (5 Bft)
13.01.2017 06:11 0,4 °C 0,6 °C 89 % 998,7 hPa 0,0 mm 32,8 km/h (5 Bft) W-SW 240 ° 0 min 0,000 mm 0,0 UV-I 0 W/m² -1,2 °C 43,5 km/h (6 Bft)
13.01.2017 06:12 0,4 °C 0,5 °C 89 % 998,7 hPa 0,0 mm 31,4 km/h (5 Bft) W-SW 257 ° 0 min 0,000 mm 0,0 UV-I 0 W/m² -1,2 °C 46,7 km/h (6 Bft)
13.01.2017 06:13 0,4 °C 0,4 °C 89 % 998,6 hPa 0,0 mm 22,8 km/h (4 Bft) W 273 ° 0 min 0,000 mm 0,0 UV-I 0 W/m² -1,2 °C 41,8 km/h (6 Bft)
13.01.2017 06:14 0,4 °C 0,4 °C 89 % 998,7 hPa 0,0 mm 19,3 km/h (3 Bft) W 259 ° 0 min 0,000 mm 0,0 UV-I 0 W/m² -1,2 °C 27,4 km/h (4 Bft)
13.01.2017 06:15 0,4 °C 0,4 °C 89 % 998,7 hPa 0,0 mm 37,7 km/h (5 Bft) W-SW 253 ° 0 min 0,000 mm 0,0 UV-I 0 W/m² -1,2 °C 53,1 km/h (7 Bft)
13.01.2017 06:16 0,4 °C 0,4 °C 89 % 998,8 hPa 0,0 mm 28,2 km/h (4 Bft) SW 234 ° 0 min 0,000 mm 0,0 UV-I 0 W/m² -1,2 °C 56,3 km/h (7 Bft)
13.01.2017 06:17 0,4 °C 0,4 °C 89 % 998,8 hPa 0,0 mm 34,2 km/h (5 Bft) W-SW 246 ° 0 min 0,000 mm 0,0 UV-I 0 W/m² -1,2 °C 54,7 km/h (7 Bft)
13.01.2017 06:18 0,4 °C 0,4 °C 89 % 998,7 hPa 0,0 mm 32,7 km/h (5 Bft) W-SW 252 ° 0 min 0,000 mm 0,0 UV-I 0 W/m² -1,2 °C 45,1 km/h (6 Bft)
13.01.2017 06:19 0,4 °C 0,4 °C 90 % 998,8 hPa 0,0 mm 29,3 km/h (5 Bft) W 267 ° 0 min 0,000 mm 0,0 UV-I 0 W/m² -1,0 °C 46,7 km/h (6 Bft)
13.01.2017 06:20 0,3 °C 0,4 °C 89 % 998,5 hPa 0,0 mm 33,6 km/h (5 Bft) S-SW 198 ° 0 min 0,000 mm 0,0 UV-I 0 W/m² -1,3 °C 49,9 km/h (6 Bft)
13.01.2017 06:21 0,3 °C 0,3 °C 89 % 998,7 hPa 0,0 mm 28,4 km/h (4 Bft) W-SW 255 ° 0 min 0,000 mm 0,0 UV-I 0 W/m² -1,3 °C 54,7 km/h (7 Bft)
13.01.2017 06:22 0,3 °C 0,3 °C 89 % 998,4 hPa 0,0 mm 30,4 km/h (5 Bft) W-SW 258 ° 0 min 0,000 mm 0,0 UV-I 0 W/m² -1,3 °C 49,9 km/h (6 Bft)
13.01.2017 06:23 0,3 °C 0,4 °C 89 % 998,4 hPa 0,0 mm 25,9 km/h (4 Bft) W 262 ° 0 min 0,000 mm 0,0 UV-I 0 W/m² -1,3 °C 35,4 km/h (5 Bft)
13.01.2017 06:24 0,3 °C 0,3 °C 89 % 998,7 hPa 0,0 mm 25,9 km/h (4 Bft) W-NW 286 ° 0 min 0,000 mm 0,0 UV-I 0 W/m² -1,3 °C 38,6 km/h (5 Bft)
13.01.2017 06:25 0,3 °C 0,3 °C 88 % 998,5 hPa 0,0 mm 34,9 km/h (5 Bft) W-SW 246 ° 0 min 0,000 mm 0,0 UV-I 0 W/m² -1,4 °C 54,7 km/h (7 Bft)
13.01.2017 06:26 0,3 °C 0,3 °C 88 % 998,5 hPa 0,0 mm 36,6 km/h (5 Bft) W-SW 242 ° 0 min 0,000 mm 0,0 UV-I 0 W/m² -1,4 °C 49,9 km/h (6 Bft)
13.01.2017 06:27 0,3 °C 0,3 °C 87 % 998,6 hPa 0,0 mm 26,9 km/h (4 Bft) W-SW 253 ° 0 min 0,000 mm 0,0 UV-I 0 W/m² -1,6 °C 35,4 km/h (5 Bft)
13.01.2017 06:28 0,3 °C 0,3 °C 87 % 998,9 hPa 0,0 mm 29,8 km/h (5 Bft) W-SW 254 ° 0 min 0,000 mm 0,0 UV-I 0 W/m² -1,6 °C 46,7 km/h (6 Bft)
13.01.2017 06:29 0,3 °C 0,3 °C 87 % 998,6 hPa 0,0 mm 27,8 km/h (4 Bft) W-SW 242 ° 0 min 0,000 mm 0,0 UV-I 0 W/m² -1,6 °C 48,3 km/h (6 Bft)
13.01.2017 06:30 0,3 °C 0,3 °C 87 % 998,8 hPa 0,0 mm 29,2 km/h (5 Bft) W-SW 252 ° 0 min 0,000 mm 0,0 UV-I 0 W/m² -1,6 °C 41,8 km/h (6 Bft)
13.01.2017 06:31 0,3 °C 0,3 °C 87 % 998,7 hPa 0,0 mm 22,1 km/h (4 Bft) W-SW 257 ° 0 min 0,000 mm 0,0 UV-I 0 W/m² -1,6 °C 30,6 km/h (5 Bft)
13.01.2017 06:32 0,3 °C 0,3 °C 87 % 999,0 hPa 0,0 mm 20,9 km/h (4 Bft) W-SW 252 ° 0 min 0,000 mm 0,0 UV-I 0 W/m² -1,6 °C 35,4 km/h (5 Bft)
13.01.2017 06:33 0,3 °C 0,3 °C 87 % 999,0 hPa 0,0 mm 32,0 km/h (5 Bft) W 280 ° 0 min 0,000 mm 0,0 UV-I 0 W/m² -1,6 °C 49,9 km/h (6 Bft)
13.01.2017 06:34 0,3 °C 0,3 °C 87 % 998,7 hPa 0,0 mm 27,0 km/h (4 Bft) W 273 ° 0 min 0,000 mm 0,0 UV-I 0 W/m² -1,6 °C 40,2 km/h (6 Bft)
13.01.2017 06:35 0,3 °C 0,3 °C 87 % 998,7 hPa 0,0 mm 23,6 km/h (4 Bft) W-SW 256 ° 0 min 0,000 mm 0,0 UV-I 0 W/m² -1,6 °C 37,0 km/h (5 Bft)
13.01.2017 06:36 0,3 °C 0,3 °C 87 % 998,8 hPa 0,0 mm 19,6 km/h (3 Bft) W-SW 245 ° 0 min 0,000 mm 0,0 UV-I 0 W/m² -1,6 °C 25,7 km/h (4 Bft)
13.01.2017 06:37 0,3 °C 0,3 °C 87 % 998,8 hPa 0,0 mm 20,1 km/h (4 Bft) W-NW 283 ° 0 min 0,000 mm 0,0 UV-I 0 W/m² -1,6 °C 27,4 km/h (4 Bft)
13.01.2017 06:38 0,3 °C 0,3 °C 87 % 998,9 hPa 0,0 mm 21,7 km/h (4 Bft) W-SW 251 ° 0 min 0,000 mm 0,0 UV-I 0 W/m² -1,6 °C 37,0 km/h (5 Bft)
13.01.2017 06:39 0,3 °C 0,3 °C 88 % 998,9 hPa 0,0 mm 15,6 km/h (3 Bft) W 261 ° 0 min 0,000 mm 0,0 UV-I 0 W/m² -1,4 °C 32,2 km/h (5 Bft)
13.01.2017 06:40 0,3 °C 0,3 °C 88 % 998,8 hPa 0,0 mm 27,3 km/h (4 Bft) W 259 ° 0 min 0,000 mm 0,0 UV-I 0 W/m² -1,4 °C 40,2 km/h (6 Bft)
13.01.2017 06:41 0,3 °C 0,3 °C 88 % 999,0 hPa 0,0 mm 22,9 km/h (4 Bft) W-SW 243 ° 0 min 0,000 mm 0,0 UV-I 0 W/m² -1,4 °C 33,8 km/h (5 Bft)
13.01.2017 06:42 0,3 °C 0,3 °C 88 % 999,3 hPa 0,0 mm 22,5 km/h (4 Bft) W-SW 240 ° 0 min 0,000 mm 0,0 UV-I 0 W/m² -1,4 °C 37,0 km/h (5 Bft)
13.01.2017 06:43 0,3 °C 0,3 °C 88 % 999,3 hPa 0,0 mm 31,1 km/h (5 Bft) W 260 ° 0 min 0,000 mm 0,0 UV-I 0 W/m² -1,4 °C 46,7 km/h (6 Bft)
13.01.2017 06:44 0,2 °C 0,3 °C 87 % 999,1 hPa 0,0 mm 28,0 km/h (4 Bft) W-SW 250 ° 0 min 0,000 mm 0,0 UV-I 0 W/m² -1,7 °C 41,8 km/h (6 Bft)
13.01.2017 06:45 0,2 °C 0,3 °C 87 % 999,1 hPa 0,0 mm 24,6 km/h (4 Bft) W 265 ° 0 min 0,000 mm 0,0 UV-I 0 W/m² -1,7 °C 41,8 km/h (6 Bft)
13.01.2017 06:46 0,2 °C 0,3 °C 86 % 999,0 hPa 0,0 mm 27,2 km/h (4 Bft) W-SW 248 ° 0 min 0,000 mm 0,0 UV-I 0 W/m² -1,9 °C 33,8 km/h (5 Bft)
13.01.2017 06:47 0,3 °C 0,3 °C 86 % 999,2 hPa 0,0 mm 26,1 km/h (4 Bft) W 267 ° 0 min 0,000 mm 0,0 UV-I 0 W/m² -1,8 °C 40,2 km/h (6 Bft)
13.01.2017 06:48 0,2 °C 0,3 °C 86 % 999,0 hPa 0,0 mm 26,2 km/h (4 Bft) W-SW 257 ° 0 min 0,000 mm 0,0 UV-I 0 W/m² -1,9 °C 35,4 km/h (5 Bft)
13.01.2017 06:49 0,3 °C 0,3 °C 86 % 999,0 hPa 0,0 mm 21,9 km/h (4 Bft) W-SW 242 ° 0 min 0,000 mm 0,0 UV-I 0 W/m² -1,8 °C 51,5 km/h (7 Bft)
13.01.2017 06:50 0,3 °C 0,3 °C 86 % 999,2 hPa 0,0 mm 30,3 km/h (5 Bft) W 272 ° 0 min 0,000 mm 0,0 UV-I 0 W/m² -1,8 °C 46,7 km/h (6 Bft)
13.01.2017 06:51 0,3 °C 0,3 °C 85 % 999,3 hPa 0,0 mm 21,7 km/h (4 Bft) W-NW 288 ° 0 min 0,000 mm 0,0 UV-I 0 W/m² -1,9 °C 43,5 km/h (6 Bft)
13.01.2017 06:52 0,3 °C 0,3 °C 84 % 999,2 hPa 0,0 mm 29,7 km/h (5 Bft) W 266 ° 0 min 0,000 mm 0,0 UV-I 0 W/m² -2,1 °C 40,2 km/h (6 Bft)
13.01.2017 06:53 0,3 °C 0,3 °C 84 % 999,3 hPa 0,0 mm 25,9 km/h (4 Bft) W-SW 242 ° 0 min 0,000 mm 0,0 UV-I 0 W/m² -2,1 °C 33,8 km/h (5 Bft)
13.01.2017 06:54 0,3 °C 0,3 °C 84 % 999,2 hPa 0,0 mm 29,8 km/h (5 Bft) W 280 ° 0 min 0,000 mm 0,0 UV-I 0 W/m² -2,1 °C 59,5 km/h (7 Bft)
13.01.2017 06:55 0,3 °C 0,3 °C 84 % 999,3 hPa 0,0 mm 24,8 km/h (4 Bft) NW 312 ° 0 min 0,000 mm 0,0 UV-I 0 W/m² -2,1 °C 33,8 km/h (5 Bft)
13.01.2017 06:56 0,3 °C 0,3 °C 84 % 999,4 hPa 0,0 mm 17,9 km/h (3 Bft) W-SW 244 ° 0 min 0,000 mm 0,0 UV-I 0 W/m² -2,1 °C 24,1 km/h (4 Bft)
13.01.2017 06:57 0,3 °C 0,3 °C 84 % 999,4 hPa 0,0 mm 23,1 km/h (4 Bft) SW 225 ° 0 min 0,000 mm 0,0 UV-I 0 W/m² -2,1 °C 37,0 km/h (5 Bft)
13.01.2017 06:58 0,3 °C 0,3 °C 83 % 999,5 hPa 0,0 mm 23,4 km/h (4 Bft) W-SW 251 ° 0 min 0,000 mm 0,0 UV-I 0 W/m² -2,2 °C 45,1 km/h (6 Bft)
13.01.2017 06:59 0,3 °C 0,3 °C 83 % 999,2 hPa 0,0 mm 30,7 km/h (5 Bft) S-SW 209 ° 0 min 0,000 mm 0,0 UV-I 0 W/m² -2,2 °C 46,7 km/h (6 Bft)
13.01.2017 07:00 0,3 °C 0,3 °C 83 % 999,4 hPa 0,0 mm 23,2 km/h (4 Bft) NW 307 ° 0 min 0,000 mm 0,0 UV-I 0 W/m² -2,2 °C 29,0 km/h (5 Bft)
13.01.2017 07:01 0,3 °C 0,3 °C 83 % 999,3 hPa 0,0 mm 28,2 km/h (4 Bft) W-SW 243 ° 0 min 0,026 mm 0,0 UV-I 0 W/m² -2,2 °C 41,8 km/h (6 Bft)
13.01.2017 07:02 0,3 °C 0,3 °C 83 % 999,3 hPa 0,0 mm 21,1 km/h (4 Bft) NW 311 ° 0 min 0,000 mm 0,0 UV-I 0 W/m² -2,2 °C 30,6 km/h (5 Bft)
13.01.2017 07:03 0,3 °C 0,3 °C 83 % 999,3 hPa 0,0 mm 25,8 km/h (4 Bft) W 259 ° 0 min 0,000 mm 0,0 UV-I 0 W/m² -2,2 °C 40,2 km/h (6 Bft)
13.01.2017 07:04 0,3 °C 0,3 °C 83 % 999,4 hPa 0,0 mm 31,9 km/h (5 Bft) W 260 ° 0 min 0,000 mm 0,0 UV-I 0 W/m² -2,2 °C 46,7 km/h (6 Bft)
13.01.2017 07:05 0,3 °C 0,3 °C 82 % 999,3 hPa 0,0 mm 17,1 km/h (3 Bft) SW 219 ° 0 min 0,000 mm 0,0 UV-I 0 W/m² -2,4 °C 20,9 km/h (4 Bft)
13.01.2017 07:06 0,3 °C 0,3 °C 83 % 999,4 hPa 0,0 mm 24,7 km/h (4 Bft) W 271 ° 0 min 0,000 mm 0,0 UV-I 0 W/m² -2,2 °C 43,5 km/h (6 Bft)
13.01.2017 07:07 0,3 °C 0,3 °C 83 % 999,4 hPa 0,0 mm 29,5 km/h (5 Bft) S-SW 209 ° 0 min 0,000 mm 0,0 UV-I 0 W/m² -2,2 °C 46,7 km/h (6 Bft)
13.01.2017 07:08 0,3 °C 0,3 °C 82 % 999,4 hPa 0,0 mm 26,0 km/h (4 Bft) NW 309 ° 0 min 0,000 mm 0,0 UV-I 0 W/m² -2,4 °C 38,6 km/h (5 Bft)
13.01.2017 07:09 0,3 °C 0,3 °C 82 % 999,5 hPa 0,0 mm 23,3 km/h (4 Bft) W 272 ° 0 min 0,000 mm 0,0 UV-I 0 W/m² -2,4 °C 41,8 km/h (6 Bft)
13.01.2017 07:10 0,3 °C 0,3 °C 82 % 999,2 hPa 0,0 mm 23,5 km/h (4 Bft) W-NW 289 ° 0 min 0,000 mm 0,0 UV-I 0 W/m² -2,4 °C 35,4 km/h (5 Bft)
13.01.2017 07:11 0,3 °C 0,3 °C 82 % 999,3 hPa 0,0 mm 22,6 km/h (4 Bft) W-SW 241 ° 0 min 0,000 mm 0,0 UV-I 0 W/m² -2,4 °C 32,2 km/h (5 Bft)
13.01.2017 07:12 0,3 °C 0,3 °C 82 % 999,4 hPa 0,0 mm 30,3 km/h (5 Bft) W 271 ° 0 min 0,000 mm 0,0 UV-I 0 W/m² -2,4 °C 41,8 km/h (6 Bft)
13.01.2017 07:13 0,3 °C 0,3 °C 82 % 999,4 hPa 0,0 mm 24,1 km/h (4 Bft) W-NW 291 ° 0 min 0,000 mm 0,0 UV-I 0 W/m² -2,4 °C 40,2 km/h (6 Bft)
13.01.2017 07:14 0,3 °C 0,3 °C 82 % 999,3 hPa 0,0 mm 18,0 km/h (3 Bft) W-SW 242 ° 0 min 0,000 mm 0,0 UV-I 0 W/m² -2,4 °C 32,2 km/h (5 Bft)
13.01.2017 07:15 0,3 °C 0,3 °C 82 % 999,3 hPa 0,0 mm 21,0 km/h (4 Bft) W-SW 242 ° 0 min 0,000 mm 0,0 UV-I 0 W/m² -2,4 °C 32,2 km/h (5 Bft)
13.01.2017 07:16 0,3 °C 0,3 °C 82 % 999,3 hPa 0,0 mm 26,4 km/h (4 Bft) W 281 ° 0 min 0,000 mm 0,0 UV-I 0 W/m² -2,4 °C 45,1 km/h (6 Bft)
13.01.2017 07:17 0,3 °C 0,3 °C 81 % 999,3 hPa 0,0 mm 31,0 km/h (5 Bft) W 281 ° 0 min 0,000 mm 0,0 UV-I 0 W/m² -2,6 °C 45,1 km/h (6 Bft)
13.01.2017 07:18 0,3 °C 0,3 °C 81 % 999,5 hPa 0,0 mm 24,9 km/h (4 Bft) W-SW 257 ° 0 min 0,000 mm 0,0 UV-I 0 W/m² -2,6 °C 33,8 km/h (5 Bft)
13.01.2017 07:19 0,3 °C 0,3 °C 81 % 999,5 hPa 0,0 mm 29,7 km/h (5 Bft) W 260 ° 0 min 0,000 mm 0,0 UV-I 0 W/m² -2,6 °C 48,3 km/h (6 Bft)
13.01.2017 07:20 0,3 °C 0,3 °C 80 % 999,5 hPa 0,0 mm 24,0 km/h (4 Bft) W-SW 244 ° 0 min 0,000 mm 0,0 UV-I 0 W/m² -2,7 °C 46,7 km/h (6 Bft)
13.01.2017 07:21 0,3 °C 0,3 °C 80 % 999,7 hPa 0,0 mm 24,9 km/h (4 Bft) W 269 ° 0 min 0,000 mm 0,0 UV-I 0 W/m² -2,7 °C 38,6 km/h (5 Bft)
13.01.2017 07:22 0,3 °C 0,3 °C 80 % 999,4 hPa 0,0 mm 24,7 km/h (4 Bft) W 263 ° 0 min 0,000 mm 0,0 UV-I 0 W/m² -2,7 °C 33,8 km/h (5 Bft)
13.01.2017 07:23 0,3 °C 0,3 °C 80 % 999,5 hPa 0,0 mm 20,1 km/h (4 Bft) W-SW 243 ° 0 min 0,000 mm 0,0 UV-I 0 W/m² -2,7 °C 32,2 km/h (5 Bft)
13.01.2017 07:24 0,3 °C 0,3 °C 79 % 999,4 hPa 0,0 mm 33,0 km/h (5 Bft) W-SW 245 ° 0 min 0,000 mm 0,0 UV-I 0 W/m² -2,9 °C 43,5 km/h (6 Bft)
13.01.2017 07:25 0,3 °C 0,3 °C 78 % 999,5 hPa 0,0 mm 27,2 km/h (4 Bft) W 267 ° 0 min 0,000 mm 0,0 UV-I 0 W/m² -3,1 °C 41,8 km/h (6 Bft)
13.01.2017 07:26 0,3 °C 0,3 °C 77 % 999,4 hPa 0,0 mm 30,8 km/h (5 Bft) W-SW 248 ° 0 min 0,000 mm 0,0 UV-I 0 W/m² -3,2 °C 53,1 km/h (7 Bft)
13.01.2017 07:27 0,3 °C 0,3 °C 78 % 999,5 hPa 0,0 mm 23,6 km/h (4 Bft) W 270 ° 0 min 0,000 mm 0,0 UV-I 0 W/m² -3,1 °C 38,6 km/h (5 Bft)
13.01.2017 07:28 0,3 °C 0,3 °C 77 % 999,3 hPa 0,0 mm 28,9 km/h (5 Bft) W-NW 298 ° 0 min 0,000 mm 0,0 UV-I 0 W/m² -3,2 °C 41,8 km/h (6 Bft)
13.01.2017 07:29 0,3 °C 0,3 °C 78 % 999,4 hPa 0,0 mm 23,9 km/h (4 Bft) W 269 ° 0 min 0,000 mm 0,0 UV-I 0 W/m² -3,1 °C 41,8 km/h (6 Bft)
13.01.2017 07:30 0,3 °C 0,3 °C 77 % 999,4 hPa 0,0 mm 24,7 km/h (4 Bft) W-SW 246 ° 0 min 0,000 mm 0,0 UV-I 0 W/m² -3,2 °C 38,6 km/h (5 Bft)
13.01.2017 07:31 0,3 °C 0,3 °C 77 % 999,6 hPa 0,0 mm 29,4 km/h (5 Bft) W-NW 293 ° 0 min 0,000 mm 0,0 UV-I 0 W/m² -3,2 °C 45,1 km/h (6 Bft)
13.01.2017 07:32 0,3 °C 0,3 °C 77 % 999,4 hPa 0,0 mm 29,2 km/h (5 Bft) W-NW 293 ° 0 min 0,000 mm 0,0 UV-I 0 W/m² -3,2 °C 51,5 km/h (7 Bft)
13.01.2017 07:33 0,3 °C 0,4 °C 76 % 999,3 hPa 0,0 mm 30,0 km/h (5 Bft) SW 231 ° 0 min 0,000 mm 0,0 UV-I 0 W/m² -3,4 °C 41,8 km/h (6 Bft)
13.01.2017 07:34 0,3 °C 0,3 °C 76 % 999,3 hPa 0,0 mm 36,8 km/h (5 Bft) W-SW 252 ° 0 min 0,000 mm 0,0 UV-I 0 W/m² -3,4 °C 57,9 km/h (7 Bft)
13.01.2017 07:35 0,3 °C 0,3 °C 76 % 999,4 hPa 0,0 mm 24,3 km/h (4 Bft) NW 312 ° 0 min 0,000 mm 0,0 UV-I 0 W/m² -3,4 °C 41,8 km/h (6 Bft)
13.01.2017 07:36 0,4 °C 0,4 °C 76 % 999,5 hPa 0,0 mm 32,3 km/h (5 Bft) W 262 ° 0 min 0,000 mm 0,0 UV-I 0 W/m² -3,3 °C 45,1 km/h (6 Bft)
13.01.2017 07:37 0,3 °C 0,4 °C 76 % 999,5 hPa 0,0 mm 27,1 km/h (4 Bft) W-SW 240 ° 0 min 0,000 mm 0,0 UV-I 0 W/m² -3,4 °C 38,6 km/h (5 Bft)
13.01.2017 07:38 0,3 °C 0,4 °C 75 % 999,6 hPa 0,0 mm 30,6 km/h (5 Bft) SW 234 ° 0 min 0,000 mm 0,0 UV-I 0 W/m² -3,6 °C 43,5 km/h (6 Bft)
13.01.2017 07:39 0,3 °C 0,4 °C 76 % 999,7 hPa 0,0 mm 28,8 km/h (4 Bft) W 278 ° 0 min 0,000 mm 0,0 UV-I 0 W/m² -3,4 °C 38,6 km/h (5 Bft)
13.01.2017 07:40 0,3 °C 0,4 °C 75 % 999,8 hPa 0,0 mm 37,8 km/h (5 Bft) W-SW 246 ° 0 min 0,000 mm 0,0 UV-I 0 W/m² -3,6 °C 48,3 km/h (6 Bft)
13.01.2017 07:41 0,4 °C 0,4 °C 74 % 1000,0 hPa 0,0 mm 42,7 km/h (6 Bft) W-NW 296 ° 0 min 0,000 mm 0,0 UV-I 0 W/m² -3,7 °C 66,0 km/h (8 Bft)
13.01.2017 07:42 0,3 °C 0,4 °C 75 % 1000,0 hPa 0,0 mm 39,3 km/h (6 Bft) W 265 ° 0 min 0,000 mm 0,0 UV-I 0 W/m² -3,6 °C 53,1 km/h (7 Bft)
13.01.2017 07:43 0,3 °C 0,3 °C 74 % 999,9 hPa 0,0 mm 30,8 km/h (5 Bft) W 266 ° 0 min 0,000 mm 0,0 UV-I 0 W/m² -3,8 °C 56,3 km/h (7 Bft)
13.01.2017 07:44 0,3 °C 0,3 °C 75 % 1000,1 hPa 0,0 mm 24,8 km/h (4 Bft) W-SW 258 ° 0 min 0,000 mm 0,0 UV-I 0 W/m² -3,6 °C 45,1 km/h (6 Bft)
13.01.2017 07:45 0,3 °C 0,3 °C 75 % 1000,0 hPa 0,0 mm 27,8 km/h (4 Bft) W 280 ° 0 min 0,000 mm 0,0 UV-I 0 W/m² -3,6 °C 40,2 km/h (6 Bft)
13.01.2017 07:46 0,3 °C 0,3 °C 75 % 1000,2 hPa 0,0 mm 29,4 km/h (5 Bft) W-NW 296 ° 0 min 0,000 mm 0,0 UV-I 0 W/m² -3,6 °C 37,0 km/h (5 Bft)
13.01.2017 07:47 0,3 °C 0,3 °C 75 % 1000,2 hPa 0,0 mm 37,6 km/h (5 Bft) W-NW 291 ° 0 min 0,000 mm 0,0 UV-I 0 W/m² -3,6 °C 51,5 km/h (7 Bft)
13.01.2017 07:48 0,3 °C 0,3 °C 74 % 1000,4 hPa 0,0 mm 33,8 km/h (5 Bft) W-NW 296 ° 0 min 0,000 mm 0,0 UV-I 0 W/m² -3,8 °C 61,2 km/h (7 Bft)
13.01.2017 07:49 0,3 °C 0,3 °C 74 % 1000,4 hPa 0,0 mm 36,9 km/h (5 Bft) W 279 ° 0 min 0,000 mm 0,0 UV-I 0 W/m² -3,8 °C 53,1 km/h (7 Bft)
13.01.2017 07:50 0,3 °C 0,3 °C 74 % 1000,7 hPa 0,0 mm 28,2 km/h (4 Bft) W 269 ° 0 min 0,000 mm 0,0 UV-I 0 W/m² -3,8 °C 38,6 km/h (5 Bft)
13.01.2017 07:51 0,3 °C 0,3 °C 73 % 1000,7 hPa 0,0 mm 29,4 km/h (5 Bft) NW 304 ° 0 min 0,000 mm 0,0 UV-I 0 W/m² -4,0 °C 59,5 km/h (7 Bft)
13.01.2017 07:52 0,3 °C 0,3 °C 74 % 1000,6 hPa 0,0 mm 31,3 km/h (5 Bft) W-SW 251 ° 0 min 0,000 mm 0,0 UV-I 0 W/m² -3,8 °C 45,1 km/h (6 Bft)
13.01.2017 07:53 0,3 °C 0,3 °C 73 % 1000,5 hPa 0,0 mm 31,1 km/h (5 Bft) W-NW 286 ° 0 min 0,000 mm 0,0 UV-I 0 W/m² -4,0 °C 49,9 km/h (6 Bft)
13.01.2017 07:54 0,3 °C 0,3 °C 73 % 1000,5 hPa 0,0 mm 27,1 km/h (4 Bft) W-SW 246 ° 0 min 0,000 mm 0,0 UV-I 0 W/m² -4,0 °C 38,6 km/h (5 Bft)
13.01.2017 07:55 0,2 °C 0,3 °C 74 % 1000,6 hPa 0,0 mm 29,7 km/h (5 Bft) W 269 ° 0 min 0,000 mm 0,0 UV-I 0 W/m² -3,9 °C 45,1 km/h (6 Bft)
13.01.2017 07:56 0,2 °C 0,3 °C 73 % 1000,5 hPa 0,0 mm 27,1 km/h (4 Bft) W-NW 285 ° 0 min 0,000 mm 0,0 UV-I 0 W/m² -4,1 °C 41,8 km/h (6 Bft)
13.01.2017 07:57 0,2 °C 0,2 °C 74 % 1000,5 hPa 0,0 mm 31,2 km/h (5 Bft) W-SW 246 ° 0 min 0,000 mm 0,0 UV-I 0 W/m² -3,9 °C 49,9 km/h (6 Bft)
13.01.2017 07:58 0,2 °C 0,2 °C 74 % 1000,5 hPa 0,0 mm 36,9 km/h (5 Bft) NW 321 ° 0 min 0,000 mm 0,0 UV-I 0 W/m² -3,9 °C 46,7 km/h (6 Bft)
13.01.2017 07:59 0,2 °C 0,2 °C 74 % 1000,6 hPa 0,0 mm 33,1 km/h (5 Bft) W 263 ° 0 min 0,000 mm 0,0 UV-I 0 W/m² -3,9 °C 51,5 km/h (7 Bft)
13.01.2017 08:00 0,2 °C 0,2 °C 75 % 1000,6 hPa 0,0 mm 21,9 km/h (4 Bft) W-NW 297 ° 0 min 0,050 mm 0,0 UV-I 0 W/m² -3,7 °C 32,2 km/h (5 Bft)
13.01.2017 08:01 0,2 °C 0,2 °C 75 % 1000,5 hPa 0,0 mm 16,9 km/h (3 Bft) W 266 ° 0 min 0,000 mm 0,0 UV-I 0 W/m² -3,7 °C 35,4 km/h (5 Bft)
13.01.2017 08:02 0,1 °C 0,2 °C 75 % 1000,5 hPa 0,0 mm 27,3 km/h (4 Bft) W 280 ° 0 min 0,000 mm 0,0 UV-I 0 W/m² -3,8 °C 38,6 km/h (5 Bft)
13.01.2017 08:03 0,1 °C 0,2 °C 75 % 1000,6 hPa 0,0 mm 24,8 km/h (4 Bft) NW 304 ° 0 min 0,000 mm 0,0 UV-I 0 W/m² -3,8 °C 45,1 km/h (6 Bft)
13.01.2017 08:04 0,1 °C 0,1 °C 75 % 1000,7 hPa 0,0 mm 27,3 km/h (4 Bft) W 281 ° 0 min 0,000 mm 0,0 UV-I 0 W/m² -3,8 °C 43,5 km/h (6 Bft)
13.01.2017 08:05 0,1 °C 0,1 °C 75 % 1000,7 hPa 0,0 mm 22,9 km/h (4 Bft) W-SW 252 ° 0 min 0,000 mm 0,0 UV-I 0 W/m² -3,8 °C 37,0 km/h (5 Bft)
13.01.2017 08:06 0,1 °C 0,1 °C 75 % 1000,7 hPa 0,0 mm 28,2 km/h (4 Bft) W 272 ° 0 min 0,000 mm 0,0 UV-I 0 W/m² -3,8 °C 48,3 km/h (6 Bft)
13.01.2017 08:07 0,1 °C 0,1 °C 75 % 1000,8 hPa 0,0 mm 24,9 km/h (4 Bft) W-SW 249 ° 0 min 0,000 mm 0,0 UV-I 0 W/m² -3,8 °C 45,1 km/h (6 Bft)
13.01.2017 08:08 0,1 °C 0,1 °C 76 % 1000,6 hPa 0,0 mm 26,3 km/h (4 Bft) W-SW 250 ° 0 min 0,000 mm 0,0 UV-I 0 W/m² -3,6 °C 37,0 km/h (5 Bft)
13.01.2017 08:09 0,1 °C 0,1 °C 75 % 1000,7 hPa 0,0 mm 23,9 km/h (4 Bft) W-NW 292 ° 0 min 0,000 mm 0,0 UV-I 0 W/m² -3,8 °C 37,0 km/h (5 Bft)
13.01.2017 08:10 0,1 °C 0,1 °C 75 % 1000,8 hPa 0,0 mm 19,4 km/h (3 Bft) S-SW 203 ° 0 min 0,000 mm 0,0 UV-I 0 W/m² -3,8 °C 32,2 km/h (5 Bft)
13.01.2017 08:11 0,1 °C 0,1 °C 75 % 1000,8 hPa 0,0 mm 28,8 km/h (4 Bft) W 273 ° 0 min 0,000 mm 0,0 UV-I 0 W/m² -3,8 °C 48,3 km/h (6 Bft)
13.01.2017 08:12 0,0 °C 0,1 °C 75 % 1000,7 hPa 0,0 mm 28,5 km/h (4 Bft) W 271 ° 0 min 0,000 mm 0,0 UV-I 0 W/m² -3,9 °C 45,1 km/h (6 Bft)
13.01.2017 08:13 0,1 °C 0,1 °C 75 % 1000,8 hPa 0,0 mm 21,2 km/h (4 Bft) W 269 ° 0 min 0,000 mm 0,0 UV-I 0 W/m² -3,8 °C 38,6 km/h (5 Bft)
13.01.2017 08:14 0,0 °C 0,1 °C 75 % 1000,9 hPa 0,0 mm 26,9 km/h (4 Bft) W 270 ° 0 min 0,000 mm 0,0 UV-I 0 W/m² -3,9 °C 38,6 km/h (5 Bft)
13.01.2017 08:15 0,0 °C 0,1 °C 75 % 1000,8 hPa 0,0 mm 31,2 km/h (5 Bft) W 265 ° 0 min 0,000 mm 0,0 UV-I 0 W/m² -3,9 °C 49,9 km/h (6 Bft)
13.01.2017 08:16 0,0 °C 0,0 °C 75 % 1000,8 hPa 0,0 mm 28,0 km/h (4 Bft) W-SW 241 ° 0 min 0,000 mm 0,0 UV-I 5 W/m² -3,9 °C 41,8 km/h (6 Bft)
13.01.2017 08:17 0,0 °C 0,0 °C 75 % 1000,8 hPa 0,0 mm 23,1 km/h (4 Bft) W 259 ° 0 min 0,000 mm 0,0 UV-I 5 W/m² -3,9 °C 35,4 km/h (5 Bft)
13.01.2017 08:18 0,0 °C 0,0 °C 75 % 1000,9 hPa 0,0 mm 19,3 km/h (3 Bft) W 279 ° 0 min 0,000 mm 0,0 UV-I 5 W/m² -3,9 °C 30,6 km/h (5 Bft)
13.01.2017 08:19 -0,1 °C 0,0 °C 75 % 1000,7 hPa 0,0 mm 25,1 km/h (4 Bft) W-SW 243 ° 0 min 0,000 mm 0,0 UV-I 5 W/m² -4,0 °C 38,6 km/h (5 Bft)
13.01.2017 08:20 -0,1 °C 0,0 °C 75 % 1000,9 hPa 0,0 mm 28,6 km/h (4 Bft) W-SW 255 ° 0 min 0,000 mm 0,0 UV-I 5 W/m² -4,0 °C 46,7 km/h (6 Bft)
13.01.2017 08:21 -0,1 °C -0,1 °C 75 % 1000,9 hPa 0,0 mm 32,0 km/h (5 Bft) S-SW 211 ° 0 min 0,000 mm 0,0 UV-I 5 W/m² -4,0 °C 45,1 km/h (6 Bft)
13.01.2017 08:22 -0,1 °C -0,1 °C 74 % 1000,9 hPa 0,0 mm 25,6 km/h (4 Bft) W-NW 296 ° 0 min 0,000 mm 0,0 UV-I 5 W/m² -4,2 °C 48,3 km/h (6 Bft)
13.01.2017 08:23 -0,1 °C -0,1 °C 74 % 1000,8 hPa 0,0 mm 32,9 km/h (5 Bft) W-SW 244 ° 0 min 0,000 mm 0,0 UV-I 7 W/m² -4,2 °C 59,5 km/h (7 Bft)
13.01.2017 08:24 -0,1 °C -0,1 °C 75 % 1001,0 hPa 0,0 mm 37,1 km/h (5 Bft) W-SW 253 ° 0 min 0,000 mm 0,0 UV-I 9 W/m² -4,0 °C 59,5 km/h (7 Bft)
13.01.2017 08:25 -0,1 °C -0,1 °C 75 % 1001,0 hPa 0,0 mm 23,1 km/h (4 Bft) W 264 ° 0 min 0,000 mm 0,0 UV-I 9 W/m² -4,0 °C 41,8 km/h (6 Bft)
13.01.2017 08:26 -0,1 °C -0,1 °C 75 % 1000,9 hPa 0,0 mm 22,5 km/h (4 Bft) W-NW 291 ° 0 min 0,000 mm 0,0 UV-I 11 W/m² -4,0 °C 30,6 km/h (5 Bft)
13.01.2017 08:27 -0,2 °C -0,1 °C 75 % 1000,9 hPa 0,0 mm 26,5 km/h (4 Bft) W-SW 254 ° 0 min 0,000 mm 0,0 UV-I 12 W/m² -4,1 °C 43,5 km/h (6 Bft)
13.01.2017 08:28 -0,2 °C -0,1 °C 75 % 1001,1 hPa 0,0 mm 21,5 km/h (4 Bft) W-SW 247 ° 0 min 0,000 mm 0,0 UV-I 12 W/m² -4,1 °C 29,0 km/h (5 Bft)
13.01.2017 08:29 -0,2 °C -0,2 °C 75 % 1001,2 hPa 0,0 mm 16,5 km/h (3 Bft) W-SW 251 ° 0 min 0,000 mm 0,0 UV-I 14 W/m² -4,1 °C 25,7 km/h (4 Bft)
13.01.2017 08:30 -0,2 °C -0,2 °C 76 % 1001,0 hPa 0,0 mm 15,4 km/h (3 Bft) W 259 ° 0 min 0,000 mm 0,0 UV-I 14 W/m² -3,9 °C 19,3 km/h (3 Bft)
13.01.2017 08:31 -0,2 °C -0,2 °C 75 % 1001,1 hPa 0,0 mm 23,7 km/h (4 Bft) SW 221 ° 0 min 0,000 mm 0,0 UV-I 14 W/m² -4,1 °C 32,2 km/h (5 Bft)
13.01.2017 08:32 -0,2 °C -0,2 °C 75 % 1001,0 hPa 0,0 mm 19,8 km/h (3 Bft) W-NW 289 ° 0 min 0,000 mm 0,0 UV-I 14 W/m² -4,1 °C 30,6 km/h (5 Bft)
13.01.2017 08:33 -0,2 °C -0,2 °C 75 % 1001,1 hPa 0,0 mm 23,5 km/h (4 Bft) W-NW 286 ° 0 min 0,000 mm 0,0 UV-I 16 W/m² -4,1 °C 30,6 km/h (5 Bft)
13.01.2017 08:34 -0,2 °C -0,2 °C 76 % 1001,0 hPa 0,0 mm 15,6 km/h (3 Bft) NW 309 ° 0 min 0,000 mm 0,0 UV-I 18 W/m² -3,9 °C 27,4 km/h (4 Bft)
13.01.2017 08:35 -0,3 °C -0,2 °C 75 % 1000,8 hPa 0,0 mm 22,0 km/h (4 Bft) W-NW 295 ° 0 min 0,000 mm 0,0 UV-I 18 W/m² -4,2 °C 43,5 km/h (6 Bft)
13.01.2017 08:36 -0,3 °C -0,2 °C 75 % 1000,9 hPa 0,0 mm 30,1 km/h (5 Bft) W 279 ° 0 min 0,000 mm 0,0 UV-I 18 W/m² -4,2 °C 49,9 km/h (6 Bft)
13.01.2017 08:37 -0,3 °C -0,3 °C 75 % 1000,9 hPa 0,0 mm 21,9 km/h (4 Bft) W-SW 248 ° 0 min 0,000 mm 0,0 UV-I 18 W/m² -4,2 °C 35,4 km/h (5 Bft)
13.01.2017 08:38 -0,3 °C -0,3 °C 75 % 1001,2 hPa 0,0 mm 30,4 km/h (5 Bft) W 261 ° 0 min 0,000 mm 0,0 UV-I 16 W/m² -4,2 °C 46,7 km/h (6 Bft)
13.01.2017 08:39 -0,3 °C -0,3 °C 75 % 1001,2 hPa 0,0 mm 28,0 km/h (4 Bft) W-SW 253 ° 0 min 0,000 mm 0,0 UV-I 16 W/m² -4,2 °C 43,5 km/h (6 Bft)
13.01.2017 08:40 -0,3 °C -0,3 °C 75 % 1001,2 hPa 0,0 mm 24,5 km/h (4 Bft) W 265 ° 0 min 0,000 mm 0,0 UV-I 16 W/m² -4,2 °C 30,6 km/h (5 Bft)
13.01.2017 08:41 -0,3 °C -0,3 °C 75 % 1001,2 hPa 0,0 mm 19,3 km/h (3 Bft) SW 227 ° 0 min 0,000 mm 0,0 UV-I 18 W/m² -4,2 °C 29,0 km/h (5 Bft)
13.01.2017 08:42 -0,3 °C -0,3 °C 76 % 1001,3 hPa 0,0 mm 19,4 km/h (3 Bft) W-NW 286 ° 0 min 0,000 mm 0,0 UV-I 18 W/m² -4,0 °C 29,0 km/h (5 Bft)
13.01.2017 08:43 -0,4 °C -0,3 °C 76 % 1001,2 hPa 0,0 mm 24,3 km/h (4 Bft) W 275 ° 0 min 0,000 mm 0,0 UV-I 18 W/m² -4,1 °C 38,6 km/h (5 Bft)
13.01.2017 08:44 -0,4 °C -0,4 °C 76 % 1001,4 hPa 0,0 mm 22,5 km/h (4 Bft) W 269 ° 0 min 0,000 mm 0,0 UV-I 19 W/m² -4,1 °C 27,4 km/h (4 Bft)
13.01.2017 08:45 -0,4 °C -0,4 °C 76 % 1001,2 hPa 0,0 mm 21,9 km/h (4 Bft) SW 227 ° 0 min 0,000 mm 0,0 UV-I 21 W/m² -4,1 °C 30,6 km/h (5 Bft)
13.01.2017 08:46 -0,4 °C -0,4 °C 75 % 1001,4 hPa 0,0 mm 32,3 km/h (5 Bft) NW 308 ° 0 min 0,000 mm 0,0 UV-I 23 W/m² -4,3 °C 45,1 km/h (6 Bft)
13.01.2017 08:47 -0,4 °C -0,4 °C 75 % 1001,4 hPa 0,0 mm 29,0 km/h (5 Bft) W-SW 252 ° 0 min 0,000 mm 0,0 UV-I 23 W/m² -4,3 °C 40,2 km/h (6 Bft)
13.01.2017 08:48 -0,4 °C -0,4 °C 75 % 1001,7 hPa 0,0 mm 37,1 km/h (5 Bft) W 268 ° 0 min 0,000 mm 0,0 UV-I 25 W/m² -4,3 °C 57,9 km/h (7 Bft)
13.01.2017 08:49 -0,5 °C -0,4 °C 75 % 1001,6 hPa 0,0 mm 23,3 km/h (4 Bft) S-SO 167 ° 0 min 0,000 mm 0,0 UV-I 25 W/m² -4,4 °C 37,0 km/h (5 Bft)
13.01.2017 08:50 -0,5 °C -0,4 °C 75 % 1001,7 hPa 0,0 mm 24,3 km/h (4 Bft) W-SW 246 ° 0 min 0,000 mm 0,0 UV-I 25 W/m² -4,4 °C 45,1 km/h (6 Bft)
13.01.2017 08:51 -0,5 °C -0,5 °C 75 % 1001,7 hPa 0,0 mm 21,2 km/h (4 Bft) W-SW 242 ° 0 min 0,000 mm 0,0 UV-I 26 W/m² -4,4 °C 29,0 km/h (5 Bft)
13.01.2017 08:52 -0,5 °C -0,5 °C 75 % 1001,8 hPa 0,0 mm 26,8 km/h (4 Bft) W-SW 247 ° 0 min 0,000 mm 0,0 UV-I 28 W/m² -4,4 °C 37,0 km/h (5 Bft)
13.01.2017 08:53 -0,5 °C -0,5 °C 76 % 1001,9 hPa 0,0 mm 17,8 km/h (3 Bft) W-SW 248 ° 0 min 0,000 mm 0,0 UV-I 30 W/m² -4,2 °C 30,6 km/h (5 Bft)
13.01.2017 08:54 -0,5 °C -0,5 °C 76 % 1001,9 hPa 0,0 mm 18,8 km/h (3 Bft) W-SW 237 ° 0 min 0,000 mm 0,0 UV-I 32 W/m² -4,2 °C 30,6 km/h (5 Bft)
13.01.2017 08:55 -0,5 °C -0,5 °C 75 % 1001,7 hPa 0,0 mm 28,3 km/h (4 Bft) W-SW 250 ° 0 min 0,000 mm 0,0 UV-I 33 W/m² -4,4 °C 37,0 km/h (5 Bft)
13.01.2017 08:56 -0,6 °C -0,5 °C 75 % 1001,8 hPa 0,0 mm 23,3 km/h (4 Bft) W-SW 253 ° 0 min 0,000 mm 0,0 UV-I 35 W/m² -4,5 °C 41,8 km/h (6 Bft)
13.01.2017 08:57 -0,6 °C -0,5 °C 75 % 1001,8 hPa 0,0 mm 21,9 km/h (4 Bft) W 262 ° 0 min 0,000 mm 0,0 UV-I 35 W/m² -4,5 °C 33,8 km/h (5 Bft)
13.01.2017 08:58 -0,6 °C -0,5 °C 75 % 1001,8 hPa 0,0 mm 23,2 km/h (4 Bft) W-SW 254 ° 0 min 0,000 mm 0,0 UV-I 37 W/m² -4,5 °C 32,2 km/h (5 Bft)
13.01.2017 08:59 -0,5 °C -0,5 °C 75 % 1001,8 hPa 0,0 mm 23,1 km/h (4 Bft) W-SW 252 ° 0 min 0,000 mm 0,0 UV-I 39 W/m² -4,4 °C 33,8 km/h (5 Bft)
13.01.2017 09:00 -0,5 °C -0,5 °C 75 % 1001,7 hPa 0,0 mm 24,5 km/h (4 Bft) W-NW 297 ° 0 min 0,000 mm 0,0 UV-I 39 W/m² -4,4 °C 40,2 km/h (6 Bft)
13.01.2017 09:01 -0,5 °C -0,5 °C 75 % 1001,7 hPa 0,0 mm 28,6 km/h (4 Bft) W 259 ° 0 min 0,051 mm 0,0 UV-I 39 W/m² -4,4 °C 37,0 km/h (5 Bft)
13.01.2017 09:02 -0,6 °C -0,5 °C 75 % 1001,8 hPa 0,0 mm 17,9 km/h (3 Bft) W-SW 250 ° 0 min 0,000 mm 0,0 UV-I 39 W/m² -4,5 °C 29,0 km/h (5 Bft)
13.01.2017 09:03 -0,6 °C -0,5 °C 76 % 1001,9 hPa 0,0 mm 20,2 km/h (4 Bft) W 260 ° 0 min 0,000 mm 0,0 UV-I 37 W/m² -4,3 °C 25,7 km/h (4 Bft)
13.01.2017 09:04 -0,6 °C -0,5 °C 76 % 1001,8 hPa 0,0 mm 21,4 km/h (4 Bft) W-SW 254 ° 0 min 0,000 mm 0,0 UV-I 37 W/m² -4,3 °C 32,2 km/h (5 Bft)
13.01.2017 09:05 -0,5 °C -0,5 °C 76 % 1001,8 hPa 0,0 mm 12,2 km/h (2 Bft) W-SW 244 ° 0 min 0,000 mm 0,0 UV-I 35 W/m² -4,2 °C 20,9 km/h (4 Bft)
13.01.2017 09:06 -0,6 °C -0,5 °C 76 % 1001,8 hPa 0,0 mm 23,5 km/h (4 Bft) W 259 ° 0 min 0,000 mm 0,0 UV-I 35 W/m² -4,3 °C 38,6 km/h (5 Bft)
13.01.2017 09:07 -0,6 °C -0,5 °C 76 % 1001,9 hPa 0,0 mm 20,4 km/h (4 Bft) W-NW 284 ° 0 min 0,000 mm 0,0 UV-I 35 W/m² -4,3 °C 32,2 km/h (5 Bft)
13.01.2017 09:08 -0,6 °C -0,6 °C 76 % 1001,9 hPa 0,0 mm 10,1 km/h (2 Bft) W-NW 297 ° 0 min 0,000 mm 0,0 UV-I 37 W/m² -4,3 °C 17,7 km/h (3 Bft)
13.01.2017 09:09 -0,6 °C -0,6 °C 76 % 1002,0 hPa 0,0 mm 18,6 km/h (3 Bft) W 259 ° 0 min 0,000 mm 0,0 UV-I 37 W/m² -4,3 °C 29,0 km/h (5 Bft)
13.01.2017 09:10 -0,6 °C -0,6 °C 76 % 1002,0 hPa 0,0 mm 16,9 km/h (3 Bft) W-SW 247 ° 0 min 0,000 mm 0,0 UV-I 39 W/m² -4,3 °C 20,9 km/h (4 Bft)
13.01.2017 09:11 -0,6 °C -0,6 °C 76 % 1001,9 hPa 0,0 mm 23,3 km/h (4 Bft) W 263 ° 0 min 0,000 mm 0,0 UV-I 39 W/m² -4,3 °C 38,6 km/h (5 Bft)
13.01.2017 09:12 -0,6 °C -0,6 °C 76 % 1002,0 hPa 0,0 mm 32,3 km/h (5 Bft) W-SW 251 ° 0 min 0,000 mm 0,0 UV-I 39 W/m² -4,3 °C 40,2 km/h (6 Bft)
13.01.2017 09:13 -0,6 °C -0,6 °C 76 % 1001,9 hPa 0,0 mm 29,4 km/h (5 Bft) W 259 ° 0 min 0,000 mm 0,0 UV-I 39 W/m² -4,3 °C 37,0 km/h (5 Bft)
13.01.2017 09:14 -0,6 °C -0,6 °C 76 % 1002,1 hPa 0,0 mm 24,1 km/h (4 Bft) W 267 ° 0 min 0,000 mm 0,0 UV-I 39 W/m² -4,3 °C 35,4 km/h (5 Bft)
13.01.2017 09:15 -0,6 °C -0,6 °C 76 % 1002,3 hPa 0,0 mm 27,6 km/h (4 Bft) W-SW 249 ° 0 min 0,000 mm 0,0 UV-I 39 W/m² -4,3 °C 40,2 km/h (6 Bft)
13.01.2017 09:16 -0,6 °C -0,6 °C 75 % 1002,1 hPa 0,0 mm 30,7 km/h (5 Bft) W-SW 256 ° 0 min 0,000 mm 0,0 UV-I 39 W/m² -4,5 °C 61,2 km/h (7 Bft)
13.01.2017 09:17 -0,6 °C -0,6 °C 75 % 1002,2 hPa 0,0 mm 26,8 km/h (4 Bft) SW 215 ° 0 min 0,000 mm 0,0 UV-I 39 W/m² -4,5 °C 37,0 km/h (5 Bft)
13.01.2017 09:18 -0,6 °C -0,6 °C 75 % 1002,3 hPa 0,0 mm 34,0 km/h (5 Bft) W-SW 254 ° 0 min 0,000 mm 0,0 UV-I 39 W/m² -4,5 °C 51,5 km/h (7 Bft)
13.01.2017 09:19 -0,6 °C -0,6 °C 75 % 1002,1 hPa 0,0 mm 23,9 km/h (4 Bft) W-SW 248 ° 0 min 0,000 mm 0,0 UV-I 39 W/m² -4,5 °C 41,8 km/h (6 Bft)
13.01.2017 09:20 -0,6 °C -0,6 °C 75 % 1002,1 hPa 0,0 mm 18,8 km/h (3 Bft) W 273 ° 0 min 0,000 mm 0,0 UV-I 39 W/m² -4,5 °C 27,4 km/h (4 Bft)
13.01.2017 09:21 -0,6 °C -0,6 °C 76 % 1002,2 hPa 0,0 mm 18,3 km/h (3 Bft) W-NW 285 ° 0 min 0,000 mm 0,0 UV-I 42 W/m² -4,3 °C 29,0 km/h (5 Bft)
13.01.2017 09:22 -0,6 °C -0,6 °C 76 % 1002,1 hPa 0,0 mm 14,2 km/h (3 Bft) W-NW 285 ° 0 min 0,000 mm 0,0 UV-I 42 W/m² -4,3 °C 20,9 km/h (4 Bft)
13.01.2017 09:23 -0,6 °C -0,6 °C 76 % 1002,2 hPa 0,0 mm 14,1 km/h (3 Bft) W 267 ° 0 min 0,000 mm 0,0 UV-I 42 W/m² -4,3 °C 22,5 km/h (4 Bft)
13.01.2017 09:24 -0,6 °C -0,6 °C 76 % 1002,2 hPa 0,0 mm 25,7 km/h (4 Bft) W 261 ° 0 min 0,000 mm 0,0 UV-I 42 W/m² -4,3 °C 40,2 km/h (6 Bft)
13.01.2017 09:25 -0,6 °C -0,6 °C 76 % 1002,1 hPa 0,0 mm 18,4 km/h (3 Bft) W-SW 251 ° 0 min 0,000 mm 0,0 UV-I 44 W/m² -4,3 °C 29,0 km/h (5 Bft)
13.01.2017 09:26 -0,6 °C -0,6 °C 76 % 1002,1 hPa 0,0 mm 15,7 km/h (3 Bft) W 279 ° 0 min 0,000 mm 0,0 UV-I 46 W/m² -4,3 °C 27,4 km/h (4 Bft)
13.01.2017 09:27 -0,6 °C -0,6 °C 76 % 1002,2 hPa 0,0 mm 15,5 km/h (3 Bft) SW 233 ° 0 min 0,000 mm 0,0 UV-I 46 W/m² -4,3 °C 22,5 km/h (4 Bft)
13.01.2017 09:28 -0,6 °C -0,6 °C 76 % 1002,1 hPa 0,0 mm 22,7 km/h (4 Bft) W-NW 284 ° 0 min 0,000 mm 0,0 UV-I 47 W/m² -4,3 °C 32,2 km/h (5 Bft)
13.01.2017 09:29 -0,6 °C -0,6 °C 76 % 1002,2 hPa 0,0 mm 25,2 km/h (4 Bft) W 266 ° 0 min 0,000 mm 0,0 UV-I 47 W/m² -4,3 °C 40,2 km/h (6 Bft)
13.01.2017 09:30 -0,6 °C -0,6 °C 76 % 1002,2 hPa 0,0 mm 19,4 km/h (3 Bft) W-SW 241 ° 0 min 0,000 mm 0,0 UV-I 49 W/m² -4,3 °C 30,6 km/h (5 Bft)
13.01.2017 09:31 -0,6 °C -0,6 °C 76 % 1002,2 hPa 0,0 mm 25,3 km/h (4 Bft) W 269 ° 0 min 0,000 mm 0,0 UV-I 51 W/m² -4,3 °C 48,3 km/h (6 Bft)
13.01.2017 09:32 -0,6 °C -0,6 °C 76 % 1002,2 hPa 0,0 mm 23,2 km/h (4 Bft) W-SW 239 ° 0 min 0,000 mm 0,0 UV-I 53 W/m² -4,3 °C 45,1 km/h (6 Bft)
13.01.2017 09:33 -0,6 °C -0,6 °C 76 % 1002,2 hPa 0,0 mm 24,4 km/h (4 Bft) W-SW 252 ° 0 min 0,000 mm 0,0 UV-I 54 W/m² -4,3 °C 37,0 km/h (5 Bft)
13.01.2017 09:34 -0,6 °C -0,6 °C 76 % 1002,3 hPa 0,0 mm 18,9 km/h (3 Bft) W 260 ° 0 min 0,000 mm 0,0 UV-I 54 W/m² -4,3 °C 35,4 km/h (5 Bft)
13.01.2017 09:35 -0,6 °C -0,6 °C 76 % 1002,2 hPa 0,0 mm 28,4 km/h (4 Bft) W 260 ° 0 min 0,000 mm 0,0 UV-I 58 W/m² -4,3 °C 38,6 km/h (5 Bft)
13.01.2017 09:36 -0,6 °C -0,6 °C 77 % 1002,3 hPa 0,0 mm 25,1 km/h (4 Bft) W 265 ° 0 min 0,000 mm 0,0 UV-I 60 W/m² -4,1 °C 35,4 km/h (5 Bft)
13.01.2017 09:37 -0,6 °C -0,6 °C 77 % 1002,2 hPa 0,0 mm 18,6 km/h (3 Bft) W 269 ° 0 min 0,000 mm 0,0 UV-I 62 W/m² -4,1 °C 24,1 km/h (4 Bft)
13.01.2017 09:38 -0,6 °C -0,6 °C 77 % 1002,3 hPa 0,0 mm 24,5 km/h (4 Bft) SW 219 ° 0 min 0,000 mm 0,0 UV-I 63 W/m² -4,1 °C 46,7 km/h (6 Bft)
13.01.2017 09:39 -0,6 °C -0,6 °C 77 % 1002,3 hPa 0,0 mm 19,6 km/h (3 Bft) W 277 ° 0 min 0,000 mm 0,0 UV-I 65 W/m² -4,1 °C 33,8 km/h (5 Bft)
13.01.2017 09:40 -0,6 °C -0,6 °C 77 % 1002,4 hPa 0,0 mm 25,5 km/h (4 Bft) W 277 ° 0 min 0,000 mm 0,0 UV-I 69 W/m² -4,1 °C 35,4 km/h (5 Bft)
13.01.2017 09:41 -0,6 °C -0,6 °C 77 % 1002,3 hPa 0,0 mm 19,7 km/h (3 Bft) W-NW 300 ° 0 min 0,000 mm 0,0 UV-I 72 W/m² -4,1 °C 27,4 km/h (4 Bft)
13.01.2017 09:42 -0,6 °C -0,6 °C 77 % 1002,3 hPa 0,0 mm 14,1 km/h (3 Bft) W-SW 252 ° 0 min 0,000 mm 0,0 UV-I 77 W/m² -4,1 °C 24,1 km/h (4 Bft)
13.01.2017 09:43 -0,6 °C -0,6 °C 77 % 1002,3 hPa 0,0 mm 22,1 km/h (4 Bft) W 267 ° 0 min 0,000 mm 0,0 UV-I 88 W/m² -4,1 °C 32,2 km/h (5 Bft)
13.01.2017 09:44 -0,6 °C -0,6 °C 77 % 1002,3 hPa 0,0 mm 26,6 km/h (4 Bft) W 281 ° 0 min 0,000 mm 0,5 UV-I 91 W/m² -4,1 °C 38,6 km/h (5 Bft)
13.01.2017 09:45 -0,6 °C -0,6 °C 77 % 1002,4 hPa 0,0 mm 20,8 km/h (4 Bft) W 265 ° 0 min 0,000 mm 0,5 UV-I 93 W/m² -4,1 °C 30,6 km/h (5 Bft)
13.01.2017 09:46 -0,6 °C -0,6 °C 78 % 1002,3 hPa 0,0 mm 16,1 km/h (3 Bft) W 279 ° 0 min 0,000 mm 0,5 UV-I 93 W/m² -3,9 °C 24,1 km/h (4 Bft)
13.01.2017 09:47 -0,6 °C -0,6 °C 78 % 1002,4 hPa 0,0 mm 20,3 km/h (4 Bft) W-SW 250 ° 0 min 0,000 mm 0,5 UV-I 95 W/m² -3,9 °C 32,2 km/h (5 Bft)
13.01.2017 09:48 -0,6 °C -0,6 °C 78 % 1002,4 hPa 0,0 mm 15,5 km/h (3 Bft) W 267 ° 0 min 0,000 mm 0,5 UV-I 88 W/m² -3,9 °C 27,4 km/h (4 Bft)
13.01.2017 09:49 -0,6 °C -0,6 °C 78 % 1002,4 hPa 0,0 mm 14,7 km/h (3 Bft) W 260 ° 0 min 0,000 mm 0,5 UV-I 86 W/m² -3,9 °C 19,3 km/h (3 Bft)
13.01.2017 09:50 -0,6 °C -0,6 °C 78 % 1002,4 hPa 0,0 mm 23,7 km/h (4 Bft) W-SW 253 ° 0 min 0,000 mm 0,5 UV-I 84 W/m² -3,9 °C 32,2 km/h (5 Bft)
13.01.2017 09:51 -0,6 °C -0,6 °C 78 % 1002,6 hPa 0,0 mm 16,2 km/h (3 Bft) W-SW 257 ° 0 min 0,000 mm 0,5 UV-I 84 W/m² -3,9 °C 22,5 km/h (4 Bft)
13.01.2017 09:52 -0,6 °C -0,6 °C 79 % 1002,6 hPa 0,0 mm 20,7 km/h (4 Bft) W-SW 252 ° 0 min 0,000 mm 0,5 UV-I 86 W/m² -3,8 °C 27,4 km/h (4 Bft)
13.01.2017 09:53 -0,7 °C -0,6 °C 78 % 1002,6 hPa 0,0 mm 24,7 km/h (4 Bft) W 267 ° 0 min 0,000 mm 0,5 UV-I 86 W/m² -4,0 °C 29,0 km/h (5 Bft)
13.01.2017 09:54 -0,7 °C -0,7 °C 79 % 1002,7 hPa 0,0 mm 23,5 km/h (4 Bft) W 259 ° 0 min 0,000 mm 0,5 UV-I 90 W/m² -3,9 °C 32,2 km/h (5 Bft)
13.01.2017 09:55 -0,7 °C -0,7 °C 79 % 1002,6 hPa 0,0 mm 20,8 km/h (4 Bft) W 260 ° 0 min 0,000 mm 0,6 UV-I 90 W/m² -3,9 °C 32,2 km/h (5 Bft)
13.01.2017 09:56 -0,7 °C -0,7 °C 79 % 1002,7 hPa 0,0 mm 16,2 km/h (3 Bft) W-NW 300 ° 0 min 0,000 mm 0,6 UV-I 95 W/m² -3,9 °C 20,9 km/h (4 Bft)
13.01.2017 09:57 -0,7 °C -0,7 °C 79 % 1002,7 hPa 0,0 mm 27,7 km/h (4 Bft) W 272 ° 0 min 0,000 mm 0,6 UV-I 97 W/m² -3,9 °C 45,1 km/h (6 Bft)
13.01.2017 09:58 -0,7 °C -0,7 °C 79 % 1002,7 hPa 0,0 mm 18,8 km/h (3 Bft) W-SW 243 ° 0 min 0,000 mm 0,6 UV-I 98 W/m² -3,9 °C 27,4 km/h (4 Bft)
13.01.2017 09:59 -0,7 °C -0,7 °C 79 % 1002,7 hPa 0,0 mm 19,2 km/h (3 Bft) W 275 ° 0 min 0,000 mm 0,6 UV-I 97 W/m² -3,9 °C 33,8 km/h (5 Bft)
13.01.2017 10:00 -0,7 °C -0,7 °C 79 % 1002,6 hPa 0,0 mm 20,6 km/h (4 Bft) W-SW 248 ° 0 min 0,000 mm 0,6 UV-I 91 W/m² -3,9 °C 25,7 km/h (4 Bft)
13.01.2017 10:01 -0,8 °C -0,7 °C 79 % 1002,6 hPa 0,0 mm 17,5 km/h (3 Bft) W-SW 250 ° 0 min 0,051 mm 0,6 UV-I 90 W/m² -4,0 °C 22,5 km/h (4 Bft)
13.01.2017 10:02 -0,8 °C -0,8 °C 79 % 1002,6 hPa 0,0 mm 21,8 km/h (4 Bft) W 267 ° 0 min 0,000 mm 0,6 UV-I 86 W/m² -4,0 °C 35,4 km/h (5 Bft)
13.01.2017 10:03 -0,8 °C -0,8 °C 79 % 1002,6 hPa 0,0 mm 19,7 km/h (3 Bft) W 265 ° 0 min 0,000 mm 0,6 UV-I 86 W/m² -4,0 °C 29,0 km/h (5 Bft)
13.01.2017 10:04 -0,8 °C -0,8 °C 79 % 1002,6 hPa 0,0 mm 19,2 km/h (3 Bft) W-SW 247 ° 0 min 0,000 mm 0,6 UV-I 86 W/m² -4,0 °C 25,7 km/h (4 Bft)
13.01.2017 10:05 -0,8 °C -0,8 °C 79 % 1002,6 hPa 0,0 mm 16,4 km/h (3 Bft) SW 234 ° 0 min 0,000 mm 0,6 UV-I 86 W/m² -4,0 °C 20,9 km/h (4 Bft)
13.01.2017 10:06 -0,8 °C -0,8 °C 79 % 1002,6 hPa 0,0 mm 18,9 km/h (3 Bft) W-SW 244 ° 0 min 0,000 mm 0,6 UV-I 91 W/m² -4,0 °C 27,4 km/h (4 Bft)
13.01.2017 10:07 -0,8 °C -0,8 °C 79 % 1002,6 hPa 0,0 mm 14,5 km/h (3 Bft) W-SW 241 ° 0 min 0,000 mm 0,6 UV-I 93 W/m² -4,0 °C 20,9 km/h (4 Bft)
13.01.2017 10:08 -0,8 °C -0,8 °C 79 % 1002,6 hPa 0,0 mm 12,4 km/h (3 Bft) W-NW 293 ° 0 min 0,000 mm 0,6 UV-I 91 W/m² -4,0 °C 19,3 km/h (3 Bft)
13.01.2017 10:09 -0,8 °C -0,8 °C 79 % 1002,6 hPa 0,0 mm 19,0 km/h (3 Bft) SW 233 ° 0 min 0,000 mm 0,6 UV-I 90 W/m² -4,0 °C 32,2 km/h (5 Bft)
13.01.2017 10:10 -0,8 °C -0,8 °C 79 % 1002,7 hPa 0,0 mm 15,8 km/h (3 Bft) W 259 ° 0 min 0,000 mm 0,6 UV-I 91 W/m² -4,0 °C 20,9 km/h (4 Bft)
13.01.2017 10:11 -0,8 °C -0,8 °C 79 % 1002,7 hPa 0,0 mm 14,3 km/h (3 Bft) W 269 ° 0 min 0,000 mm 0,6 UV-I 90 W/m² -4,0 °C 17,7 km/h (3 Bft)
13.01.2017 10:12 -0,8 °C -0,8 °C 79 % 1002,7 hPa 0,0 mm 18,3 km/h (3 Bft) W-SW 246 ° 0 min 0,000 mm 0,6 UV-I 76 W/m² -4,0 °C 25,7 km/h (4 Bft)
13.01.2017 10:13 -0,8 °C -0,8 °C 79 % 1002,8 hPa 0,0 mm 13,7 km/h (3 Bft) W-SW 257 ° 0 min 0,000 mm 0,5 UV-I 70 W/m² -4,0 °C 27,4 km/h (4 Bft)
13.01.2017 10:14 -0,8 °C -0,8 °C 79 % 1002,8 hPa 0,0 mm 20,3 km/h (4 Bft) W-SW 241 ° 0 min 0,000 mm 0,5 UV-I 70 W/m² -4,0 °C 30,6 km/h (5 Bft)
13.01.2017 10:15 -0,8 °C -0,8 °C 79 % 1002,8 hPa 0,0 mm 14,9 km/h (3 Bft) W-SW 249 ° 0 min 0,000 mm 0,5 UV-I 69 W/m² -4,0 °C 20,9 km/h (4 Bft)
13.01.2017 10:16 -0,8 °C -0,8 °C 79 % 1002,9 hPa 0,0 mm 15,5 km/h (3 Bft) W-SW 254 ° 0 min 0,000 mm 0,5 UV-I 76 W/m² -4,0 °C 22,5 km/h (4 Bft)
13.01.2017 10:17 -0,9 °C -0,8 °C 79 % 1002,8 hPa 0,0 mm 18,2 km/h (3 Bft) W-SW 254 ° 0 min 0,000 mm 0,5 UV-I 72 W/m² -4,1 °C 25,7 km/h (4 Bft)
13.01.2017 10:18 -0,8 °C -0,8 °C 78 % 1002,8 hPa 0,0 mm 18,4 km/h (3 Bft) W 277 ° 0 min 0,000 mm 0,5 UV-I 67 W/m² -4,1 °C 32,2 km/h (5 Bft)
13.01.2017 10:19 -0,8 °C -0,8 °C 78 % 1002,9 hPa 0,0 mm 19,9 km/h (4 Bft) W-SW 241 ° 0 min 0,000 mm 0,5 UV-I 69 W/m² -4,1 °C 27,4 km/h (4 Bft)
13.01.2017 10:20 -0,8 °C -0,8 °C 78 % 1002,8 hPa 0,0 mm 22,0 km/h (4 Bft) W-NW 300 ° 0 min 0,000 mm 0,0 UV-I 65 W/m² -4,1 °C 32,2 km/h (5 Bft)
13.01.2017 10:21 -0,8 °C -0,8 °C 78 % 1002,8 hPa 0,0 mm 23,9 km/h (4 Bft) W 279 ° 0 min 0,000 mm 0,0 UV-I 62 W/m² -4,1 °C 32,2 km/h (5 Bft)
13.01.2017 10:22 -0,8 °C -0,8 °C 78 % 1002,8 hPa 0,0 mm 15,7 km/h (3 Bft) W-SW 249 ° 0 min 0,000 mm 0,0 UV-I 62 W/m² -4,1 °C 19,3 km/h (3 Bft)
13.01.2017 10:23 -0,8 °C -0,8 °C 78 % 1002,8 hPa 0,0 mm 17,6 km/h (3 Bft) W-NW 289 ° 0 min 0,000 mm 0,5 UV-I 74 W/m² -4,1 °C 24,1 km/h (4 Bft)
13.01.2017 10:24 -0,8 °C -0,8 °C 78 % 1002,8 hPa 0,0 mm 13,9 km/h (3 Bft) W-SW 244 ° 0 min 0,000 mm 0,5 UV-I 77 W/m² -4,1 °C 22,5 km/h (4 Bft)
13.01.2017 10:25 -0,8 °C -0,8 °C 78 % 1002,9 hPa 0,0 mm 21,3 km/h (4 Bft) W-SW 238 ° 0 min 0,000 mm 0,5 UV-I 76 W/m² -4,1 °C 32,2 km/h (5 Bft)
13.01.2017 10:26 -0,8 °C -0,8 °C 78 % 1002,8 hPa 0,0 mm 22,9 km/h (4 Bft) SW 234 ° 0 min 0,000 mm 0,5 UV-I 72 W/m² -4,1 °C 29,0 km/h (5 Bft)
13.01.2017 10:27 -0,8 °C -0,8 °C 78 % 1002,8 hPa 0,0 mm 21,1 km/h (4 Bft) W-SW 246 ° 0 min 0,000 mm 0,5 UV-I 79 W/m² -4,1 °C 25,7 km/h (4 Bft)
13.01.2017 10:28 -0,8 °C -0,8 °C 78 % 1002,8 hPa 0,0 mm 17,1 km/h (3 Bft) S-SW 198 ° 0 min 0,000 mm 0,5 UV-I 84 W/m² -4,1 °C 22,5 km/h (4 Bft)
13.01.2017 10:29 -0,8 °C -0,8 °C 78 % 1002,8 hPa 0,0 mm 19,9 km/h (4 Bft) W 267 ° 0 min 0,000 mm 0,5 UV-I 76 W/m² -4,1 °C 27,4 km/h (4 Bft)
13.01.2017 10:30 -0,8 °C -0,8 °C 77 % 1002,7 hPa 0,0 mm 17,1 km/h (3 Bft) NW 306 ° 0 min 0,000 mm 0,5 UV-I 76 W/m² -4,3 °C 22,5 km/h (4 Bft)
13.01.2017 10:31 -0,8 °C -0,8 °C 77 % 1002,7 hPa 0,0 mm 19,4 km/h (3 Bft) W-SW 240 ° 0 min 0,000 mm 0,5 UV-I 84 W/m² -4,3 °C 33,8 km/h (5 Bft)
13.01.2017 10:32 -0,8 °C -0,8 °C 77 % 1002,7 hPa 0,0 mm 30,6 km/h (5 Bft) W-SW 252 ° 0 min 0,000 mm 0,5 UV-I 84 W/m² -4,3 °C 40,2 km/h (6 Bft)
13.01.2017 10:33 -0,8 °C -0,8 °C 77 % 1002,7 hPa 0,0 mm 19,4 km/h (3 Bft) W 269 ° 0 min 0,000 mm 0,5 UV-I 83 W/m² -4,3 °C 29,0 km/h (5 Bft)
13.01.2017 10:34 -0,8 °C -0,8 °C 78 % 1002,8 hPa 0,0 mm 12,1 km/h (2 Bft) W-NW 285 ° 0 min 0,000 mm 0,5 UV-I 76 W/m² -4,1 °C 16,1 km/h (3 Bft)
13.01.2017 10:35 -0,8 °C -0,8 °C 77 % 1002,9 hPa 0,0 mm 18,5 km/h (3 Bft) W 267 ° 0 min 0,000 mm 0,0 UV-I 58 W/m² -4,3 °C 27,4 km/h (4 Bft)
13.01.2017 10:36 -0,8 °C -0,8 °C 77 % 1002,9 hPa 0,0 mm 18,7 km/h (3 Bft) W-SW 251 ° 0 min 0,000 mm 0,0 UV-I 54 W/m² -4,3 °C 22,5 km/h (4 Bft)
13.01.2017 10:37 -0,8 °C -0,8 °C 77 % 1002,9 hPa 0,0 mm 18,6 km/h (3 Bft) W-SW 244 ° 0 min 0,000 mm 0,0 UV-I 56 W/m² -4,3 °C 32,2 km/h (5 Bft)
13.01.2017 10:38 -0,8 °C -0,8 °C 77 % 1002,9 hPa 0,0 mm 18,5 km/h (3 Bft) W 260 ° 0 min 0,000 mm 0,0 UV-I 56 W/m² -4,3 °C 27,4 km/h (4 Bft)
13.01.2017 10:39 -0,8 °C -0,8 °C 76 % 1002,9 hPa 0,0 mm 20,9 km/h (4 Bft) W 281 ° 0 min 0,000 mm 0,0 UV-I 56 W/m² -4,5 °C 32,2 km/h (5 Bft)
13.01.2017 10:40 -0,8 °C -0,8 °C 76 % 1002,9 hPa 0,0 mm 13,0 km/h (3 Bft) W 279 ° 0 min 0,000 mm 0,0 UV-I 60 W/m² -4,5 °C 17,7 km/h (3 Bft)
13.01.2017 10:41 -0,8 °C -0,8 °C 76 % 1002,9 hPa 0,0 mm 20,4 km/h (4 Bft) W-SW 255 ° 0 min 0,000 mm 0,5 UV-I 72 W/m² -4,5 °C 27,4 km/h (4 Bft)
13.01.2017 10:42 -0,8 °C -0,8 °C 77 % 1002,9 hPa 0,0 mm 14,1 km/h (3 Bft) W 262 ° 0 min 0,000 mm 0,5 UV-I 76 W/m² -4,3 °C 25,7 km/h (4 Bft)
13.01.2017 10:43 -0,8 °C -0,8 °C 77 % 1002,8 hPa 0,0 mm 16,0 km/h (3 Bft) W-SW 254 ° 0 min 0,000 mm 0,0 UV-I 70 W/m² -4,3 °C 19,3 km/h (3 Bft)
13.01.2017 10:44 -0,8 °C -0,8 °C 77 % 1002,8 hPa 0,0 mm 22,8 km/h (4 Bft) W-SW 242 ° 0 min 0,000 mm 0,5 UV-I 76 W/m² -4,3 °C 30,6 km/h (5 Bft)
13.01.2017 10:45 -0,8 °C -0,8 °C 77 % 1002,8 hPa 0,0 mm 16,7 km/h (3 Bft) W-SW 238 ° 0 min 0,000 mm 0,6 UV-I 88 W/m² -4,3 °C 24,1 km/h (4 Bft)
13.01.2017 10:46 -0,8 °C -0,8 °C 76 % 1002,8 hPa 0,0 mm 19,4 km/h (3 Bft) W 273 ° 0 min 0,000 mm 0,6 UV-I 97 W/m² -4,5 °C 32,2 km/h (5 Bft)
13.01.2017 10:47 -0,8 °C -0,8 °C 75 % 1002,8 hPa 0,0 mm 18,5 km/h (3 Bft) W 266 ° 0 min 0,000 mm 0,7 UV-I 113 W/m² -4,7 °C 30,6 km/h (5 Bft)
13.01.2017 10:48 -0,8 °C -0,8 °C 76 % 1002,9 hPa 0,0 mm 24,4 km/h (4 Bft) W-SW 251 ° 0 min 0,000 mm 0,7 UV-I 118 W/m² -4,5 °C 37,0 km/h (5 Bft)
13.01.2017 10:49 -0,8 °C -0,8 °C 75 % 1002,9 hPa 0,0 mm 17,6 km/h (3 Bft) S-SW 212 ° 0 min 0,000 mm 0,7 UV-I 120 W/m² -4,7 °C 24,1 km/h (4 Bft)
13.01.2017 10:50 -0,8 °C -0,8 °C 75 % 1002,9 hPa 0,0 mm 17,1 km/h (3 Bft) W 267 ° 0 min 0,000 mm 0,7 UV-I 113 W/m² -4,7 °C 25,7 km/h (4 Bft)
13.01.2017 10:51 -0,8 °C -0,8 °C 74 % 1002,9 hPa 0,0 mm 20,0 km/h (4 Bft) W-SW 252 ° 0 min 0,000 mm 0,7 UV-I 105 W/m² -4,8 °C 30,6 km/h (5 Bft)
13.01.2017 10:52 -0,8 °C -0,8 °C 75 % 1002,8 hPa 0,0 mm 18,6 km/h (3 Bft) W-SW 238 ° 0 min 0,000 mm 0,7 UV-I 105 W/m² -4,7 °C 24,1 km/h (4 Bft)
13.01.2017 10:53 -0,8 °C -0,8 °C 75 % 1002,8 hPa 0,0 mm 14,6 km/h (3 Bft) W-SW 253 ° 0 min 0,000 mm 0,6 UV-I 100 W/m² -4,7 °C 22,5 km/h (4 Bft)
13.01.2017 10:54 -0,8 °C -0,8 °C 75 % 1002,8 hPa 0,0 mm 13,1 km/h (3 Bft) S-SW 212 ° 0 min 0,000 mm 0,7 UV-I 105 W/m² -4,7 °C 20,9 km/h (4 Bft)
13.01.2017 10:55 -0,8 °C -0,8 °C 75 % 1002,8 hPa 0,0 mm 19,6 km/h (3 Bft) W 277 ° 0 min 0,000 mm 0,7 UV-I 111 W/m² -4,7 °C 30,6 km/h (5 Bft)
13.01.2017 10:56 -0,8 °C -0,8 °C 75 % 1002,8 hPa 0,0 mm 18,0 km/h (3 Bft) SW 229 ° 0 min 0,000 mm 0,7 UV-I 113 W/m² -4,7 °C 24,1 km/h (4 Bft)
13.01.2017 10:57 -0,8 °C -0,8 °C 74 % 1002,7 hPa 0,0 mm 16,7 km/h (3 Bft) W-SW 248 ° 0 min 0,000 mm 0,7 UV-I 109 W/m² -4,8 °C 24,1 km/h (4 Bft)
13.01.2017 10:58 -0,8 °C -0,8 °C 74 % 1002,8 hPa 0,0 mm 20,6 km/h (4 Bft) W-SW 256 ° 0 min 0,000 mm 0,7 UV-I 100 W/m² -4,8 °C 27,4 km/h (4 Bft)
13.01.2017 10:59 -0,8 °C -0,8 °C 74 % 1002,9 hPa 0,0 mm 19,8 km/h (3 Bft) W-NW 284 ° 0 min 0,000 mm 0,6 UV-I 97 W/m² -4,8 °C 27,4 km/h (4 Bft)
13.01.2017 11:00 -0,8 °C -0,8 °C 74 % 1002,9 hPa 0,0 mm 15,4 km/h (3 Bft) W-NW 292 ° 0 min 0,051 mm 0,6 UV-I 97 W/m² -4,8 °C 24,1 km/h (4 Bft)
13.01.2017 11:01 -0,8 °C -0,8 °C 73 % 1002,8 hPa 0,0 mm 17,0 km/h (3 Bft) W-SW 245 ° 0 min 0,000 mm 0,6 UV-I 88 W/m² -5,0 °C 24,1 km/h (4 Bft)
13.01.2017 11:02 -0,8 °C -0,8 °C 74 % 1002,9 hPa 0,0 mm 18,0 km/h (3 Bft) W-SW 258 ° 0 min 0,000 mm 0,6 UV-I 86 W/m² -4,8 °C 32,2 km/h (5 Bft)
13.01.2017 11:03 -0,9 °C -0,8 °C 74 % 1002,8 hPa 0,0 mm 18,5 km/h (3 Bft) W-SW 257 ° 0 min 0,000 mm 0,5 UV-I 84 W/m² -4,9 °C 29,0 km/h (5 Bft)
13.01.2017 11:04 -0,9 °C -0,8 °C 74 % 1003,0 hPa 0,0 mm 15,2 km/h (3 Bft) W-SW 247 ° 0 min 0,000 mm 0,5 UV-I 77 W/m² -4,9 °C 30,6 km/h (5 Bft)
13.01.2017 11:05 -0,9 °C -0,9 °C 74 % 1003,0 hPa 0,0 mm 21,4 km/h (4 Bft) W-NW 290 ° 0 min 0,000 mm 0,5 UV-I 70 W/m² -4,9 °C 30,6 km/h (5 Bft)
13.01.2017 11:06 -0,9 °C -0,9 °C 74 % 1003,0 hPa 0,0 mm 15,3 km/h (3 Bft) W 264 ° 0 min 0,000 mm 0,5 UV-I 76 W/m² -4,9 °C 19,3 km/h (3 Bft)
13.01.2017 11:07 -0,9 °C -0,9 °C 74 % 1003,2 hPa 0,0 mm 15,2 km/h (3 Bft) W-SW 258 ° 0 min 0,000 mm 0,5 UV-I 72 W/m² -4,9 °C 29,0 km/h (5 Bft)
13.01.2017 11:08 -0,9 °C -0,9 °C 75 % 1003,0 hPa 0,0 mm 15,6 km/h (3 Bft) W-SW 255 ° 0 min 0,000 mm 0,0 UV-I 69 W/m² -4,8 °C 29,0 km/h (5 Bft)
13.01.2017 11:09 -0,9 °C -0,9 °C 75 % 1003,1 hPa 0,0 mm 14,6 km/h (3 Bft) W-SW 240 ° 0 min 0,000 mm 0,0 UV-I 69 W/m² -4,8 °C 22,5 km/h (4 Bft)
13.01.2017 11:10 -0,9 °C -0,9 °C 75 % 1003,1 hPa 0,0 mm 11,6 km/h (2 Bft) W 274 ° 0 min 0,000 mm 0,0 UV-I 63 W/m² -4,8 °C 16,1 km/h (3 Bft)
13.01.2017 11:11 -0,9 °C -0,9 °C 75 % 1003,0 hPa 0,0 mm 15,1 km/h (3 Bft) W-SW 258 ° 0 min 0,000 mm 0,0 UV-I 58 W/m² -4,8 °C 22,5 km/h (4 Bft)
13.01.2017 11:12 -0,9 °C -0,9 °C 75 % 1003,1 hPa 0,0 mm 11,3 km/h (2 Bft) W-SW 248 ° 0 min 0,000 mm 0,0 UV-I 56 W/m² -4,8 °C 17,7 km/h (3 Bft)
13.01.2017 11:13 -0,9 °C -0,9 °C 76 % 1003,1 hPa 0,0 mm 18,6 km/h (3 Bft) W 260 ° 0 min 0,000 mm 0,0 UV-I 62 W/m² -4,6 °C 27,4 km/h (4 Bft)
13.01.2017 11:14 -0,9 °C -0,9 °C 75 % 1003,0 hPa 0,0 mm 11,5 km/h (2 Bft) W-SW 257 ° 0 min 0,000 mm 0,0 UV-I 67 W/m² -4,8 °C 17,7 km/h (3 Bft)
13.01.2017 11:15 -0,9 °C -0,9 °C 75 % 1003,1 hPa 0,0 mm 18,2 km/h (3 Bft) W 280 ° 0 min 0,000 mm 0,0 UV-I 65 W/m² -4,8 °C 27,4 km/h (4 Bft)
13.01.2017 11:16 -0,9 °C -0,9 °C 75 % 1003,1 hPa 0,0 mm 14,5 km/h (3 Bft) W-NW 292 ° 0 min 0,000 mm 0,0 UV-I 58 W/m² -4,8 °C 19,3 km/h (3 Bft)
13.01.2017 11:17 -0,9 °C -0,9 °C 75 % 1003,2 hPa 0,0 mm 16,4 km/h (3 Bft) W 275 ° 0 min 0,000 mm 0,0 UV-I 62 W/m² -4,8 °C 30,6 km/h (5 Bft)
13.01.2017 11:18 -0,9 °C -0,9 °C 76 % 1003,4 hPa 0,0 mm 13,7 km/h (3 Bft) W-SW 240 ° 0 min 0,000 mm 0,0 UV-I 62 W/m² -4,6 °C 17,7 km/h (3 Bft)
13.01.2017 11:19 -0,9 °C -0,9 °C 76 % 1003,4 hPa 0,0 mm 15,0 km/h (3 Bft) W-SW 257 ° 0 min 0,000 mm 0,0 UV-I 58 W/m² -4,6 °C 20,9 km/h (4 Bft)
13.01.2017 11:20 -0,9 °C -0,9 °C 76 % 1003,4 hPa 0,0 mm 16,2 km/h (3 Bft) W-SW 257 ° 0 min 0,000 mm 0,0 UV-I 60 W/m² -4,6 °C 27,4 km/h (4 Bft)
13.01.2017 11:21 -1,0 °C -0,9 °C 76 % 1003,4 hPa 0,0 mm 13,8 km/h (3 Bft) W 267 ° 0 min 0,000 mm 0,0 UV-I 60 W/m² -4,7 °C 27,4 km/h (4 Bft)
13.01.2017 11:22 -1,0 °C -1,0 °C 75 % 1003,4 hPa 0,0 mm 15,0 km/h (3 Bft) W-SW 243 ° 0 min 0,000 mm 0,0 UV-I 54 W/m² -4,9 °C 29,0 km/h (5 Bft)
13.01.2017 11:23 -1,1 °C -1,0 °C 75 % 1003,4 hPa 0,0 mm 17,4 km/h (3 Bft) W 271 ° 0 min 0,000 mm 0,0 UV-I 54 W/m² -5,0 °C 27,4 km/h (4 Bft)
13.01.2017 11:24 -1,1 °C -1,0 °C 74 % 1003,5 hPa 0,0 mm 14,8 km/h (3 Bft) S-SW 198 ° 0 min 0,000 mm 0,0 UV-I 53 W/m² -5,1 °C 24,1 km/h (4 Bft)
13.01.2017 11:25 -1,1 °C -1,0 °C 75 % 1003,5 hPa 0,0 mm 11,3 km/h (2 Bft) SW 229 ° 0 min 0,000 mm 0,0 UV-I 54 W/m² -5,0 °C 22,5 km/h (4 Bft)
13.01.2017 11:26 -1,1 °C -1,0 °C 75 % 1003,6 hPa 0,0 mm 17,9 km/h (3 Bft) W-SW 251 ° 0 min 0,000 mm 0,0 UV-I 53 W/m² -5,0 °C 27,4 km/h (4 Bft)
13.01.2017 11:27 -1,1 °C -1,1 °C 74 % 1003,5 hPa 0,0 mm 16,7 km/h (3 Bft) W 262 ° 0 min 0,000 mm 0,0 UV-I 51 W/m² -5,1 °C 20,9 km/h (4 Bft)
13.01.2017 11:28 -1,1 °C -1,1 °C 74 % 1003,6 hPa 0,0 mm 19,6 km/h (3 Bft) W-SW 249 ° 0 min 0,000 mm 0,0 UV-I 49 W/m² -5,1 °C 27,4 km/h (4 Bft)
13.01.2017 11:29 -1,1 °C -1,1 °C 74 % 1003,5 hPa 0,0 mm 17,2 km/h (3 Bft) W-SW 242 ° 0 min 0,000 mm 0,0 UV-I 49 W/m² -5,1 °C 33,8 km/h (5 Bft)
13.01.2017 11:30 -1,1 °C -1,1 °C 74 % 1003,6 hPa 0,0 mm 16,2 km/h (3 Bft) W-SW 245 ° 0 min 0,000 mm 0,0 UV-I 56 W/m² -5,1 °C 20,9 km/h (4 Bft)
13.01.2017 11:31 -1,1 °C -1,1 °C 74 % 1003,6 hPa 0,0 mm 10,9 km/h (2 Bft) W-SW 253 ° 0 min 0,000 mm 0,0 UV-I 60 W/m² -5,1 °C 14,5 km/h (3 Bft)
13.01.2017 11:32 -1,1 °C -1,1 °C 75 % 1003,6 hPa 0,0 mm 11,6 km/h (2 Bft) W-SW 240 ° 0 min 0,000 mm 0,0 UV-I 58 W/m² -5,0 °C 17,7 km/h (3 Bft)
13.01.2017 11:33 -1,1 °C -1,1 °C 74 % 1003,4 hPa 0,0 mm 9,2 km/h (2 Bft) S-SW 212 ° 0 min 0,000 mm 0,0 UV-I 54 W/m² -5,1 °C 14,5 km/h (3 Bft)
13.01.2017 11:34 -1,1 °C -1,1 °C 74 % 1003,4 hPa 0,0 mm 17,0 km/h (3 Bft) W-SW 243 ° 0 min 0,000 mm 0,0 UV-I 58 W/m² -5,1 °C 29,0 km/h (5 Bft)
13.01.2017 11:35 -1,1 °C -1,1 °C 73 % 1003,4 hPa 0,0 mm 11,7 km/h (2 Bft) W 263 ° 0 min 0,000 mm 0,0 UV-I 58 W/m² -5,3 °C 22,5 km/h (4 Bft)
13.01.2017 11:36 -1,1 °C -1,1 °C 73 % 1003,4 hPa 0,0 mm 17,1 km/h (3 Bft) W 265 ° 0 min 0,000 mm 0,0 UV-I 62 W/m² -5,3 °C 22,5 km/h (4 Bft)
13.01.2017 11:37 -1,1 °C -1,1 °C 74 % 1003,3 hPa 0,0 mm 14,8 km/h (3 Bft) W-NW 301 ° 0 min 0,000 mm 0,0 UV-I 67 W/m² -5,1 °C 25,7 km/h (4 Bft)
13.01.2017 11:38 -1,2 °C -1,1 °C 74 % 1003,4 hPa 0,0 mm 13,3 km/h (3 Bft) W 272 ° 0 min 0,000 mm 0,0 UV-I 62 W/m² -5,2 °C 17,7 km/h (3 Bft)
13.01.2017 11:39 -1,2 °C -1,2 °C 73 % 1003,5 hPa 0,0 mm 21,9 km/h (4 Bft) W-SW 241 ° 0 min 0,000 mm 0,0 UV-I 62 W/m² -5,4 °C 35,4 km/h (5 Bft)
13.01.2017 11:40 -1,2 °C -1,2 °C 73 % 1003,4 hPa 0,0 mm 18,3 km/h (3 Bft) W 271 ° 0 min 0,000 mm 0,0 UV-I 69 W/m² -5,4 °C 24,1 km/h (4 Bft)
13.01.2017 11:41 -1,2 °C -1,2 °C 73 % 1003,5 hPa 0,0 mm 12,9 km/h (3 Bft) W 267 ° 0 min 0,000 mm 0,0 UV-I 67 W/m² -5,4 °C 16,1 km/h (3 Bft)
13.01.2017 11:42 -1,2 °C -1,2 °C 74 % 1003,4 hPa 0,0 mm 14,8 km/h (3 Bft) W-NW 283 ° 0 min 0,000 mm 0,0 UV-I 65 W/m² -5,2 °C 20,9 km/h (4 Bft)
13.01.2017 11:43 -1,2 °C -1,2 °C 73 % 1003,4 hPa 0,0 mm 18,8 km/h (3 Bft) W-SW 250 ° 0 min 0,000 mm 0,0 UV-I 63 W/m² -5,4 °C 22,5 km/h (4 Bft)
13.01.2017 11:44 -1,2 °C -1,2 °C 73 % 1003,4 hPa 0,0 mm 16,4 km/h (3 Bft) W-SW 250 ° 0 min 0,000 mm 0,0 UV-I 63 W/m² -5,4 °C 20,9 km/h (4 Bft)
13.01.2017 11:45 -1,2 °C -1,2 °C 73 % 1003,5 hPa 0,0 mm 18,7 km/h (3 Bft) W-SW 255 ° 0 min 0,000 mm 0,0 UV-I 65 W/m² -5,4 °C 25,7 km/h (4 Bft)
13.01.2017 11:46 -1,2 °C -1,2 °C 73 % 1003,5 hPa 0,0 mm 27,7 km/h (4 Bft) W-SW 244 ° 0 min 0,000 mm 0,0 UV-I 69 W/m² -5,4 °C 43,5 km/h (6 Bft)
13.01.2017 11:47 -1,2 °C -1,2 °C 72 % 1003,4 hPa 0,0 mm 24,9 km/h (4 Bft) W 273 ° 0 min 0,000 mm 0,5 UV-I 69 W/m² -5,6 °C 40,2 km/h (6 Bft)
13.01.2017 11:48 -1,2 °C -1,2 °C 73 % 1003,4 hPa 0,0 mm 22,7 km/h (4 Bft) W-SW 256 ° 0 min 0,000 mm 0,0 UV-I 65 W/m² -5,4 °C 41,8 km/h (6 Bft)
13.01.2017 11:49 -1,2 °C -1,2 °C 72 % 1003,5 hPa 0,0 mm 20,3 km/h (4 Bft) W 261 ° 0 min 0,000 mm 0,0 UV-I 63 W/m² -5,6 °C 33,8 km/h (5 Bft)
13.01.2017 11:50 -1,2 °C -1,2 °C 73 % 1003,4 hPa 0,0 mm 16,5 km/h (3 Bft) W-SW 251 ° 0 min 0,000 mm 0,0 UV-I 58 W/m² -5,4 °C 32,2 km/h (5 Bft)
13.01.2017 11:51 -1,2 °C -1,2 °C 72 % 1003,5 hPa 0,0 mm 17,0 km/h (3 Bft) W 272 ° 0 min 0,000 mm 0,0 UV-I 53 W/m² -5,6 °C 29,0 km/h (5 Bft)
13.01.2017 11:52 -1,2 °C -1,2 °C 71 % 1003,4 hPa 0,0 mm 21,4 km/h (4 Bft) W-NW 296 ° 0 min 0,000 mm 0,0 UV-I 53 W/m² -5,8 °C 29,0 km/h (5 Bft)
13.01.2017 11:53 -1,2 °C -1,2 °C 72 % 1003,4 hPa 0,0 mm 30,4 km/h (5 Bft) W-SW 240 ° 0 min 0,000 mm 0,0 UV-I 53 W/m² -5,6 °C 43,5 km/h (6 Bft)
13.01.2017 11:54 -1,2 °C -1,2 °C 72 % 1003,4 hPa 0,0 mm 17,8 km/h (3 Bft) SW 220 ° 0 min 0,000 mm 0,0 UV-I 53 W/m² -5,6 °C 27,4 km/h (4 Bft)
13.01.2017 11:55 -1,2 °C -1,2 °C 72 % 1003,4 hPa 0,0 mm 16,5 km/h (3 Bft) W 261 ° 0 min 0,000 mm 0,0 UV-I 53 W/m² -5,6 °C 22,5 km/h (4 Bft)
13.01.2017 11:56 -1,2 °C -1,2 °C 72 % 1003,4 hPa 0,0 mm 15,3 km/h (3 Bft) W-SW 258 ° 0 min 0,000 mm 0,0 UV-I 56 W/m² -5,6 °C 17,7 km/h (3 Bft)
13.01.2017 11:57 -1,2 °C -1,2 °C 72 % 1003,3 hPa 0,0 mm 20,0 km/h (4 Bft) NW 304 ° 0 min 0,000 mm 0,0 UV-I 62 W/m² -5,6 °C 30,6 km/h (5 Bft)
13.01.2017 11:58 -1,2 °C -1,2 °C 71 % 1003,4 hPa 0,0 mm 15,1 km/h (3 Bft) W 279 ° 0 min 0,000 mm 0,0 UV-I 56 W/m² -5,8 °C 22,5 km/h (4 Bft)
13.01.2017 11:59 -1,2 °C -1,2 °C 71 % 1003,4 hPa 0,0 mm 8,9 km/h (2 Bft) W-SW 255 ° 0 min 0,000 mm 0,0 UV-I 54 W/m² -5,8 °C 16,1 km/h (3 Bft)
13.01.2017 12:00 -1,2 °C -1,2 °C 72 % 1003,4 hPa 0,0 mm 17,7 km/h (3 Bft) W 277 ° 0 min 0,051 mm 0,0 UV-I 60 W/m² -5,6 °C 24,1 km/h (4 Bft)
13.01.2017 12:01 -1,2 °C -1,2 °C 71 % 1003,4 hPa 0,0 mm 10,9 km/h (2 Bft) W-SW 237 ° 0 min 0,000 mm 0,5 UV-I 70 W/m² -5,8 °C 20,9 km/h (4 Bft)
13.01.2017 12:02 -1,2 °C -1,2 °C 71 % 1003,3 hPa 0,0 mm 15,7 km/h (3 Bft) W 264 ° 0 min 0,000 mm 0,6 UV-I 81 W/m² -5,8 °C 22,5 km/h (4 Bft)
13.01.2017 12:03 -1,2 °C -1,2 °C 71 % 1003,4 hPa 0,0 mm 21,8 km/h (4 Bft) W 261 ° 0 min 0,000 mm 0,6 UV-I 84 W/m² -5,8 °C 27,4 km/h (4 Bft)
13.01.2017 12:04 -1,2 °C -1,2 °C 71 % 1003,2 hPa 0,0 mm 18,9 km/h (3 Bft) W 262 ° 0 min 0,000 mm 0,5 UV-I 81 W/m² -5,8 °C 24,1 km/h (4 Bft)
13.01.2017 12:05 -1,2 °C -1,2 °C 72 % 1003,2 hPa 0,0 mm 17,1 km/h (3 Bft) W-NW 290 ° 0 min 0,000 mm 0,5 UV-I 74 W/m² -5,6 °C 24,1 km/h (4 Bft)
13.01.2017 12:06 -1,2 °C -1,2 °C 72 % 1003,3 hPa 0,0 mm 20,5 km/h (4 Bft) W 262 ° 0 min 0,000 mm 0,0 UV-I 67 W/m² -5,6 °C 24,1 km/h (4 Bft)
13.01.2017 12:07 -1,2 °C -1,2 °C 71 % 1003,4 hPa 0,0 mm 14,3 km/h (3 Bft) SW 221 ° 0 min 0,000 mm 0,0 UV-I 60 W/m² -5,8 °C 19,3 km/h (3 Bft)
13.01.2017 12:08 -1,2 °C -1,2 °C 71 % 1003,4 hPa 0,0 mm 9,1 km/h (2 Bft) W-NW 300 ° 0 min 0,000 mm 0,0 UV-I 54 W/m² -5,8 °C 17,7 km/h (3 Bft)
13.01.2017 12:09 -1,2 °C -1,2 °C 71 % 1003,4 hPa 0,0 mm 10,4 km/h (2 Bft) SW 234 ° 0 min 0,000 mm 0,0 UV-I 53 W/m² -5,8 °C 16,1 km/h (3 Bft)
13.01.2017 12:10 -1,2 °C -1,1 °C 71 % 1003,3 hPa 0,0 mm 10,0 km/h (2 Bft) SW 229 ° 0 min 0,000 mm 0,0 UV-I 47 W/m² -5,8 °C 14,5 km/h (3 Bft)
13.01.2017 12:11 -1,2 °C -1,2 °C 71 % 1003,4 hPa 0,0 mm 8,9 km/h (2 Bft) W-NW 291 ° 0 min 0,000 mm 0,0 UV-I 44 W/m² -5,8 °C 12,9 km/h (3 Bft)
13.01.2017 12:12 -1,2 °C -1,2 °C 71 % 1003,4 hPa 0,0 mm 16,8 km/h (3 Bft) W 279 ° 0 min 0,000 mm 0,0 UV-I 47 W/m² -5,8 °C 30,6 km/h (5 Bft)
13.01.2017 12:13 -1,2 °C -1,2 °C 70 % 1003,3 hPa 0,0 mm 18,4 km/h (3 Bft) W-SW 244 ° 0 min 0,000 mm 0,0 UV-I 54 W/m² -6,0 °C 29,0 km/h (5 Bft)
13.01.2017 12:14 -1,2 °C -1,2 °C 71 % 1003,3 hPa 0,0 mm 16,0 km/h (3 Bft) W-SW 247 ° 0 min 0,000 mm 0,0 UV-I 65 W/m² -5,8 °C 25,7 km/h (4 Bft)
13.01.2017 12:15 -1,2 °C -1,2 °C 70 % 1003,3 hPa 0,0 mm 16,8 km/h (3 Bft) W 259 ° 0 min 0,000 mm 0,5 UV-I 84 W/m² -6,0 °C 20,9 km/h (4 Bft)
13.01.2017 12:16 -1,2 °C -1,2 °C 71 % 1003,3 hPa 0,0 mm 10,6 km/h (2 Bft) W 264 ° 0 min 0,000 mm 0,6 UV-I 86 W/m² -5,8 °C 16,1 km/h (3 Bft)
13.01.2017 12:17 -1,2 °C -1,2 °C 71 % 1003,3 hPa 0,0 mm 14,4 km/h (3 Bft) W 273 ° 0 min 0,000 mm 0,5 UV-I 81 W/m² -5,8 °C 19,3 km/h (3 Bft)
13.01.2017 12:18 -1,2 °C -1,2 °C 70 % 1003,2 hPa 0,0 mm 8,6 km/h (2 Bft) W-SW 240 ° 0 min 0,000 mm 0,5 UV-I 79 W/m² -6,0 °C 16,1 km/h (3 Bft)
13.01.2017 12:19 -1,1 °C -1,1 °C 70 % 1003,1 hPa 0,0 mm 11,6 km/h (2 Bft) W-SW 238 ° 0 min 0,000 mm 0,5 UV-I 81 W/m² -5,9 °C 20,9 km/h (4 Bft)
13.01.2017 12:20 -1,2 °C -1,1 °C 70 % 1003,2 hPa 0,0 mm 14,2 km/h (3 Bft) W 263 ° 0 min 0,000 mm 0,5 UV-I 83 W/m² -6,0 °C 19,3 km/h (3 Bft)
13.01.2017 12:21 -1,2 °C -1,1 °C 71 % 1003,2 hPa 0,0 mm 15,3 km/h (3 Bft) W-SW 252 ° 0 min 0,000 mm 0,6 UV-I 84 W/m² -5,8 °C 27,4 km/h (4 Bft)
13.01.2017 12:22 -1,1 °C -1,1 °C 70 % 1003,2 hPa 0,0 mm 12,9 km/h (3 Bft) W-SW 256 ° 0 min 0,000 mm 0,6 UV-I 90 W/m² -5,9 °C 19,3 km/h (3 Bft)
13.01.2017 12:23 -1,1 °C -1,1 °C 70 % 1003,2 hPa 0,0 mm 9,4 km/h (2 Bft) W-SW 252 ° 0 min 0,000 mm 0,7 UV-I 98 W/m² -5,9 °C 17,7 km/h (3 Bft)
13.01.2017 12:24 -1,1 °C -1,1 °C 71 % 1003,2 hPa 0,0 mm 12,4 km/h (3 Bft) W 259 ° 0 min 0,000 mm 0,7 UV-I 100 W/m² -5,7 °C 16,1 km/h (3 Bft)
13.01.2017 12:25 -1,1 °C -1,1 °C 71 % 1003,2 hPa 0,0 mm 10,9 km/h (2 Bft) W-NW 284 ° 0 min 0,000 mm 0,8 UV-I 114 W/m² -5,7 °C 19,3 km/h (3 Bft)
13.01.2017 12:26 -1,1 °C -1,1 °C 71 % 1003,2 hPa 0,0 mm 7,1 km/h (2 Bft) SW 236 ° 0 min 0,000 mm 0,8 UV-I 125 W/m² -5,7 °C 12,9 km/h (3 Bft)
13.01.2017 12:27 -1,1 °C -1,1 °C 71 % 1003,2 hPa 0,0 mm 7,6 km/h (2 Bft) W-SW 257 ° 0 min 0,000 mm 0,8 UV-I 135 W/m² -5,7 °C 14,5 km/h (3 Bft)
13.01.2017 12:28 -1,1 °C -1,1 °C 71 % 1003,2 hPa 0,0 mm 10,2 km/h (2 Bft) W 266 ° 0 min 0,000 mm 0,9 UV-I 144 W/m² -5,7 °C 17,7 km/h (3 Bft)
13.01.2017 12:29 -1,1 °C -1,1 °C 71 % 1003,0 hPa 0,0 mm 15,4 km/h (3 Bft) W 265 ° 0 min 0,000 mm 0,9 UV-I 148 W/m² -5,7 °C 20,9 km/h (4 Bft)
13.01.2017 12:30 -1,1 °C -1,0 °C 70 % 1003,0 hPa 0,0 mm 10,4 km/h (2 Bft) W-SW 244 ° 0 min 0,000 mm 1,0 UV-I 148 W/m² -5,9 °C 14,5 km/h (3 Bft)
13.01.2017 12:31 -1,0 °C -1,0 °C 70 % 1003,0 hPa 0,0 mm 14,0 km/h (3 Bft) W 271 ° 0 min 0,000 mm 1,0 UV-I 148 W/m² -5,8 °C 17,7 km/h (3 Bft)
13.01.2017 12:32 -1,0 °C -1,0 °C 70 % 1003,0 hPa 0,0 mm 10,3 km/h (2 Bft) W-SW 257 ° 0 min 0,000 mm 1,0 UV-I 142 W/m² -5,8 °C 14,5 km/h (3 Bft)
13.01.2017 12:33 -1,0 °C -1,0 °C 71 % 1003,1 hPa 0,0 mm 11,7 km/h (2 Bft) W 277 ° 0 min 0,000 mm 0,9 UV-I 128 W/m² -5,6 °C 17,7 km/h (3 Bft)
13.01.2017 12:34 -1,0 °C -1,0 °C 71 % 1003,0 hPa 0,0 mm 9,5 km/h (2 Bft) W-SW 249 ° 0 min 0,000 mm 0,9 UV-I 120 W/m² -5,6 °C 16,1 km/h (3 Bft)
13.01.2017 12:35 -1,0 °C -1,0 °C 70 % 1003,1 hPa 0,0 mm 12,3 km/h (3 Bft) SW 234 ° 0 min 0,000 mm 0,8 UV-I 111 W/m² -5,8 °C 16,1 km/h (3 Bft)
13.01.2017 12:36 -1,0 °C -1,0 °C 70 % 1003,1 hPa 0,0 mm 14,1 km/h (3 Bft) W 267 ° 0 min 0,000 mm 0,7 UV-I 111 W/m² -5,8 °C 24,1 km/h (4 Bft)
13.01.2017 12:37 -1,1 °C -1,0 °C 70 % 1003,1 hPa 0,0 mm 15,5 km/h (3 Bft) W 267 ° 0 min 0,000 mm 0,7 UV-I 95 W/m² -5,9 °C 25,7 km/h (4 Bft)
13.01.2017 12:38 -1,1 °C -1,0 °C 70 % 1003,1 hPa 0,0 mm 18,9 km/h (3 Bft) W 259 ° 0 min 0,000 mm 0,7 UV-I 95 W/m² -5,9 °C 29,0 km/h (5 Bft)
13.01.2017 12:39 -1,0 °C -1,0 °C 70 % 1003,2 hPa 0,0 mm 13,2 km/h (3 Bft) W-SW 246 ° 0 min 0,000 mm 0,7 UV-I 91 W/m² -5,8 °C 19,3 km/h (3 Bft)
13.01.2017 12:40 -1,0 °C -1,0 °C 70 % 1003,2 hPa 0,0 mm 15,2 km/h (3 Bft) W 273 ° 0 min 0,000 mm 0,6 UV-I 88 W/m² -5,8 °C 22,5 km/h (4 Bft)
13.01.2017 12:41 -1,1 °C -1,0 °C 71 % 1003,2 hPa 0,0 mm 16,4 km/h (3 Bft) W-SW 243 ° 0 min 0,000 mm 0,6 UV-I 86 W/m² -5,7 °C 27,4 km/h (4 Bft)
13.01.2017 12:42 -1,0 °C -1,0 °C 70 % 1003,2 hPa 0,0 mm 12,5 km/h (3 Bft) S-SW 209 ° 0 min 0,000 mm 0,6 UV-I 86 W/m² -5,8 °C 22,5 km/h (4 Bft)
13.01.2017 12:43 -1,0 °C -1,0 °C 71 % 1003,2 hPa 0,0 mm 17,5 km/h (3 Bft) W 266 ° 0 min 0,000 mm 0,6 UV-I 91 W/m² -5,6 °C 22,5 km/h (4 Bft)
13.01.2017 12:44 -1,0 °C -1,0 °C 70 % 1003,3 hPa 0,0 mm 10,2 km/h (2 Bft) W-SW 253 ° 0 min 0,000 mm 0,7 UV-I 105 W/m² -5,8 °C 20,9 km/h (4 Bft)
13.01.2017 12:45 -1,0 °C -1,0 °C 71 % 1003,3 hPa 0,0 mm 11,7 km/h (2 Bft) W 267 ° 0 min 0,000 mm 0,7 UV-I 107 W/m² -5,6 °C 17,7 km/h (3 Bft)
13.01.2017 12:46 -1,0 °C -1,0 °C 70 % 1003,3 hPa 0,0 mm 14,3 km/h (3 Bft) W 263 ° 0 min 0,000 mm 0,7 UV-I 105 W/m² -5,8 °C 16,1 km/h (3 Bft)
13.01.2017 12:47 -1,1 °C -1,0 °C 71 % 1003,4 hPa 0,0 mm 12,7 km/h (3 Bft) NW 309 ° 0 min 0,000 mm 0,7 UV-I 109 W/m² -5,7 °C 19,3 km/h (3 Bft)
13.01.2017 12:48 -1,1 °C -1,0 °C 72 % 1003,4 hPa 0,0 mm 12,1 km/h (2 Bft) W-SW 249 ° 0 min 0,000 mm 0,8 UV-I 114 W/m² -5,5 °C 17,7 km/h (3 Bft)
13.01.2017 12:49 -1,1 °C -1,1 °C 71 % 1003,4 hPa 0,0 mm 14,0 km/h (3 Bft) W-SW 246 ° 0 min 0,000 mm 0,8 UV-I 116 W/m² -5,7 °C 20,9 km/h (4 Bft)
13.01.2017 12:50 -1,1 °C -1,1 °C 72 % 1003,4 hPa 0,0 mm 13,9 km/h (3 Bft) W-SW 252 ° 0 min 0,000 mm 0,8 UV-I 118 W/m² -5,5 °C 22,5 km/h (4 Bft)
13.01.2017 12:51 -1,1 °C -1,1 °C 72 % 1003,4 hPa 0,0 mm 17,2 km/h (3 Bft) W 272 ° 0 min 0,000 mm 0,8 UV-I 120 W/m² -5,5 °C 22,5 km/h (4 Bft)
13.01.2017 12:52 -1,1 °C -1,1 °C 72 % 1003,4 hPa 0,0 mm 10,7 km/h (2 Bft) W-SW 238 ° 0 min 0,000 mm 0,7 UV-I 114 W/m² -5,5 °C 17,7 km/h (3 Bft)
13.01.2017 12:53 -1,1 °C -1,1 °C 72 % 1003,4 hPa 0,0 mm 13,9 km/h (3 Bft) W-SW 254 ° 0 min 0,000 mm 0,7 UV-I 109 W/m² -5,5 °C 19,3 km/h (3 Bft)
13.01.2017 12:54 -1,2 °C -1,1 °C 73 % 1003,5 hPa 0,0 mm 17,6 km/h (3 Bft) W 268 ° 0 min 0,000 mm 0,7 UV-I 104 W/m² -5,4 °C 32,2 km/h (5 Bft)
13.01.2017 12:55 -1,2 °C -1,2 °C 75 % 1003,4 hPa 0,0 mm 21,7 km/h (4 Bft) W 265 ° 0 min 0,000 mm 0,7 UV-I 109 W/m² -5,0 °C 30,6 km/h (5 Bft)
13.01.2017 12:56 -1,3 °C -1,2 °C 75 % 1003,5 hPa 0,0 mm 22,3 km/h (4 Bft) W-SW 258 ° 0 min 0,000 mm 0,7 UV-I 113 W/m² -5,1 °C 38,6 km/h (5 Bft)
13.01.2017 12:57 -1,3 °C -1,3 °C 76 % 1003,5 hPa 0,0 mm 22,2 km/h (4 Bft) W-SW 257 ° 0 min 0,000 mm 0,7 UV-I 120 W/m² -5,0 °C 27,4 km/h (4 Bft)
13.01.2017 12:58 -1,4 °C -1,3 °C 76 % 1003,5 hPa 0,0 mm 17,8 km/h (3 Bft) W-SW 249 ° 0 min 0,000 mm 0,7 UV-I 120 W/m² -5,1 °C 29,0 km/h (5 Bft)
13.01.2017 12:59 -1,6 °C -1,4 °C 78 % 1003,5 hPa 0,0 mm 23,7 km/h (4 Bft) SW 236 ° 0 min 0,000 mm 0,7 UV-I 118 W/m² -4,9 °C 38,6 km/h (5 Bft)
13.01.2017 13:00 -1,6 °C -1,6 °C 77 % 1003,5 hPa 0,0 mm 12,9 km/h (3 Bft) W-SW 246 ° 0 min 0,000 mm 0,8 UV-I 121 W/m² -5,1 °C 22,5 km/h (4 Bft)
13.01.2017 13:01 -1,7 °C -1,6 °C 78 % 1003,5 hPa 0,0 mm 19,6 km/h (3 Bft) W-SW 243 ° 0 min 0,050 mm 0,8 UV-I 125 W/m² -5,0 °C 25,7 km/h (4 Bft)
13.01.2017 13:02 -1,7 °C -1,6 °C 78 % 1003,5 hPa 0,0 mm 14,3 km/h (3 Bft) W-SW 250 ° 0 min 0,000 mm 0,8 UV-I 127 W/m² -5,0 °C 20,9 km/h (4 Bft)
13.01.2017 13:03 -1,7 °C -1,6 °C 78 % 1003,5 hPa 0,0 mm 15,0 km/h (3 Bft) W-SW 247 ° 0 min 0,000 mm 0,8 UV-I 123 W/m² -5,0 °C 22,5 km/h (4 Bft)
13.01.2017 13:04 -1,7 °C -1,7 °C 78 % 1003,5 hPa 0,0 mm 21,1 km/h (4 Bft) W 277 ° 0 min 0,000 mm 0,7 UV-I 118 W/m² -5,0 °C 29,0 km/h (5 Bft)
13.01.2017 13:05 -1,7 °C -1,7 °C 78 % 1003,5 hPa 0,0 mm 20,0 km/h (4 Bft) W 267 ° 0 min 0,000 mm 0,7 UV-I 113 W/m² -5,0 °C 27,4 km/h (4 Bft)
13.01.2017 13:06 -1,8 °C -1,7 °C 79 % 1003,5 hPa 0,0 mm 17,9 km/h (3 Bft) W-SW 257 ° 0 min 0,000 mm 0,7 UV-I 109 W/m² -4,9 °C 24,1 km/h (4 Bft)
13.01.2017 13:07 -1,8 °C -1,7 °C 79 % 1003,5 hPa 0,0 mm 12,2 km/h (2 Bft) W-SW 251 ° 0 min 0,000 mm 0,7 UV-I 105 W/m² -4,9 °C 20,9 km/h (4 Bft)
13.01.2017 13:08 -1,8 °C -1,8 °C 80 % 1003,6 hPa 0,0 mm 14,8 km/h (3 Bft) SW 235 ° 0 min 0,000 mm 0,6 UV-I 102 W/m² -4,8 °C 25,7 km/h (4 Bft)
13.01.2017 13:09 -1,8 °C -1,8 °C 81 % 1003,6 hPa 0,0 mm 25,4 km/h (4 Bft) W 265 ° 0 min 0,000 mm 0,7 UV-I 109 W/m² -4,6 °C 30,6 km/h (5 Bft)
13.01.2017 13:10 -1,9 °C -1,8 °C 81 % 1003,6 hPa 0,0 mm 15,8 km/h (3 Bft) W 269 ° 0 min 0,000 mm 0,7 UV-I 113 W/m² -4,7 °C 20,9 km/h (4 Bft)
13.01.2017 13:11 -2,0 °C -1,9 °C 83 % 1003,6 hPa 0,0 mm 16,2 km/h (3 Bft) W 277 ° 0 min 0,000 mm 0,7 UV-I 114 W/m² -4,5 °C 25,7 km/h (4 Bft)
13.01.2017 13:12 -2,1 °C -2,0 °C 83 % 1003,6 hPa 0,0 mm 17,2 km/h (3 Bft) W 265 ° 0 min 0,000 mm 0,7 UV-I 114 W/m² -4,6 °C 22,5 km/h (4 Bft)
13.01.2017 13:13 -2,1 °C -2,1 °C 83 % 1003,6 hPa 0,0 mm 15,2 km/h (3 Bft) W-SW 252 ° 0 min 0,000 mm 0,7 UV-I 118 W/m² -4,6 °C 27,4 km/h (4 Bft)
13.01.2017 13:14 -2,1 °C -2,1 °C 83 % 1003,6 hPa 0,0 mm 13,3 km/h (3 Bft) W-SW 248 ° 0 min 0,000 mm 0,8 UV-I 120 W/m² -4,6 °C 22,5 km/h (4 Bft)
13.01.2017 13:15 -2,1 °C -2,1 °C 83 % 1003,6 hPa 0,0 mm 15,5 km/h (3 Bft) W-NW 287 ° 0 min 0,000 mm 0,7 UV-I 120 W/m² -4,6 °C 20,9 km/h (4 Bft)
13.01.2017 13:16 -2,1 °C -2,1 °C 83 % 1003,6 hPa 0,0 mm 21,2 km/h (4 Bft) W-SW 253 ° 0 min 0,000 mm 0,7 UV-I 118 W/m² -4,6 °C 30,6 km/h (5 Bft)
13.01.2017 13:17 -2,1 °C -2,1 °C 82 % 1003,6 hPa 0,0 mm 17,2 km/h (3 Bft) W 266 ° 0 min 0,000 mm 0,7 UV-I 116 W/m² -4,7 °C 24,1 km/h (4 Bft)
13.01.2017 13:18 -2,1 °C -2,1 °C 82 % 1003,7 hPa 0,0 mm 12,5 km/h (3 Bft) W-NW 290 ° 0 min 0,000 mm 0,7 UV-I 114 W/m² -4,7 °C 16,1 km/h (3 Bft)
13.01.2017 13:19 -2,1 °C -2,1 °C 82 % 1003,6 hPa 0,0 mm 15,8 km/h (3 Bft) W 260 ° 0 min 0,000 mm 0,7 UV-I 113 W/m² -4,7 °C 22,5 km/h (4 Bft)
13.01.2017 13:20 -2,1 °C -2,0 °C 82 % 1003,6 hPa 0,0 mm 13,7 km/h (3 Bft) N-NW 330 ° 0 min 0,000 mm 0,7 UV-I 113 W/m² -4,7 °C 22,5 km/h (4 Bft)
13.01.2017 13:21 -2,0 °C -2,0 °C 82 % 1003,6 hPa 0,0 mm 13,5 km/h (3 Bft) W 281 ° 0 min 0,000 mm 0,7 UV-I 111 W/m² -4,7 °C 19,3 km/h (3 Bft)
13.01.2017 13:22 -1,9 °C -1,9 °C 82 % 1003,6 hPa 0,0 mm 16,4 km/h (3 Bft) W-SW 257 ° 0 min 0,000 mm 0,7 UV-I 109 W/m² -4,6 °C 22,5 km/h (4 Bft)
13.01.2017 13:23 -2,0 °C -1,9 °C 82 % 1003,6 hPa 0,0 mm 18,0 km/h (3 Bft) W-SW 244 ° 0 min 0,000 mm 0,7 UV-I 109 W/m² -4,7 °C 24,1 km/h (4 Bft)
13.01.2017 13:24 -1,9 °C -1,9 °C 82 % 1003,6 hPa 0,0 mm 17,5 km/h (3 Bft) W-SW 258 ° 0 min 0,000 mm 0,7 UV-I 107 W/m² -4,6 °C 30,6 km/h (5 Bft)
13.01.2017 13:25 -1,9 °C -1,9 °C 82 % 1003,7 hPa 0,0 mm 16,0 km/h (3 Bft) W 263 ° 0 min 0,000 mm 0,7 UV-I 116 W/m² -4,6 °C 25,7 km/h (4 Bft)
13.01.2017 13:26 -2,0 °C -1,9 °C 82 % 1003,6 hPa 0,0 mm 21,9 km/h (4 Bft) W 273 ° 0 min 0,000 mm 0,7 UV-I 120 W/m² -4,7 °C 30,6 km/h (5 Bft)
13.01.2017 13:27 -2,0 °C -2,0 °C 82 % 1003,6 hPa 0,0 mm 15,6 km/h (3 Bft) W-NW 282 ° 0 min 0,000 mm 0,7 UV-I 121 W/m² -4,7 °C 20,9 km/h (4 Bft)
13.01.2017 13:28 -2,0 °C -2,0 °C 82 % 1003,5 hPa 0,0 mm 15,9 km/h (3 Bft) W-NW 286 ° 0 min 0,000 mm 0,7 UV-I 121 W/m² -4,7 °C 25,7 km/h (4 Bft)
13.01.2017 13:29 -2,1 °C -2,0 °C 82 % 1003,5 hPa 0,0 mm 12,3 km/h (3 Bft) W 281 ° 0 min 0,000 mm 0,7 UV-I 121 W/m² -4,7 °C 20,9 km/h (4 Bft)
13.01.2017 13:30 -2,1 °C -2,0 °C 82 % 1003,5 hPa 0,0 mm 12,7 km/h (3 Bft) W 273 ° 0 min 0,000 mm 0,7 UV-I 123 W/m² -4,7 °C 17,7 km/h (3 Bft)
13.01.2017 13:31 -2,1 °C -2,1 °C 82 % 1003,5 hPa 0,0 mm 10,1 km/h (2 Bft) W-SW 253 ° 0 min 0,000 mm 0,7 UV-I 123 W/m² -4,7 °C 12,9 km/h (3 Bft)
13.01.2017 13:32 -2,1 °C -2,1 °C 82 % 1003,5 hPa 0,0 mm 13,3 km/h (3 Bft) W-SW 248 ° 0 min 0,000 mm 0,7 UV-I 123 W/m² -4,7 °C 17,7 km/h (3 Bft)
13.01.2017 13:33 -2,1 °C -2,0 °C 82 % 1003,5 hPa 0,0 mm 15,8 km/h (3 Bft) W 269 ° 0 min 0,000 mm 0,7 UV-I 125 W/m² -4,7 °C 19,3 km/h (3 Bft)
13.01.2017 13:34 -2,1 °C -2,0 °C 82 % 1003,5 hPa 0,0 mm 19,3 km/h (3 Bft) W-SW 246 ° 0 min 0,000 mm 0,7 UV-I 125 W/m² -4,7 °C 25,7 km/h (4 Bft)
13.01.2017 13:35 -2,1 °C -2,0 °C 82 % 1003,6 hPa 0,0 mm 16,0 km/h (3 Bft) SW 234 ° 0 min 0,000 mm 0,7 UV-I 125 W/m² -4,7 °C 22,5 km/h (4 Bft)
13.01.2017 13:36 -2,1 °C -2,0 °C 82 % 1003,6 hPa 0,0 mm 9,9 km/h (2 Bft) W-SW 242 ° 0 min 0,000 mm 0,7 UV-I 125 W/m² -4,7 °C 17,7 km/h (3 Bft)
13.01.2017 13:37 -2,0 °C -2,0 °C 81 % 1003,6 hPa 0,0 mm 13,5 km/h (3 Bft) W 267 ° 0 min 0,000 mm 0,7 UV-I 121 W/m² -4,8 °C 20,9 km/h (4 Bft)
13.01.2017 13:38 -2,1 °C -2,0 °C 81 % 1003,6 hPa 0,0 mm 11,7 km/h (2 Bft) W-SW 239 ° 0 min 0,000 mm 0,7 UV-I 118 W/m² -4,9 °C 16,1 km/h (3 Bft)
13.01.2017 13:39 -2,0 °C -2,0 °C 81 % 1003,6 hPa 0,0 mm 17,3 km/h (3 Bft) W-SW 252 ° 0 min 0,000 mm 0,7 UV-I 114 W/m² -4,8 °C 25,7 km/h (4 Bft)
13.01.2017 13:40 -2,0 °C -2,0 °C 81 % 1003,7 hPa 0,0 mm 18,9 km/h (3 Bft) S-SW 200 ° 0 min 0,000 mm 0,7 UV-I 113 W/m² -4,8 °C 25,7 km/h (4 Bft)
13.01.2017 13:41 -2,0 °C -2,0 °C 81 % 1003,7 hPa 0,0 mm 15,8 km/h (3 Bft) W 265 ° 0 min 0,000 mm 0,7 UV-I 114 W/m² -4,8 °C 24,1 km/h (4 Bft)
13.01.2017 13:42 -1,9 °C -1,9 °C 81 % 1003,7 hPa 0,0 mm 16,6 km/h (3 Bft) W-NW 290 ° 0 min 0,000 mm 0,7 UV-I 111 W/m² -4,7 °C 25,7 km/h (4 Bft)
13.01.2017 13:43 -1,9 °C -1,9 °C 81 % 1003,7 hPa 0,0 mm 9,0 km/h (2 Bft) NW 310 ° 0 min 0,000 mm 0,6 UV-I 100 W/m² -4,7 °C 14,5 km/h (3 Bft)
13.01.2017 13:44 -1,9 °C -1,9 °C 81 % 1003,8 hPa 0,0 mm 9,1 km/h (2 Bft) W-SW 243 ° 0 min 0,000 mm 0,6 UV-I 100 W/m² -4,7 °C 12,9 km/h (3 Bft)
13.01.2017 13:45 -1,9 °C -1,9 °C 81 % 1003,8 hPa 0,0 mm 7,8 km/h (2 Bft) W-NW 283 ° 0 min 0,000 mm 0,6 UV-I 102 W/m² -4,7 °C 14,5 km/h (3 Bft)
13.01.2017 13:46 -1,9 °C -1,9 °C 80 % 1003,8 hPa 0,0 mm 10,0 km/h (2 Bft) W-SW 257 ° 0 min 0,000 mm 0,6 UV-I 97 W/m² -4,9 °C 12,9 km/h (3 Bft)
13.01.2017 13:47 -1,9 °C -1,9 °C 80 % 1003,8 hPa 0,0 mm 15,7 km/h (3 Bft) W 275 ° 0 min 0,000 mm 0,6 UV-I 95 W/m² -4,9 °C 25,7 km/h (4 Bft)
13.01.2017 13:48 -1,9 °C -1,9 °C 80 % 1003,9 hPa 0,0 mm 15,1 km/h (3 Bft) W 264 ° 0 min 0,000 mm 0,6 UV-I 91 W/m² -4,9 °C 19,3 km/h (3 Bft)
13.01.2017 13:49 -1,9 °C -1,9 °C 80 % 1003,9 hPa 0,0 mm 10,7 km/h (2 Bft) W-SW 237 ° 0 min 0,000 mm 0,5 UV-I 88 W/m² -4,9 °C 16,1 km/h (3 Bft)
13.01.2017 13:50 -1,9 °C -1,9 °C 80 % 1003,9 hPa 0,0 mm 7,3 km/h (2 Bft) W 274 ° 0 min 0,000 mm 0,5 UV-I 83 W/m² -4,9 °C 12,9 km/h (3 Bft)
13.01.2017 13:51 -1,9 °C -1,9 °C 80 % 1003,9 hPa 0,0 mm 4,7 km/h (1 Bft) W-SW 251 ° 0 min 0,000 mm 0,0 UV-I 76 W/m² -4,9 °C 9,7 km/h (2 Bft)
13.01.2017 13:52 -1,9 °C -1,9 °C 80 % 1004,0 hPa 0,0 mm 7,2 km/h (2 Bft) W-NW 292 ° 0 min 0,000 mm 0,0 UV-I 72 W/m² -4,9 °C 11,3 km/h (2 Bft)
13.01.2017 13:53 -1,9 °C -1,9 °C 80 % 1004,0 hPa 0,0 mm 3,7 km/h (1 Bft) W-NW 290 ° 0 min 0,000 mm 0,0 UV-I 69 W/m² -4,9 °C 6,4 km/h (2 Bft)
13.01.2017 13:54 -1,9 °C -1,9 °C 80 % 1004,0 hPa 0,0 mm 6,8 km/h (2 Bft) W 266 ° 0 min 0,000 mm 0,0 UV-I 67 W/m² -4,9 °C 11,3 km/h (2 Bft)
13.01.2017 13:55 -1,9 °C -1,9 °C 80 % 1004,0 hPa 0,0 mm 9,9 km/h (2 Bft) W-SW 250 ° 0 min 0,000 mm 0,0 UV-I 70 W/m² -4,9 °C 16,1 km/h (3 Bft)
13.01.2017 13:56 -1,9 °C -1,9 °C 80 % 1004,0 hPa 0,0 mm 11,3 km/h (2 Bft) S-SW 211 ° 0 min 0,000 mm 0,0 UV-I 65 W/m² -4,9 °C 20,9 km/h (4 Bft)
13.01.2017 13:57 -1,9 °C -1,9 °C 79 % 1004,0 hPa 0,0 mm 11,3 km/h (2 Bft) W-SW 252 ° 0 min 0,000 mm 0,0 UV-I 62 W/m² -5,0 °C 17,7 km/h (3 Bft)
13.01.2017 13:58 -1,9 °C -1,9 °C 80 % 1004,0 hPa 0,0 mm 12,5 km/h (3 Bft) SW 228 ° 0 min 0,000 mm 0,0 UV-I 58 W/m² -4,9 °C 17,7 km/h (3 Bft)
13.01.2017 13:59 -1,9 °C -1,9 °C 79 % 1004,0 hPa 0,0 mm 2,6 km/h (1 Bft) S-SW 198 ° 0 min 0,000 mm 0,0 UV-I 60 W/m² -5,0 °C 4,8 km/h (1 Bft)
13.01.2017 14:00 -1,9 °C -1,9 °C 79 % 1004,0 hPa 0,0 mm 6,2 km/h (2 Bft) W-SW 253 ° 0 min 0,000 mm 0,0 UV-I 60 W/m² -5,0 °C 11,3 km/h (2 Bft)
13.01.2017 14:01 -1,9 °C -1,9 °C 79 % 1004,1 hPa 0,0 mm 12,1 km/h (2 Bft) W-SW 254 ° 0 min 0,051 mm 0,0 UV-I 62 W/m² -5,0 °C 20,9 km/h (4 Bft)
13.01.2017 14:02 -1,9 °C -1,9 °C 79 % 1004,0 hPa 0,0 mm 13,5 km/h (3 Bft) W 274 ° 0 min 0,000 mm 0,0 UV-I 70 W/m² -5,0 °C 16,1 km/h (3 Bft)
13.01.2017 14:03 -1,9 °C -1,9 °C 79 % 1004,0 hPa 0,0 mm 14,9 km/h (3 Bft) W-SW 243 ° 0 min 0,000 mm 0,5 UV-I 83 W/m² -5,0 °C 24,1 km/h (4 Bft)
13.01.2017 14:04 -1,8 °C -1,8 °C 79 % 1004,0 hPa 0,0 mm 14,6 km/h (3 Bft) W-SW 258 ° 0 min 0,000 mm 0,5 UV-I 90 W/m² -4,9 °C 30,6 km/h (5 Bft)
13.01.2017 14:05 -1,9 °C -1,8 °C 78 % 1004,1 hPa 0,0 mm 14,5 km/h (3 Bft) W-SW 249 ° 0 min 0,000 mm 0,6 UV-I 97 W/m² -5,2 °C 25,7 km/h (4 Bft)
13.01.2017 14:06 -1,8 °C -1,8 °C 78 % 1004,1 hPa 0,0 mm 17,0 km/h (3 Bft) W-SW 249 ° 0 min 0,000 mm 0,6 UV-I 113 W/m² -5,1 °C 20,9 km/h (4 Bft)
13.01.2017 14:07 -1,8 °C -1,8 °C 78 % 1004,1 hPa 0,0 mm 13,2 km/h (3 Bft) SW 234 ° 0 min 0,000 mm 0,7 UV-I 116 W/m² -5,1 °C 20,9 km/h (4 Bft)
13.01.2017 14:08 -1,8 °C -1,8 °C 78 % 1004,2 hPa 0,0 mm 8,8 km/h (2 Bft) W-SW 258 ° 0 min 0,000 mm 0,7 UV-I 114 W/m² -5,1 °C 12,9 km/h (3 Bft)
13.01.2017 14:09 -1,8 °C -1,8 °C 77 % 1004,2 hPa 0,0 mm 15,5 km/h (3 Bft) SW 227 ° 0 min 0,000 mm 0,6 UV-I 109 W/m² -5,3 °C 24,1 km/h (4 Bft)
13.01.2017 14:10 -1,8 °C -1,8 °C 77 % 1004,2 hPa 0,0 mm 17,5 km/h (3 Bft) W-SW 238 ° 0 min 0,000 mm 0,6 UV-I 109 W/m² -5,3 °C 24,1 km/h (4 Bft)
13.01.2017 14:11 -1,8 °C -1,8 °C 77 % 1004,2 hPa 0,0 mm 14,1 km/h (3 Bft) NW 304 ° 0 min 0,000 mm 0,5 UV-I 109 W/m² -5,3 °C 17,7 km/h (3 Bft)
13.01.2017 14:12 -1,8 °C -1,8 °C 77 % 1004,2 hPa 0,0 mm 14,8 km/h (3 Bft) W 267 ° 0 min 0,000 mm 0,5 UV-I 84 W/m² -5,3 °C 17,7 km/h (3 Bft)
13.01.2017 14:13 -1,8 °C -1,8 °C 77 % 1004,3 hPa 0,0 mm 14,9 km/h (3 Bft) W 259 ° 0 min 0,000 mm 0,5 UV-I 84 W/m² -5,3 °C 19,3 km/h (3 Bft)
13.01.2017 14:14 -1,8 °C -1,8 °C 77 % 1004,2 hPa 0,0 mm 11,8 km/h (2 Bft) SW 236 ° 0 min 0,000 mm 0,5 UV-I 86 W/m² -5,3 °C 16,1 km/h (3 Bft)
13.01.2017 14:15 -1,8 °C -1,8 °C 78 % 1004,3 hPa 0,0 mm 6,9 km/h (2 Bft) W 268 ° 0 min 0,000 mm 0,5 UV-I 86 W/m² -5,1 °C 11,3 km/h (2 Bft)
13.01.2017 14:16 -1,8 °C -1,8 °C 77 % 1004,3 hPa 0,0 mm 13,8 km/h (3 Bft) W-SW 248 ° 0 min 0,000 mm 0,5 UV-I 86 W/m² -5,3 °C 17,7 km/h (3 Bft)
13.01.2017 14:17 -1,8 °C -1,8 °C 78 % 1004,3 hPa 0,0 mm 11,2 km/h (2 Bft) W 261 ° 0 min 0,000 mm 0,5 UV-I 84 W/m² -5,1 °C 17,7 km/h (3 Bft)
13.01.2017 14:18 -1,7 °C -1,7 °C 77 % 1004,2 hPa 0,0 mm 8,9 km/h (2 Bft) W 267 ° 0 min 0,000 mm 0,5 UV-I 74 W/m² -5,2 °C 16,1 km/h (3 Bft)
13.01.2017 14:19 -1,7 °C -1,7 °C 77 % 1004,3 hPa 0,0 mm 10,7 km/h (2 Bft) W-SW 250 ° 0 min 0,000 mm 0,5 UV-I 76 W/m² -5,2 °C 16,1 km/h (3 Bft)
13.01.2017 14:20 -1,7 °C -1,7 °C 77 % 1004,4 hPa 0,0 mm 9,5 km/h (2 Bft) SW 235 ° 0 min 0,000 mm 0,5 UV-I 83 W/m² -5,2 °C 16,1 km/h (3 Bft)
13.01.2017 14:21 -1,7 °C -1,7 °C 75 % 1004,4 hPa 0,0 mm 12,3 km/h (3 Bft) W-SW 240 ° 0 min 0,000 mm 0,5 UV-I 88 W/m² -5,5 °C 19,3 km/h (3 Bft)
13.01.2017 14:22 -1,7 °C -1,7 °C 75 % 1004,4 hPa 0,0 mm 10,9 km/h (2 Bft) W-SW 249 ° 0 min 0,000 mm 0,5 UV-I 91 W/m² -5,5 °C 17,7 km/h (3 Bft)
13.01.2017 14:23 -1,7 °C -1,7 °C 75 % 1004,4 hPa 0,0 mm 13,3 km/h (3 Bft) SW 232 ° 0 min 0,000 mm 0,6 UV-I 93 W/m² -5,5 °C 20,9 km/h (4 Bft)
13.01.2017 14:24 -1,7 °C -1,7 °C 75 % 1004,3 hPa 0,0 mm 8,9 km/h (2 Bft) W-SW 249 ° 0 min 0,000 mm 0,6 UV-I 97 W/m² -5,5 °C 16,1 km/h (3 Bft)
13.01.2017 14:25 -1,6 °C -1,6 °C 74 % 1004,3 hPa 0,0 mm 12,0 km/h (2 Bft) S-SW 208 ° 0 min 0,000 mm 0,6 UV-I 100 W/m² -5,6 °C 14,5 km/h (3 Bft)
13.01.2017 14:26 -1,7 °C -1,6 °C 73 % 1004,4 hPa 0,0 mm 12,4 km/h (3 Bft) W-SW 252 ° 0 min 0,000 mm 0,6 UV-I 100 W/m² -5,9 °C 20,9 km/h (4 Bft)
13.01.2017 14:27 -1,6 °C -1,6 °C 74 % 1004,4 hPa 0,0 mm 17,6 km/h (3 Bft) W 271 ° 0 min 0,000 mm 0,6 UV-I 98 W/m² -5,6 °C 20,9 km/h (4 Bft)
13.01.2017 14:28 -1,6 °C -1,6 °C 74 % 1004,5 hPa 0,0 mm 12,6 km/h (3 Bft) W 278 ° 0 min 0,000 mm 0,6 UV-I 98 W/m² -5,6 °C 20,9 km/h (4 Bft)
13.01.2017 14:29 -1,6 °C -1,6 °C 74 % 1004,4 hPa 0,0 mm 9,5 km/h (2 Bft) W-SW 243 ° 0 min 0,000 mm 0,6 UV-I 98 W/m² -5,6 °C 12,9 km/h (3 Bft)
13.01.2017 14:30 -1,6 °C -1,6 °C 75 % 1004,4 hPa 0,0 mm 9,3 km/h (2 Bft) W 267 ° 0 min 0,000 mm 0,6 UV-I 102 W/m² -5,4 °C 12,9 km/h (3 Bft)
13.01.2017 14:31 -1,6 °C -1,6 °C 75 % 1004,4 hPa 0,0 mm 12,3 km/h (3 Bft) W-SW 255 ° 0 min 0,000 mm 0,6 UV-I 98 W/m² -5,4 °C 16,1 km/h (3 Bft)
13.01.2017 14:32 -1,6 °C -1,6 °C 75 % 1004,3 hPa 0,0 mm 13,9 km/h (3 Bft) W-SW 251 ° 0 min 0,000 mm 0,5 UV-I 93 W/m² -5,4 °C 20,9 km/h (4 Bft)
13.01.2017 14:33 -1,6 °C -1,6 °C 75 % 1004,4 hPa 0,0 mm 10,5 km/h (2 Bft) S-SW 205 ° 0 min 0,000 mm 0,5 UV-I 86 W/m² -5,4 °C 17,7 km/h (3 Bft)
13.01.2017 14:34 -1,6 °C -1,6 °C 75 % 1004,4 hPa 0,0 mm 11,5 km/h (2 Bft) SW 225 ° 0 min 0,000 mm 0,5 UV-I 81 W/m² -5,4 °C 16,1 km/h (3 Bft)
13.01.2017 14:35 -1,6 °C -1,6 °C 75 % 1004,4 hPa 0,0 mm 9,5 km/h (2 Bft) W 272 ° 0 min 0,000 mm 0,5 UV-I 76 W/m² -5,4 °C 14,5 km/h (3 Bft)
13.01.2017 14:36 -1,6 °C -1,6 °C 75 % 1004,4 hPa 0,0 mm 12,2 km/h (2 Bft) W-SW 248 ° 0 min 0,000 mm 0,5 UV-I 74 W/m² -5,4 °C 17,7 km/h (3 Bft)
13.01.2017 14:37 -1,6 °C -1,6 °C 74 % 1004,4 hPa 0,0 mm 12,0 km/h (2 Bft) W-SW 239 ° 0 min 0,000 mm 0,5 UV-I 76 W/m² -5,6 °C 16,1 km/h (3 Bft)
13.01.2017 14:38 -1,7 °C -1,6 °C 74 % 1004,4 hPa 0,0 mm 8,9 km/h (2 Bft) W-SW 241 ° 0 min 0,000 mm 0,5 UV-I 79 W/m² -5,7 °C 14,5 km/h (3 Bft)
13.01.2017 14:39 -1,6 °C -1,6 °C 74 % 1004,4 hPa 0,0 mm 14,6 km/h (3 Bft) W-SW 242 ° 0 min 0,000 mm 0,5 UV-I 83 W/m² -5,6 °C 17,7 km/h (3 Bft)
13.01.2017 14:40 -1,7 °C -1,6 °C 74 % 1004,5 hPa 0,0 mm 7,4 km/h (2 Bft) S-SW 210 ° 0 min 0,000 mm 0,5 UV-I 83 W/m² -5,7 °C 12,9 km/h (3 Bft)
13.01.2017 14:41 -1,7 °C -1,7 °C 74 % 1004,4 hPa 0,0 mm 13,0 km/h (3 Bft) W-SW 239 ° 0 min 0,000 mm 0,5 UV-I 81 W/m² -5,7 °C 19,3 km/h (3 Bft)
13.01.2017 14:42 -1,7 °C -1,7 °C 74 % 1004,5 hPa 0,0 mm 19,1 km/h (3 Bft) SW 232 ° 0 min 0,000 mm 0,5 UV-I 83 W/m² -5,7 °C 29,0 km/h (5 Bft)
13.01.2017 14:43 -1,8 °C -1,7 °C 74 % 1004,4 hPa 0,0 mm 8,0 km/h (2 Bft) W-SW 246 ° 0 min 0,000 mm 0,5 UV-I 90 W/m² -5,8 °C 14,5 km/h (3 Bft)
13.01.2017 14:44 -1,7 °C -1,7 °C 74 % 1004,4 hPa 0,0 mm 10,1 km/h (2 Bft) W-SW 239 ° 0 min 0,000 mm 0,5 UV-I 91 W/m² -5,7 °C 14,5 km/h (3 Bft)
13.01.2017 14:45 -1,8 °C -1,7 °C 74 % 1004,5 hPa 0,0 mm 12,9 km/h (3 Bft) SW 234 ° 0 min 0,000 mm 0,5 UV-I 91 W/m² -5,8 °C 17,7 km/h (3 Bft)
13.01.2017 14:46 -1,8 °C -1,7 °C 74 % 1004,5 hPa 0,0 mm 7,7 km/h (2 Bft) W 269 ° 0 min 0,000 mm 0,5 UV-I 91 W/m² -5,8 °C 12,9 km/h (3 Bft)
13.01.2017 14:47 -1,8 °C -1,8 °C 74 % 1004,4 hPa 0,0 mm 9,5 km/h (2 Bft) W 266 ° 0 min 0,000 mm 0,5 UV-I 90 W/m² -5,8 °C 16,1 km/h (3 Bft)
13.01.2017 14:48 -1,8 °C -1,8 °C 74 % 1004,5 hPa 0,0 mm 11,9 km/h (2 Bft) W-SW 257 ° 0 min 0,000 mm 0,5 UV-I 88 W/m² -5,8 °C 20,9 km/h (4 Bft)
13.01.2017 14:49 -1,8 °C -1,8 °C 75 % 1004,5 hPa 0,0 mm 11,9 km/h (2 Bft) S-SW 213 ° 0 min 0,000 mm 0,5 UV-I 91 W/m² -5,6 °C 20,9 km/h (4 Bft)
13.01.2017 14:50 -1,8 °C -1,8 °C 75 % 1004,6 hPa 0,0 mm 8,9 km/h (2 Bft) W 265 ° 0 min 0,000 mm 0,5 UV-I 95 W/m² -5,6 °C 16,1 km/h (3 Bft)
13.01.2017 14:51 -1,8 °C -1,8 °C 75 % 1004,6 hPa 0,0 mm 19,2 km/h (3 Bft) W-SW 256 ° 0 min 0,000 mm 0,5 UV-I 97 W/m² -5,6 °C 24,1 km/h (4 Bft)
13.01.2017 14:52 -1,8 °C -1,8 °C 75 % 1004,6 hPa 0,0 mm 15,5 km/h (3 Bft) W 263 ° 0 min 0,000 mm 0,5 UV-I 95 W/m² -5,6 °C 19,3 km/h (3 Bft)
13.01.2017 14:53 -1,8 °C -1,8 °C 74 % 1004,6 hPa 0,0 mm 12,3 km/h (3 Bft) SW 229 ° 0 min 0,000 mm 0,5 UV-I 93 W/m² -5,8 °C 19,3 km/h (3 Bft)
13.01.2017 14:54 -1,8 °C -1,8 °C 75 % 1004,6 hPa 0,0 mm 7,1 km/h (2 Bft) W-NW 299 ° 0 min 0,000 mm 0,5 UV-I 93 W/m² -5,6 °C 14,5 km/h (3 Bft)
13.01.2017 14:55 -1,8 °C -1,8 °C 74 % 1004,6 hPa 0,0 mm 14,3 km/h (3 Bft) W-SW 256 ° 0 min 0,000 mm 0,5 UV-I 93 W/m² -5,8 °C 22,5 km/h (4 Bft)
13.01.2017 14:56 -1,8 °C -1,8 °C 74 % 1004,6 hPa 0,0 mm 10,3 km/h (2 Bft) W 264 ° 0 min 0,000 mm 0,5 UV-I 91 W/m² -5,8 °C 14,5 km/h (3 Bft)
13.01.2017 14:57 -1,8 °C -1,8 °C 75 % 1004,6 hPa 0,0 mm 12,5 km/h (3 Bft) W-SW 244 ° 0 min 0,000 mm 0,5 UV-I 91 W/m² -5,6 °C 16,1 km/h (3 Bft)
13.01.2017 14:58 -1,8 °C -1,8 °C 74 % 1004,6 hPa 0,0 mm 8,4 km/h (2 Bft) W 265 ° 0 min 0,000 mm 0,5 UV-I 91 W/m² -5,8 °C 12,9 km/h (3 Bft)
13.01.2017 14:59 -1,8 °C -1,8 °C 74 % 1004,7 hPa 0,0 mm 13,1 km/h (3 Bft) W-NW 284 ° 0 min 0,000 mm 0,5 UV-I 90 W/m² -5,8 °C 20,9 km/h (4 Bft)
13.01.2017 15:00 -1,8 °C -1,8 °C 74 % 1004,6 hPa 0,0 mm 9,9 km/h (2 Bft) S-SW 206 ° 0 min 0,051 mm 0,5 UV-I 88 W/m² -5,8 °C 16,1 km/h (3 Bft)
13.01.2017 15:01 -1,8 °C -1,8 °C 74 % 1004,6 hPa 0,0 mm 7,8 km/h (2 Bft) SW 215 ° 0 min 0,000 mm 0,5 UV-I 84 W/m² -5,8 °C 11,3 km/h (2 Bft)
13.01.2017 15:02 -1,8 °C -1,8 °C 74 % 1004,6 hPa 0,0 mm 12,8 km/h (3 Bft) W-SW 250 ° 0 min 0,000 mm 0,5 UV-I 83 W/m² -5,8 °C 16,1 km/h (3 Bft)
13.01.2017 15:03 -1,8 °C -1,8 °C 74 % 1004,6 hPa 0,0 mm 5,4 km/h (1 Bft) W-SW 258 ° 0 min 0,000 mm 0,5 UV-I 83 W/m² -5,8 °C 6,4 km/h (2 Bft)
13.01.2017 15:04 -1,8 °C -1,8 °C 74 % 1004,6 hPa 0,0 mm 8,9 km/h (2 Bft) W-SW 241 ° 0 min 0,000 mm 0,5 UV-I 81 W/m² -5,8 °C 16,1 km/h (3 Bft)
13.01.2017 15:05 -1,8 °C -1,8 °C 74 % 1004,6 hPa 0,0 mm 10,4 km/h (2 Bft) W-SW 250 ° 0 min 0,000 mm 0,5 UV-I 77 W/m² -5,8 °C 14,5 km/h (3 Bft)
13.01.2017 15:06 -1,8 °C -1,8 °C 73 % 1004,6 hPa 0,0 mm 12,4 km/h (3 Bft) SW 235 ° 0 min 0,000 mm 0,0 UV-I 74 W/m² -6,0 °C 19,3 km/h (3 Bft)
13.01.2017 15:07 -1,8 °C -1,8 °C 73 % 1004,6 hPa 0,0 mm 9,8 km/h (2 Bft) S-SW 207 ° 0 min 0,000 mm 0,0 UV-I 70 W/m² -6,0 °C 12,9 km/h (3 Bft)
13.01.2017 15:08 -1,8 °C -1,8 °C 73 % 1004,6 hPa 0,0 mm 9,1 km/h (2 Bft) SW 234 ° 0 min 0,000 mm 0,0 UV-I 67 W/m² -6,0 °C 12,9 km/h (3 Bft)
13.01.2017 15:09 -1,8 °C -1,8 °C 73 % 1004,6 hPa 0,0 mm 8,9 km/h (2 Bft) W-SW 257 ° 0 min 0,000 mm 0,0 UV-I 63 W/m² -6,0 °C 14,5 km/h (3 Bft)
13.01.2017 15:10 -1,8 °C -1,8 °C 74 % 1004,7 hPa 0,0 mm 9,1 km/h (2 Bft) W 265 ° 0 min 0,000 mm 0,0 UV-I 62 W/m² -5,8 °C 12,9 km/h (3 Bft)
13.01.2017 15:11 -1,8 °C -1,8 °C 74 % 1004,7 hPa 0,0 mm 17,8 km/h (3 Bft) SW 234 ° 0 min 0,000 mm 0,0 UV-I 62 W/m² -5,8 °C 24,1 km/h (4 Bft)
13.01.2017 15:12 -1,8 °C -1,8 °C 73 % 1004,7 hPa 0,0 mm 14,0 km/h (3 Bft) SW 232 ° 0 min 0,000 mm 0,0 UV-I 62 W/m² -6,0 °C 22,5 km/h (4 Bft)
13.01.2017 15:13 -1,8 °C -1,8 °C 73 % 1004,7 hPa 0,0 mm 7,4 km/h (2 Bft) SW 236 ° 0 min 0,000 mm 0,0 UV-I 62 W/m² -6,0 °C 11,3 km/h (2 Bft)
13.01.2017 15:14 -1,8 °C -1,8 °C 73 % 1004,7 hPa 0,0 mm 10,3 km/h (2 Bft) W-SW 249 ° 0 min 0,000 mm 0,0 UV-I 60 W/m² -6,0 °C 16,1 km/h (3 Bft)
13.01.2017 15:15 -1,8 °C -1,8 °C 73 % 1004,6 hPa 0,0 mm 13,5 km/h (3 Bft) W 260 ° 0 min 0,000 mm 0,0 UV-I 60 W/m² -6,0 °C 17,7 km/h (3 Bft)
13.01.2017 15:16 -1,8 °C -1,8 °C 73 % 1004,7 hPa 0,0 mm 12,2 km/h (2 Bft) S-SW 202 ° 0 min 0,000 mm 0,0 UV-I 62 W/m² -6,0 °C 16,1 km/h (3 Bft)
13.01.2017 15:17 -1,8 °C -1,8 °C 72 % 1004,6 hPa 0,0 mm 8,9 km/h (2 Bft) SW 222 ° 0 min 0,000 mm 0,0 UV-I 62 W/m² -6,2 °C 14,5 km/h (3 Bft)
13.01.2017 15:18 -1,8 °C -1,8 °C 73 % 1004,6 hPa 0,0 mm 11,7 km/h (2 Bft) W 263 ° 0 min 0,000 mm 0,0 UV-I 62 W/m² -6,0 °C 19,3 km/h (3 Bft)
13.01.2017 15:19 -1,8 °C -1,8 °C 73 % 1004,6 hPa 0,0 mm 9,2 km/h (2 Bft) W-SW 252 ° 0 min 0,000 mm 0,0 UV-I 63 W/m² -6,0 °C 12,9 km/h (3 Bft)
13.01.2017 15:20 -1,8 °C -1,8 °C 73 % 1004,6 hPa 0,0 mm 9,9 km/h (2 Bft) W-SW 240 ° 0 min 0,000 mm 0,0 UV-I 67 W/m² -6,0 °C 14,5 km/h (3 Bft)
13.01.2017 15:21 -1,8 °C -1,8 °C 73 % 1004,6 hPa 0,0 mm 5,4 km/h (1 Bft) W-SW 247 ° 0 min 0,000 mm 0,0 UV-I 69 W/m² -6,0 °C 11,3 km/h (2 Bft)
13.01.2017 15:22 -1,8 °C -1,8 °C 73 % 1004,6 hPa 0,0 mm 5,4 km/h (1 Bft) W 263 ° 0 min 0,000 mm 0,0 UV-I 69 W/m² -6,0 °C 11,3 km/h (2 Bft)
13.01.2017 15:23 -1,8 °C -1,8 °C 73 % 1004,6 hPa 0,0 mm 13,3 km/h (3 Bft) W-SW 257 ° 0 min 0,000 mm 0,0 UV-I 69 W/m² -6,0 °C 17,7 km/h (3 Bft)
13.01.2017 15:24 -1,8 °C -1,8 °C 73 % 1004,6 hPa 0,0 mm 11,3 km/h (2 Bft) W-SW 250 ° 0 min 0,000 mm 0,0 UV-I 67 W/m² -6,0 °C 16,1 km/h (3 Bft)
13.01.2017 15:25 -1,9 °C -1,8 °C 73 % 1004,6 hPa 0,0 mm 11,9 km/h (2 Bft) S-SW 196 ° 0 min 0,000 mm 0,0 UV-I 65 W/m² -6,1 °C 17,7 km/h (3 Bft)
13.01.2017 15:26 -1,8 °C -1,8 °C 72 % 1004,6 hPa 0,0 mm 5,2 km/h (1 Bft) S-SW 194 ° 0 min 0,000 mm 0,0 UV-I 63 W/m² -6,2 °C 9,7 km/h (2 Bft)
13.01.2017 15:27 -1,9 °C -1,8 °C 71 % 1004,6 hPa 0,0 mm 7,9 km/h (2 Bft) SW 227 ° 0 min 0,000 mm 0,0 UV-I 63 W/m² -6,4 °C 14,5 km/h (3 Bft)
13.01.2017 15:28 -1,8 °C -1,8 °C 71 % 1004,6 hPa 0,0 mm 4,5 km/h (1 Bft) W 267 ° 0 min 0,000 mm 0,0 UV-I 62 W/m² -6,3 °C 6,4 km/h (2 Bft)
13.01.2017 15:29 -1,8 °C -1,8 °C 72 % 1004,6 hPa 0,0 mm 9,3 km/h (2 Bft) W-NW 285 ° 0 min 0,000 mm 0,0 UV-I 62 W/m² -6,2 °C 14,5 km/h (3 Bft)
13.01.2017 15:30 -1,8 °C -1,8 °C 72 % 1004,6 hPa 0,0 mm 6,2 km/h (2 Bft) W-SW 249 ° 0 min 0,000 mm 0,0 UV-I 63 W/m² -6,2 °C 9,7 km/h (2 Bft)
13.01.2017 15:31 -1,9 °C -1,8 °C 72 % 1004,6 hPa 0,0 mm 8,2 km/h (2 Bft) SW 221 ° 0 min 0,000 mm 0,0 UV-I 63 W/m² -6,3 °C 16,1 km/h (3 Bft)
13.01.2017 15:32 -1,8 °C -1,8 °C 72 % 1004,6 hPa 0,0 mm 7,6 km/h (2 Bft) W-SW 256 ° 0 min 0,000 mm 0,0 UV-I 63 W/m² -6,2 °C 12,9 km/h (3 Bft)
13.01.2017 15:33 -1,9 °C -1,8 °C 73 % 1004,6 hPa 0,0 mm 11,2 km/h (2 Bft) W-SW 257 ° 0 min 0,000 mm 0,0 UV-I 63 W/m² -6,1 °C 14,5 km/h (3 Bft)
13.01.2017 15:34 -1,9 °C -1,9 °C 72 % 1004,6 hPa 0,0 mm 12,4 km/h (3 Bft) SW 232 ° 0 min 0,000 mm 0,0 UV-I 63 W/m² -6,3 °C 17,7 km/h (3 Bft)
13.01.2017 15:35 -1,9 °C -1,9 °C 72 % 1004,6 hPa 0,0 mm 12,0 km/h (2 Bft) W-NW 283 ° 0 min 0,000 mm 0,0 UV-I 63 W/m² -6,3 °C 16,1 km/h (3 Bft)
13.01.2017 15:36 -1,9 °C -1,9 °C 71 % 1004,6 hPa 0,0 mm 7,1 km/h (2 Bft) SW 215 ° 0 min 0,000 mm 0,0 UV-I 63 W/m² -6,4 °C 14,5 km/h (3 Bft)
13.01.2017 15:37 -1,9 °C -1,9 °C 72 % 1004,6 hPa 0,0 mm 4,2 km/h (1 Bft) W 273 ° 0 min 0,000 mm 0,0 UV-I 63 W/m² -6,3 °C 12,9 km/h (3 Bft)
13.01.2017 15:38 -1,9 °C -1,9 °C 72 % 1004,6 hPa 0,0 mm 9,9 km/h (2 Bft) W-SW 258 ° 0 min 0,000 mm 0,0 UV-I 63 W/m² -6,3 °C 14,5 km/h (3 Bft)
13.01.2017 15:39 -1,9 °C -1,9 °C 72 % 1004,6 hPa 0,0 mm 9,7 km/h (2 Bft) W-SW 245 ° 0 min 0,000 mm 0,0 UV-I 62 W/m² -6,3 °C 12,9 km/h (3 Bft)
13.01.2017 15:40 -1,9 °C -1,9 °C 73 % 1004,5 hPa 0,0 mm 8,0 km/h (2 Bft) W 267 ° 0 min 0,000 mm 0,0 UV-I 62 W/m² -6,1 °C 12,9 km/h (3 Bft)
13.01.2017 15:41 -1,9 °C -1,9 °C 72 % 1004,5 hPa 0,0 mm 5,9 km/h (2 Bft) W-SW 247 ° 0 min 0,000 mm 0,0 UV-I 60 W/m² -6,3 °C 8,0 km/h (2 Bft)
13.01.2017 15:42 -1,9 °C -1,9 °C 72 % 1004,5 hPa 0,0 mm 8,7 km/h (2 Bft) W-SW 258 ° 0 min 0,000 mm 0,0 UV-I 58 W/m² -6,3 °C 16,1 km/h (3 Bft)
13.01.2017 15:43 -1,9 °C -1,9 °C 71 % 1004,6 hPa 0,0 mm 13,1 km/h (3 Bft) SW 229 ° 0 min 0,000 mm 0,0 UV-I 56 W/m² -6,4 °C 19,3 km/h (3 Bft)
13.01.2017 15:44 -1,9 °C -1,9 °C 71 % 1004,6 hPa 0,0 mm 9,6 km/h (2 Bft) W 274 ° 0 min 0,000 mm 0,0 UV-I 54 W/m² -6,4 °C 14,5 km/h (3 Bft)
13.01.2017 15:45 -1,9 °C -1,9 °C 71 % 1004,6 hPa 0,0 mm 7,8 km/h (2 Bft) W 273 ° 0 min 0,000 mm 0,0 UV-I 53 W/m² -6,4 °C 12,9 km/h (3 Bft)
13.01.2017 15:46 -1,9 °C -1,9 °C 72 % 1004,6 hPa 0,0 mm 6,3 km/h (2 Bft) SW 230 ° 0 min 0,000 mm 0,0 UV-I 51 W/m² -6,3 °C 12,9 km/h (3 Bft)
13.01.2017 15:47 -1,9 °C -1,9 °C 71 % 1004,5 hPa 0,0 mm 11,1 km/h (2 Bft) W-NW 288 ° 0 min 0,000 mm 0,0 UV-I 51 W/m² -6,4 °C 16,1 km/h (3 Bft)
13.01.2017 15:48 -1,9 °C -1,9 °C 71 % 1004,5 hPa 0,0 mm 11,5 km/h (2 Bft) W 262 ° 0 min 0,000 mm 0,0 UV-I 51 W/m² -6,4 °C 17,7 km/h (3 Bft)
13.01.2017 15:49 -1,9 °C -1,9 °C 71 % 1004,5 hPa 0,0 mm 11,1 km/h (2 Bft) W-SW 256 ° 0 min 0,000 mm 0,0 UV-I 51 W/m² -6,4 °C 16,1 km/h (3 Bft)
13.01.2017 15:50 -1,9 °C -1,9 °C 71 % 1004,5 hPa 0,0 mm 6,5 km/h (2 Bft) SW 232 ° 0 min 0,000 mm 0,0 UV-I 51 W/m² -6,4 °C 9,7 km/h (2 Bft)
13.01.2017 15:51 -1,9 °C -1,9 °C 71 % 1004,5 hPa 0,0 mm 6,5 km/h (2 Bft) W-SW 255 ° 0 min 0,000 mm 0,0 UV-I 49 W/m² -6,4 °C 11,3 km/h (2 Bft)
13.01.2017 15:52 -1,9 °C -1,9 °C 71 % 1004,5 hPa 0,0 mm 5,6 km/h (1 Bft) SW 236 ° 0 min 0,000 mm 0,0 UV-I 47 W/m² -6,4 °C 8,0 km/h (2 Bft)
13.01.2017 15:53 -1,9 °C -1,9 °C 71 % 1004,5 hPa 0,0 mm 7,5 km/h (2 Bft) W-SW 256 ° 0 min 0,000 mm 0,0 UV-I 46 W/m² -6,4 °C 14,5 km/h (3 Bft)
13.01.2017 15:54 -1,9 °C -1,9 °C 72 % 1004,4 hPa 0,0 mm 10,2 km/h (2 Bft) W 262 ° 0 min 0,000 mm 0,0 UV-I 44 W/m² -6,3 °C 16,1 km/h (3 Bft)
13.01.2017 15:55 -1,9 °C -1,9 °C 71 % 1004,4 hPa 0,0 mm 11,3 km/h (2 Bft) W-SW 252 ° 0 min 0,000 mm 0,0 UV-I 44 W/m² -6,4 °C 17,7 km/h (3 Bft)
13.01.2017 15:56 -1,9 °C -1,9 °C 72 % 1004,4 hPa 0,0 mm 10,5 km/h (2 Bft) W-SW 254 ° 0 min 0,000 mm 0,0 UV-I 42 W/m² -6,3 °C 14,5 km/h (3 Bft)
13.01.2017 15:57 -1,9 °C -1,9 °C 71 % 1004,4 hPa 0,0 mm 10,3 km/h (2 Bft) W-SW 240 ° 0 min 0,000 mm 0,0 UV-I 42 W/m² -6,4 °C 16,1 km/h (3 Bft)
13.01.2017 15:58 -2,0 °C -1,9 °C 71 % 1004,4 hPa 0,0 mm 10,0 km/h (2 Bft) S-SW 205 ° 0 min 0,000 mm 0,0 UV-I 40 W/m² -6,5 °C 19,3 km/h (3 Bft)
13.01.2017 15:59 -1,9 °C -1,9 °C 71 % 1004,5 hPa 0,0 mm 12,1 km/h (2 Bft) S-SW 213 ° 0 min 0,000 mm 0,0 UV-I 40 W/m² -6,4 °C 20,9 km/h (4 Bft)
13.01.2017 16:00 -2,0 °C -1,9 °C 72 % 1004,4 hPa 0,0 mm 8,8 km/h (2 Bft) S 179 ° 0 min 0,000 mm 0,0 UV-I 40 W/m² -6,4 °C 16,1 km/h (3 Bft)
13.01.2017 16:01 -1,9 °C -1,9 °C 71 % 1004,5 hPa 0,0 mm 10,2 km/h (2 Bft) SW 220 ° 0 min 0,025 mm 0,0 UV-I 39 W/m² -6,4 °C 14,5 km/h (3 Bft)
13.01.2017 16:02 -2,0 °C -1,9 °C 71 % 1004,5 hPa 0,0 mm 12,1 km/h (2 Bft) W-SW 247 ° 0 min 0,000 mm 0,0 UV-I 39 W/m² -6,5 °C 17,7 km/h (3 Bft)
13.01.2017 16:03 -2,0 °C -2,0 °C 71 % 1004,5 hPa 0,0 mm 6,8 km/h (2 Bft) W 261 ° 0 min 0,000 mm 0,0 UV-I 35 W/m² -6,5 °C 14,5 km/h (3 Bft)
13.01.2017 16:04 -2,0 °C -1,9 °C 71 % 1004,5 hPa 0,0 mm 9,5 km/h (2 Bft) W-SW 258 ° 0 min 0,000 mm 0,0 UV-I 35 W/m² -6,5 °C 16,1 km/h (3 Bft)
13.01.2017 16:05 -2,0 °C -2,0 °C 72 % 1004,5 hPa 0,0 mm 11,1 km/h (2 Bft) W 279 ° 0 min 0,000 mm 0,0 UV-I 33 W/m² -6,4 °C 14,5 km/h (3 Bft)
13.01.2017 16:06 -2,0 °C -1,9 °C 72 % 1004,6 hPa 0,0 mm 7,8 km/h (2 Bft) W-NW 282 ° 0 min 0,000 mm 0,0 UV-I 33 W/m² -6,4 °C 14,5 km/h (3 Bft)
13.01.2017 16:07 -1,9 °C -1,9 °C 72 % 1004,6 hPa 0,0 mm 12,3 km/h (3 Bft) W-SW 251 ° 0 min 0,000 mm 0,0 UV-I 32 W/m² -6,3 °C 17,7 km/h (3 Bft)
13.01.2017 16:08 -2,0 °C -1,9 °C 72 % 1004,6 hPa 0,0 mm 10,2 km/h (2 Bft) W 263 ° 0 min 0,000 mm 0,0 UV-I 32 W/m² -6,4 °C 16,1 km/h (3 Bft)
13.01.2017 16:09 -2,0 °C -2,0 °C 71 % 1004,6 hPa 0,0 mm 7,6 km/h (2 Bft) SW 218 ° 0 min 0,000 mm 0,0 UV-I 28 W/m² -6,5 °C 12,9 km/h (3 Bft)
13.01.2017 16:10 -2,0 °C -2,0 °C 71 % 1004,6 hPa 0,0 mm 10,8 km/h (2 Bft) W-SW 254 ° 0 min 0,000 mm 0,0 UV-I 28 W/m² -6,5 °C 16,1 km/h (3 Bft)
13.01.2017 16:11 -2,0 °C -2,0 °C 71 % 1004,6 hPa 0,0 mm 13,1 km/h (3 Bft) W 261 ° 0 min 0,000 mm 0,0 UV-I 26 W/m² -6,5 °C 17,7 km/h (3 Bft)
13.01.2017 16:12 -2,1 °C -2,0 °C 72 % 1004,6 hPa 0,0 mm 10,7 km/h (2 Bft) W-SW 256 ° 0 min 0,000 mm 0,0 UV-I 26 W/m² -6,5 °C 16,1 km/h (3 Bft)
13.01.2017 16:13 -2,0 °C -2,0 °C 72 % 1004,6 hPa 0,0 mm 9,8 km/h (2 Bft) W-SW 250 ° 0 min 0,000 mm 0,0 UV-I 26 W/m² -6,4 °C 12,9 km/h (3 Bft)
13.01.2017 16:14 -2,1 °C -2,0 °C 72 % 1004,6 hPa 0,0 mm 8,3 km/h (2 Bft) W 267 ° 0 min 0,000 mm 0,0 UV-I 25 W/m² -6,5 °C 19,3 km/h (3 Bft)
13.01.2017 16:15 -2,0 °C -2,0 °C 72 % 1004,6 hPa 0,0 mm 13,7 km/h (3 Bft) W-SW 238 ° 0 min 0,000 mm 0,0 UV-I 23 W/m² -6,4 °C 19,3 km/h (3 Bft)
13.01.2017 16:16 -2,1 °C -2,0 °C 71 % 1004,5 hPa 0,0 mm 13,5 km/h (3 Bft) W 260 ° 0 min 0,000 mm 0,0 UV-I 21 W/m² -6,6 °C 20,9 km/h (4 Bft)
13.01.2017 16:17 -2,1 °C -2,1 °C 71 % 1004,5 hPa 0,0 mm 14,4 km/h (3 Bft) W-SW 242 ° 0 min 0,000 mm 0,0 UV-I 19 W/m² -6,6 °C 19,3 km/h (3 Bft)
13.01.2017 16:18 -2,1 °C -2,1 °C 72 % 1004,4 hPa 0,0 mm 10,0 km/h (2 Bft) W 267 ° 0 min 0,000 mm 0,0 UV-I 19 W/m² -6,5 °C 14,5 km/h (3 Bft)
13.01.2017 16:19 -2,1 °C -2,1 °C 72 % 1004,5 hPa 0,0 mm 11,1 km/h (2 Bft) W 263 ° 0 min 0,000 mm 0,0 UV-I 19 W/m² -6,5 °C 17,7 km/h (3 Bft)
13.01.2017 16:20 -2,1 °C -2,1 °C 72 % 1004,5 hPa 0,0 mm 17,2 km/h (3 Bft) W-SW 256 ° 0 min 0,000 mm 0,0 UV-I 19 W/m² -6,5 °C 20,9 km/h (4 Bft)
13.01.2017 16:21 -2,1 °C -2,1 °C 72 % 1004,5 hPa 0,0 mm 10,8 km/h (2 Bft) W-SW 255 ° 0 min 0,000 mm 0,0 UV-I 19 W/m² -6,5 °C 16,1 km/h (3 Bft)
13.01.2017 16:22 -2,1 °C -2,1 °C 72 % 1004,5 hPa 0,0 mm 10,6 km/h (2 Bft) SW 224 ° 0 min 0,000 mm 0,0 UV-I 19 W/m² -6,5 °C 16,1 km/h (3 Bft)
13.01.2017 16:23 -2,1 °C -2,1 °C 72 % 1004,5 hPa 0,0 mm 10,8 km/h (2 Bft) W-SW 242 ° 0 min 0,000 mm 0,0 UV-I 19 W/m² -6,5 °C 16,1 km/h (3 Bft)
13.01.2017 16:24 -2,1 °C -2,1 °C 72 % 1004,5 hPa 0,0 mm 11,4 km/h (2 Bft) W 275 ° 0 min 0,000 mm 0,0 UV-I 19 W/m² -6,5 °C 17,7 km/h (3 Bft)
13.01.2017 16:25 -2,1 °C -2,1 °C 72 % 1004,5 hPa 0,0 mm 14,7 km/h (3 Bft) W-SW 246 ° 0 min 0,000 mm 0,0 UV-I 19 W/m² -6,5 °C 19,3 km/h (3 Bft)
13.01.2017 16:26 -2,2 °C -2,1 °C 72 % 1004,5 hPa 0,0 mm 13,0 km/h (3 Bft) W 281 ° 0 min 0,000 mm 0,0 UV-I 19 W/m² -6,5 °C 16,1 km/h (3 Bft)
13.01.2017 16:27 -2,2 °C -2,2 °C 72 % 1004,5 hPa 0,0 mm 11,8 km/h (2 Bft) W 266 ° 0 min 0,000 mm 0,0 UV-I 19 W/m² -6,5 °C 16,1 km/h (3 Bft)
13.01.2017 16:28 -2,2 °C -2,2 °C 72 % 1004,4 hPa 0,0 mm 11,9 km/h (2 Bft) W 260 ° 0 min 0,000 mm 0,0 UV-I 19 W/m² -6,5 °C 16,1 km/h (3 Bft)
13.01.2017 16:29 -2,2 °C -2,2 °C 72 % 1004,4 hPa 0,0 mm 15,4 km/h (3 Bft) SW 227 ° 0 min 0,000 mm 0,0 UV-I 18 W/m² -6,5 °C 19,3 km/h (3 Bft)
13.01.2017 16:30 -2,2 °C -2,2 °C 72 % 1004,4 hPa 0,0 mm 13,3 km/h (3 Bft) SW 223 ° 0 min 0,000 mm 0,0 UV-I 16 W/m² -6,5 °C 20,9 km/h (4 Bft)
13.01.2017 16:31 -2,2 °C -2,2 °C 72 % 1004,4 hPa 0,0 mm 10,6 km/h (2 Bft) W-SW 251 ° 0 min 0,000 mm 0,0 UV-I 16 W/m² -6,5 °C 16,1 km/h (3 Bft)
13.01.2017 16:32 -2,2 °C -2,2 °C 72 % 1004,4 hPa 0,0 mm 10,1 km/h (2 Bft) W-SW 254 ° 0 min 0,000 mm 0,0 UV-I 14 W/m² -6,5 °C 17,7 km/h (3 Bft)
13.01.2017 16:33 -2,2 °C -2,2 °C 72 % 1004,4 hPa 0,0 mm 10,2 km/h (2 Bft) W-SW 240 ° 0 min 0,000 mm 0,0 UV-I 12 W/m² -6,5 °C 12,9 km/h (3 Bft)
13.01.2017 16:34 -2,2 °C -2,2 °C 72 % 1004,4 hPa 0,0 mm 9,9 km/h (2 Bft) W 259 ° 0 min 0,000 mm 0,0 UV-I 12 W/m² -6,5 °C 16,1 km/h (3 Bft)
13.01.2017 16:35 -2,2 °C -2,2 °C 72 % 1004,4 hPa 0,0 mm 9,3 km/h (2 Bft) W-SW 237 ° 0 min 0,000 mm 0,0 UV-I 11 W/m² -6,5 °C 12,9 km/h (3 Bft)
13.01.2017 16:36 -2,2 °C -2,2 °C 72 % 1004,4 hPa 0,0 mm 10,9 km/h (2 Bft) W 269 ° 0 min 0,000 mm 0,0 UV-I 11 W/m² -6,5 °C 12,9 km/h (3 Bft)
13.01.2017 16:37 -2,2 °C -2,2 °C 72 % 1004,4 hPa 0,0 mm 12,3 km/h (3 Bft) W-NW 287 ° 0 min 0,000 mm 0,0 UV-I 9 W/m² -6,5 °C 16,1 km/h (3 Bft)
13.01.2017 16:38 -2,2 °C -2,2 °C 73 % 1004,4 hPa 0,0 mm 9,3 km/h (2 Bft) S-SW 202 ° 0 min 0,000 mm 0,0 UV-I 7 W/m² -6,4 °C 14,5 km/h (3 Bft)
13.01.2017 16:39 -2,2 °C -2,2 °C 73 % 1004,4 hPa 0,0 mm 14,8 km/h (3 Bft) W 269 ° 0 min 0,000 mm 0,0 UV-I 7 W/m² -6,4 °C 20,9 km/h (4 Bft)
13.01.2017 16:40 -2,2 °C -2,2 °C 73 % 1004,4 hPa 0,0 mm 20,5 km/h (4 Bft) W-SW 258 ° 0 min 0,000 mm 0,0 UV-I 7 W/m² -6,4 °C 24,1 km/h (4 Bft)
13.01.2017 16:41 -2,2 °C -2,2 °C 73 % 1004,4 hPa 0,0 mm 14,1 km/h (3 Bft) W 261 ° 0 min 0,000 mm 0,0 UV-I 7 W/m² -6,4 °C 19,3 km/h (3 Bft)
13.01.2017 16:42 -2,3 °C -2,2 °C 74 % 1004,5 hPa 0,0 mm 14,8 km/h (3 Bft) W-NW 301 ° 0 min 0,000 mm 0,0 UV-I 5 W/m² -6,3 °C 19,3 km/h (3 Bft)
13.01.2017 16:43 -2,3 °C -2,2 °C 74 % 1004,4 hPa 0,0 mm 16,1 km/h (3 Bft) W-SW 245 ° 0 min 0,000 mm 0,0 UV-I 5 W/m² -6,3 °C 20,9 km/h (4 Bft)
13.01.2017 16:44 -2,3 °C -2,3 °C 74 % 1004,5 hPa 0,0 mm 10,6 km/h (2 Bft) W 274 ° 0 min 0,000 mm 0,0 UV-I 5 W/m² -6,3 °C 16,1 km/h (3 Bft)
13.01.2017 16:45 -2,3 °C -2,2 °C 74 % 1004,5 hPa 0,0 mm 16,2 km/h (3 Bft) W 263 ° 0 min 0,000 mm 0,0 UV-I 5 W/m² -6,3 °C 20,9 km/h (4 Bft)
13.01.2017 16:46 -2,3 °C -2,3 °C 74 % 1004,5 hPa 0,0 mm 10,8 km/h (2 Bft) W-SW 252 ° 0 min 0,000 mm 0,0 UV-I 5 W/m² -6,3 °C 16,1 km/h (3 Bft)
13.01.2017 16:47 -2,3 °C -2,3 °C 74 % 1004,6 hPa 0,0 mm 14,1 km/h (3 Bft) W 273 ° 0 min 0,000 mm 0,0 UV-I 0 W/m² -6,3 °C 19,3 km/h (3 Bft)
13.01.2017 16:48 -2,2 °C -2,2 °C 75 % 1004,6 hPa 0,0 mm 13,5 km/h (3 Bft) W-SW 244 ° 0 min 0,000 mm 0,0 UV-I 0 W/m² -6,0 °C 19,3 km/h (3 Bft)
13.01.2017 16:49 -2,3 °C -2,2 °C 74 % 1004,7 hPa 0,0 mm 15,6 km/h (3 Bft) W 265 ° 0 min 0,000 mm 0,0 UV-I 0 W/m² -6,3 °C 19,3 km/h (3 Bft)
13.01.2017 16:50 -2,3 °C -2,2 °C 74 % 1004,7 hPa 0,0 mm 14,1 km/h (3 Bft) W-SW 257 ° 0 min 0,000 mm 0,0 UV-I 0 W/m² -6,3 °C 19,3 km/h (3 Bft)
13.01.2017 16:51 -2,2 °C -2,2 °C 74 % 1004,8 hPa 0,0 mm 15,3 km/h (3 Bft) W-NW 288 ° 0 min 0,000 mm 0,0 UV-I 0 W/m² -6,2 °C 22,5 km/h (4 Bft)
13.01.2017 16:52 -2,3 °C -2,2 °C 74 % 1004,9 hPa 0,0 mm 13,9 km/h (3 Bft) W 271 ° 0 min 0,000 mm 0,0 UV-I 0 W/m² -6,3 °C 17,7 km/h (3 Bft)
13.01.2017 16:53 -2,3 °C -2,2 °C 75 % 1004,9 hPa 0,0 mm 10,7 km/h (2 Bft) W-NW 301 ° 0 min 0,000 mm 0,0 UV-I 0 W/m² -6,1 °C 14,5 km/h (3 Bft)
13.01.2017 16:54 -2,2 °C -2,2 °C 75 % 1005,0 hPa 0,0 mm 17,8 km/h (3 Bft) W 278 ° 0 min 0,000 mm 0,0 UV-I 0 W/m² -6,0 °C 35,4 km/h (5 Bft)
13.01.2017 16:55 -2,3 °C -2,2 °C 75 % 1005,1 hPa 0,0 mm 19,3 km/h (3 Bft) W-NW 285 ° 0 min 0,000 mm 0,0 UV-I 0 W/m² -6,1 °C 27,4 km/h (4 Bft)
13.01.2017 16:56 -2,2 °C -2,2 °C 75 % 1005,1 hPa 0,0 mm 14,4 km/h (3 Bft) N-NW 331 ° 0 min 0,000 mm 0,0 UV-I 0 W/m² -6,0 °C 19,3 km/h (3 Bft)
13.01.2017 16:57 -2,3 °C -2,2 °C 75 % 1005,1 hPa 0,0 mm 15,9 km/h (3 Bft) W-NW 297 ° 0 min 0,000 mm 0,0 UV-I 0 W/m² -6,1 °C 24,1 km/h (4 Bft)
13.01.2017 16:58 -2,3 °C -2,2 °C 76 % 1005,2 hPa 0,0 mm 8,1 km/h (2 Bft) W-NW 296 ° 0 min 0,000 mm 0,0 UV-I 0 W/m² -5,9 °C 14,5 km/h (3 Bft)
13.01.2017 16:59 -2,2 °C -2,2 °C 76 % 1005,2 hPa 0,0 mm 8,9 km/h (2 Bft) NW 304 ° 0 min 0,000 mm 0,0 UV-I 0 W/m² -5,8 °C 12,9 km/h (3 Bft)
13.01.2017 17:00 -2,3 °C -2,2 °C 77 % 1005,2 hPa 0,0 mm 16,2 km/h (3 Bft) W 278 ° 0 min 0,000 mm 0,0 UV-I 0 W/m² -5,8 °C 25,7 km/h (4 Bft)
13.01.2017 17:01 -2,3 °C -2,3 °C 77 % 1005,3 hPa 0,0 mm 12,7 km/h (3 Bft) W-NW 288 ° 0 min 0,026 mm 0,0 UV-I 0 W/m² -5,8 °C 19,3 km/h (3 Bft)
13.01.2017 17:02 -2,3 °C -2,3 °C 78 % 1005,4 hPa 0,0 mm 12,7 km/h (3 Bft) W-NW 299 ° 0 min 0,000 mm 0,0 UV-I 0 W/m² -5,6 °C 19,3 km/h (3 Bft)
13.01.2017 17:03 -2,3 °C -2,3 °C 80 % 1005,4 hPa 0,0 mm 7,2 km/h (2 Bft) NW 304 ° 0 min 0,000 mm 0,0 UV-I 0 W/m² -5,3 °C 12,9 km/h (3 Bft)
13.01.2017 17:04 -2,4 °C -2,3 °C 81 % 1005,4 hPa 0,0 mm 10,9 km/h (2 Bft) NW 319 ° 0 min 0,000 mm 0,0 UV-I 0 W/m² -5,2 °C 17,7 km/h (3 Bft)
13.01.2017 17:05 -2,4 °C -2,4 °C 83 % 1005,4 hPa 0,0 mm 10,2 km/h (2 Bft) N-NW 331 ° 0 min 0,000 mm 0,0 UV-I 0 W/m² -4,9 °C 14,5 km/h (3 Bft)
13.01.2017 17:06 -2,5 °C -2,4 °C 84 % 1005,4 hPa 0,0 mm 10,7 km/h (2 Bft) NW 313 ° 0 min 0,000 mm 0,0 UV-I 0 W/m² -4,8 °C 20,9 km/h (4 Bft)
13.01.2017 17:07 -2,6 °C -2,5 °C 84 % 1005,5 hPa 0,0 mm 13,3 km/h (3 Bft) W 272 ° 0 min 0,000 mm 0,0 UV-I 0 W/m² -4,9 °C 16,1 km/h (3 Bft)
13.01.2017 17:08 -2,7 °C -2,6 °C 85 % 1005,4 hPa 0,0 mm 7,2 km/h (2 Bft) W-NW 287 ° 0 min 0,000 mm 0,0 UV-I 0 W/m² -4,9 °C 11,3 km/h (2 Bft)
13.01.2017 17:09 -2,7 °C -2,7 °C 85 % 1005,4 hPa 0,0 mm 5,3 km/h (1 Bft) W 266 ° 0 min 0,000 mm 0,0 UV-I 0 W/m² -4,9 °C 8,0 km/h (2 Bft)
13.01.2017 17:10 -2,8 °C -2,7 °C 85 % 1005,4 hPa 0,0 mm 8,4 km/h (2 Bft) NW 316 ° 0 min 0,000 mm 0,0 UV-I 0 W/m² -5,0 °C 14,5 km/h (3 Bft)
13.01.2017 17:11 -2,8 °C -2,8 °C 86 % 1005,4 hPa 0,0 mm 7,4 km/h (2 Bft) W 275 ° 0 min 0,000 mm 0,0 UV-I 0 W/m² -4,8 °C 12,9 km/h (3 Bft)
13.01.2017 17:12 -2,9 °C -2,8 °C 86 % 1005,5 hPa 0,0 mm 5,6 km/h (1 Bft) NW 313 ° 0 min 0,000 mm 0,0 UV-I 0 W/m² -4,9 °C 8,0 km/h (2 Bft)
13.01.2017 17:13 -2,9 °C -2,9 °C 86 % 1005,5 hPa 0,0 mm 3,6 km/h (1 Bft) W-NW 300 ° 0 min 0,000 mm 0,0 UV-I 0 W/m² -4,9 °C 4,8 km/h (1 Bft)
13.01.2017 17:14 -3,0 °C -2,9 °C 87 % 1005,4 hPa 0,0 mm 7,3 km/h (2 Bft) NW 308 ° 0 min 0,000 mm 0,0 UV-I 0 W/m² -4,9 °C 11,3 km/h (2 Bft)
13.01.2017 17:15 -3,1 °C -3,0 °C 87 % 1005,5 hPa 0,0 mm 6,8 km/h (2 Bft) NW 315 ° 0 min 0,000 mm 0,0 UV-I 0 W/m² -4,9 °C 11,3 km/h (2 Bft)
13.01.2017 17:16 -3,1 °C -3,1 °C 87 % 1005,5 hPa 0,0 mm 7,6 km/h (2 Bft) W-NW 300 ° 0 min 0,000 mm 0,0 UV-I 0 W/m² -4,9 °C 12,9 km/h (3 Bft)
13.01.2017 17:17 -3,2 °C -3,1 °C 88 % 1005,6 hPa 0,0 mm 8,7 km/h (2 Bft) W-NW 289 ° 0 min 0,000 mm 0,0 UV-I 0 W/m² -4,9 °C 16,1 km/h (3 Bft)
13.01.2017 17:18 -3,2 °C -3,2 °C 88 % 1005,5 hPa 0,0 mm 7,4 km/h (2 Bft) W 271 ° 0 min 0,000 mm 0,0 UV-I 0 W/m² -4,9 °C 14,5 km/h (3 Bft)
13.01.2017 17:19 -3,2 °C -3,2 °C 88 % 1005,6 hPa 0,0 mm 10,7 km/h (2 Bft) W 270 ° 0 min 0,000 mm 0,0 UV-I 0 W/m² -4,9 °C 16,1 km/h (3 Bft)
13.01.2017 17:20 -3,3 °C -3,2 °C 88 % 1005,6 hPa 0,0 mm 10,5 km/h (2 Bft) W 269 ° 0 min 0,000 mm 0,0 UV-I 0 W/m² -5,0 °C 14,5 km/h (3 Bft)
13.01.2017 17:21 -3,3 °C -3,3 °C 89 % 1005,6 hPa 0,0 mm 9,2 km/h (2 Bft) W 281 ° 0 min 0,000 mm 0,0 UV-I 0 W/m² -4,8 °C 12,9 km/h (3 Bft)
13.01.2017 17:22 -3,3 °C -3,3 °C 89 % 1005,6 hPa 0,0 mm 6,6 km/h (2 Bft) SW 223 ° 0 min 0,000 mm 0,0 UV-I 0 W/m² -4,8 °C 12,9 km/h (3 Bft)
13.01.2017 17:23 -3,3 °C -3,3 °C 89 % 1005,6 hPa 0,0 mm 8,7 km/h (2 Bft) W-NW 285 ° 0 min 0,000 mm 0,0 UV-I 0 W/m² -4,8 °C 16,1 km/h (3 Bft)
13.01.2017 17:24 -3,3 °C -3,3 °C 89 % 1005,6 hPa 0,0 mm 13,6 km/h (3 Bft) W 271 ° 0 min 0,000 mm 0,0 UV-I 0 W/m² -4,8 °C 19,3 km/h (3 Bft)
13.01.2017 17:25 -3,4 °C -3,3 °C 90 % 1005,6 hPa 0,0 mm 7,8 km/h (2 Bft) W-NW 292 ° 0 min 0,000 mm 0,0 UV-I 0 W/m² -4,8 °C 12,9 km/h (3 Bft)
13.01.2017 17:26 -3,4 °C -3,4 °C 90 % 1005,6 hPa 0,0 mm 6,7 km/h (2 Bft) W-NW 294 ° 0 min 0,000 mm 0,0 UV-I 0 W/m² -4,8 °C 12,9 km/h (3 Bft)
13.01.2017 17:27 -3,4 °C -3,4 °C 90 % 1005,6 hPa 0,0 mm 8,1 km/h (2 Bft) W-NW 289 ° 0 min 0,000 mm 0,0 UV-I 0 W/m² -4,8 °C 17,7 km/h (3 Bft)
13.01.2017 17:28 -3,4 °C -3,4 °C 90 % 1005,6 hPa 0,0 mm 7,4 km/h (2 Bft) W-SW 240 ° 0 min 0,000 mm 0,0 UV-I 0 W/m² -4,8 °C 11,3 km/h (2 Bft)
13.01.2017 17:29 -3,4 °C -3,4 °C 90 % 1005,7 hPa 0,0 mm 5,0 km/h (1 Bft) W-SW 242 ° 0 min 0,000 mm 0,0 UV-I 0 W/m² -4,8 °C 8,0 km/h (2 Bft)
13.01.2017 17:30 -3,4 °C -3,4 °C 90 % 1005,7 hPa 0,0 mm 9,5 km/h (2 Bft) SW 214 ° 0 min 0,000 mm 0,0 UV-I 0 W/m² -4,8 °C 14,5 km/h (3 Bft)
13.01.2017 17:31 -3,5 °C -3,4 °C 90 % 1005,7 hPa 0,0 mm 7,2 km/h (2 Bft) W 271 ° 0 min 0,000 mm 0,0 UV-I 0 W/m² -4,9 °C 9,7 km/h (2 Bft)
13.01.2017 17:32 -3,5 °C -3,5 °C 90 % 1005,7 hPa 0,0 mm 4,8 km/h (1 Bft) W-SW 252 ° 0 min 0,000 mm 0,0 UV-I 0 W/m² -4,9 °C 6,4 km/h (2 Bft)
13.01.2017 17:33 -3,5 °C -3,5 °C 90 % 1005,7 hPa 0,0 mm 11,8 km/h (2 Bft) W 267 ° 0 min 0,000 mm 0,0 UV-I 0 W/m² -4,9 °C 16,1 km/h (3 Bft)
13.01.2017 17:34 -3,6 °C -3,5 °C 90 % 1005,7 hPa 0,0 mm 9,3 km/h (2 Bft) W 262 ° 0 min 0,000 mm 0,0 UV-I 0 W/m² -5,0 °C 14,5 km/h (3 Bft)
13.01.2017 17:35 -3,6 °C -3,5 °C 90 % 1005,7 hPa 0,0 mm 8,0 km/h (2 Bft) W 267 ° 0 min 0,000 mm 0,0 UV-I 0 W/m² -5,0 °C 11,3 km/h (2 Bft)
13.01.2017 17:36 -3,6 °C -3,6 °C 90 % 1005,7 hPa 0,0 mm 7,6 km/h (2 Bft) SW 236 ° 0 min 0,000 mm 0,0 UV-I 0 W/m² -5,0 °C 11,3 km/h (2 Bft)
13.01.2017 17:37 -3,6 °C -3,6 °C 90 % 1005,7 hPa 0,0 mm 9,6 km/h (2 Bft) W-SW 241 ° 0 min 0,000 mm 0,0 UV-I 0 W/m² -5,0 °C 16,1 km/h (3 Bft)
13.01.2017 17:38 -3,6 °C -3,6 °C 90 % 1005,7 hPa 0,0 mm 11,9 km/h (2 Bft) W-SW 256 ° 0 min 0,000 mm 0,0 UV-I 0 W/m² -5,0 °C 16,1 km/h (3 Bft)
13.01.2017 17:39 -3,6 °C -3,6 °C 90 % 1005,7 hPa 0,0 mm 11,3 km/h (2 Bft) W 259 ° 0 min 0,000 mm 0,0 UV-I 0 W/m² -5,0 °C 16,1 km/h (3 Bft)
13.01.2017 17:40 -3,6 °C -3,6 °C 89 % 1005,7 hPa 0,0 mm 10,7 km/h (2 Bft) W 270 ° 0 min 0,000 mm 0,0 UV-I 0 W/m² -5,1 °C 17,7 km/h (3 Bft)
13.01.2017 17:41 -3,6 °C -3,6 °C 89 % 1005,7 hPa 0,0 mm 10,9 km/h (2 Bft) SW 229 ° 0 min 0,000 mm 0,0 UV-I 0 W/m² -5,1 °C 14,5 km/h (3 Bft)
13.01.2017 17:42 -3,6 °C -3,6 °C 89 % 1005,8 hPa 0,0 mm 12,7 km/h (3 Bft) W 260 ° 0 min 0,000 mm 0,0 UV-I 0 W/m² -5,1 °C 17,7 km/h (3 Bft)
13.01.2017 17:43 -3,6 °C -3,6 °C 89 % 1005,7 hPa 0,0 mm 14,2 km/h (3 Bft) W-SW 245 ° 0 min 0,000 mm 0,0 UV-I 0 W/m² -5,1 °C 24,1 km/h (4 Bft)
13.01.2017 17:44 -3,7 °C -3,6 °C 89 % 1005,7 hPa 0,0 mm 14,2 km/h (3 Bft) W-SW 257 ° 0 min 0,000 mm 0,0 UV-I 0 W/m² -5,2 °C 19,3 km/h (3 Bft)
13.01.2017 17:45 -3,7 °C -3,6 °C 89 % 1005,7 hPa 0,0 mm 13,2 km/h (3 Bft) W 271 ° 0 min 0,000 mm 0,0 UV-I 0 W/m² -5,2 °C 17,7 km/h (3 Bft)
13.01.2017 17:46 -3,7 °C -3,7 °C 89 % 1005,6 hPa 0,0 mm 8,7 km/h (2 Bft) W 261 ° 0 min 0,000 mm 0,0 UV-I 0 W/m² -5,2 °C 12,9 km/h (3 Bft)
13.01.2017 17:47 -3,7 °C -3,7 °C 89 % 1005,6 hPa 0,0 mm 7,6 km/h (2 Bft) W-SW 257 ° 0 min 0,000 mm 0,0 UV-I 0 W/m² -5,2 °C 16,1 km/h (3 Bft)
13.01.2017 17:48 -3,7 °C -3,7 °C 89 % 1005,6 hPa 0,0 mm 11,3 km/h (2 Bft) W 265 ° 0 min 0,000 mm 0,0 UV-I 0 W/m² -5,2 °C 16,1 km/h (3 Bft)
13.01.2017 17:49 -3,7 °C -3,7 °C 88 % 1005,7 hPa 0,0 mm 8,3 km/h (2 Bft) W-SW 241 ° 0 min 0,000 mm 0,0 UV-I 0 W/m² -5,4 °C 12,9 km/h (3 Bft)
13.01.2017 17:50 -3,7 °C -3,7 °C 88 % 1005,6 hPa 0,0 mm 9,6 km/h (2 Bft) W 277 ° 0 min 0,000 mm 0,0 UV-I 0 W/m² -5,4 °C 12,9 km/h (3 Bft)
13.01.2017 17:51 -3,7 °C -3,7 °C 88 % 1005,6 hPa 0,0 mm 11,5 km/h (2 Bft) W-SW 237 ° 0 min 0,000 mm 0,0 UV-I 0 W/m² -5,4 °C 16,1 km/h (3 Bft)
13.01.2017 17:52 -3,7 °C -3,7 °C 88 % 1005,7 hPa 0,0 mm 8,6 km/h (2 Bft) W 261 ° 0 min 0,000 mm 0,0 UV-I 0 W/m² -5,4 °C 16,1 km/h (3 Bft)
13.01.2017 17:53 -3,8 °C -3,7 °C 88 % 1005,7 hPa 0,0 mm 10,3 km/h (2 Bft) SW 233 ° 0 min 0,000 mm 0,0 UV-I 0 W/m² -5,5 °C 17,7 km/h (3 Bft)
13.01.2017 17:54 -3,7 °C -3,7 °C 88 % 1005,7 hPa 0,0 mm 13,9 km/h (3 Bft) W 272 ° 0 min 0,000 mm 0,0 UV-I 0 W/m² -5,4 °C 20,9 km/h (4 Bft)
13.01.2017 17:55 -3,8 °C -3,7 °C 88 % 1005,8 hPa 0,0 mm 11,3 km/h (2 Bft) S-SW 205 ° 0 min 0,000 mm 0,0 UV-I 0 W/m² -5,5 °C 17,7 km/h (3 Bft)
13.01.2017 17:56 -3,8 °C -3,8 °C 88 % 1005,8 hPa 0,0 mm 7,6 km/h (2 Bft) SW 219 ° 0 min 0,000 mm 0,0 UV-I 0 W/m² -5,5 °C 16,1 km/h (3 Bft)
13.01.2017 17:57 -3,8 °C -3,8 °C 88 % 1005,8 hPa 0,0 mm 7,2 km/h (2 Bft) W 265 ° 0 min 0,000 mm 0,0 UV-I 0 W/m² -5,5 °C 11,3 km/h (2 Bft)
13.01.2017 17:58 -3,8 °C -3,8 °C 88 % 1005,9 hPa 0,0 mm 6,4 km/h (2 Bft) W 273 ° 0 min 0,000 mm 0,0 UV-I 0 W/m² -5,5 °C 11,3 km/h (2 Bft)
13.01.2017 17:59 -3,8 °C -3,8 °C 88 % 1006,0 hPa 0,0 mm 11,8 km/h (2 Bft) W-SW 257 ° 0 min 0,000 mm 0,0 UV-I 0 W/m² -5,5 °C 17,7 km/h (3 Bft)
13.01.2017 18:00 -3,8 °C -3,8 °C 88 % 1006,0 hPa 0,0 mm 11,9 km/h (2 Bft) SW 219 ° 0 min 0,000 mm 0,0 UV-I 0 W/m² -5,5 °C 24,1 km/h (4 Bft)
13.01.2017 18:01 -3,8 °C -3,8 °C 87 % 1006,0 hPa 0,0 mm 11,6 km/h (2 Bft) W 261 ° 0 min 0,000 mm 0,0 UV-I 0 W/m² -5,6 °C 14,5 km/h (3 Bft)
13.01.2017 18:02 -3,8 °C -3,8 °C 87 % 1006,0 hPa 0,0 mm 11,5 km/h (2 Bft) SW 231 ° 0 min 0,000 mm 0,0 UV-I 0 W/m² -5,6 °C 16,1 km/h (3 Bft)
13.01.2017 18:03 -3,8 °C -3,8 °C 87 % 1006,1 hPa 0,0 mm 10,7 km/h (2 Bft) W-SW 239 ° 0 min 0,000 mm 0,0 UV-I 0 W/m² -5,6 °C 12,9 km/h (3 Bft)
13.01.2017 18:04 -3,8 °C -3,8 °C 87 % 1006,1 hPa 0,0 mm 8,0 km/h (2 Bft) W-SW 254 ° 0 min 0,000 mm 0,0 UV-I 0 W/m² -5,6 °C 16,1 km/h (3 Bft)
13.01.2017 18:05 -3,8 °C -3,8 °C 87 % 1006,1 hPa 0,0 mm 19,1 km/h (3 Bft) W 267 ° 0 min 0,000 mm 0,0 UV-I 0 W/m² -5,6 °C 25,7 km/h (4 Bft)
13.01.2017 18:06 -3,8 °C -3,8 °C 87 % 1006,1 hPa 0,0 mm 13,3 km/h (3 Bft) SW 235 ° 0 min 0,000 mm 0,0 UV-I 0 W/m² -5,6 °C 22,5 km/h (4 Bft)
13.01.2017 18:07 -3,8 °C -3,8 °C 87 % 1006,2 hPa 0,0 mm 10,9 km/h (2 Bft) W 263 ° 0 min 0,000 mm 0,0 UV-I 0 W/m² -5,6 °C 16,1 km/h (3 Bft)
13.01.2017 18:08 -3,8 °C -3,8 °C 88 % 1006,0 hPa 0,0 mm 13,1 km/h (3 Bft) S-SW 198 ° 0 min 0,000 mm 0,0 UV-I 0 W/m² -5,5 °C 20,9 km/h (4 Bft)
13.01.2017 18:09 -3,8 °C -3,8 °C 87 % 1006,0 hPa 0,0 mm 13,2 km/h (3 Bft) W 260 ° 0 min 0,000 mm 0,0 UV-I 0 W/m² -5,6 °C 17,7 km/h (3 Bft)
13.01.2017 18:10 -3,8 °C -3,8 °C 87 % 1006,1 hPa 0,0 mm 11,5 km/h (2 Bft) W-SW 240 ° 0 min 0,000 mm 0,0 UV-I 0 W/m² -5,6 °C 14,5 km/h (3 Bft)
13.01.2017 18:11 -3,8 °C -3,8 °C 87 % 1006,2 hPa 0,0 mm 17,6 km/h (3 Bft) W 276 ° 0 min 0,000 mm 0,0 UV-I 0 W/m² -5,6 °C 24,1 km/h (4 Bft)
13.01.2017 18:12 -3,8 °C -3,7 °C 87 % 1006,1 hPa 0,0 mm 9,9 km/h (2 Bft) W-SW 253 ° 0 min 0,000 mm 0,0 UV-I 0 W/m² -5,6 °C 12,9 km/h (3 Bft)
13.01.2017 18:13 -3,8 °C -3,7 °C 87 % 1006,1 hPa 0,0 mm 8,6 km/h (2 Bft) W 265 ° 0 min 0,000 mm 0,0 UV-I 0 W/m² -5,6 °C 16,1 km/h (3 Bft)
13.01.2017 18:14 -3,8 °C -3,7 °C 87 % 1006,1 hPa 0,0 mm 9,6 km/h (2 Bft) W-SW 252 ° 0 min 0,000 mm 0,0 UV-I 0 W/m² -5,6 °C 14,5 km/h (3 Bft)
13.01.2017 18:15 -3,8 °C -3,7 °C 87 % 1006,2 hPa 0,0 mm 13,4 km/h (3 Bft) SW 218 ° 0 min 0,000 mm 0,0 UV-I 0 W/m² -5,6 °C 20,9 km/h (4 Bft)
13.01.2017 18:16 -3,7 °C -3,7 °C 86 % 1006,1 hPa 0,0 mm 15,1 km/h (3 Bft) W-SW 250 ° 0 min 0,000 mm 0,0 UV-I 0 W/m² -5,7 °C 19,3 km/h (3 Bft)
13.01.2017 18:17 -3,7 °C -3,7 °C 86 % 1006,1 hPa 0,0 mm 8,8 km/h (2 Bft) W-SW 246 ° 0 min 0,000 mm 0,0 UV-I 0 W/m² -5,7 °C 12,9 km/h (3 Bft)
13.01.2017 18:18 -3,7 °C -3,7 °C 86 % 1006,2 hPa 0,0 mm 7,4 km/h (2 Bft) W 267 ° 0 min 0,000 mm 0,0 UV-I 0 W/m² -5,7 °C 11,3 km/h (2 Bft)
13.01.2017 18:19 -3,7 °C -3,7 °C 86 % 1006,2 hPa 0,0 mm 9,9 km/h (2 Bft) W-SW 257 ° 0 min 0,000 mm 0,0 UV-I 0 W/m² -5,7 °C 17,7 km/h (3 Bft)
13.01.2017 18:20 -3,7 °C -3,7 °C 86 % 1006,2 hPa 0,0 mm 13,7 km/h (3 Bft) W 275 ° 0 min 0,000 mm 0,0 UV-I 0 W/m² -5,7 °C 20,9 km/h (4 Bft)
13.01.2017 18:21 -3,7 °C -3,7 °C 86 % 1006,2 hPa 0,0 mm 14,5 km/h (3 Bft) W 268 ° 0 min 0,000 mm 0,0 UV-I 0 W/m² -5,7 °C 22,5 km/h (4 Bft)
13.01.2017 18:22 -3,7 °C -3,7 °C 86 % 1006,2 hPa 0,0 mm 11,8 km/h (2 Bft) W 259 ° 0 min 0,000 mm 0,0 UV-I 0 W/m² -5,7 °C 17,7 km/h (3 Bft)
13.01.2017 18:23 -3,7 °C -3,7 °C 86 % 1006,3 hPa 0,0 mm 12,6 km/h (3 Bft) W-SW 248 ° 0 min 0,000 mm 0,0 UV-I 0 W/m² -5,7 °C 20,9 km/h (4 Bft)
13.01.2017 18:24 -3,7 °C -3,7 °C 86 % 1006,3 hPa 0,0 mm 10,3 km/h (2 Bft) W-NW 292 ° 0 min 0,000 mm 0,0 UV-I 0 W/m² -5,7 °C 16,1 km/h (3 Bft)
13.01.2017 18:25 -3,7 °C -3,7 °C 86 % 1006,3 hPa 0,0 mm 13,1 km/h (3 Bft) SW 234 ° 0 min 0,000 mm 0,0 UV-I 0 W/m² -5,7 °C 20,9 km/h (4 Bft)
13.01.2017 18:26 -3,7 °C -3,6 °C 86 % 1006,3 hPa 0,0 mm 10,9 km/h (2 Bft) SW 231 ° 0 min 0,000 mm 0,0 UV-I 0 W/m² -5,7 °C 16,1 km/h (3 Bft)
13.01.2017 18:27 -3,6 °C -3,6 °C 86 % 1006,3 hPa 0,0 mm 10,6 km/h (2 Bft) W 277 ° 0 min 0,000 mm 0,0 UV-I 0 W/m² -5,6 °C 19,3 km/h (3 Bft)
13.01.2017 18:28 -3,6 °C -3,6 °C 86 % 1006,4 hPa 0,0 mm 16,4 km/h (3 Bft) W-SW 257 ° 0 min 0,000 mm 0,0 UV-I 0 W/m² -5,6 °C 22,5 km/h (4 Bft)
13.01.2017 18:29 -3,6 °C -3,6 °C 86 % 1006,4 hPa 0,0 mm 9,3 km/h (2 Bft) W 275 ° 0 min 0,000 mm 0,0 UV-I 0 W/m² -5,6 °C 17,7 km/h (3 Bft)
13.01.2017 18:30 -3,6 °C -3,6 °C 86 % 1006,4 hPa 0,0 mm 13,6 km/h (3 Bft) SW 234 ° 0 min 0,000 mm 0,0 UV-I 0 W/m² -5,6 °C 19,3 km/h (3 Bft)
13.01.2017 18:31 -3,6 °C -3,6 °C 86 % 1006,4 hPa 0,0 mm 11,1 km/h (2 Bft) W-SW 248 ° 0 min 0,000 mm 0,0 UV-I 0 W/m² -5,6 °C 19,3 km/h (3 Bft)
13.01.2017 18:32 -3,6 °C -3,6 °C 86 % 1006,4 hPa 0,0 mm 13,5 km/h (3 Bft) W-SW 252 ° 0 min 0,000 mm 0,0 UV-I 0 W/m² -5,6 °C 25,7 km/h (4 Bft)
13.01.2017 18:33 -3,5 °C -3,5 °C 86 % 1006,4 hPa 0,0 mm 21,1 km/h (4 Bft) W-SW 248 ° 0 min 0,000 mm 0,0 UV-I 0 W/m² -5,5 °C 27,4 km/h (4 Bft)
13.01.2017 18:34 -3,5 °C -3,5 °C 86 % 1006,4 hPa 0,0 mm 14,2 km/h (3 Bft) W-SW 258 ° 0 min 0,000 mm 0,0 UV-I 0 W/m² -5,5 °C 17,7 km/h (3 Bft)
13.01.2017 18:35 -3,5 °C -3,5 °C 86 % 1006,4 hPa 0,0 mm 10,8 km/h (2 Bft) W-SW 258 ° 0 min 0,000 mm 0,0 UV-I 0 W/m² -5,5 °C 14,5 km/h (3 Bft)
13.01.2017 18:36 -3,5 °C -3,4 °C 86 % 1006,3 hPa 0,0 mm 7,9 km/h (2 Bft) W 269 ° 0 min 0,000 mm 0,0 UV-I 0 W/m² -5,5 °C 9,7 km/h (2 Bft)
13.01.2017 18:37 -3,4 °C -3,4 °C 86 % 1006,4 hPa 0,0 mm 10,5 km/h (2 Bft) S-SW 211 ° 0 min 0,000 mm 0,0 UV-I 0 W/m² -5,4 °C 16,1 km/h (3 Bft)
13.01.2017 18:38 -3,5 °C -3,4 °C 86 % 1006,3 hPa 0,0 mm 20,9 km/h (4 Bft) W 261 ° 0 min 0,000 mm 0,0 UV-I 0 W/m² -5,5 °C 32,2 km/h (5 Bft)
13.01.2017 18:39 -3,4 °C -3,4 °C 86 % 1006,3 hPa 0,0 mm 13,5 km/h (3 Bft) W-SW 245 ° 0 min 0,000 mm 0,0 UV-I 0 W/m² -5,4 °C 16,1 km/h (3 Bft)
13.01.2017 18:40 -3,4 °C -3,4 °C 86 % 1006,4 hPa 0,0 mm 12,5 km/h (3 Bft) W-NW 282 ° 0 min 0,000 mm 0,0 UV-I 0 W/m² -5,4 °C 19,3 km/h (3 Bft)
13.01.2017 18:41 -3,4 °C -3,4 °C 86 % 1006,4 hPa 0,0 mm 12,2 km/h (2 Bft) W-SW 250 ° 0 min 0,000 mm 0,0 UV-I 0 W/m² -5,4 °C 16,1 km/h (3 Bft)
13.01.2017 18:42 -3,4 °C -3,4 °C 86 % 1006,3 hPa 0,0 mm 10,5 km/h (2 Bft) W-NW 283 ° 0 min 0,000 mm 0,0 UV-I 0 W/m² -5,4 °C 14,5 km/h (3 Bft)
13.01.2017 18:43 -3,4 °C -3,4 °C 86 % 1006,3 hPa 0,0 mm 14,1 km/h (3 Bft) W-SW 248 ° 0 min 0,000 mm 0,0 UV-I 0 W/m² -5,4 °C 20,9 km/h (4 Bft)
13.01.2017 18:44 -3,4 °C -3,4 °C 86 % 1006,3 hPa 0,0 mm 11,3 km/h (2 Bft) W 263 ° 0 min 0,000 mm 0,0 UV-I 0 W/m² -5,4 °C 19,3 km/h (3 Bft)
13.01.2017 18:45 -3,4 °C -3,4 °C 86 % 1006,4 hPa 0,0 mm 16,9 km/h (3 Bft) W 266 ° 0 min 0,000 mm 0,0 UV-I 0 W/m² -5,4 °C 22,5 km/h (4 Bft)
13.01.2017 18:46 -3,4 °C -3,4 °C 86 % 1006,3 hPa 0,0 mm 11,1 km/h (2 Bft) W 259 ° 0 min 0,000 mm 0,0 UV-I 0 W/m² -5,4 °C 17,7 km/h (3 Bft)
13.01.2017 18:47 -3,4 °C -3,4 °C 86 % 1006,4 hPa 0,0 mm 11,9 km/h (2 Bft) W-SW 257 ° 0 min 0,000 mm 0,0 UV-I 0 W/m² -5,4 °C 17,7 km/h (3 Bft)
13.01.2017 18:48 -3,3 °C -3,3 °C 86 % 1006,4 hPa 0,0 mm 8,6 km/h (2 Bft) S-SW 212 ° 0 min 0,000 mm 0,0 UV-I 0 W/m² -5,3 °C 14,5 km/h (3 Bft)
13.01.2017 18:49 -3,3 °C -3,3 °C 86 % 1006,4 hPa 0,0 mm 12,7 km/h (3 Bft) S-SW 213 ° 0 min 0,000 mm 0,0 UV-I 0 W/m² -5,3 °C 19,3 km/h (3 Bft)
13.01.2017 18:50 -3,3 °C -3,3 °C 86 % 1006,4 hPa 0,0 mm 10,0 km/h (2 Bft) W-NW 291 ° 0 min 0,000 mm 0,0 UV-I 0 W/m² -5,3 °C 16,1 km/h (3 Bft)
13.01.2017 18:51 -3,3 °C -3,3 °C 86 % 1006,4 hPa 0,0 mm 14,2 km/h (3 Bft) W 280 ° 0 min 0,000 mm 0,0 UV-I 0 W/m² -5,3 °C 20,9 km/h (4 Bft)
13.01.2017 18:52 -3,3 °C -3,3 °C 86 % 1006,3 hPa 0,0 mm 16,8 km/h (3 Bft) W-SW 245 ° 0 min 0,000 mm 0,0 UV-I 0 W/m² -5,3 °C 25,7 km/h (4 Bft)
13.01.2017 18:53 -3,3 °C -3,3 °C 86 % 1006,4 hPa 0,0 mm 10,8 km/h (2 Bft) W-SW 240 ° 0 min 0,000 mm 0,0 UV-I 0 W/m² -5,3 °C 17,7 km/h (3 Bft)
13.01.2017 18:54 -3,3 °C -3,3 °C 86 % 1006,4 hPa 0,0 mm 13,8 km/h (3 Bft) W-SW 242 ° 0 min 0,000 mm 0,0 UV-I 0 W/m² -5,3 °C 17,7 km/h (3 Bft)
13.01.2017 18:55 -3,3 °C -3,3 °C 86 % 1006,3 hPa 0,0 mm 12,9 km/h (3 Bft) SW 217 ° 0 min 0,000 mm 0,0 UV-I 0 W/m² -5,3 °C 20,9 km/h (4 Bft)
13.01.2017 18:56 -3,3 °C -3,3 °C 87 % 1006,4 hPa 0,0 mm 15,4 km/h (3 Bft) W-SW 258 ° 0 min 0,000 mm 0,0 UV-I 0 W/m² -5,1 °C 27,4 km/h (4 Bft)
13.01.2017 18:57 -3,3 °C -3,3 °C 86 % 1006,4 hPa 0,0 mm 22,3 km/h (4 Bft) SW 230 ° 0 min 0,000 mm 0,0 UV-I 0 W/m² -5,3 °C 29,0 km/h (5 Bft)
13.01.2017 18:58 -3,4 °C -3,3 °C 87 % 1006,4 hPa 0,0 mm 12,7 km/h (3 Bft) W 279 ° 0 min 0,000 mm 0,0 UV-I 0 W/m² -5,2 °C 16,1 km/h (3 Bft)
13.01.2017 18:59 -3,4 °C -3,3 °C 87 % 1006,4 hPa 0,0 mm 11,3 km/h (2 Bft) W-SW 244 ° 0 min 0,000 mm 0,0 UV-I 0 W/m² -5,2 °C 16,1 km/h (3 Bft)
13.01.2017 19:00 -3,3 °C -3,3 °C 87 % 1006,3 hPa 0,0 mm 10,1 km/h (2 Bft) W 271 ° 0 min 0,000 mm 0,0 UV-I 0 W/m² -5,1 °C 16,1 km/h (3 Bft)
13.01.2017 19:01 -3,3 °C -3,3 °C 87 % 1006,3 hPa 0,0 mm 11,5 km/h (2 Bft) SW 216 ° 0 min 0,000 mm 0,0 UV-I 0 W/m² -5,1 °C 16,1 km/h (3 Bft)
13.01.2017 19:02 -3,4 °C -3,3 °C 87 % 1006,3 hPa 0,0 mm 9,0 km/h (2 Bft) W-SW 250 ° 0 min 0,000 mm 0,0 UV-I 0 W/m² -5,2 °C 16,1 km/h (3 Bft)
13.01.2017 19:03 -3,4 °C -3,3 °C 87 % 1006,3 hPa 0,0 mm 15,0 km/h (3 Bft) SW 219 ° 0 min 0,000 mm 0,0 UV-I 0 W/m² -5,2 °C 19,3 km/h (3 Bft)
13.01.2017 19:04 -3,4 °C -3,3 °C 87 % 1006,4 hPa 0,0 mm 12,5 km/h (3 Bft) W-SW 239 ° 0 min 0,000 mm 0,0 UV-I 0 W/m² -5,2 °C 17,7 km/h (3 Bft)
13.01.2017 19:05 -3,4 °C -3,3 °C 87 % 1006,3 hPa 0,0 mm 15,2 km/h (3 Bft) W 265 ° 0 min 0,000 mm 0,0 UV-I 0 W/m² -5,2 °C 20,9 km/h (4 Bft)
13.01.2017 19:06 -3,4 °C -3,3 °C 87 % 1006,3 hPa 0,0 mm 11,5 km/h (2 Bft) W-NW 286 ° 0 min 0,000 mm 0,0 UV-I 0 W/m² -5,2 °C 19,3 km/h (3 Bft)
13.01.2017 19:07 -3,4 °C -3,4 °C 87 % 1006,3 hPa 0,0 mm 13,1 km/h (3 Bft) W-NW 288 ° 0 min 0,000 mm 0,0 UV-I 0 W/m² -5,2 °C 22,5 km/h (4 Bft)
13.01.2017 19:08 -3,4 °C -3,4 °C 87 % 1006,3 hPa 0,0 mm 17,0 km/h (3 Bft) W-NW 293 ° 0 min 0,000 mm 0,0 UV-I 0 W/m² -5,2 °C 20,9 km/h (4 Bft)
13.01.2017 19:09 -3,4 °C -3,4 °C 87 % 1006,3 hPa 0,0 mm 11,2 km/h (2 Bft) W 261 ° 0 min 0,000 mm 0,0 UV-I 0 W/m² -5,2 °C 17,7 km/h (3 Bft)
13.01.2017 19:10 -3,4 °C -3,4 °C 87 % 1006,3 hPa 0,0 mm 11,5 km/h (2 Bft) W-SW 252 ° 0 min 0,000 mm 0,0 UV-I 0 W/m² -5,2 °C 17,7 km/h (3 Bft)
13.01.2017 19:11 -3,4 °C -3,4 °C 87 % 1006,3 hPa 0,0 mm 15,1 km/h (3 Bft) W-NW 296 ° 0 min 0,000 mm 0,0 UV-I 0 W/m² -5,2 °C 19,3 km/h (3 Bft)
13.01.2017 19:12 -3,4 °C -3,4 °C 88 % 1006,3 hPa 0,0 mm 10,1 km/h (2 Bft) W-SW 249 ° 0 min 0,000 mm 0,0 UV-I 0 W/m² -5,1 °C 14,5 km/h (3 Bft)
13.01.2017 19:13 -3,4 °C -3,4 °C 88 % 1006,4 hPa 0,0 mm 13,2 km/h (3 Bft) W 274 ° 0 min 0,000 mm 0,0 UV-I 0 W/m² -5,1 °C 19,3 km/h (3 Bft)
13.01.2017 19:14 -3,4 °C -3,4 °C 88 % 1006,3 hPa 0,0 mm 12,7 km/h (3 Bft) W 273 ° 0 min 0,000 mm 0,0 UV-I 0 W/m² -5,1 °C 16,1 km/h (3 Bft)
13.01.2017 19:15 -3,4 °C -3,4 °C 88 % 1006,3 hPa 0,0 mm 10,3 km/h (2 Bft) W-SW 252 ° 0 min 0,000 mm 0,0 UV-I 0 W/m² -5,1 °C 14,5 km/h (3 Bft)
13.01.2017 19:16 -3,4 °C -3,4 °C 88 % 1006,3 hPa 0,0 mm 13,0 km/h (3 Bft) W-SW 244 ° 0 min 0,000 mm 0,0 UV-I 0 W/m² -5,1 °C 17,7 km/h (3 Bft)
13.01.2017 19:17 -3,4 °C -3,4 °C 88 % 1006,3 hPa 0,0 mm 11,5 km/h (2 Bft) W-SW 245 ° 0 min 0,000 mm 0,0 UV-I 0 W/m² -5,1 °C 16,1 km/h (3 Bft)
13.01.2017 19:18 -3,4 °C -3,4 °C 89 % 1006,3 hPa 0,0 mm 11,2 km/h (2 Bft) W 262 ° 0 min 0,000 mm 0,0 UV-I 0 W/m² -4,9 °C 14,5 km/h (3 Bft)
13.01.2017 19:19 -3,4 °C -3,4 °C 89 % 1006,3 hPa 0,0 mm 10,8 km/h (2 Bft) W-SW 248 ° 0 min 0,000 mm 0,0 UV-I 0 W/m² -4,9 °C 12,9 km/h (3 Bft)
13.01.2017 19:20 -3,4 °C -3,4 °C 89 % 1006,4 hPa 0,0 mm 9,7 km/h (2 Bft) W-SW 252 ° 0 min 0,000 mm 0,0 UV-I 0 W/m² -4,9 °C 12,9 km/h (3 Bft)
13.01.2017 19:21 -3,4 °C -3,4 °C 89 % 1006,3 hPa 0,0 mm 9,2 km/h (2 Bft) W 263 ° 0 min 0,000 mm 0,0 UV-I 0 W/m² -4,9 °C 11,3 km/h (2 Bft)
13.01.2017 19:22 -3,4 °C -3,4 °C 90 % 1006,3 hPa 0,0 mm 8,0 km/h (2 Bft) W 262 ° 0 min 0,000 mm 0,0 UV-I 0 W/m² -4,8 °C 12,9 km/h (3 Bft)
13.01.2017 19:23 -3,4 °C -3,4 °C 90 % 1006,3 hPa 0,0 mm 7,8 km/h (2 Bft) W-SW 255 ° 0 min 0,000 mm 0,0 UV-I 0 W/m² -4,8 °C 11,3 km/h (2 Bft)
13.01.2017 19:24 -3,4 °C -3,4 °C 90 % 1006,4 hPa 0,0 mm 10,6 km/h (2 Bft) W-SW 248 ° 0 min 0,000 mm 0,0 UV-I 0 W/m² -4,8 °C 16,1 km/h (3 Bft)
13.01.2017 19:25 -3,5 °C -3,4 °C 90 % 1006,3 hPa 0,0 mm 11,4 km/h (2 Bft) W-SW 249 ° 0 min 0,000 mm 0,0 UV-I 0 W/m² -4,9 °C 16,1 km/h (3 Bft)
13.01.2017 19:26 -3,5 °C -3,5 °C 90 % 1006,3 hPa 0,0 mm 11,3 km/h (2 Bft) W 265 ° 0 min 0,000 mm 0,0 UV-I 0 W/m² -4,9 °C 16,1 km/h (3 Bft)
13.01.2017 19:27 -3,5 °C -3,5 °C 90 % 1006,4 hPa 0,0 mm 10,3 km/h (2 Bft) W-SW 255 ° 0 min 0,000 mm 0,0 UV-I 0 W/m² -4,9 °C 19,3 km/h (3 Bft)
13.01.2017 19:28 -3,5 °C -3,5 °C 90 % 1006,3 hPa 0,0 mm 12,0 km/h (2 Bft) W-SW 249 ° 0 min 0,000 mm 0,0 UV-I 0 W/m² -4,9 °C 16,1 km/h (3 Bft)
13.01.2017 19:29 -3,5 °C -3,5 °C 90 % 1006,3 hPa 0,0 mm 8,5 km/h (2 Bft) W-SW 238 ° 0 min 0,000 mm 0,0 UV-I 0 W/m² -4,9 °C 11,3 km/h (2 Bft)
13.01.2017 19:30 -3,5 °C -3,5 °C 90 % 1006,3 hPa 0,0 mm 9,7 km/h (2 Bft) W-SW 242 ° 0 min 0,000 mm 0,0 UV-I 0 W/m² -4,9 °C 14,5 km/h (3 Bft)
13.01.2017 19:31 -3,5 °C -3,5 °C 90 % 1006,3 hPa 0,0 mm 6,8 km/h (2 Bft) W 259 ° 0 min 0,000 mm 0,0 UV-I 0 W/m² -4,9 °C 11,3 km/h (2 Bft)
13.01.2017 19:32 -3,6 °C -3,5 °C 90 % 1006,3 hPa 0,0 mm 16,8 km/h (3 Bft) SW 219 ° 0 min 0,000 mm 0,0 UV-I 0 W/m² -5,0 °C 24,1 km/h (4 Bft)
13.01.2017 19:33 -3,6 °C -3,5 °C 90 % 1006,3 hPa 0,0 mm 10,7 km/h (2 Bft) W-SW 257 ° 0 min 0,000 mm 0,0 UV-I 0 W/m² -5,0 °C 14,5 km/h (3 Bft)
13.01.2017 19:34 -3,6 °C -3,6 °C 90 % 1006,2 hPa 0,0 mm 13,4 km/h (3 Bft) W 261 ° 0 min 0,000 mm 0,0 UV-I 0 W/m² -5,0 °C 22,5 km/h (4 Bft)
13.01.2017 19:35 -3,6 °C -3,5 °C 90 % 1006,2 hPa 0,0 mm 12,5 km/h (3 Bft) SW 234 ° 0 min 0,000 mm 0,0 UV-I 0 W/m² -5,0 °C 22,5 km/h (4 Bft)
13.01.2017 19:36 -3,6 °C -3,6 °C 90 % 1006,3 hPa 0,0 mm 11,4 km/h (2 Bft) W 267 ° 0 min 0,000 mm 0,0 UV-I 0 W/m² -5,0 °C 14,5 km/h (3 Bft)
13.01.2017 19:37 -3,6 °C -3,6 °C 90 % 1006,3 hPa 0,0 mm 15,3 km/h (3 Bft) S-SW 202 ° 0 min 0,000 mm 0,0 UV-I 0 W/m² -5,0 °C 20,9 km/h (4 Bft)
13.01.2017 19:38 -3,6 °C -3,6 °C 90 % 1006,3 hPa 0,0 mm 12,7 km/h (3 Bft) W-SW 257 ° 0 min 0,000 mm 0,0 UV-I 0 W/m² -5,0 °C 19,3 km/h (3 Bft)
13.01.2017 19:39 -3,6 °C -3,6 °C 90 % 1006,2 hPa 0,0 mm 13,7 km/h (3 Bft) W 280 ° 0 min 0,000 mm 0,0 UV-I 0 W/m² -5,0 °C 17,7 km/h (3 Bft)
13.01.2017 19:40 -3,6 °C -3,6 °C 90 % 1006,3 hPa 0,0 mm 11,3 km/h (2 Bft) W-SW 249 ° 0 min 0,000 mm 0,0 UV-I 0 W/m² -5,0 °C 17,7 km/h (3 Bft)
13.01.2017 19:41 -3,6 °C -3,6 °C 90 % 1006,3 hPa 0,0 mm 15,9 km/h (3 Bft) W 271 ° 0 min 0,000 mm 0,0 UV-I 0 W/m² -5,0 °C 24,1 km/h (4 Bft)
13.01.2017 19:42 -3,6 °C -3,6 °C 90 % 1006,3 hPa 0,0 mm 12,1 km/h (2 Bft) W 277 ° 0 min 0,000 mm 0,0 UV-I 0 W/m² -5,0 °C 16,1 km/h (3 Bft)
13.01.2017 19:43 -3,6 °C -3,5 °C 90 % 1006,2 hPa 0,0 mm 14,2 km/h (3 Bft) W 263 ° 0 min 0,000 mm 0,0 UV-I 0 W/m² -5,0 °C 20,9 km/h (4 Bft)
13.01.2017 19:44 -3,6 °C -3,6 °C 90 % 1006,3 hPa 0,0 mm 12,1 km/h (2 Bft) W-SW 240 ° 0 min 0,000 mm 0,0 UV-I 0 W/m² -5,0 °C 19,3 km/h (3 Bft)
13.01.2017 19:45 -3,6 °C -3,6 °C 90 % 1006,4 hPa 0,0 mm 12,3 km/h (3 Bft) W 259 ° 0 min 0,000 mm 0,0 UV-I 0 W/m² -5,0 °C 25,7 km/h (4 Bft)
13.01.2017 19:46 -3,6 °C -3,6 °C 90 % 1006,3 hPa 0,0 mm 14,3 km/h (3 Bft) SW 229 ° 0 min 0,000 mm 0,0 UV-I 0 W/m² -5,0 °C 20,9 km/h (4 Bft)
13.01.2017 19:47 -3,6 °C -3,6 °C 90 % 1006,4 hPa 0,0 mm 15,0 km/h (3 Bft) W-SW 253 ° 0 min 0,000 mm 0,0 UV-I 0 W/m² -5,0 °C 24,1 km/h (4 Bft)
13.01.2017 19:48 -3,6 °C -3,6 °C 90 % 1006,3 hPa 0,0 mm 18,8 km/h (3 Bft) W-SW 256 ° 0 min 0,000 mm 0,0 UV-I 0 W/m² -5,0 °C 25,7 km/h (4 Bft)
13.01.2017 19:49 -3,6 °C -3,6 °C 90 % 1006,3 hPa 0,0 mm 13,7 km/h (3 Bft) W-SW 241 ° 0 min 0,000 mm 0,0 UV-I 0 W/m² -5,0 °C 22,5 km/h (4 Bft)
13.01.2017 19:50 -3,6 °C -3,6 °C 90 % 1006,3 hPa 0,0 mm 12,1 km/h (2 Bft) SW 231 ° 0 min 0,000 mm 0,0 UV-I 0 W/m² -5,0 °C 17,7 km/h (3 Bft)
13.01.2017 19:51 -3,6 °C -3,5 °C 90 % 1006,3 hPa 0,0 mm 13,8 km/h (3 Bft) W-SW 253 ° 0 min 0,000 mm 0,0 UV-I 0 W/m² -5,0 °C 17,7 km/h (3 Bft)
13.01.2017 19:52 -3,6 °C -3,5 °C 90 % 1006,3 hPa 0,0 mm 14,6 km/h (3 Bft) W-SW 244 ° 0 min 0,000 mm 0,0 UV-I 0 W/m² -5,0 °C 25,7 km/h (4 Bft)
13.01.2017 19:53 -3,5 °C -3,5 °C 90 % 1006,2 hPa 0,0 mm 15,5 km/h (3 Bft) W-SW 252 ° 0 min 0,000 mm 0,0 UV-I 0 W/m² -4,9 °C 19,3 km/h (3 Bft)
13.01.2017 19:54 -3,5 °C -3,5 °C 90 % 1006,2 hPa 0,0 mm 22,0 km/h (4 Bft) W-SW 257 ° 0 min 0,000 mm 0,0 UV-I 0 W/m² -4,9 °C 27,4 km/h (4 Bft)
13.01.2017 19:55 -3,5 °C -3,5 °C 90 % 1006,2 hPa 0,0 mm 19,3 km/h (3 Bft) W 276 ° 0 min 0,000 mm 0,0 UV-I 0 W/m² -4,9 °C 30,6 km/h (5 Bft)
13.01.2017 19:56 -3,6 °C -3,5 °C 90 % 1006,2 hPa 0,0 mm 7,0 km/h (2 Bft) W-SW 248 ° 0 min 0,000 mm 0,0 UV-I 0 W/m² -5,0 °C 12,9 km/h (3 Bft)
13.01.2017 19:57 -3,5 °C -3,5 °C 90 % 1006,2 hPa 0,0 mm 17,2 km/h (3 Bft) W 268 ° 0 min 0,000 mm 0,0 UV-I 0 W/m² -4,9 °C 25,7 km/h (4 Bft)
13.01.2017 19:58 -3,5 °C -3,5 °C 90 % 1006,3 hPa 0,0 mm 14,9 km/h (3 Bft) W-SW 250 ° 0 min 0,000 mm 0,0 UV-I 0 W/m² -4,9 °C 19,3 km/h (3 Bft)
13.01.2017 19:59 -3,5 °C -3,5 °C 90 % 1006,2 hPa 0,0 mm 14,3 km/h (3 Bft) W-SW 251 ° 0 min 0,000 mm 0,0 UV-I 0 W/m² -4,9 °C 17,7 km/h (3 Bft)
13.01.2017 20:00 -3,5 °C -3,5 °C 90 % 1006,2 hPa 0,0 mm 20,8 km/h (4 Bft) W-SW 250 ° 0 min 0,000 mm 0,0 UV-I 0 W/m² -4,9 °C 29,0 km/h (5 Bft)
13.01.2017 20:01 -3,5 °C -3,4 °C 89 % 1006,3 hPa 0,0 mm 15,0 km/h (3 Bft) W-SW 242 ° 0 min 0,000 mm 0,0 UV-I 0 W/m² -5,0 °C 19,3 km/h (3 Bft)
13.01.2017 20:02 -3,5 °C -3,5 °C 90 % 1006,3 hPa 0,0 mm 13,0 km/h (3 Bft) W-SW 237 ° 0 min 0,000 mm 0,0 UV-I 0 W/m² -4,9 °C 16,1 km/h (3 Bft)
13.01.2017 20:03 -3,5 °C -3,5 °C 90 % 1006,3 hPa 0,0 mm 13,7 km/h (3 Bft) W-SW 250 ° 0 min 0,000 mm 0,0 UV-I 0 W/m² -4,9 °C 20,9 km/h (4 Bft)
13.01.2017 20:04 -3,4 °C -3,4 °C 90 % 1006,2 hPa 0,0 mm 16,5 km/h (3 Bft) W 262 ° 0 min 0,000 mm 0,0 UV-I 0 W/m² -4,8 °C 25,7 km/h (4 Bft)
13.01.2017 20:05 -3,4 °C -3,4 °C 90 % 1006,3 hPa 0,0 mm 11,4 km/h (2 Bft) W-SW 257 ° 0 min 0,000 mm 0,0 UV-I 0 W/m² -4,8 °C 17,7 km/h (3 Bft)
13.01.2017 20:06 -3,5 °C -3,4 °C 90 % 1006,2 hPa 0,0 mm 9,6 km/h (2 Bft) SW 219 ° 0 min 0,000 mm 0,0 UV-I 0 W/m² -4,9 °C 16,1 km/h (3 Bft)
13.01.2017 20:07 -3,4 °C -3,4 °C 90 % 1006,2 hPa 0,0 mm 9,4 km/h (2 Bft) SW 234 ° 0 min 0,000 mm 0,0 UV-I 0 W/m² -4,8 °C 16,1 km/h (3 Bft)
13.01.2017 20:08 -3,5 °C -3,4 °C 90 % 1006,2 hPa 0,0 mm 11,0 km/h (2 Bft) W-SW 242 ° 0 min 0,000 mm 0,0 UV-I 0 W/m² -4,9 °C 17,7 km/h (3 Bft)
13.01.2017 20:09 -3,4 °C -3,4 °C 90 % 1006,2 hPa 0,0 mm 19,8 km/h (3 Bft) W-SW 252 ° 0 min 0,000 mm 0,0 UV-I 0 W/m² -4,8 °C 27,4 km/h (4 Bft)
13.01.2017 20:10 -3,4 °C -3,4 °C 90 % 1006,2 hPa 0,0 mm 15,0 km/h (3 Bft) W 259 ° 0 min 0,000 mm 0,0 UV-I 0 W/m² -4,8 °C 19,3 km/h (3 Bft)
13.01.2017 20:11 -3,4 °C -3,4 °C 90 % 1006,2 hPa 0,0 mm 12,5 km/h (3 Bft) W 260 ° 0 min 0,000 mm 0,0 UV-I 0 W/m² -4,8 °C 17,7 km/h (3 Bft)
13.01.2017 20:12 -3,4 °C -3,4 °C 90 % 1006,3 hPa 0,0 mm 11,1 km/h (2 Bft) W 267 ° 0 min 0,000 mm 0,0 UV-I 0 W/m² -4,8 °C 16,1 km/h (3 Bft)
13.01.2017 20:13 -3,5 °C -3,4 °C 90 % 1006,3 hPa 0,0 mm 9,9 km/h (2 Bft) W-SW 238 ° 0 min 0,000 mm 0,0 UV-I 0 W/m² -4,9 °C 17,7 km/h (3 Bft)
13.01.2017 20:14 -3,4 °C -3,4 °C 90 % 1006,2 hPa 0,0 mm 12,1 km/h (2 Bft) W 275 ° 0 min 0,000 mm 0,0 UV-I 0 W/m² -4,8 °C 19,3 km/h (3 Bft)
13.01.2017 20:15 -3,4 °C -3,4 °C 90 % 1006,3 hPa 0,0 mm 13,7 km/h (3 Bft) S-SW 193 ° 0 min 0,000 mm 0,0 UV-I 0 W/m² -4,8 °C 22,5 km/h (4 Bft)
13.01.2017 20:16 -3,4 °C -3,4 °C 90 % 1006,2 hPa 0,0 mm 13,2 km/h (3 Bft) W 275 ° 0 min 0,000 mm 0,0 UV-I 0 W/m² -4,8 °C 20,9 km/h (4 Bft)
13.01.2017 20:17 -3,4 °C -3,4 °C 90 % 1006,2 hPa 0,0 mm 21,9 km/h (4 Bft) W 260 ° 0 min 0,000 mm 0,0 UV-I 0 W/m² -4,8 °C 32,2 km/h (5 Bft)
13.01.2017 20:18 -3,4 °C -3,4 °C 90 % 1006,2 hPa 0,0 mm 20,0 km/h (4 Bft) SW 234 ° 0 min 0,000 mm 0,0 UV-I 0 W/m² -4,8 °C 27,4 km/h (4 Bft)
13.01.2017 20:19 -3,4 °C -3,4 °C 90 % 1006,3 hPa 0,0 mm 11,0 km/h (2 Bft) W-SW 250 ° 0 min 0,000 mm 0,0 UV-I 0 W/m² -4,8 °C 14,5 km/h (3 Bft)
13.01.2017 20:20 -3,4 °C -3,4 °C 90 % 1006,3 hPa 0,0 mm 11,6 km/h (2 Bft) W-SW 244 ° 0 min 0,000 mm 0,0 UV-I 0 W/m² -4,8 °C 19,3 km/h (3 Bft)
13.01.2017 20:21 -3,4 °C -3,4 °C 90 % 1006,4 hPa 0,0 mm 16,5 km/h (3 Bft) W 272 ° 0 min 0,000 mm 0,0 UV-I 0 W/m² -4,8 °C 24,1 km/h (4 Bft)
13.01.2017 20:22 -3,4 °C -3,4 °C 90 % 1006,3 hPa 0,0 mm 12,6 km/h (3 Bft) W-SW 241 ° 0 min 0,000 mm 0,0 UV-I 0 W/m² -4,8 °C 27,4 km/h (4 Bft)
13.01.2017 20:23 -3,5 °C -3,4 °C 90 % 1006,4 hPa 0,0 mm 14,8 km/h (3 Bft) W-SW 257 ° 0 min 0,000 mm 0,0 UV-I 0 W/m² -4,9 °C 25,7 km/h (4 Bft)
13.01.2017 20:24 -3,5 °C -3,5 °C 90 % 1006,4 hPa 0,0 mm 19,6 km/h (3 Bft) W 260 ° 0 min 0,000 mm 0,0 UV-I 0 W/m² -4,9 °C 27,4 km/h (4 Bft)
13.01.2017 20:25 -3,5 °C -3,4 °C 91 % 1006,4 hPa 0,0 mm 16,3 km/h (3 Bft) W-SW 248 ° 0 min 0,000 mm 0,0 UV-I 0 W/m² -4,8 °C 22,5 km/h (4 Bft)
13.01.2017 20:26 -3,5 °C -3,5 °C 91 % 1006,4 hPa 0,0 mm 12,7 km/h (3 Bft) W 280 ° 0 min 0,000 mm 0,0 UV-I 0 W/m² -4,8 °C 17,7 km/h (3 Bft)
13.01.2017 20:27 -3,5 °C -3,5 °C 90 % 1006,4 hPa 0,0 mm 12,3 km/h (3 Bft) W-SW 251 ° 0 min 0,000 mm 0,0 UV-I 0 W/m² -4,9 °C 16,1 km/h (3 Bft)
13.01.2017 20:28 -3,5 °C -3,5 °C 91 % 1006,4 hPa 0,0 mm 12,4 km/h (3 Bft) W-SW 249 ° 0 min 0,000 mm 0,0 UV-I 0 W/m² -4,8 °C 22,5 km/h (4 Bft)
13.01.2017 20:29 -3,5 °C -3,5 °C 91 % 1006,4 hPa 0,0 mm 15,8 km/h (3 Bft) W 268 ° 0 min 0,000 mm 0,0 UV-I 0 W/m² -4,8 °C 19,3 km/h (3 Bft)
13.01.2017 20:30 -3,5 °C -3,5 °C 91 % 1006,4 hPa 0,0 mm 11,3 km/h (2 Bft) W 267 ° 0 min 0,000 mm 0,0 UV-I 0 W/m² -4,8 °C 19,3 km/h (3 Bft)
13.01.2017 20:31 -3,5 °C -3,5 °C 91 % 1006,5 hPa 0,0 mm 13,2 km/h (3 Bft) W-SW 254 ° 0 min 0,000 mm 0,0 UV-I 0 W/m² -4,8 °C 24,1 km/h (4 Bft)
13.01.2017 20:32 -3,5 °C -3,5 °C 91 % 1006,4 hPa 0,0 mm 19,0 km/h (3 Bft) SW 234 ° 0 min 0,000 mm 0,0 UV-I 0 W/m² -4,8 °C 24,1 km/h (4 Bft)
13.01.2017 20:33 -3,5 °C -3,5 °C 91 % 1006,4 hPa 0,0 mm 10,5 km/h (2 Bft) W 267 ° 0 min 0,000 mm 0,0 UV-I 0 W/m² -4,8 °C 12,9 km/h (3 Bft)
13.01.2017 20:34 -3,6 °C -3,5 °C 91 % 1006,5 hPa 0,0 mm 10,3 km/h (2 Bft) W 265 ° 0 min 0,000 mm 0,0 UV-I 0 W/m² -4,8 °C 20,9 km/h (4 Bft)
13.01.2017 20:35 -3,5 °C -3,5 °C 91 % 1006,5 hPa 0,0 mm 14,6 km/h (3 Bft) SW 232 ° 0 min 0,000 mm 0,0 UV-I 0 W/m² -4,8 °C 19,3 km/h (3 Bft)
13.01.2017 20:36 -3,5 °C -3,5 °C 91 % 1006,4 hPa 0,0 mm 13,4 km/h (3 Bft) W-SW 237 ° 0 min 0,000 mm 0,0 UV-I 0 W/m² -4,8 °C 17,7 km/h (3 Bft)
13.01.2017 20:37 -3,5 °C -3,5 °C 91 % 1006,5 hPa 0,0 mm 17,9 km/h (3 Bft) W 259 ° 0 min 0,000 mm 0,0 UV-I 0 W/m² -4,8 °C 25,7 km/h (4 Bft)
13.01.2017 20:38 -3,5 °C -3,5 °C 91 % 1006,5 hPa 0,0 mm 12,9 km/h (3 Bft) SW 223 ° 0 min 0,000 mm 0,0 UV-I 0 W/m² -4,8 °C 17,7 km/h (3 Bft)
13.01.2017 20:39 -3,6 °C -3,5 °C 91 % 1006,5 hPa 0,0 mm 18,8 km/h (3 Bft) W-SW 252 ° 0 min 0,000 mm 0,0 UV-I 0 W/m² -4,8 °C 29,0 km/h (5 Bft)
13.01.2017 20:40 -3,5 °C -3,5 °C 91 % 1006,5 hPa 0,0 mm 13,8 km/h (3 Bft) W 259 ° 0 min 0,000 mm 0,0 UV-I 0 W/m² -4,8 °C 24,1 km/h (4 Bft)
13.01.2017 20:41 -3,5 °C -3,5 °C 91 % 1006,5 hPa 0,0 mm 9,5 km/h (2 Bft) W 261 ° 0 min 0,000 mm 0,0 UV-I 0 W/m² -4,8 °C 12,9 km/h (3 Bft)
13.01.2017 20:42 -3,6 °C -3,5 °C 91 % 1006,5 hPa 0,0 mm 8,0 km/h (2 Bft) W 276 ° 0 min 0,000 mm 0,0 UV-I 0 W/m² -4,8 °C 16,1 km/h (3 Bft)
13.01.2017 20:43 -3,5 °C -3,5 °C 91 % 1006,5 hPa 0,0 mm 19,0 km/h (3 Bft) SW 236 ° 0 min 0,000 mm 0,0 UV-I 0 W/m² -4,8 °C 24,1 km/h (4 Bft)
13.01.2017 20:44 -3,6 °C -3,5 °C 90 % 1006,5 hPa 0,0 mm 19,2 km/h (3 Bft) W 262 ° 0 min 0,000 mm 0,0 UV-I 0 W/m² -5,0 °C 27,4 km/h (4 Bft)
13.01.2017 20:45 -3,6 °C -3,5 °C 90 % 1006,4 hPa 0,0 mm 16,3 km/h (3 Bft) W-SW 255 ° 0 min 0,000 mm 0,0 UV-I 0 W/m² -5,0 °C 19,3 km/h (3 Bft)
13.01.2017 20:46 -3,6 °C -3,6 °C 90 % 1006,5 hPa 0,0 mm 15,7 km/h (3 Bft) W 261 ° 0 min 0,000 mm 0,0 UV-I 0 W/m² -5,0 °C 20,9 km/h (4 Bft)
13.01.2017 20:47 -3,5 °C -3,5 °C 90 % 1006,5 hPa 0,0 mm 14,5 km/h (3 Bft) W-SW 251 ° 0 min 0,000 mm 0,0 UV-I 0 W/m² -4,9 °C 24,1 km/h (4 Bft)
13.01.2017 20:48 -3,5 °C -3,5 °C 90 % 1006,5 hPa 0,0 mm 13,3 km/h (3 Bft) W 266 ° 0 min 0,000 mm 0,0 UV-I 0 W/m² -4,9 °C 17,7 km/h (3 Bft)
13.01.2017 20:49 -3,6 °C -3,5 °C 90 % 1006,4 hPa 0,0 mm 16,4 km/h (3 Bft) W-SW 258 ° 0 min 0,000 mm 0,0 UV-I 0 W/m² -5,0 °C 17,7 km/h (3 Bft)
13.01.2017 20:50 -3,6 °C -3,5 °C 90 % 1006,5 hPa 0,0 mm 16,0 km/h (3 Bft) W 265 ° 0 min 0,000 mm 0,0 UV-I 0 W/m² -5,0 °C 22,5 km/h (4 Bft)
13.01.2017 20:51 -3,5 °C -3,5 °C 90 % 1006,5 hPa 0,0 mm 16,9 km/h (3 Bft) W-NW 296 ° 0 min 0,000 mm 0,0 UV-I 0 W/m² -4,9 °C 22,5 km/h (4 Bft)
13.01.2017 20:52 -3,5 °C -3,5 °C 90 % 1006,5 hPa 0,0 mm 18,9 km/h (3 Bft) W 264 ° 0 min 0,000 mm 0,0 UV-I 0 W/m² -4,9 °C 27,4 km/h (4 Bft)
13.01.2017 20:53 -3,5 °C -3,5 °C 90 % 1006,5 hPa 0,0 mm 18,2 km/h (3 Bft) W-SW 254 ° 0 min 0,000 mm 0,0 UV-I 0 W/m² -4,9 °C 27,4 km/h (4 Bft)
13.01.2017 20:54 -3,5 °C -3,4 °C 90 % 1006,5 hPa 0,0 mm 11,6 km/h (2 Bft) W 275 ° 0 min 0,000 mm 0,0 UV-I 0 W/m² -4,9 °C 19,3 km/h (3 Bft)
13.01.2017 20:55 -3,5 °C -3,4 °C 89 % 1006,5 hPa 0,0 mm 8,9 km/h (2 Bft) W-NW 288 ° 0 min 0,000 mm 0,0 UV-I 0 W/m² -5,0 °C 12,9 km/h (3 Bft)
13.01.2017 20:56 -3,4 °C -3,4 °C 89 % 1006,6 hPa 0,0 mm 9,7 km/h (2 Bft) W 276 ° 0 min 0,000 mm 0,0 UV-I 0 W/m² -4,9 °C 14,5 km/h (3 Bft)
13.01.2017 20:57 -3,4 °C -3,4 °C 90 % 1006,6 hPa 0,0 mm 11,8 km/h (2 Bft) W-SW 257 ° 0 min 0,000 mm 0,0 UV-I 0 W/m² -4,8 °C 19,3 km/h (3 Bft)
13.01.2017 20:58 -3,4 °C -3,4 °C 89 % 1006,6 hPa 0,0 mm 11,5 km/h (2 Bft) W 265 ° 0 min 0,000 mm 0,0 UV-I 0 W/m² -4,9 °C 17,7 km/h (3 Bft)
13.01.2017 20:59 -3,4 °C -3,4 °C 89 % 1006,6 hPa 0,0 mm 14,5 km/h (3 Bft) W 261 ° 0 min 0,000 mm 0,0 UV-I 0 W/m² -4,9 °C 17,7 km/h (3 Bft)
13.01.2017 21:00 -3,4 °C -3,4 °C 89 % 1006,6 hPa 0,0 mm 16,3 km/h (3 Bft) W 267 ° 0 min 0,000 mm 0,0 UV-I 0 W/m² -4,9 °C 22,5 km/h (4 Bft)
13.01.2017 21:01 -3,4 °C -3,4 °C 89 % 1006,6 hPa 0,0 mm 14,6 km/h (3 Bft) W-SW 248 ° 0 min 0,000 mm 0,0 UV-I 0 W/m² -4,9 °C 20,9 km/h (4 Bft)
13.01.2017 21:02 -3,4 °C -3,4 °C 89 % 1006,6 hPa 0,0 mm 11,5 km/h (2 Bft) W-SW 253 ° 0 min 0,000 mm 0,0 UV-I 0 W/m² -4,9 °C 16,1 km/h (3 Bft)
13.01.2017 21:03 -3,4 °C -3,4 °C 89 % 1006,6 hPa 0,0 mm 11,5 km/h (2 Bft) W-SW 258 ° 0 min 0,000 mm 0,0 UV-I 0 W/m² -4,9 °C 16,1 km/h (3 Bft)
13.01.2017 21:04 -3,4 °C -3,4 °C 89 % 1006,6 hPa 0,0 mm 8,3 km/h (2 Bft) W 261 ° 0 min 0,000 mm 0,0 UV-I 0 W/m² -4,9 °C 12,9 km/h (3 Bft)
13.01.2017 21:05 -3,4 °C -3,4 °C 89 % 1006,6 hPa 0,0 mm 15,4 km/h (3 Bft) W-SW 254 ° 0 min 0,000 mm 0,0 UV-I 0 W/m² -4,9 °C 20,9 km/h (4 Bft)
13.01.2017 21:06 -3,4 °C -3,4 °C 89 % 1006,6 hPa 0,0 mm 13,3 km/h (3 Bft) SW 221 ° 0 min 0,000 mm 0,0 UV-I 0 W/m² -4,9 °C 17,7 km/h (3 Bft)
13.01.2017 21:07 -3,4 °C -3,4 °C 89 % 1006,6 hPa 0,0 mm 14,2 km/h (3 Bft) SW 216 ° 0 min 0,000 mm 0,0 UV-I 0 W/m² -4,9 °C 24,1 km/h (4 Bft)
13.01.2017 21:08 -3,4 °C -3,4 °C 89 % 1006,7 hPa 0,0 mm 6,9 km/h (2 Bft) W-NW 285 ° 0 min 0,000 mm 0,0 UV-I 0 W/m² -4,9 °C 9,7 km/h (2 Bft)
13.01.2017 21:09 -3,4 °C -3,4 °C 88 % 1006,7 hPa 0,0 mm 12,9 km/h (3 Bft) W-SW 258 ° 0 min 0,000 mm 0,0 UV-I 0 W/m² -5,1 °C 22,5 km/h (4 Bft)
13.01.2017 21:10 -3,4 °C -3,4 °C 88 % 1006,8 hPa 0,0 mm 11,6 km/h (2 Bft) W-SW 252 ° 0 min 0,000 mm 0,0 UV-I 0 W/m² -5,1 °C 17,7 km/h (3 Bft)
13.01.2017 21:11 -3,4 °C -3,4 °C 88 % 1006,7 hPa 0,0 mm 13,1 km/h (3 Bft) W 281 ° 0 min 0,000 mm 0,0 UV-I 0 W/m² -5,1 °C 17,7 km/h (3 Bft)
13.01.2017 21:12 -3,4 °C -3,4 °C 88 % 1006,7 hPa 0,0 mm 12,3 km/h (3 Bft) W-SW 256 ° 0 min 0,000 mm 0,0 UV-I 0 W/m² -5,1 °C 20,9 km/h (4 Bft)
13.01.2017 21:13 -3,4 °C -3,4 °C 88 % 1006,7 hPa 0,0 mm 11,7 km/h (2 Bft) W-SW 240 ° 0 min 0,000 mm 0,0 UV-I 0 W/m² -5,1 °C 17,7 km/h (3 Bft)
13.01.2017 21:14 -3,4 °C -3,3 °C 88 % 1006,7 hPa 0,0 mm 9,6 km/h (2 Bft) W 264 ° 0 min 0,000 mm 0,0 UV-I 0 W/m² -5,1 °C 12,9 km/h (3 Bft)
13.01.2017 21:15 -3,4 °C -3,4 °C 88 % 1006,7 hPa 0,0 mm 11,1 km/h (2 Bft) W-SW 250 ° 0 min 0,000 mm 0,0 UV-I 0 W/m² -5,1 °C 17,7 km/h (3 Bft)
13.01.2017 21:16 -3,4 °C -3,3 °C 88 % 1006,8 hPa 0,0 mm 8,5 km/h (2 Bft) W-NW 286 ° 0 min 0,000 mm 0,0 UV-I 0 W/m² -5,1 °C 12,9 km/h (3 Bft)
13.01.2017 21:17 -3,3 °C -3,3 °C 87 % 1006,8 hPa 0,0 mm 9,4 km/h (2 Bft) W 259 ° 0 min 0,000 mm 0,0 UV-I 0 W/m² -5,1 °C 16,1 km/h (3 Bft)
13.01.2017 21:18 -3,4 °C -3,3 °C 87 % 1006,8 hPa 0,0 mm 15,0 km/h (3 Bft) W 279 ° 0 min 0,000 mm 0,0 UV-I 0 W/m² -5,2 °C 19,3 km/h (3 Bft)
13.01.2017 21:19 -3,4 °C -3,3 °C 87 % 1006,8 hPa 0,0 mm 14,0 km/h (3 Bft) W 275 ° 0 min 0,000 mm 0,0 UV-I 0 W/m² -5,2 °C 19,3 km/h (3 Bft)
13.01.2017 21:20 -3,4 °C -3,3 °C 87 % 1006,8 hPa 0,0 mm 11,2 km/h (2 Bft) W 265 ° 0 min 0,000 mm 0,0 UV-I 0 W/m² -5,2 °C 20,9 km/h (4 Bft)
13.01.2017 21:21 -3,3 °C -3,3 °C 87 % 1006,8 hPa 0,0 mm 17,2 km/h (3 Bft) W-SW 251 ° 0 min 0,000 mm 0,0 UV-I 0 W/m² -5,1 °C 22,5 km/h (4 Bft)
13.01.2017 21:22 -3,3 °C -3,3 °C 87 % 1006,7 hPa 0,0 mm 12,6 km/h (3 Bft) W-SW 258 ° 0 min 0,000 mm 0,0 UV-I 0 W/m² -5,1 °C 17,7 km/h (3 Bft)
13.01.2017 21:23 -3,3 °C -3,3 °C 87 % 1006,9 hPa 0,0 mm 13,5 km/h (3 Bft) W-SW 250 ° 0 min 0,000 mm 0,0 UV-I 0 W/m² -5,1 °C 20,9 km/h (4 Bft)
13.01.2017 21:24 -3,4 °C -3,3 °C 87 % 1006,9 hPa 0,0 mm 9,5 km/h (2 Bft) W-NW 284 ° 0 min 0,000 mm 0,0 UV-I 0 W/m² -5,2 °C 16,1 km/h (3 Bft)
13.01.2017 21:25 -3,3 °C -3,3 °C 87 % 1006,9 hPa 0,0 mm 5,5 km/h (1 Bft) W 269 ° 0 min 0,000 mm 0,0 UV-I 0 W/m² -5,1 °C 11,3 km/h (2 Bft)
13.01.2017 21:26 -3,3 °C -3,3 °C 87 % 1006,9 hPa 0,0 mm 8,8 km/h (2 Bft) W-NW 296 ° 0 min 0,000 mm 0,0 UV-I 0 W/m² -5,1 °C 14,5 km/h (3 Bft)
13.01.2017 21:27 -3,3 °C -3,3 °C 87 % 1006,9 hPa 0,0 mm 9,2 km/h (2 Bft) W 262 ° 0 min 0,000 mm 0,0 UV-I 0 W/m² -5,1 °C 14,5 km/h (3 Bft)
13.01.2017 21:28 -3,3 °C -3,3 °C 87 % 1006,9 hPa 0,0 mm 8,1 km/h (2 Bft) W-SW 255 ° 0 min 0,000 mm 0,0 UV-I 0 W/m² -5,1 °C 14,5 km/h (3 Bft)
13.01.2017 21:29 -3,3 °C -3,3 °C 87 % 1006,9 hPa 0,0 mm 8,6 km/h (2 Bft) W 268 ° 0 min 0,000 mm 0,0 UV-I 0 W/m² -5,1 °C 12,9 km/h (3 Bft)
13.01.2017 21:30 -3,3 °C -3,3 °C 87 % 1007,0 hPa 0,0 mm 9,4 km/h (2 Bft) W 267 ° 0 min 0,000 mm 0,0 UV-I 0 W/m² -5,1 °C 11,3 km/h (2 Bft)
13.01.2017 21:31 -3,3 °C -3,3 °C 87 % 1007,0 hPa 0,0 mm 9,7 km/h (2 Bft) W-NW 284 ° 0 min 0,000 mm 0,0 UV-I 0 W/m² -5,1 °C 14,5 km/h (3 Bft)
13.01.2017 21:32 -3,3 °C -3,3 °C 87 % 1007,0 hPa 0,0 mm 9,1 km/h (2 Bft) W-SW 254 ° 0 min 0,000 mm 0,0 UV-I 0 W/m² -5,1 °C 14,5 km/h (3 Bft)
13.01.2017 21:33 -3,3 °C -3,3 °C 87 % 1007,0 hPa 0,0 mm 9,4 km/h (2 Bft) W 259 ° 0 min 0,000 mm 0,0 UV-I 0 W/m² -5,1 °C 16,1 km/h (3 Bft)
13.01.2017 21:34 -3,3 °C -3,3 °C 87 % 1007,0 hPa 0,0 mm 8,4 km/h (2 Bft) W-SW 254 ° 0 min 0,000 mm 0,0 UV-I 0 W/m² -5,1 °C 14,5 km/h (3 Bft)
13.01.2017 21:35 -3,3 °C -3,3 °C 87 % 1006,9 hPa 0,0 mm 7,5 km/h (2 Bft) W 269 ° 0 min 0,000 mm 0,0 UV-I 0 W/m² -5,1 °C 14,5 km/h (3 Bft)
13.01.2017 21:36 -3,3 °C -3,3 °C 87 % 1007,0 hPa 0,0 mm 9,8 km/h (2 Bft) W-SW 243 ° 0 min 0,000 mm 0,0 UV-I 0 W/m² -5,1 °C 14,5 km/h (3 Bft)
13.01.2017 21:37 -3,3 °C -3,3 °C 87 % 1007,0 hPa 0,0 mm 7,3 km/h (2 Bft) W-SW 250 ° 0 min 0,000 mm 0,0 UV-I 0 W/m² -5,1 °C 12,9 km/h (3 Bft)
13.01.2017 21:38 -3,3 °C -3,3 °C 87 % 1007,0 hPa 0,0 mm 10,9 km/h (2 Bft) NW 315 ° 0 min 0,000 mm 0,0 UV-I 0 W/m² -5,1 °C 14,5 km/h (3 Bft)
13.01.2017 21:39 -3,3 °C -3,3 °C 87 % 1006,9 hPa 0,0 mm 14,9 km/h (3 Bft) W-SW 258 ° 0 min 0,000 mm 0,0 UV-I 0 W/m² -5,1 °C 22,5 km/h (4 Bft)
13.01.2017 21:40 -3,3 °C -3,3 °C 87 % 1007,1 hPa 0,0 mm 11,2 km/h (2 Bft) W-NW 285 ° 0 min 0,000 mm 0,0 UV-I 0 W/m² -5,1 °C 17,7 km/h (3 Bft)
13.01.2017 21:41 -3,3 °C -3,3 °C 86 % 1007,1 hPa 0,0 mm 9,7 km/h (2 Bft) SW 236 ° 0 min 0,000 mm 0,0 UV-I 0 W/m² -5,3 °C 16,1 km/h (3 Bft)
13.01.2017 21:42 -3,3 °C -3,3 °C 86 % 1007,1 hPa 0,0 mm 11,5 km/h (2 Bft) W 271 ° 0 min 0,000 mm 0,0 UV-I 0 W/m² -5,3 °C 16,1 km/h (3 Bft)
13.01.2017 21:43 -3,3 °C -3,3 °C 86 % 1007,1 hPa 0,0 mm 17,4 km/h (3 Bft) W-SW 258 ° 0 min 0,000 mm 0,0 UV-I 0 W/m² -5,3 °C 25,7 km/h (4 Bft)
13.01.2017 21:44 -3,3 °C -3,3 °C 86 % 1007,2 hPa 0,0 mm 15,0 km/h (3 Bft) W 263 ° 0 min 0,000 mm 0,0 UV-I 0 W/m² -5,3 °C 22,5 km/h (4 Bft)
13.01.2017 21:45 -3,2 °C -3,2 °C 86 % 1007,1 hPa 0,0 mm 15,8 km/h (3 Bft) W-SW 253 ° 0 min 0,000 mm 0,0 UV-I 0 W/m² -5,2 °C 24,1 km/h (4 Bft)
13.01.2017 21:46 -3,2 °C -3,2 °C 86 % 1007,2 hPa 0,0 mm 10,4 km/h (2 Bft) W-SW 253 ° 0 min 0,000 mm 0,0 UV-I 0 W/m² -5,2 °C 19,3 km/h (3 Bft)
13.01.2017 21:47 -3,2 °C -3,2 °C 85 % 1007,2 hPa 0,0 mm 17,1 km/h (3 Bft) W-SW 240 ° 0 min 0,000 mm 0,0 UV-I 0 W/m² -5,4 °C 22,5 km/h (4 Bft)
13.01.2017 21:48 -3,2 °C -3,2 °C 85 % 1007,2 hPa 0,0 mm 17,2 km/h (3 Bft) W 271 ° 0 min 0,000 mm 0,0 UV-I 0 W/m² -5,4 °C 22,5 km/h (4 Bft)
13.01.2017 21:49 -3,2 °C -3,2 °C 85 % 1007,2 hPa 0,0 mm 14,8 km/h (3 Bft) W 265 ° 0 min 0,000 mm 0,0 UV-I 0 W/m² -5,4 °C 24,1 km/h (4 Bft)
13.01.2017 21:50 -3,2 °C -3,2 °C 85 % 1007,2 hPa 0,0 mm 12,9 km/h (3 Bft) SW 226 ° 0 min 0,000 mm 0,0 UV-I 0 W/m² -5,4 °C 17,7 km/h (3 Bft)
13.01.2017 21:51 -3,2 °C -3,2 °C 85 % 1007,1 hPa 0,0 mm 15,9 km/h (3 Bft) W-SW 252 ° 0 min 0,000 mm 0,0 UV-I 0 W/m² -5,4 °C 20,9 km/h (4 Bft)
13.01.2017 21:52 -3,2 °C -3,2 °C 85 % 1007,2 hPa 0,0 mm 10,7 km/h (2 Bft) W 279 ° 0 min 0,000 mm 0,0 UV-I 0 W/m² -5,4 °C 16,1 km/h (3 Bft)
13.01.2017 21:53 -3,2 °C -3,2 °C 85 % 1007,1 hPa 0,0 mm 7,7 km/h (2 Bft) W-SW 257 ° 0 min 0,000 mm 0,0 UV-I 0 W/m² -5,4 °C 12,9 km/h (3 Bft)
13.01.2017 21:54 -3,2 °C -3,2 °C 85 % 1007,3 hPa 0,0 mm 15,3 km/h (3 Bft) W-SW 250 ° 0 min 0,000 mm 0,0 UV-I 0 W/m² -5,4 °C 22,5 km/h (4 Bft)
13.01.2017 21:55 -3,2 °C -3,2 °C 85 % 1007,2 hPa 0,0 mm 13,6 km/h (3 Bft) SW 236 ° 0 min 0,000 mm 0,0 UV-I 0 W/m² -5,4 °C 22,5 km/h (4 Bft)
13.01.2017 21:56 -3,2 °C -3,2 °C 84 % 1007,1 hPa 0,0 mm 13,3 km/h (3 Bft) W-SW 257 ° 0 min 0,000 mm 0,0 UV-I 0 W/m² -5,5 °C 22,5 km/h (4 Bft)
13.01.2017 21:57 -3,2 °C -3,2 °C 84 % 1007,1 hPa 0,0 mm 11,1 km/h (2 Bft) W 260 ° 0 min 0,000 mm 0,0 UV-I 0 W/m² -5,5 °C 16,1 km/h (3 Bft)
13.01.2017 21:58 -3,2 °C -3,2 °C 84 % 1007,1 hPa 0,0 mm 14,1 km/h (3 Bft) W-SW 257 ° 0 min 0,000 mm 0,0 UV-I 0 W/m² -5,5 °C 16,1 km/h (3 Bft)
13.01.2017 21:59 -3,2 °C -3,2 °C 84 % 1007,2 hPa 0,0 mm 7,4 km/h (2 Bft) W 279 ° 0 min 0,000 mm 0,0 UV-I 0 W/m² -5,5 °C 12,9 km/h (3 Bft)
13.01.2017 22:00 -3,2 °C -3,2 °C 84 % 1007,1 hPa 0,0 mm 5,7 km/h (1 Bft) W-SW 248 ° 0 min 0,000 mm 0,0 UV-I 0 W/m² -5,5 °C 9,7 km/h (2 Bft)
13.01.2017 22:01 -3,2 °C -3,2 °C 85 % 1007,2 hPa 0,0 mm 4,5 km/h (1 Bft) SW 236 ° 0 min 0,000 mm 0,0 UV-I 0 W/m² -5,4 °C 6,4 km/h (2 Bft)
13.01.2017 22:02 -3,2 °C -3,2 °C 84 % 1007,2 hPa 0,0 mm 12,6 km/h (3 Bft) W 271 ° 0 min 0,000 mm 0,0 UV-I 0 W/m² -5,5 °C 17,7 km/h (3 Bft)
13.01.2017 22:03 -3,2 °C -3,2 °C 84 % 1007,2 hPa 0,0 mm 13,4 km/h (3 Bft) W-SW 244 ° 0 min 0,000 mm 0,0 UV-I 0 W/m² -5,5 °C 19,3 km/h (3 Bft)
13.01.2017 22:04 -3,2 °C -3,2 °C 84 % 1007,2 hPa 0,0 mm 12,9 km/h (3 Bft) S-SW 211 ° 0 min 0,000 mm 0,0 UV-I 0 W/m² -5,5 °C 20,9 km/h (4 Bft)
13.01.2017 22:05 -3,2 °C -3,2 °C 84 % 1007,2 hPa 0,0 mm 11,8 km/h (2 Bft) SW 235 ° 0 min 0,000 mm 0,0 UV-I 0 W/m² -5,5 °C 20,9 km/h (4 Bft)
13.01.2017 22:06 -3,2 °C -3,2 °C 84 % 1007,2 hPa 0,0 mm 14,0 km/h (3 Bft) W 267 ° 0 min 0,000 mm 0,0 UV-I 0 W/m² -5,5 °C 22,5 km/h (4 Bft)
13.01.2017 22:07 -3,2 °C -3,2 °C 83 % 1007,2 hPa 0,0 mm 13,4 km/h (3 Bft) W-SW 257 ° 0 min 0,000 mm 0,0 UV-I 0 W/m² -5,7 °C 19,3 km/h (3 Bft)
13.01.2017 22:08 -3,2 °C -3,2 °C 83 % 1007,2 hPa 0,0 mm 13,4 km/h (3 Bft) W-SW 246 ° 0 min 0,000 mm 0,0 UV-I 0 W/m² -5,7 °C 16,1 km/h (3 Bft)
13.01.2017 22:09 -3,2 °C -3,2 °C 84 % 1007,3 hPa 0,0 mm 14,7 km/h (3 Bft) W 261 ° 0 min 0,000 mm 0,0 UV-I 0 W/m² -5,5 °C 20,9 km/h (4 Bft)
13.01.2017 22:10 -3,2 °C -3,2 °C 84 % 1007,3 hPa 0,0 mm 10,3 km/h (2 Bft) SW 235 ° 0 min 0,000 mm 0,0 UV-I 0 W/m² -5,5 °C 12,9 km/h (3 Bft)
13.01.2017 22:11 -3,2 °C -3,2 °C 84 % 1007,3 hPa 0,0 mm 7,1 km/h (2 Bft) W-SW 253 ° 0 min 0,000 mm 0,0 UV-I 0 W/m² -5,5 °C 11,3 km/h (2 Bft)
13.01.2017 22:12 -3,2 °C -3,2 °C 83 % 1007,2 hPa 0,0 mm 13,7 km/h (3 Bft) W-SW 245 ° 0 min 0,000 mm 0,0 UV-I 0 W/m² -5,7 °C 20,9 km/h (4 Bft)
13.01.2017 22:13 -3,2 °C -3,2 °C 83 % 1007,2 hPa 0,0 mm 15,2 km/h (3 Bft) W-SW 253 ° 0 min 0,000 mm 0,0 UV-I 0 W/m² -5,7 °C 19,3 km/h (3 Bft)
13.01.2017 22:14 -3,2 °C -3,2 °C 83 % 1007,2 hPa 0,0 mm 20,8 km/h (4 Bft) W-NW 282 ° 0 min 0,000 mm 0,0 UV-I 0 W/m² -5,7 °C 29,0 km/h (5 Bft)
13.01.2017 22:15 -3,2 °C -3,2 °C 83 % 1007,2 hPa 0,0 mm 19,0 km/h (3 Bft) W 265 ° 0 min 0,000 mm 0,0 UV-I 0 W/m² -5,7 °C 24,1 km/h (4 Bft)
13.01.2017 22:16 -3,2 °C -3,2 °C 83 % 1007,2 hPa 0,0 mm 14,2 km/h (3 Bft) W-SW 257 ° 0 min 0,000 mm 0,0 UV-I 0 W/m² -5,7 °C 17,7 km/h (3 Bft)
13.01.2017 22:17 -3,2 °C -3,2 °C 83 % 1007,1 hPa 0,0 mm 15,3 km/h (3 Bft) W-SW 258 ° 0 min 0,000 mm 0,0 UV-I 0 W/m² -5,7 °C 20,9 km/h (4 Bft)
13.01.2017 22:18 -3,1 °C -3,1 °C 82 % 1007,1 hPa 0,0 mm 16,0 km/h (3 Bft) W-SW 248 ° 0 min 0,000 mm 0,0 UV-I 0 W/m² -5,7 °C 22,5 km/h (4 Bft)
13.01.2017 22:19 -3,2 °C -3,1 °C 82 % 1007,1 hPa 0,0 mm 16,8 km/h (3 Bft) W 270 ° 0 min 0,000 mm 0,0 UV-I 0 W/m² -5,8 °C 20,9 km/h (4 Bft)
13.01.2017 22:20 -3,2 °C -3,2 °C 82 % 1007,1 hPa 0,0 mm 11,6 km/h (2 Bft) W 263 ° 0 min 0,000 mm 0,0 UV-I 0 W/m² -5,8 °C 16,1 km/h (3 Bft)
13.01.2017 22:21 -3,2 °C -3,1 °C 83 % 1007,1 hPa 0,0 mm 9,1 km/h (2 Bft) W 276 ° 0 min 0,000 mm 0,0 UV-I 0 W/m² -5,7 °C 14,5 km/h (3 Bft)
13.01.2017 22:22 -3,2 °C -3,2 °C 82 % 1007,1 hPa 0,0 mm 10,1 km/h (2 Bft) W 279 ° 0 min 0,000 mm 0,0 UV-I 0 W/m² -5,8 °C 16,1 km/h (3 Bft)
13.01.2017 22:23 -3,2 °C -3,2 °C 82 % 1007,1 hPa 0,0 mm 16,5 km/h (3 Bft) W-SW 252 ° 0 min 0,000 mm 0,0 UV-I 0 W/m² -5,8 °C 22,5 km/h (4 Bft)
13.01.2017 22:24 -3,2 °C -3,2 °C 82 % 1007,1 hPa 0,0 mm 8,8 km/h (2 Bft) S-SW 205 ° 0 min 0,000 mm 0,0 UV-I 0 W/m² -5,8 °C 12,9 km/h (3 Bft)
13.01.2017 22:25 -3,2 °C -3,2 °C 82 % 1007,1 hPa 0,0 mm 12,1 km/h (2 Bft) W-SW 248 ° 0 min 0,000 mm 0,0 UV-I 0 W/m² -5,8 °C 17,7 km/h (3 Bft)
13.01.2017 22:26 -3,2 °C -3,2 °C 82 % 1007,1 hPa 0,0 mm 16,7 km/h (3 Bft) W-SW 250 ° 0 min 0,000 mm 0,0 UV-I 0 W/m² -5,8 °C 25,7 km/h (4 Bft)
13.01.2017 22:27 -3,2 °C -3,2 °C 82 % 1007,1 hPa 0,0 mm 14,3 km/h (3 Bft) W-SW 252 ° 0 min 0,000 mm 0,0 UV-I 0 W/m² -5,8 °C 22,5 km/h (4 Bft)
13.01.2017 22:28 -3,2 °C -3,2 °C 82 % 1007,1 hPa 0,0 mm 15,0 km/h (3 Bft) W-SW 238 ° 0 min 0,000 mm 0,0 UV-I 0 W/m² -5,8 °C 19,3 km/h (3 Bft)
13.01.2017 22:29 -3,2 °C -3,2 °C 82 % 1007,1 hPa 0,0 mm 10,3 km/h (2 Bft) W-SW 239 ° 0 min 0,000 mm 0,0 UV-I 0 W/m² -5,8 °C 16,1 km/h (3 Bft)
13.01.2017 22:30 -3,2 °C -3,2 °C 82 % 1007,1 hPa 0,0 mm 12,5 km/h (3 Bft) W-SW 237 ° 0 min 0,000 mm 0,0 UV-I 0 W/m² -5,8 °C 17,7 km/h (3 Bft)
13.01.2017 22:31 -3,2 °C -3,2 °C 82 % 1007,1 hPa 0,0 mm 12,7 km/h (3 Bft) W-SW 254 ° 0 min 0,000 mm 0,0 UV-I 0 W/m² -5,8 °C 17,7 km/h (3 Bft)
13.01.2017 22:32 -3,2 °C -3,2 °C 82 % 1007,0 hPa 0,0 mm 11,7 km/h (2 Bft) W-SW 254 ° 0 min 0,000 mm 0,0 UV-I 0 W/m² -5,8 °C 17,7 km/h (3 Bft)
13.01.2017 22:33 -3,2 °C -3,2 °C 81 % 1007,1 hPa 0,0 mm 14,3 km/h (3 Bft) W-SW 244 ° 0 min 0,000 mm 0,0 UV-I 0 W/m² -6,0 °C 19,3 km/h (3 Bft)
13.01.2017 22:34 -3,2 °C -3,2 °C 81 % 1007,1 hPa 0,0 mm 11,5 km/h (2 Bft) W-NW 296 ° 0 min 0,000 mm 0,0 UV-I 0 W/m² -6,0 °C 16,1 km/h (3 Bft)
13.01.2017 22:35 -3,2 °C -3,2 °C 81 % 1007,1 hPa 0,0 mm 11,1 km/h (2 Bft) W-SW 253 ° 0 min 0,000 mm 0,0 UV-I 0 W/m² -6,0 °C 16,1 km/h (3 Bft)
13.01.2017 22:36 -3,2 °C -3,2 °C 81 % 1007,0 hPa 0,0 mm 11,1 km/h (2 Bft) W-SW 246 ° 0 min 0,000 mm 0,0 UV-I 0 W/m² -6,0 °C 14,5 km/h (3 Bft)
13.01.2017 22:37 -3,2 °C -3,2 °C 81 % 1007,1 hPa 0,0 mm 7,8 km/h (2 Bft) SW 215 ° 0 min 0,000 mm 0,0 UV-I 0 W/m² -6,0 °C 11,3 km/h (2 Bft)
13.01.2017 22:38 -3,2 °C -3,2 °C 81 % 1007,1 hPa 0,0 mm 8,8 km/h (2 Bft) W-NW 296 ° 0 min 0,000 mm 0,0 UV-I 0 W/m² -6,0 °C 14,5 km/h (3 Bft)
13.01.2017 22:39 -3,2 °C -3,2 °C 81 % 1007,1 hPa 0,0 mm 9,5 km/h (2 Bft) W 270 ° 0 min 0,000 mm 0,0 UV-I 0 W/m² -6,0 °C 14,5 km/h (3 Bft)
13.01.2017 22:40 -3,2 °C -3,2 °C 81 % 1007,1 hPa 0,0 mm 7,6 km/h (2 Bft) W-SW 246 ° 0 min 0,000 mm 0,0 UV-I 0 W/m² -6,0 °C 12,9 km/h (3 Bft)
13.01.2017 22:41 -3,2 °C -3,2 °C 81 % 1007,1 hPa 0,0 mm 6,2 km/h (2 Bft) W-SW 244 ° 0 min 0,000 mm 0,0 UV-I 0 W/m² -6,0 °C 9,7 km/h (2 Bft)
13.01.2017 22:42 -3,2 °C -3,2 °C 82 % 1007,1 hPa 0,0 mm 8,6 km/h (2 Bft) W 278 ° 0 min 0,000 mm 0,0 UV-I 0 W/m² -5,8 °C 12,9 km/h (3 Bft)
13.01.2017 22:43 -3,2 °C -3,2 °C 81 % 1007,1 hPa 0,0 mm 9,3 km/h (2 Bft) W-NW 290 ° 0 min 0,000 mm 0,0 UV-I 0 W/m² -6,0 °C 14,5 km/h (3 Bft)
13.01.2017 22:44 -3,2 °C -3,2 °C 81 % 1007,1 hPa 0,0 mm 7,2 km/h (2 Bft) W 275 ° 0 min 0,000 mm 0,0 UV-I 0 W/m² -6,0 °C 12,9 km/h (3 Bft)
13.01.2017 22:45 -3,2 °C -3,2 °C 81 % 1007,1 hPa 0,0 mm 5,5 km/h (1 Bft) W 260 ° 0 min 0,000 mm 0,0 UV-I 0 W/m² -6,0 °C 6,4 km/h (2 Bft)
13.01.2017 22:46 -3,2 °C -3,2 °C 81 % 1007,1 hPa 0,0 mm 4,4 km/h (1 Bft) W-SW 252 ° 0 min 0,000 mm 0,0 UV-I 0 W/m² -6,0 °C 6,4 km/h (2 Bft)
13.01.2017 22:47 -3,2 °C -3,2 °C 81 % 1007,1 hPa 0,0 mm 9,3 km/h (2 Bft) NW 304 ° 0 min 0,000 mm 0,0 UV-I 0 W/m² -6,0 °C 14,5 km/h (3 Bft)
13.01.2017 22:48 -3,2 °C -3,2 °C 81 % 1007,1 hPa 0,0 mm 8,8 km/h (2 Bft) W-SW 252 ° 0 min 0,000 mm 0,0 UV-I 0 W/m² -6,0 °C 14,5 km/h (3 Bft)
13.01.2017 22:49 -3,2 °C -3,2 °C 81 % 1007,1 hPa 0,0 mm 10,9 km/h (2 Bft) W-NW 289 ° 0 min 0,000 mm 0,0 UV-I 0 W/m² -6,0 °C 14,5 km/h (3 Bft)
13.01.2017 22:50 -3,2 °C -3,2 °C 81 % 1007,1 hPa 0,0 mm 7,0 km/h (2 Bft) W-SW 253 ° 0 min 0,000 mm 0,0 UV-I 0 W/m² -6,0 °C 11,3 km/h (2 Bft)
13.01.2017 22:51 -3,2 °C -3,2 °C 81 % 1007,0 hPa 0,0 mm 4,4 km/h (1 Bft) W-SW 252 ° 0 min 0,000 mm 0,0 UV-I 0 W/m² -6,0 °C 8,0 km/h (2 Bft)
13.01.2017 22:52 -3,2 °C -3,2 °C 81 % 1007,0 hPa 0,0 mm 7,5 km/h (2 Bft) W-NW 284 ° 0 min 0,000 mm 0,0 UV-I 0 W/m² -6,0 °C 11,3 km/h (2 Bft)
13.01.2017 22:53 -3,2 °C -3,2 °C 81 % 1007,0 hPa 0,0 mm 6,1 km/h (2 Bft) W 261 ° 0 min 0,000 mm 0,0 UV-I 0 W/m² -6,0 °C 9,7 km/h (2 Bft)
13.01.2017 22:54 -3,2 °C -3,2 °C 81 % 1007,0 hPa 0,0 mm 9,9 km/h (2 Bft) W-SW 244 ° 0 min 0,000 mm 0,0 UV-I 0 W/m² -6,0 °C 14,5 km/h (3 Bft)
13.01.2017 22:55 -3,2 °C -3,2 °C 81 % 1007,0 hPa 0,0 mm 7,8 km/h (2 Bft) W-SW 252 ° 0 min 0,000 mm 0,0 UV-I 0 W/m² -6,0 °C 12,9 km/h (3 Bft)
13.01.2017 22:56 -3,2 °C -3,2 °C 81 % 1007,1 hPa 0,0 mm 5,9 km/h (2 Bft) W-SW 254 ° 0 min 0,000 mm 0,0 UV-I 0 W/m² -6,0 °C 9,7 km/h (2 Bft)
13.01.2017 22:57 -3,3 °C -3,2 °C 80 % 1007,0 hPa 0,0 mm 10,9 km/h (2 Bft) W-SW 256 ° 0 min 0,000 mm 0,0 UV-I 0 W/m² -6,2 °C 17,7 km/h (3 Bft)
13.01.2017 22:58 -3,3 °C -3,2 °C 80 % 1007,0 hPa 0,0 mm 3,8 km/h (1 Bft) W-NW 288 ° 0 min 0,000 mm 0,0 UV-I 0 W/m² -6,2 °C 8,0 km/h (2 Bft)
13.01.2017 22:59 -3,3 °C -3,3 °C 80 % 1007,0 hPa 0,0 mm 10,3 km/h (2 Bft) W-SW 251 ° 0 min 0,000 mm 0,0 UV-I 0 W/m² -6,2 °C 14,5 km/h (3 Bft)
13.01.2017 23:00 -3,3 °C -3,3 °C 80 % 1007,0 hPa 0,0 mm 7,6 km/h (2 Bft) W 266 ° 0 min 0,000 mm 0,0 UV-I 0 W/m² -6,2 °C 14,5 km/h (3 Bft)
13.01.2017 23:01 -3,3 °C -3,3 °C 80 % 1007,0 hPa 0,0 mm 7,1 km/h (2 Bft) W 259 ° 0 min 0,025 mm 0,0 UV-I 0 W/m² -6,2 °C 11,3 km/h (2 Bft)
13.01.2017 23:02 -3,3 °C -3,3 °C 80 % 1007,0 hPa 0,0 mm 9,1 km/h (2 Bft) W 261 ° 0 min 0,000 mm 0,0 UV-I 0 W/m² -6,2 °C 16,1 km/h (3 Bft)
13.01.2017 23:03 -3,3 °C -3,3 °C 79 % 1007,1 hPa 0,0 mm 10,7 km/h (2 Bft) SW 235 ° 0 min 0,000 mm 0,0 UV-I 0 W/m² -6,4 °C 20,9 km/h (4 Bft)
13.01.2017 23:04 -3,3 °C -3,3 °C 80 % 1007,0 hPa 0,0 mm 5,4 km/h (1 Bft) W-SW 255 ° 0 min 0,000 mm 0,0 UV-I 0 W/m² -6,2 °C 9,7 km/h (2 Bft)
13.01.2017 23:05 -3,3 °C -3,3 °C 80 % 1007,1 hPa 0,0 mm 7,4 km/h (2 Bft) SW 225 ° 0 min 0,000 mm 0,0 UV-I 0 W/m² -6,2 °C 11,3 km/h (2 Bft)
13.01.2017 23:06 -3,3 °C -3,3 °C 79 % 1007,1 hPa 0,0 mm 7,2 km/h (2 Bft) SW 235 ° 0 min 0,000 mm 0,0 UV-I 0 W/m² -6,4 °C 12,9 km/h (3 Bft)
13.01.2017 23:07 -3,3 °C -3,3 °C 79 % 1007,1 hPa 0,0 mm 9,4 km/h (2 Bft) W 261 ° 0 min 0,000 mm 0,0 UV-I 0 W/m² -6,4 °C 14,5 km/h (3 Bft)
13.01.2017 23:08 -3,3 °C -3,3 °C 79 % 1007,1 hPa 0,0 mm 9,9 km/h (2 Bft) W 260 ° 0 min 0,000 mm 0,0 UV-I 0 W/m² -6,4 °C 16,1 km/h (3 Bft)
13.01.2017 23:09 -3,3 °C -3,3 °C 79 % 1007,1 hPa 0,0 mm 9,1 km/h (2 Bft) W 263 ° 0 min 0,000 mm 0,0 UV-I 0 W/m² -6,4 °C 12,9 km/h (3 Bft)
13.01.2017 23:10 -3,3 °C -3,3 °C 79 % 1007,1 hPa 0,0 mm 6,5 km/h (2 Bft) W 266 ° 0 min 0,000 mm 0,0 UV-I 0 W/m² -6,4 °C 9,7 km/h (2 Bft)
13.01.2017 23:11 -3,3 °C -3,3 °C 79 % 1007,1 hPa 0,0 mm 4,7 km/h (1 Bft) W-SW 252 ° 0 min 0,000 mm 0,0 UV-I 0 W/m² -6,4 °C 6,4 km/h (2 Bft)
13.01.2017 23:12 -3,3 °C -3,3 °C 79 % 1007,0 hPa 0,0 mm 8,7 km/h (2 Bft) W-SW 257 ° 0 min 0,000 mm 0,0 UV-I 0 W/m² -6,4 °C 12,9 km/h (3 Bft)
13.01.2017 23:13 -3,3 °C -3,3 °C 79 % 1007,0 hPa 0,0 mm 8,0 km/h (2 Bft) W 261 ° 0 min 0,000 mm 0,0 UV-I 0 W/m² -6,4 °C 12,9 km/h (3 Bft)
13.01.2017 23:14 -3,3 °C -3,3 °C 80 % 1007,1 hPa 0,0 mm 9,9 km/h (2 Bft) W 262 ° 0 min 0,000 mm 0,0 UV-I 0 W/m² -6,2 °C 14,5 km/h (3 Bft)
13.01.2017 23:15 -3,3 °C -3,3 °C 80 % 1007,1 hPa 0,0 mm 6,1 km/h (2 Bft) W 261 ° 0 min 0,000 mm 0,0 UV-I 0 W/m² -6,2 °C 8,0 km/h (2 Bft)
13.01.2017 23:16 -3,3 °C -3,3 °C 80 % 1007,1 hPa 0,0 mm 6,8 km/h (2 Bft) W 267 ° 0 min 0,000 mm 0,0 UV-I 0 W/m² -6,2 °C 11,3 km/h (2 Bft)
13.01.2017 23:17 -3,3 °C -3,3 °C 79 % 1007,1 hPa 0,0 mm 9,0 km/h (2 Bft) W 278 ° 0 min 0,000 mm 0,0 UV-I 0 W/m² -6,4 °C 11,3 km/h (2 Bft)
13.01.2017 23:18 -3,3 °C -3,3 °C 79 % 1007,1 hPa 0,0 mm 7,6 km/h (2 Bft) W 262 ° 0 min 0,000 mm 0,0 UV-I 0 W/m² -6,4 °C 12,9 km/h (3 Bft)
13.01.2017 23:19 -3,3 °C -3,3 °C 79 % 1007,1 hPa 0,0 mm 10,7 km/h (2 Bft) W-SW 248 ° 0 min 0,000 mm 0,0 UV-I 0 W/m² -6,4 °C 17,7 km/h (3 Bft)
13.01.2017 23:20 -3,3 °C -3,3 °C 79 % 1007,1 hPa 0,0 mm 5,0 km/h (1 Bft) W-SW 247 ° 0 min 0,000 mm 0,0 UV-I 0 W/m² -6,4 °C 6,4 km/h (2 Bft)
13.01.2017 23:21 -3,3 °C -3,3 °C 79 % 1007,1 hPa 0,0 mm 4,8 km/h (1 Bft) W-SW 253 ° 0 min 0,000 mm 0,0 UV-I 0 W/m² -6,4 °C 8,0 km/h (2 Bft)
13.01.2017 23:22 -3,3 °C -3,3 °C 79 % 1007,1 hPa 0,0 mm 5,5 km/h (1 Bft) SW 236 ° 0 min 0,000 mm 0,0 UV-I 0 W/m² -6,4 °C 8,0 km/h (2 Bft)
13.01.2017 23:23 -3,3 °C -3,3 °C 79 % 1007,1 hPa 0,0 mm 7,2 km/h (2 Bft) W-SW 254 ° 0 min 0,000 mm 0,0 UV-I 0 W/m² -6,4 °C 11,3 km/h (2 Bft)
13.01.2017 23:24 -3,3 °C -3,3 °C 79 % 1007,1 hPa 0,0 mm 5,3 km/h (1 Bft) W-SW 248 ° 0 min 0,000 mm 0,0 UV-I 0 W/m² -6,4 °C 9,7 km/h (2 Bft)
13.01.2017 23:25 -3,3 °C -3,3 °C 79 % 1007,1 hPa 0,0 mm 3,7 km/h (1 Bft) W-SW 248 ° 0 min 0,000 mm 0,0 UV-I 0 W/m² -6,4 °C 6,4 km/h (2 Bft)
13.01.2017 23:26 -3,3 °C -3,3 °C 78 % 1007,0 hPa 0,0 mm 4,0 km/h (1 Bft) W-SW 249 ° 0 min 0,000 mm 0,0 UV-I 0 W/m² -6,6 °C 4,8 km/h (1 Bft)
13.01.2017 23:27 -3,3 °C -3,3 °C 78 % 1007,1 hPa 0,0 mm 6,9 km/h (2 Bft) SW 231 ° 0 min 0,000 mm 0,0 UV-I 0 W/m² -6,6 °C 9,7 km/h (2 Bft)
13.01.2017 23:28 -3,4 °C -3,3 °C 78 % 1007,0 hPa 0,0 mm 4,0 km/h (1 Bft) W-SW 242 ° 0 min 0,000 mm 0,0 UV-I 0 W/m² -6,7 °C 6,4 km/h (2 Bft)
13.01.2017 23:29 -3,4 °C -3,4 °C 78 % 1007,0 hPa 0,0 mm 3,5 km/h (1 Bft) W-SW 252 ° 0 min 0,000 mm 0,0 UV-I 0 W/m² -6,7 °C 4,8 km/h (1 Bft)
13.01.2017 23:30 -3,4 °C -3,4 °C 77 % 1007,1 hPa 0,0 mm 5,3 km/h (1 Bft) W-SW 250 ° 0 min 0,000 mm 0,0 UV-I 0 W/m² -6,8 °C 6,4 km/h (2 Bft)
13.01.2017 23:31 -3,4 °C -3,4 °C 78 % 1007,1 hPa 0,0 mm 4,4 km/h (1 Bft) W 280 ° 0 min 0,000 mm 0,0 UV-I 0 W/m² -6,7 °C 6,4 km/h (2 Bft)
13.01.2017 23:32 -3,4 °C -3,4 °C 78 % 1007,2 hPa 0,0 mm 3,5 km/h (1 Bft) W-SW 254 ° 0 min 0,000 mm 0,0 UV-I 0 W/m² -6,7 °C 6,4 km/h (2 Bft)
13.01.2017 23:33 -3,4 °C -3,4 °C 78 % 1007,2 hPa 0,0 mm 3,2 km/h (1 Bft) W-SW 254 ° 0 min 0,000 mm 0,0 UV-I 0 W/m² -6,7 °C 4,8 km/h (1 Bft)
13.01.2017 23:34 -3,4 °C -3,4 °C 78 % 1007,2 hPa 0,0 mm 1,0 km/h (0 Bft) W-SW 254 ° 0 min 0,000 mm 0,0 UV-I 0 W/m² -6,7 °C 1,6 km/h (1 Bft)
13.01.2017 23:35 -3,4 °C -3,4 °C 78 % 1007,2 hPa 0,0 mm 1,8 km/h (1 Bft) W-SW 254 ° 0 min 0,000 mm 0,0 UV-I 0 W/m² -6,7 °C 4,8 km/h (1 Bft)
13.01.2017 23:36 -3,5 °C -3,4 °C 78 % 1007,3 hPa 0,0 mm 2,5 km/h (1 Bft) W-SW 254 ° 0 min 0,000 mm 0,0 UV-I 0 W/m² -6,8 °C 3,2 km/h (1 Bft)
13.01.2017 23:37 -3,5 °C -3,4 °C 78 % 1007,3 hPa 0,0 mm 2,7 km/h (1 Bft) W 262 ° 0 min 0,000 mm 0,0 UV-I 0 W/m² -6,8 °C 4,8 km/h (1 Bft)
13.01.2017 23:38 -3,5 °C -3,4 °C 78 % 1007,3 hPa 0,0 mm 4,5 km/h (1 Bft) SW 224 ° 0 min 0,000 mm 0,0 UV-I 0 W/m² -6,8 °C 8,0 km/h (2 Bft)
13.01.2017 23:39 -3,6 °C -3,5 °C 78 % 1007,3 hPa 0,0 mm 6,2 km/h (2 Bft) W-SW 252 ° 0 min 0,000 mm 0,0 UV-I 0 W/m² -6,9 °C 8,0 km/h (2 Bft)
13.01.2017 23:40 -3,5 °C -3,5 °C 78 % 1007,3 hPa 0,0 mm 4,1 km/h (1 Bft) SW 235 ° 0 min 0,000 mm 0,0 UV-I 0 W/m² -6,8 °C 6,4 km/h (2 Bft)
13.01.2017 23:41 -3,5 °C -3,5 °C 78 % 1007,3 hPa 0,0 mm 3,4 km/h (1 Bft) SW 223 ° 0 min 0,000 mm 0,0 UV-I 0 W/m² -6,8 °C 4,8 km/h (1 Bft)
13.01.2017 23:42 -3,6 °C -3,5 °C 78 % 1007,3 hPa 0,0 mm 2,7 km/h (1 Bft) SW 222 ° 0 min 0,000 mm 0,0 UV-I 0 W/m² -6,9 °C 3,2 km/h (1 Bft)
13.01.2017 23:43 -3,6 °C -3,6 °C 78 % 1007,2 hPa 0,0 mm 3,1 km/h (1 Bft) SW 222 ° 0 min 0,000 mm 0,0 UV-I 0 W/m² -6,9 °C 4,8 km/h (1 Bft)
13.01.2017 23:44 -3,6 °C -3,5 °C 78 % 1007,2 hPa 0,0 mm 3,5 km/h (1 Bft) SW 222 ° 0 min 0,000 mm 0,0 UV-I 0 W/m² -6,9 °C 6,4 km/h (2 Bft)
13.01.2017 23:45 -3,6 °C -3,6 °C 78 % 1007,3 hPa 0,0 mm 4,1 km/h (1 Bft) SW 224 ° 0 min 0,000 mm 0,0 UV-I 0 W/m² -6,9 °C 6,4 km/h (2 Bft)
13.01.2017 23:46 -3,6 °C -3,6 °C 78 % 1007,3 hPa 0,0 mm 6,3 km/h (2 Bft) S-SW 209 ° 0 min 0,000 mm 0,0 UV-I 0 W/m² -6,9 °C 8,0 km/h (2 Bft)
13.01.2017 23:47 -3,6 °C -3,6 °C 78 % 1007,3 hPa 0,0 mm 5,8 km/h (2 Bft) S-SW 209 ° 0 min 0,000 mm 0,0 UV-I 0 W/m² -6,9 °C 8,0 km/h (2 Bft)
13.01.2017 23:48 -3,6 °C -3,6 °C 78 % 1007,3 hPa 0,0 mm 4,5 km/h (1 Bft) SW 230 ° 0 min 0,000 mm 0,0 UV-I 0 W/m² -6,9 °C 6,4 km/h (2 Bft)
13.01.2017 23:49 -3,6 °C -3,6 °C 78 % 1007,2 hPa 0,0 mm 4,8 km/h (1 Bft) W-SW 253 ° 0 min 0,000 mm 0,0 UV-I 0 W/m² -6,9 °C 8,0 km/h (2 Bft)
13.01.2017 23:50 -3,6 °C -3,6 °C 78 % 1007,3 hPa 0,0 mm 7,1 km/h (2 Bft) SW 228 ° 0 min 0,000 mm 0,0 UV-I 0 W/m² -6,9 °C 12,9 km/h (3 Bft)
13.01.2017 23:51 -3,6 °C -3,6 °C 78 % 1007,3 hPa 0,0 mm 5,4 km/h (1 Bft) S-SW 198 ° 0 min 0,000 mm 0,0 UV-I 0 W/m² -6,9 °C 6,4 km/h (2 Bft)
13.01.2017 23:52 -3,7 °C -3,6 °C 78 % 1007,4 hPa 0,0 mm 5,7 km/h (1 Bft) S-SW 213 ° 0 min 0,000 mm 0,0 UV-I 0 W/m² -7,0 °C 8,0 km/h (2 Bft)
13.01.2017 23:53 -3,7 °C -3,6 °C 78 % 1007,3 hPa 0,0 mm 4,7 km/h (1 Bft) S-SW 205 ° 0 min 0,000 mm 0,0 UV-I 0 W/m² -7,0 °C 6,4 km/h (2 Bft)
13.01.2017 23:54 -3,7 °C -3,7 °C 78 % 1007,4 hPa 0,0 mm 4,2 km/h (1 Bft) SW 217 ° 0 min 0,000 mm 0,0 UV-I 0 W/m² -7,0 °C 9,7 km/h (2 Bft)
13.01.2017 23:55 -3,7 °C -3,7 °C 78 % 1007,3 hPa 0,0 mm 4,3 km/h (1 Bft) SW 215 ° 0 min 0,000 mm 0,0 UV-I 0 W/m² -7,0 °C 6,4 km/h (2 Bft)
13.01.2017 23:56 -3,7 °C -3,7 °C 78 % 1007,3 hPa 0,0 mm 5,4 km/h (1 Bft) W-SW 239 ° 0 min 0,000 mm 0,0 UV-I 0 W/m² -7,0 °C 8,0 km/h (2 Bft)
13.01.2017 23:57 -3,7 °C -3,7 °C 78 % 1007,4 hPa 0,0 mm 6,2 km/h (2 Bft) S-SW 209 ° 0 min 0,000 mm 0,0 UV-I 0 W/m² -7,0 °C 9,7 km/h (2 Bft)
13.01.2017 23:58 -3,7 °C -3,7 °C 78 % 1007,4 hPa 0,0 mm 4,9 km/h (1 Bft) W-SW 251 ° 0 min 0,000 mm 0,0 UV-I 0 W/m² -7,0 °C 8,0 km/h (2 Bft)
13.01.2017 23:59 -3,7 °C -3,7 °C 78 % 1007,4 hPa 0,0 mm 4,2 km/h (1 Bft) SW 231 ° 0 min 0,000 mm 0,0 UV-I 0 W/m² -7,0 °C 6,4 km/h (2 Bft)
_ Min-Zeit 18:15 18:11 12:46 02:15 - 01:37 - - - - - - 23:59 01:37
Minimum _ -3,8 °C -3,8 °C 70 % 995,0 hPa - 0,0 km/h (0 Bft) - - - - - - -7,0 °C 0,0 km/h (0 Bft)
_ Max-Zeit 04:57 04:58 02:37 23:59 04:23 03:55 - - 23:59 15:00 12:32 12:31 02:37 03:55
Maximum _ 2,7 °C 2,7 °C 97 % 1007,4 hPa 0,2 mm 48,7 km/h
W-SW (6 Bft)
- - 0 min 0,051 mm 1,0 UV-I 148 W/m² 2,0 °C 70,8 km/h
W (8 Bft)
Durchschnitt _ -1,0 °C -1,0 °C 83 % 1002,4 hPa #3,0 mm 15,6 km/h (3 Bft) W-SW - #0 min. #0,584 mm 0,6 UV-I 24 W/m² -3,6 °C 23,8 km/h (4 Bft)